<?xml version="1.0" encoding="utf-8"?>
<gpx xmlns:xsi="http://www.w3.org/2001/XMLSchema-instance" xmlns:xsd="http://www.w3.org/2001/XMLSchema" version="1.1" creator="Shapelink.com" xmlns="http://www.topografix.com/GPX/1/1" xmlns:gpxtpx="http://www.garmin.com/xmlschemas/TrackPointExtension/v1">
  <metadata>
    <name>Löpning 8.88 km, 2018-03-24</name>
    <desc></desc>
    <author><name>Bengt-Åke Forslund</name></author> 
    <time>2018-03-24T10:14:18Z</time>
  </metadata>
  <trk>
    <name>Löpning 8.88 km, 2018-03-24</name>
    <trkseg>
      <trkpt lat="62.635994518295" lon="17.967917853929">
        <ele>222</ele>
        <time>2018-03-24T10:14:18Z</time>
      </trkpt>
      <trkpt lat="62.635997954874" lon="17.967946352389">
        <ele>222</ele>
        <time>2018-03-24T10:14:19Z</time>
      </trkpt>
      <trkpt lat="62.636002732557" lon="17.967975689039">
        <ele>216.8</ele>
        <time>2018-03-24T10:14:20Z</time>
      </trkpt>
      <trkpt lat="62.636003989842" lon="17.968020532204">
        <ele>212</ele>
        <time>2018-03-24T10:14:21Z</time>
      </trkpt>
      <trkpt lat="62.636016227416" lon="17.968047773379">
        <ele>212.4</ele>
        <time>2018-03-24T10:14:22Z</time>
      </trkpt>
      <trkpt lat="62.636023938764" lon="17.968102591005">
        <ele>212.2</ele>
        <time>2018-03-24T10:14:23Z</time>
      </trkpt>
      <trkpt lat="62.636037182166" lon="17.968131173284">
        <ele>212</ele>
        <time>2018-03-24T10:14:24Z</time>
      </trkpt>
      <trkpt lat="62.636045815523" lon="17.968178028105">
        <ele>212</ele>
        <time>2018-03-24T10:14:25Z</time>
      </trkpt>
      <trkpt lat="62.636058556011" lon="17.968210633696">
        <ele>212</ele>
        <time>2018-03-24T10:14:26Z</time>
      </trkpt>
      <trkpt lat="62.636066015902" lon="17.968260757458">
        <ele>212.2</ele>
        <time>2018-03-24T10:14:27Z</time>
      </trkpt>
      <trkpt lat="62.636080348951" lon="17.968293027773">
        <ele>212.2</ele>
        <time>2018-03-24T10:14:28Z</time>
      </trkpt>
      <trkpt lat="62.636085964824" lon="17.968323537889">
        <ele>212.2</ele>
        <time>2018-03-24T10:14:29Z</time>
      </trkpt>
      <trkpt lat="62.636102309529" lon="17.968363184276">
        <ele>212.4</ele>
        <time>2018-03-24T10:14:30Z</time>
      </trkpt>
      <trkpt lat="62.636110104696" lon="17.968398388256">
        <ele>212.4</ele>
        <time>2018-03-24T10:14:31Z</time>
      </trkpt>
      <trkpt lat="62.636133406378" lon="17.968419343006">
        <ele>212.4</ele>
        <time>2018-03-24T10:14:32Z</time>
      </trkpt>
      <trkpt lat="62.636146985056" lon="17.968443985792">
        <ele>212.6</ele>
        <time>2018-03-24T10:14:33Z</time>
      </trkpt>
      <trkpt lat="62.636163078304" lon="17.968475837012">
        <ele>212.6</ele>
        <time>2018-03-24T10:14:34Z</time>
      </trkpt>
      <trkpt lat="62.636186379986" lon="17.968502910549">
        <ele>212.8</ele>
        <time>2018-03-24T10:14:35Z</time>
      </trkpt>
      <trkpt lat="62.636200042483" lon="17.968528307706">
        <ele>212.8</ele>
        <time>2018-03-24T10:14:36Z</time>
      </trkpt>
      <trkpt lat="62.636220745776" lon="17.968549513913">
        <ele>212.8</ele>
        <time>2018-03-24T10:14:37Z</time>
      </trkpt>
      <trkpt lat="62.636240024146" lon="17.968549430094">
        <ele>212.8</ele>
        <time>2018-03-24T10:14:38Z</time>
      </trkpt>
      <trkpt lat="62.636271456271" lon="17.96857574926">
        <ele>212.8</ele>
        <time>2018-03-24T10:14:39Z</time>
      </trkpt>
      <trkpt lat="62.636291489012" lon="17.96858580754">
        <ele>212.8</ele>
        <time>2018-03-24T10:14:40Z</time>
      </trkpt>
      <trkpt lat="62.636325603345" lon="17.968607684299">
        <ele>212.8</ele>
        <time>2018-03-24T10:14:41Z</time>
      </trkpt>
      <trkpt lat="62.636351671054" lon="17.968616401475">
        <ele>212.8</ele>
        <time>2018-03-24T10:14:42Z</time>
      </trkpt>
      <trkpt lat="62.636379247505" lon="17.968659149165">
        <ele>212.8</ele>
        <time>2018-03-24T10:14:43Z</time>
      </trkpt>
      <trkpt lat="62.636400369893" lon="17.968687815263">
        <ele>212.8</ele>
        <time>2018-03-24T10:14:44Z</time>
      </trkpt>
      <trkpt lat="62.636423923032" lon="17.968734502446">
        <ele>212.8</ele>
        <time>2018-03-24T10:14:45Z</time>
      </trkpt>
      <trkpt lat="62.636439513366" lon="17.968763336182">
        <ele>212.8</ele>
        <time>2018-03-24T10:14:46Z</time>
      </trkpt>
      <trkpt lat="62.636458372641" lon="17.968805832415">
        <ele>213</ele>
        <time>2018-03-24T10:14:47Z</time>
      </trkpt>
      <trkpt lat="62.636480165581" lon="17.968859811851">
        <ele>213</ele>
        <time>2018-03-24T10:14:48Z</time>
      </trkpt>
      <trkpt lat="62.636493744259" lon="17.968887220664">
        <ele>213.2</ele>
        <time>2018-03-24T10:14:49Z</time>
      </trkpt>
      <trkpt lat="62.636517381217" lon="17.968949079086">
        <ele>213.2</ele>
        <time>2018-03-24T10:14:50Z</time>
      </trkpt>
      <trkpt lat="62.636535905216" lon="17.968975482071">
        <ele>213.2</ele>
        <time>2018-03-24T10:14:51Z</time>
      </trkpt>
      <trkpt lat="62.636551160274" lon="17.969023091263">
        <ele>213.2</ele>
        <time>2018-03-24T10:14:52Z</time>
      </trkpt>
      <trkpt lat="62.636567588798" lon="17.969058714338">
        <ele>213.4</ele>
        <time>2018-03-24T10:14:53Z</time>
      </trkpt>
      <trkpt lat="62.636586028978" lon="17.969122416778">
        <ele>213.4</ele>
        <time>2018-03-24T10:14:54Z</time>
      </trkpt>
      <trkpt lat="62.636605055891" lon="17.969168014314">
        <ele>213.4</ele>
        <time>2018-03-24T10:14:55Z</time>
      </trkpt>
      <trkpt lat="62.636621987329" lon="17.969230208012">
        <ele>213.4</ele>
        <time>2018-03-24T10:14:56Z</time>
      </trkpt>
      <trkpt lat="62.636638248215" lon="17.969276643738">
        <ele>213.6</ele>
        <time>2018-03-24T10:14:57Z</time>
      </trkpt>
      <trkpt lat="62.636648306495" lon="17.969322744188">
        <ele>213.6</ele>
        <time>2018-03-24T10:14:58Z</time>
      </trkpt>
      <trkpt lat="62.636661968992" lon="17.969373789959">
        <ele>213.6</ele>
        <time>2018-03-24T10:14:59Z</time>
      </trkpt>
      <trkpt lat="62.636680660629" lon="17.969422404979">
        <ele>213.6</ele>
        <time>2018-03-24T10:15:00Z</time>
      </trkpt>
      <trkpt lat="62.636691221823" lon="17.969483089935">
        <ele>213.6</ele>
        <time>2018-03-24T10:15:01Z</time>
      </trkpt>
      <trkpt lat="62.636706225424" lon="17.969519048286">
        <ele>213.6</ele>
        <time>2018-03-24T10:15:02Z</time>
      </trkpt>
      <trkpt lat="62.63671661898" lon="17.969584343287">
        <ele>213.6</ele>
        <time>2018-03-24T10:15:03Z</time>
      </trkpt>
      <trkpt lat="62.636727431631" lon="17.969627593891">
        <ele>213.6</ele>
        <time>2018-03-24T10:15:04Z</time>
      </trkpt>
      <trkpt lat="62.636738663377" lon="17.969681573327">
        <ele>213.6</ele>
        <time>2018-03-24T10:15:05Z</time>
      </trkpt>
      <trkpt lat="62.636746877639" lon="17.969732367641">
        <ele>213.6</ele>
        <time>2018-03-24T10:15:06Z</time>
      </trkpt>
      <trkpt lat="62.636757941747" lon="17.969767320164">
        <ele>213.8</ele>
        <time>2018-03-24T10:15:07Z</time>
      </trkpt>
      <trkpt lat="62.636768083846" lon="17.969822892161">
        <ele>213.8</ele>
        <time>2018-03-24T10:15:08Z</time>
      </trkpt>
      <trkpt lat="62.63678115961" lon="17.969849211327">
        <ele>214</ele>
        <time>2018-03-24T10:15:09Z</time>
      </trkpt>
      <trkpt lat="62.636790295881" lon="17.969906962618">
        <ele>214</ele>
        <time>2018-03-24T10:15:10Z</time>
      </trkpt>
      <trkpt lat="62.636810412441" lon="17.969937472734">
        <ele>214</ele>
        <time>2018-03-24T10:15:11Z</time>
      </trkpt>
      <trkpt lat="62.636837402159" lon="17.969996229853">
        <ele>214</ele>
        <time>2018-03-24T10:15:12Z</time>
      </trkpt>
      <trkpt lat="62.636858859823" lon="17.970032272023">
        <ele>214</ele>
        <time>2018-03-24T10:15:13Z</time>
      </trkpt>
      <trkpt lat="62.636873192872" lon="17.970061524854">
        <ele>214</ele>
        <time>2018-03-24T10:15:14Z</time>
      </trkpt>
      <trkpt lat="62.636896494554" lon="17.970101925612">
        <ele>213.8</ele>
        <time>2018-03-24T10:15:15Z</time>
      </trkpt>
      <trkpt lat="62.636914096544" lon="17.970124305285">
        <ele>213.8</ele>
        <time>2018-03-24T10:15:16Z</time>
      </trkpt>
      <trkpt lat="62.63694209209" lon="17.970160431274">
        <ele>213.8</ele>
        <time>2018-03-24T10:15:17Z</time>
      </trkpt>
      <trkpt lat="62.636962711564" lon="17.970171914477">
        <ele>213.8</ele>
        <time>2018-03-24T10:15:18Z</time>
      </trkpt>
      <trkpt lat="62.636991964395" lon="17.970193707417">
        <ele>213.8</ele>
        <time>2018-03-24T10:15:19Z</time>
      </trkpt>
      <trkpt lat="62.637017613009" lon="17.970204939163">
        <ele>213.8</ele>
        <time>2018-03-24T10:15:20Z</time>
      </trkpt>
      <trkpt lat="62.637056337387" lon="17.970203011326">
        <ele>213.8</ele>
        <time>2018-03-24T10:15:21Z</time>
      </trkpt>
      <trkpt lat="62.637091206091" lon="17.970208459561">
        <ele>213.8</ele>
        <time>2018-03-24T10:15:22Z</time>
      </trkpt>
      <trkpt lat="62.637127918813" lon="17.970198736557">
        <ele>213.6</ele>
        <time>2018-03-24T10:15:23Z</time>
      </trkpt>
      <trkpt lat="62.637157004006" lon="17.97018675044">
        <ele>213.4</ele>
        <time>2018-03-24T10:15:24Z</time>
      </trkpt>
      <trkpt lat="62.637195644565" lon="17.97016328112">
        <ele>213.2</ele>
        <time>2018-03-24T10:15:25Z</time>
      </trkpt>
      <trkpt lat="62.637233446934" lon="17.970143667474">
        <ele>213</ele>
        <time>2018-03-24T10:15:26Z</time>
      </trkpt>
      <trkpt lat="62.637275607891" lon="17.970123299457">
        <ele>212.8</ele>
        <time>2018-03-24T10:15:27Z</time>
      </trkpt>
      <trkpt lat="62.637313326441" lon="17.970100584508">
        <ele>212.6</ele>
        <time>2018-03-24T10:15:28Z</time>
      </trkpt>
      <trkpt lat="62.637349368611" lon="17.970074684437">
        <ele>212.2</ele>
        <time>2018-03-24T10:15:29Z</time>
      </trkpt>
      <trkpt lat="62.637395385242" lon="17.970062614501">
        <ele>212</ele>
        <time>2018-03-24T10:15:30Z</time>
      </trkpt>
      <trkpt lat="62.637437630018" lon="17.970054232601">
        <ele>211.4</ele>
        <time>2018-03-24T10:15:31Z</time>
      </trkpt>
      <trkpt lat="62.637483311373" lon="17.970042162665">
        <ele>211.4</ele>
        <time>2018-03-24T10:15:32Z</time>
      </trkpt>
      <trkpt lat="62.637521029923" lon="17.97004509633">
        <ele>211.2</ele>
        <time>2018-03-24T10:15:33Z</time>
      </trkpt>
      <trkpt lat="62.637555060437" lon="17.970064290881">
        <ele>211.2</ele>
        <time>2018-03-24T10:15:34Z</time>
      </trkpt>
      <trkpt lat="62.637594120091" lon="17.970116929213">
        <ele>211</ele>
        <time>2018-03-24T10:15:35Z</time>
      </trkpt>
      <trkpt lat="62.637620439257" lon="17.970171076287">
        <ele>211.2</ele>
        <time>2018-03-24T10:15:36Z</time>
      </trkpt>
      <trkpt lat="62.637644243853" lon="17.970222708791">
        <ele>211.4</ele>
        <time>2018-03-24T10:15:37Z</time>
      </trkpt>
      <trkpt lat="62.637669054277" lon="17.970297475339">
        <ele>211.4</ele>
        <time>2018-03-24T10:15:38Z</time>
      </trkpt>
      <trkpt lat="62.637691517769" lon="17.970344497798">
        <ele>211.6</ele>
        <time>2018-03-24T10:15:39Z</time>
      </trkpt>
      <trkpt lat="62.637711382872" lon="17.970423036201">
        <ele>211.6</ele>
        <time>2018-03-24T10:15:40Z</time>
      </trkpt>
      <trkpt lat="62.637729487776" lon="17.970493192704">
        <ele>211.4</ele>
        <time>2018-03-24T10:15:41Z</time>
      </trkpt>
      <trkpt lat="62.637745245748" lon="17.970565444682">
        <ele>211.4</ele>
        <time>2018-03-24T10:15:42Z</time>
      </trkpt>
      <trkpt lat="62.637766451955" lon="17.970617663919">
        <ele>211.4</ele>
        <time>2018-03-24T10:15:43Z</time>
      </trkpt>
      <trkpt lat="62.637772486923" lon="17.970662507084">
        <ele>211.2</ele>
        <time>2018-03-24T10:15:44Z</time>
      </trkpt>
      <trkpt lat="62.637791010922" lon="17.97073576489">
        <ele>211.4</ele>
        <time>2018-03-24T10:15:45Z</time>
      </trkpt>
      <trkpt lat="62.637802494125" lon="17.970780021322">
        <ele>211.4</ele>
        <time>2018-03-24T10:15:46Z</time>
      </trkpt>
      <trkpt lat="62.637812887681" lon="17.970841041554">
        <ele>211.6</ele>
        <time>2018-03-24T10:15:47Z</time>
      </trkpt>
      <trkpt lat="62.637816156622" lon="17.970895188628">
        <ele>211.6</ele>
        <time>2018-03-24T10:15:48Z</time>
      </trkpt>
      <trkpt lat="62.637826466359" lon="17.970938103956">
        <ele>211.8</ele>
        <time>2018-03-24T10:15:49Z</time>
      </trkpt>
      <trkpt lat="62.637835770268" lon="17.971007673726">
        <ele>212</ele>
        <time>2018-03-24T10:15:50Z</time>
      </trkpt>
      <trkpt lat="62.637848594575" lon="17.971048661217">
        <ele>212.2</ele>
        <time>2018-03-24T10:15:51Z</time>
      </trkpt>
      <trkpt lat="62.637857479389" lon="17.9711204941">
        <ele>212.2</ele>
        <time>2018-03-24T10:15:52Z</time>
      </trkpt>
      <trkpt lat="62.637874829922" lon="17.971176988106">
        <ele>212.2</ele>
        <time>2018-03-24T10:15:53Z</time>
      </trkpt>
      <trkpt lat="62.637883882374" lon="17.971227447144">
        <ele>212.2</ele>
        <time>2018-03-24T10:15:54Z</time>
      </trkpt>
      <trkpt lat="62.637896706681" lon="17.971296262543">
        <ele>212.2</ele>
        <time>2018-03-24T10:15:55Z</time>
      </trkpt>
      <trkpt lat="62.637904753305" lon="17.971331215066">
        <ele>212.4</ele>
        <time>2018-03-24T10:15:56Z</time>
      </trkpt>
      <trkpt lat="62.637912464653" lon="17.971403047949">
        <ele>212.6</ele>
        <time>2018-03-24T10:15:57Z</time>
      </trkpt>
      <trkpt lat="62.637924366951" lon="17.971438335748">
        <ele>212.6</ele>
        <time>2018-03-24T10:15:58Z</time>
      </trkpt>
      <trkpt lat="62.6379303181" lon="17.971490471166">
        <ele>212.8</ele>
        <time>2018-03-24T10:15:59Z</time>
      </trkpt>
      <trkpt lat="62.637936269249" lon="17.971544031507">
        <ele>212.8</ele>
        <time>2018-03-24T10:16:00Z</time>
      </trkpt>
      <trkpt lat="62.637945656977" lon="17.971577642926">
        <ele>212.8</ele>
        <time>2018-03-24T10:16:01Z</time>
      </trkpt>
      <trkpt lat="62.63795043466" lon="17.971647464153">
        <ele>212.8</ele>
        <time>2018-03-24T10:16:02Z</time>
      </trkpt>
      <trkpt lat="62.637960073845" lon="17.971679483011">
        <ele>212.8</ele>
        <time>2018-03-24T10:16:03Z</time>
      </trkpt>
      <trkpt lat="62.637967449917" lon="17.971751483532">
        <ele>212.8</ele>
        <time>2018-03-24T10:16:04Z</time>
      </trkpt>
      <trkpt lat="62.637977340559" lon="17.971802529303">
        <ele>212.8</ele>
        <time>2018-03-24T10:16:05Z</time>
      </trkpt>
      <trkpt lat="62.637975747998" lon="17.971880648611">
        <ele>213</ele>
        <time>2018-03-24T10:16:06Z</time>
      </trkpt>
      <trkpt lat="62.637982956432" lon="17.971934460409">
        <ele>212.8</ele>
        <time>2018-03-24T10:16:07Z</time>
      </trkpt>
      <trkpt lat="62.637986560649" lon="17.971975112624">
        <ele>213</ele>
        <time>2018-03-24T10:16:08Z</time>
      </trkpt>
      <trkpt lat="62.637992679436" lon="17.972046861688">
        <ele>213</ele>
        <time>2018-03-24T10:16:09Z</time>
      </trkpt>
      <trkpt lat="62.637996367472" lon="17.972099667658">
        <ele>213</ele>
        <time>2018-03-24T10:16:10Z</time>
      </trkpt>
      <trkpt lat="62.637993014712" lon="17.972177116414">
        <ele>213</ele>
        <time>2018-03-24T10:16:11Z</time>
      </trkpt>
      <trkpt lat="62.638003408268" lon="17.972238471922">
        <ele>213</ele>
        <time>2018-03-24T10:16:12Z</time>
      </trkpt>
      <trkpt lat="62.638005922838" lon="17.972296893765">
        <ele>213</ele>
        <time>2018-03-24T10:16:13Z</time>
      </trkpt>
      <trkpt lat="62.638002234802" lon="17.972357578721">
        <ele>213</ele>
        <time>2018-03-24T10:16:14Z</time>
      </trkpt>
      <trkpt lat="62.638013885643" lon="17.97240208661">
        <ele>213.2</ele>
        <time>2018-03-24T10:16:15Z</time>
      </trkpt>
      <trkpt lat="62.638010113788" lon="17.972455227856">
        <ele>213.4</ele>
        <time>2018-03-24T10:16:16Z</time>
      </trkpt>
      <trkpt lat="62.638019752973" lon="17.972515577536">
        <ele>213.6</ele>
        <time>2018-03-24T10:16:17Z</time>
      </trkpt>
      <trkpt lat="62.638022938095" lon="17.972556481208">
        <ele>213.8</ele>
        <time>2018-03-24T10:16:18Z</time>
      </trkpt>
      <trkpt lat="62.638022099905" lon="17.972619932191">
        <ele>214</ele>
        <time>2018-03-24T10:16:19Z</time>
      </trkpt>
      <trkpt lat="62.638036684411" lon="17.972666200279">
        <ele>214.2</ele>
        <time>2018-03-24T10:16:20Z</time>
      </trkpt>
      <trkpt lat="62.638032744918" lon="17.972728477796">
        <ele>214.4</ele>
        <time>2018-03-24T10:16:21Z</time>
      </trkpt>
      <trkpt lat="62.638040288628" lon="17.972778266282">
        <ele>214.4</ele>
        <time>2018-03-24T10:16:22Z</time>
      </trkpt>
      <trkpt lat="62.638040456266" lon="17.972826881302">
        <ele>214.6</ele>
        <time>2018-03-24T10:16:23Z</time>
      </trkpt>
      <trkpt lat="62.638037690239" lon="17.972887063344">
        <ele>214.6</ele>
        <time>2018-03-24T10:16:24Z</time>
      </trkpt>
      <trkpt lat="62.638049927813" lon="17.972935762183">
        <ele>214.6</ele>
        <time>2018-03-24T10:16:25Z</time>
      </trkpt>
      <trkpt lat="62.638046323596" lon="17.973002733564">
        <ele>214.8</ele>
        <time>2018-03-24T10:16:26Z</time>
      </trkpt>
      <trkpt lat="62.638051436555" lon="17.973059646665">
        <ele>214.8</ele>
        <time>2018-03-24T10:16:27Z</time>
      </trkpt>
      <trkpt lat="62.638052945297" lon="17.973110105703">
        <ele>214.8</ele>
        <time>2018-03-24T10:16:28Z</time>
      </trkpt>
      <trkpt lat="62.638053867306" lon="17.973168108451">
        <ele>214.8</ele>
        <time>2018-03-24T10:16:29Z</time>
      </trkpt>
      <trkpt lat="62.638057639161" lon="17.973205156449">
        <ele>215</ele>
        <time>2018-03-24T10:16:30Z</time>
      </trkpt>
      <trkpt lat="62.638051771831" lon="17.973261901912">
        <ele>215</ele>
        <time>2018-03-24T10:16:31Z</time>
      </trkpt>
      <trkpt lat="62.638059902274" lon="17.973304146688">
        <ele>215</ele>
        <time>2018-03-24T10:16:32Z</time>
      </trkpt>
      <trkpt lat="62.638056968609" lon="17.973354354269">
        <ele>215.2</ele>
        <time>2018-03-24T10:16:33Z</time>
      </trkpt>
      <trkpt lat="62.638053448211" lon="17.97340288547">
        <ele>215.4</ele>
        <time>2018-03-24T10:16:34Z</time>
      </trkpt>
      <trkpt lat="62.638051436555" lon="17.97345401506">
        <ele>215.4</ele>
        <time>2018-03-24T10:16:35Z</time>
      </trkpt>
      <trkpt lat="62.638044395759" lon="17.973503384451">
        <ele>215.6</ele>
        <time>2018-03-24T10:16:36Z</time>
      </trkpt>
      <trkpt lat="62.638044228121" lon="17.973556525697">
        <ele>215.8</ele>
        <time>2018-03-24T10:16:37Z</time>
      </trkpt>
      <trkpt lat="62.638047329424" lon="17.973595752989">
        <ele>215.8</ele>
        <time>2018-03-24T10:16:38Z</time>
      </trkpt>
      <trkpt lat="62.638044228121" lon="17.973654510108">
        <ele>216</ele>
        <time>2018-03-24T10:16:39Z</time>
      </trkpt>
      <trkpt lat="62.638049676356" lon="17.973689043536">
        <ele>216</ele>
        <time>2018-03-24T10:16:40Z</time>
      </trkpt>
      <trkpt lat="62.638044395759" lon="17.973754506175">
        <ele>216</ele>
        <time>2018-03-24T10:16:41Z</time>
      </trkpt>
      <trkpt lat="62.638051436555" lon="17.973794068743">
        <ele>215.8</ele>
        <time>2018-03-24T10:16:42Z</time>
      </trkpt>
      <trkpt lat="62.6380476647" lon="17.973864057608">
        <ele>216</ele>
        <time>2018-03-24T10:16:43Z</time>
      </trkpt>
      <trkpt lat="62.63806107574" lon="17.973895070638">
        <ele>215.8</ele>
        <time>2018-03-24T10:16:44Z</time>
      </trkpt>
      <trkpt lat="62.638058728808" lon="17.973962293476">
        <ele>215.8</ele>
        <time>2018-03-24T10:16:45Z</time>
      </trkpt>
      <trkpt lat="62.638065685785" lon="17.974012333419">
        <ele>215.8</ele>
        <time>2018-03-24T10:16:46Z</time>
      </trkpt>
      <trkpt lat="62.638066523975" lon="17.974071090538">
        <ele>216</ele>
        <time>2018-03-24T10:16:47Z</time>
      </trkpt>
      <trkpt lat="62.638070128192" lon="17.974123225956">
        <ele>216</ele>
        <time>2018-03-24T10:16:48Z</time>
      </trkpt>
      <trkpt lat="62.638070882563" lon="17.97416982932">
        <ele>216</ele>
        <time>2018-03-24T10:16:49Z</time>
      </trkpt>
      <trkpt lat="62.638073983866" lon="17.974228754077">
        <ele>216.2</ele>
        <time>2018-03-24T10:16:50Z</time>
      </trkpt>
      <trkpt lat="62.638072139848" lon="17.974273178147">
        <ele>216.2</ele>
        <time>2018-03-24T10:16:51Z</time>
      </trkpt>
      <trkpt lat="62.638071050201" lon="17.974335120388">
        <ele>216.2</ele>
        <time>2018-03-24T10:16:52Z</time>
      </trkpt>
      <trkpt lat="62.63807700135" lon="17.974384154503">
        <ele>216.2</ele>
        <time>2018-03-24T10:16:53Z</time>
      </trkpt>
      <trkpt lat="62.638076246979" lon="17.974452802264">
        <ele>216.2</ele>
        <time>2018-03-24T10:16:54Z</time>
      </trkpt>
      <trkpt lat="62.638079935015" lon="17.974494795583">
        <ele>216</ele>
        <time>2018-03-24T10:16:55Z</time>
      </trkpt>
      <trkpt lat="62.638069960554" lon="17.974572244339">
        <ele>216.2</ele>
        <time>2018-03-24T10:16:56Z</time>
      </trkpt>
      <trkpt lat="62.638068451812" lon="17.974619769712">
        <ele>216</ele>
        <time>2018-03-24T10:16:57Z</time>
      </trkpt>
      <trkpt lat="62.638060405188" lon="17.974667546542">
        <ele>216.2</ele>
        <time>2018-03-24T10:16:58Z</time>
      </trkpt>
      <trkpt lat="62.638059147903" lon="17.974719514322">
        <ele>216.2</ele>
        <time>2018-03-24T10:16:59Z</time>
      </trkpt>
      <trkpt lat="62.63804347375" lon="17.974761172365">
        <ele>216.4</ele>
        <time>2018-03-24T10:17:00Z</time>
      </trkpt>
      <trkpt lat="62.638037438782" lon="17.974811463765">
        <ele>216.2</ele>
        <time>2018-03-24T10:17:01Z</time>
      </trkpt>
      <trkpt lat="62.638022351362" lon="17.97485295417">
        <ele>216.4</ele>
        <time>2018-03-24T10:17:02Z</time>
      </trkpt>
      <trkpt lat="62.63800324063" lon="17.974890002168">
        <ele>216.4</ele>
        <time>2018-03-24T10:17:03Z</time>
      </trkpt>
      <trkpt lat="62.63799234416" lon="17.974920177008">
        <ele>216.6</ele>
        <time>2018-03-24T10:17:04Z</time>
      </trkpt>
      <trkpt lat="62.637970635039" lon="17.974959991033">
        <ele>216.6</ele>
        <time>2018-03-24T10:17:05Z</time>
      </trkpt>
      <trkpt lat="62.637960241483" lon="17.974995865565">
        <ele>216.8</ele>
        <time>2018-03-24T10:17:06Z</time>
      </trkpt>
      <trkpt lat="62.637936017792" lon="17.975021011265">
        <ele>216.8</ele>
        <time>2018-03-24T10:17:07Z</time>
      </trkpt>
      <trkpt lat="62.637927216797" lon="17.975061412023">
        <ele>216.8</ele>
        <time>2018-03-24T10:17:08Z</time>
      </trkpt>
      <trkpt lat="62.637909028074" lon="17.975092173596">
        <ele>217</ele>
        <time>2018-03-24T10:17:09Z</time>
      </trkpt>
      <trkpt lat="62.637894192111" lon="17.975127964309">
        <ele>217.2</ele>
        <time>2018-03-24T10:17:10Z</time>
      </trkpt>
      <trkpt lat="62.637881619261" lon="17.975161659547">
        <ele>217.4</ele>
        <time>2018-03-24T10:17:11Z</time>
      </trkpt>
      <trkpt lat="62.637858569036" lon="17.975197869355">
        <ele>217.4</ele>
        <time>2018-03-24T10:17:12Z</time>
      </trkpt>
      <trkpt lat="62.637846080005" lon="17.975236342276">
        <ele>217.6</ele>
        <time>2018-03-24T10:17:13Z</time>
      </trkpt>
      <trkpt lat="62.637824957617" lon="17.975256710293">
        <ele>217.8</ele>
        <time>2018-03-24T10:17:14Z</time>
      </trkpt>
      <trkpt lat="62.637811211301" lon="17.975304151847">
        <ele>218</ele>
        <time>2018-03-24T10:17:15Z</time>
      </trkpt>
      <trkpt lat="62.637797381166" lon="17.975327118253">
        <ele>218.2</ele>
        <time>2018-03-24T10:17:16Z</time>
      </trkpt>
      <trkpt lat="62.637775504407" lon="17.975360478215">
        <ele>218.4</ele>
        <time>2018-03-24T10:17:17Z</time>
      </trkpt>
      <trkpt lat="62.637765781403" lon="17.975380343318">
        <ele>218.4</ele>
        <time>2018-03-24T10:17:18Z</time>
      </trkpt>
      <trkpt lat="62.637747425042" lon="17.975407752131">
        <ele>218.6</ele>
        <time>2018-03-24T10:17:19Z</time>
      </trkpt>
      <trkpt lat="62.637732589079" lon="17.975423342465">
        <ele>218.8</ele>
        <time>2018-03-24T10:17:20Z</time>
      </trkpt>
      <trkpt lat="62.637723788084" lon="17.975442369378">
        <ele>218.8</ele>
        <time>2018-03-24T10:17:21Z</time>
      </trkpt>
      <trkpt lat="62.637702749515" lon="17.975453014391">
        <ele>219</ele>
        <time>2018-03-24T10:17:22Z</time>
      </trkpt>
      <trkpt lat="62.637683303507" lon="17.975472711856">
        <ele>219.2</ele>
        <time>2018-03-24T10:17:23Z</time>
      </trkpt>
      <trkpt lat="62.637665785336" lon="17.975492828416">
        <ele>219.4</ele>
        <time>2018-03-24T10:17:24Z</time>
      </trkpt>
      <trkpt lat="62.637640974912" lon="17.975502719058">
        <ele>219.6</ele>
        <time>2018-03-24T10:17:25Z</time>
      </trkpt>
      <trkpt lat="62.637621612723" lon="17.975521662152">
        <ele>220</ele>
        <time>2018-03-24T10:17:26Z</time>
      </trkpt>
      <trkpt lat="62.637595125919" lon="17.975531133699">
        <ele>220.2</ele>
        <time>2018-03-24T10:17:27Z</time>
      </trkpt>
      <trkpt lat="62.63757241097" lon="17.975549238603">
        <ele>220.2</ele>
        <time>2018-03-24T10:17:28Z</time>
      </trkpt>
      <trkpt lat="62.63755899993" lon="17.975569355163">
        <ele>220.4</ele>
        <time>2018-03-24T10:17:29Z</time>
      </trkpt>
      <trkpt lat="62.63753217785" lon="17.97558217947">
        <ele>220.6</ele>
        <time>2018-03-24T10:17:30Z</time>
      </trkpt>
      <trkpt lat="62.637510636367" lon="17.975603888591">
        <ele>220.8</ele>
        <time>2018-03-24T10:17:31Z</time>
      </trkpt>
      <trkpt lat="62.637497644422" lon="17.975628112282">
        <ele>220.8</ele>
        <time>2018-03-24T10:17:32Z</time>
      </trkpt>
      <trkpt lat="62.637475851482" lon="17.975647642109">
        <ele>221</ele>
        <time>2018-03-24T10:17:33Z</time>
      </trkpt>
      <trkpt lat="62.637463613908" lon="17.975669854144">
        <ele>221.2</ele>
        <time>2018-03-24T10:17:34Z</time>
      </trkpt>
      <trkpt lat="62.637442659158" lon="17.97569114417">
        <ele>221.4</ele>
        <time>2018-03-24T10:17:35Z</time>
      </trkpt>
      <trkpt lat="62.637420866218" lon="17.9757053934">
        <ele>221.4</ele>
        <time>2018-03-24T10:17:36Z</time>
      </trkpt>
      <trkpt lat="62.637407790454" lon="17.975728778901">
        <ele>221.6</ele>
        <time>2018-03-24T10:17:37Z</time>
      </trkpt>
      <trkpt lat="62.637380130184" lon="17.975742357579">
        <ele>221.6</ele>
        <time>2018-03-24T10:17:38Z</time>
      </trkpt>
      <trkpt lat="62.637364204574" lon="17.975768760564">
        <ele>221.8</ele>
        <time>2018-03-24T10:17:39Z</time>
      </trkpt>
      <trkpt lat="62.637344004195" lon="17.975783931803">
        <ele>222</ele>
        <time>2018-03-24T10:17:40Z</time>
      </trkpt>
      <trkpt lat="62.637320031961" lon="17.975797091386">
        <ele>222.2</ele>
        <time>2018-03-24T10:17:41Z</time>
      </trkpt>
      <trkpt lat="62.637311817699" lon="17.975833217375">
        <ele>222.2</ele>
        <time>2018-03-24T10:17:42Z</time>
      </trkpt>
      <trkpt lat="62.637286252904" lon="17.975853501573">
        <ele>222.4</ele>
        <time>2018-03-24T10:17:43Z</time>
      </trkpt>
      <trkpt lat="62.637273931511" lon="17.975881245662">
        <ele>222.4</ele>
        <time>2018-03-24T10:17:44Z</time>
      </trkpt>
      <trkpt lat="62.63726144248" lon="17.975907061914">
        <ele>222.6</ele>
        <time>2018-03-24T10:17:45Z</time>
      </trkpt>
      <trkpt lat="62.637246187422" lon="17.975929860682">
        <ele>222.8</ele>
        <time>2018-03-24T10:17:46Z</time>
      </trkpt>
      <trkpt lat="62.637238140798" lon="17.975964058834">
        <ele>223</ele>
        <time>2018-03-24T10:17:47Z</time>
      </trkpt>
      <trkpt lat="62.637221293179" lon="17.97599540714">
        <ele>223.2</ele>
        <time>2018-03-24T10:17:48Z</time>
      </trkpt>
      <trkpt lat="62.637207714501" lon="17.976031114034">
        <ele>223.6</ele>
        <time>2018-03-24T10:17:49Z</time>
      </trkpt>
      <trkpt lat="62.637199751696" lon="17.97606749148">
        <ele>223.8</ele>
        <time>2018-03-24T10:17:50Z</time>
      </trkpt>
      <trkpt lat="62.637185334828" lon="17.976106467315">
        <ele>224</ele>
        <time>2018-03-24T10:17:51Z</time>
      </trkpt>
      <trkpt lat="62.637182149706" lon="17.976144269684">
        <ele>224.2</ele>
        <time>2018-03-24T10:17:52Z</time>
      </trkpt>
      <trkpt lat="62.637164044802" lon="17.976182491148">
        <ele>224.4</ele>
        <time>2018-03-24T10:17:53Z</time>
      </trkpt>
      <trkpt lat="62.637152058685" lon="17.976226244666">
        <ele>224.6</ele>
        <time>2018-03-24T10:17:54Z</time>
      </trkpt>
      <trkpt lat="62.637138731464" lon="17.976266058691">
        <ele>224.6</ele>
        <time>2018-03-24T10:17:55Z</time>
      </trkpt>
      <trkpt lat="62.637126242433" lon="17.976314170797">
        <ele>224.8</ele>
        <time>2018-03-24T10:17:56Z</time>
      </trkpt>
      <trkpt lat="62.63712062656" lon="17.976356834668">
        <ele>224.8</ele>
        <time>2018-03-24T10:17:57Z</time>
      </trkpt>
      <trkpt lat="62.637112412298" lon="17.97639522377">
        <ele>225</ele>
        <time>2018-03-24T10:17:58Z</time>
      </trkpt>
      <trkpt lat="62.637109478633" lon="17.976439983116">
        <ele>225</ele>
        <time>2018-03-24T10:17:59Z</time>
      </trkpt>
      <trkpt lat="62.637102773113" lon="17.97647820458">
        <ele>225.2</ele>
        <time>2018-03-24T10:18:00Z</time>
      </trkpt>
      <trkpt lat="62.637103359846" lon="17.976517096596">
        <ele>225.2</ele>
        <time>2018-03-24T10:18:01Z</time>
      </trkpt>
      <trkpt lat="62.637099085077" lon="17.976555569517">
        <ele>225.2</ele>
        <time>2018-03-24T10:18:02Z</time>
      </trkpt>
      <trkpt lat="62.637090116444" lon="17.976605693279">
        <ele>225.2</ele>
        <time>2018-03-24T10:18:03Z</time>
      </trkpt>
      <trkpt lat="62.6370921281" lon="17.976637293042">
        <ele>225.2</ele>
        <time>2018-03-24T10:18:04Z</time>
      </trkpt>
      <trkpt lat="62.63708793715" lon="17.976698816188">
        <ele>225.4</ele>
        <time>2018-03-24T10:18:05Z</time>
      </trkpt>
      <trkpt lat="62.637095061765" lon="17.976730918865">
        <ele>225.4</ele>
        <time>2018-03-24T10:18:06Z</time>
      </trkpt>
      <trkpt lat="62.637088188607" lon="17.976799398988">
        <ele>225.4</ele>
        <time>2018-03-24T10:18:07Z</time>
      </trkpt>
      <trkpt lat="62.637098665982" lon="17.976833932416">
        <ele>225.6</ele>
        <time>2018-03-24T10:18:08Z</time>
      </trkpt>
      <trkpt lat="62.637094223575" lon="17.976898724503">
        <ele>225.4</ele>
        <time>2018-03-24T10:18:09Z</time>
      </trkpt>
      <trkpt lat="62.637101599647" lon="17.976950692283">
        <ele>225.6</ele>
        <time>2018-03-24T10:18:10Z</time>
      </trkpt>
      <trkpt lat="62.637100174724" lon="17.977002157149">
        <ele>225.6</ele>
        <time>2018-03-24T10:18:11Z</time>
      </trkpt>
      <trkpt lat="62.637100845276" lon="17.977063345019">
        <ele>225.4</ele>
        <time>2018-03-24T10:18:12Z</time>
      </trkpt>
      <trkpt lat="62.637105622959" lon="17.977102739949">
        <ele>225.6</ele>
        <time>2018-03-24T10:18:13Z</time>
      </trkpt>
      <trkpt lat="62.637102605475" lon="17.977169878968">
        <ele>225.6</ele>
        <time>2018-03-24T10:18:14Z</time>
      </trkpt>
      <trkpt lat="62.637107047882" lon="17.977212207563">
        <ele>225.8</ele>
        <time>2018-03-24T10:18:15Z</time>
      </trkpt>
      <trkpt lat="62.637099755629" lon="17.977276412917">
        <ele>225.8</ele>
        <time>2018-03-24T10:18:16Z</time>
      </trkpt>
      <trkpt lat="62.637102437837" lon="17.977320250254">
        <ele>225.8</ele>
        <time>2018-03-24T10:18:17Z</time>
      </trkpt>
      <trkpt lat="62.637085254942" lon="17.977379845563">
        <ele>225.8</ele>
        <time>2018-03-24T10:18:18Z</time>
      </trkpt>
      <trkpt lat="62.637080225802" lon="17.977431645705">
        <ele>225.8</ele>
        <time>2018-03-24T10:18:19Z</time>
      </trkpt>
      <trkpt lat="62.637063042907" lon="17.977480344544">
        <ele>225.8</ele>
        <time>2018-03-24T10:18:20Z</time>
      </trkpt>
      <trkpt lat="62.637048877496" lon="17.977536670912">
        <ele>225.8</ele>
        <time>2018-03-24T10:18:21Z</time>
      </trkpt>
      <trkpt lat="62.637038316302" lon="17.977575730566">
        <ele>225.8</ele>
        <time>2018-03-24T10:18:22Z</time>
      </trkpt>
      <trkpt lat="62.637017277733" lon="17.977645887069">
        <ele>225.8</ele>
        <time>2018-03-24T10:18:23Z</time>
      </trkpt>
      <trkpt lat="62.637011075127" lon="17.977678325022">
        <ele>225.8</ele>
        <time>2018-03-24T10:18:24Z</time>
      </trkpt>
      <trkpt lat="62.636993305499" lon="17.977743452385">
        <ele>225.8</ele>
        <time>2018-03-24T10:18:25Z</time>
      </trkpt>
      <trkpt lat="62.63699322168" lon="17.977774381596">
        <ele>225.8</ele>
        <time>2018-03-24T10:18:26Z</time>
      </trkpt>
      <trkpt lat="62.636979223907" lon="17.977844286642">
        <ele>225.8</ele>
        <time>2018-03-24T10:18:27Z</time>
      </trkpt>
      <trkpt lat="62.636983666314" lon="17.977881753735">
        <ele>225.8</ele>
        <time>2018-03-24T10:18:28Z</time>
      </trkpt>
      <trkpt lat="62.636974362405" lon="17.977941013768">
        <ele>225.8</ele>
        <time>2018-03-24T10:18:29Z</time>
      </trkpt>
      <trkpt lat="62.636970758188" lon="17.97799532848">
        <ele>225.8</ele>
        <time>2018-03-24T10:18:30Z</time>
      </trkpt>
      <trkpt lat="62.636964639401" lon="17.978040255464">
        <ele>226</ele>
        <time>2018-03-24T10:18:31Z</time>
      </trkpt>
      <trkpt lat="62.636955586949" lon="17.978098509669">
        <ele>226</ele>
        <time>2018-03-24T10:18:32Z</time>
      </trkpt>
      <trkpt lat="62.63695382675" lon="17.978133965106">
        <ele>226</ele>
        <time>2018-03-24T10:18:33Z</time>
      </trkpt>
      <trkpt lat="62.636936727674" lon="17.978192386949">
        <ele>226</ele>
        <time>2018-03-24T10:18:34Z</time>
      </trkpt>
      <trkpt lat="62.636931866172" lon="17.978236475743">
        <ele>226.2</ele>
        <time>2018-03-24T10:18:35Z</time>
      </trkpt>
      <trkpt lat="62.6369161082" lon="17.97828785679">
        <ele>226</ele>
        <time>2018-03-24T10:18:36Z</time>
      </trkpt>
      <trkpt lat="62.636904289721" lon="17.978337142362">
        <ele>226.2</ele>
        <time>2018-03-24T10:18:37Z</time>
      </trkpt>
      <trkpt lat="62.636893057975" lon="17.978374525636">
        <ele>226.2</ele>
        <time>2018-03-24T10:18:38Z</time>
      </trkpt>
      <trkpt lat="62.636880401306" lon="17.97842531995">
        <ele>226.2</ele>
        <time>2018-03-24T10:18:39Z</time>
      </trkpt>
      <trkpt lat="62.636872019406" lon="17.978462703224">
        <ele>226.2</ele>
        <time>2018-03-24T10:18:40Z</time>
      </trkpt>
      <trkpt lat="62.636846622249" lon="17.978520370696">
        <ele>226.2</ele>
        <time>2018-03-24T10:18:41Z</time>
      </trkpt>
      <trkpt lat="62.636825248404" lon="17.978558256884">
        <ele>226.4</ele>
        <time>2018-03-24T10:18:42Z</time>
      </trkpt>
      <trkpt lat="62.636810747717" lon="17.978590275742">
        <ele>226.2</ele>
        <time>2018-03-24T10:18:43Z</time>
      </trkpt>
      <trkpt lat="62.636794822107" lon="17.978634364536">
        <ele>226.2</ele>
        <time>2018-03-24T10:18:44Z</time>
      </trkpt>
      <trkpt lat="62.63677696866" lon="17.978662946815">
        <ele>226.4</ele>
        <time>2018-03-24T10:18:45Z</time>
      </trkpt>
      <trkpt lat="62.636753080245" lon="17.978690858542">
        <ele>226.4</ele>
        <time>2018-03-24T10:18:46Z</time>
      </trkpt>
      <trkpt lat="62.636738579558" lon="17.978718183536">
        <ele>226.6</ele>
        <time>2018-03-24T10:18:47Z</time>
      </trkpt>
      <trkpt lat="62.63671158984" lon="17.978730588748">
        <ele>226.8</ele>
        <time>2018-03-24T10:18:48Z</time>
      </trkpt>
      <trkpt lat="62.636687617606" lon="17.978734444422">
        <ele>227</ele>
        <time>2018-03-24T10:18:49Z</time>
      </trkpt>
      <trkpt lat="62.636665992304" lon="17.978750789127">
        <ele>227.2</ele>
        <time>2018-03-24T10:18:50Z</time>
      </trkpt>
      <trkpt lat="62.636637326206" lon="17.978752884602">
        <ele>227.4</ele>
        <time>2018-03-24T10:18:51Z</time>
      </trkpt>
      <trkpt lat="62.636615784723" lon="17.978745089435">
        <ele>227.4</ele>
        <time>2018-03-24T10:18:52Z</time>
      </trkpt>
      <trkpt lat="62.636592902136" lon="17.978761601778">
        <ele>227.4</ele>
        <time>2018-03-24T10:18:53Z</time>
      </trkpt>
      <trkpt lat="62.636564738952" lon="17.978756321181">
        <ele>227.6</ele>
        <time>2018-03-24T10:18:54Z</time>
      </trkpt>
      <trkpt lat="62.636537581596" lon="17.978754980077">
        <ele>227.6</ele>
        <time>2018-03-24T10:18:55Z</time>
      </trkpt>
      <trkpt lat="62.636516626846" lon="17.97876059595">
        <ele>227.8</ele>
        <time>2018-03-24T10:18:56Z</time>
      </trkpt>
      <trkpt lat="62.636489972404" lon="17.978752297869">
        <ele>228</ele>
        <time>2018-03-24T10:18:57Z</time>
      </trkpt>
      <trkpt lat="62.636469269111" lon="17.97877065423">
        <ele>228</ele>
        <time>2018-03-24T10:18:58Z</time>
      </trkpt>
      <trkpt lat="62.63644588361" lon="17.978770738049">
        <ele>228.2</ele>
        <time>2018-03-24T10:18:59Z</time>
      </trkpt>
      <trkpt lat="62.636419648263" lon="17.978772582067">
        <ele>228.4</ele>
        <time>2018-03-24T10:19:00Z</time>
      </trkpt>
      <trkpt lat="62.636406823956" lon="17.978784735822">
        <ele>228.6</ele>
        <time>2018-03-24T10:19:01Z</time>
      </trkpt>
      <trkpt lat="62.636384863378" lon="17.978792782446">
        <ele>228.6</ele>
        <time>2018-03-24T10:19:02Z</time>
      </trkpt>
      <trkpt lat="62.636369273044" lon="17.978796386663">
        <ele>228.8</ele>
        <time>2018-03-24T10:19:03Z</time>
      </trkpt>
      <trkpt lat="62.636358460393" lon="17.978811557902">
        <ele>228.8</ele>
        <time>2018-03-24T10:19:04Z</time>
      </trkpt>
      <trkpt lat="62.636337589462" lon="17.978827232055">
        <ele>229</ele>
        <time>2018-03-24T10:19:05Z</time>
      </trkpt>
      <trkpt lat="62.636320071291" lon="17.978835697774">
        <ele>229</ele>
        <time>2018-03-24T10:19:06Z</time>
      </trkpt>
      <trkpt lat="62.636302720758" lon="17.978860172922">
        <ele>229.2</ele>
        <time>2018-03-24T10:19:07Z</time>
      </trkpt>
      <trkpt lat="62.636288974442" lon="17.978866543166">
        <ele>229.4</ele>
        <time>2018-03-24T10:19:08Z</time>
      </trkpt>
      <trkpt lat="62.636265756579" lon="17.978879199835">
        <ele>229.6</ele>
        <time>2018-03-24T10:19:09Z</time>
      </trkpt>
      <trkpt lat="62.636252932272" lon="17.978908871761">
        <ele>229.8</ele>
        <time>2018-03-24T10:19:10Z</time>
      </trkpt>
      <trkpt lat="62.636229211495" lon="17.9789324249">
        <ele>230</ele>
        <time>2018-03-24T10:19:11Z</time>
      </trkpt>
      <trkpt lat="62.636210687496" lon="17.978958827885">
        <ele>230.2</ele>
        <time>2018-03-24T10:19:12Z</time>
      </trkpt>
      <trkpt lat="62.636203730519" lon="17.978979531178">
        <ele>230.4</ele>
        <time>2018-03-24T10:19:13Z</time>
      </trkpt>
      <trkpt lat="62.636184200692" lon="17.978995372969">
        <ele>230.6</ele>
        <time>2018-03-24T10:19:14Z</time>
      </trkpt>
      <trkpt lat="62.63617095729" lon="17.979028062379">
        <ele>230.6</ele>
        <time>2018-03-24T10:19:15Z</time>
      </trkpt>
      <trkpt lat="62.636164167951" lon="17.979036192822">
        <ele>230.8</ele>
        <time>2018-03-24T10:19:16Z</time>
      </trkpt>
      <trkpt lat="62.636151259825" lon="17.979046251102">
        <ele>231</ele>
        <time>2018-03-24T10:19:17Z</time>
      </trkpt>
      <trkpt lat="62.636137094414" lon="17.979067708766">
        <ele>231</ele>
        <time>2018-03-24T10:19:18Z</time>
      </trkpt>
      <trkpt lat="62.636126617039" lon="17.979094279389">
        <ele>231</ele>
        <time>2018-03-24T10:19:19Z</time>
      </trkpt>
      <trkpt lat="62.636112703085" lon="17.979120850012">
        <ele>231.2</ele>
        <time>2018-03-24T10:19:20Z</time>
      </trkpt>
      <trkpt lat="62.636095268733" lon="17.979137194717">
        <ele>231.6</ele>
        <time>2018-03-24T10:19:21Z</time>
      </trkpt>
      <trkpt lat="62.636087389747" lon="17.979171979602">
        <ele>232.2</ele>
        <time>2018-03-24T10:19:22Z</time>
      </trkpt>
      <trkpt lat="62.63607037449" lon="17.979200394243">
        <ele>232.6</ele>
        <time>2018-03-24T10:19:23Z</time>
      </trkpt>
      <trkpt lat="62.636053945966" lon="17.979225456124">
        <ele>233.4</ele>
        <time>2018-03-24T10:19:24Z</time>
      </trkpt>
      <trkpt lat="62.636047491903" lon="17.979255379507">
        <ele>234.2</ele>
        <time>2018-03-24T10:19:25Z</time>
      </trkpt>
      <trkpt lat="62.636028800266" lon="17.979287314546">
        <ele>234.8</ele>
        <time>2018-03-24T10:19:26Z</time>
      </trkpt>
      <trkpt lat="62.636016562692" lon="17.979325284553">
        <ele>235</ele>
        <time>2018-03-24T10:19:27Z</time>
      </trkpt>
      <trkpt lat="62.636006085317" lon="17.979363003103">
        <ele>235</ele>
        <time>2018-03-24T10:19:28Z</time>
      </trkpt>
      <trkpt lat="62.635997619598" lon="17.97939175302">
        <ele>235.2</ele>
        <time>2018-03-24T10:19:29Z</time>
      </trkpt>
      <trkpt lat="62.635994266838" lon="17.979442463515">
        <ele>235</ele>
        <time>2018-03-24T10:19:30Z</time>
      </trkpt>
      <trkpt lat="62.63598907006" lon="17.979500885358">
        <ele>235</ele>
        <time>2018-03-24T10:19:31Z</time>
      </trkpt>
      <trkpt lat="62.635979263237" lon="17.979568778748">
        <ele>235</ele>
        <time>2018-03-24T10:19:32Z</time>
      </trkpt>
      <trkpt lat="62.635980939617" lon="17.979639941079">
        <ele>234.8</ele>
        <time>2018-03-24T10:19:33Z</time>
      </trkpt>
      <trkpt lat="62.635978592685" lon="17.979741697345">
        <ele>234.6</ele>
        <time>2018-03-24T10:19:34Z</time>
      </trkpt>
      <trkpt lat="62.635970965156" lon="17.97988209417">
        <ele>234.2</ele>
        <time>2018-03-24T10:19:35Z</time>
      </trkpt>
      <trkpt lat="62.635967696215" lon="17.980031375809">
        <ele>233.4</ele>
        <time>2018-03-24T10:19:36Z</time>
      </trkpt>
      <trkpt lat="62.635972641536" lon="17.980168252236">
        <ele>232.8</ele>
        <time>2018-03-24T10:19:37Z</time>
      </trkpt>
      <trkpt lat="62.63598655549" lon="17.980304206654">
        <ele>232.2</ele>
        <time>2018-03-24T10:19:38Z</time>
      </trkpt>
      <trkpt lat="62.636006169136" lon="17.980436221579">
        <ele>231.2</ele>
        <time>2018-03-24T10:19:39Z</time>
      </trkpt>
      <trkpt lat="62.636026956248" lon="17.980563794097">
        <ele>230.6</ele>
        <time>2018-03-24T10:19:40Z</time>
      </trkpt>
      <trkpt lat="62.636051263758" lon="17.980690863701">
        <ele>230</ele>
        <time>2018-03-24T10:19:41Z</time>
      </trkpt>
      <trkpt lat="62.636072134689" lon="17.980815418735">
        <ele>229.4</ele>
        <time>2018-03-24T10:19:42Z</time>
      </trkpt>
      <trkpt lat="62.636093927629" lon="17.980935782819">
        <ele>229</ele>
        <time>2018-03-24T10:19:43Z</time>
      </trkpt>
      <trkpt lat="62.636116977854" lon="17.981043406415">
        <ele>228.8</ele>
        <time>2018-03-24T10:19:44Z</time>
      </trkpt>
      <trkpt lat="62.636137094414" lon="17.981171649485">
        <ele>228.4</ele>
        <time>2018-03-24T10:19:45Z</time>
      </trkpt>
      <trkpt lat="62.63615000254" lon="17.981289079904">
        <ele>228.2</ele>
        <time>2018-03-24T10:19:46Z</time>
      </trkpt>
      <trkpt lat="62.636164838503" lon="17.981398128423">
        <ele>228</ele>
        <time>2018-03-24T10:19:47Z</time>
      </trkpt>
      <trkpt lat="62.63618269195" lon="17.981501644888">
        <ele>227.6</ele>
        <time>2018-03-24T10:19:48Z</time>
      </trkpt>
      <trkpt lat="62.636196605904" lon="17.981593594331">
        <ele>227.4</ele>
        <time>2018-03-24T10:19:49Z</time>
      </trkpt>
      <trkpt lat="62.636207334736" lon="17.981690237638">
        <ele>227.4</ele>
        <time>2018-03-24T10:19:50Z</time>
      </trkpt>
      <trkpt lat="62.636209262573" lon="17.981775649199">
        <ele>227.2</ele>
        <time>2018-03-24T10:19:51Z</time>
      </trkpt>
      <trkpt lat="62.636208172926" lon="17.981859971113">
        <ele>227.2</ele>
        <time>2018-03-24T10:19:52Z</time>
      </trkpt>
      <trkpt lat="62.63620951403" lon="17.981934570023">
        <ele>227.4</ele>
        <time>2018-03-24T10:19:53Z</time>
      </trkpt>
      <trkpt lat="62.636222757432" lon="17.982004726526">
        <ele>227.4</ele>
        <time>2018-03-24T10:19:54Z</time>
      </trkpt>
      <trkpt lat="62.636226445468" lon="17.982108494448">
        <ele>227.6</ele>
        <time>2018-03-24T10:19:55Z</time>
      </trkpt>
      <trkpt lat="62.636231055513" lon="17.98219801314">
        <ele>227.8</ele>
        <time>2018-03-24T10:19:56Z</time>
      </trkpt>
      <trkpt lat="62.636240443241" lon="17.982263643417">
        <ele>228</ele>
        <time>2018-03-24T10:19:57Z</time>
      </trkpt>
      <trkpt lat="62.636245640019" lon="17.982357688335">
        <ele>228.2</ele>
        <time>2018-03-24T10:19:58Z</time>
      </trkpt>
      <trkpt lat="62.636242371078" lon="17.982431365236">
        <ele>228.2</ele>
        <time>2018-03-24T10:19:59Z</time>
      </trkpt>
      <trkpt lat="62.636237090481" lon="17.982508813992">
        <ele>228.2</ele>
        <time>2018-03-24T10:20:00Z</time>
      </trkpt>
      <trkpt lat="62.636215465179" lon="17.982604200014">
        <ele>228</ele>
        <time>2018-03-24T10:20:01Z</time>
      </trkpt>
      <trkpt lat="62.63622376326" lon="17.982660023468">
        <ele>227.8</ele>
        <time>2018-03-24T10:20:02Z</time>
      </trkpt>
      <trkpt lat="62.636226361649" lon="17.982720121691">
        <ele>228</ele>
        <time>2018-03-24T10:20:03Z</time>
      </trkpt>
      <trkpt lat="62.636239185956" lon="17.982770161634">
        <ele>228</ele>
        <time>2018-03-24T10:20:04Z</time>
      </trkpt>
      <trkpt lat="62.636238766861" lon="17.982845682553">
        <ele>228</ele>
        <time>2018-03-24T10:20:05Z</time>
      </trkpt>
      <trkpt lat="62.636241951983" lon="17.982908211527">
        <ele>228.2</ele>
        <time>2018-03-24T10:20:06Z</time>
      </trkpt>
      <trkpt lat="62.636243125449" lon="17.982960849859">
        <ele>228.2</ele>
        <time>2018-03-24T10:20:07Z</time>
      </trkpt>
      <trkpt lat="62.63624387982" lon="17.983034778217">
        <ele>228.4</ele>
        <time>2018-03-24T10:20:08Z</time>
      </trkpt>
      <trkpt lat="62.636252010263" lon="17.983075346613">
        <ele>228.4</ele>
        <time>2018-03-24T10:20:09Z</time>
      </trkpt>
      <trkpt lat="62.636246478209" lon="17.983142820908">
        <ele>228.4</ele>
        <time>2018-03-24T10:20:10Z</time>
      </trkpt>
      <trkpt lat="62.636246562028" lon="17.983202751493">
        <ele>228.4</ele>
        <time>2018-03-24T10:20:11Z</time>
      </trkpt>
      <trkpt lat="62.636242454897" lon="17.983279864973">
        <ele>228.4</ele>
        <time>2018-03-24T10:20:12Z</time>
      </trkpt>
      <trkpt lat="62.636245388562" lon="17.98334214249">
        <ele>228.4</ele>
        <time>2018-03-24T10:20:13Z</time>
      </trkpt>
      <trkpt lat="62.636247064942" lon="17.983384303447">
        <ele>228.4</ele>
        <time>2018-03-24T10:20:14Z</time>
      </trkpt>
      <trkpt lat="62.636235833196" lon="17.983463512402">
        <ele>228.4</ele>
        <time>2018-03-24T10:20:15Z</time>
      </trkpt>
      <trkpt lat="62.636241700526" lon="17.98349804583">
        <ele>228.4</ele>
        <time>2018-03-24T10:20:16Z</time>
      </trkpt>
      <trkpt lat="62.636237509576" lon="17.983543391909">
        <ele>228.6</ele>
        <time>2018-03-24T10:20:17Z</time>
      </trkpt>
      <trkpt lat="62.636231558427" lon="17.983597119888">
        <ele>228.6</ele>
        <time>2018-03-24T10:20:18Z</time>
      </trkpt>
      <trkpt lat="62.636236503748" lon="17.983638945569">
        <ele>228.6</ele>
        <time>2018-03-24T10:20:19Z</time>
      </trkpt>
      <trkpt lat="62.636226445468" lon="17.983690494254">
        <ele>228.8</ele>
        <time>2018-03-24T10:20:20Z</time>
      </trkpt>
      <trkpt lat="62.636216303369" lon="17.983731817021">
        <ele>229</ele>
        <time>2018-03-24T10:20:21Z</time>
      </trkpt>
      <trkpt lat="62.636218566482" lon="17.983772804512">
        <ele>229.2</ele>
        <time>2018-03-24T10:20:22Z</time>
      </trkpt>
      <trkpt lat="62.636207167098" lon="17.983837931875">
        <ele>229.2</ele>
        <time>2018-03-24T10:20:23Z</time>
      </trkpt>
      <trkpt lat="62.636205406899" lon="17.983880176651">
        <ele>229.4</ele>
        <time>2018-03-24T10:20:24Z</time>
      </trkpt>
      <trkpt lat="62.636198114646" lon="17.983923259617">
        <ele>229.4</ele>
        <time>2018-03-24T10:20:25Z</time>
      </trkpt>
      <trkpt lat="62.636193169325" lon="17.983980256537">
        <ele>229.6</ele>
        <time>2018-03-24T10:20:26Z</time>
      </trkpt>
      <trkpt lat="62.636196857361" lon="17.984012023938">
        <ele>229.6</ele>
        <time>2018-03-24T10:20:27Z</time>
      </trkpt>
      <trkpt lat="62.636188475461" lon="17.984063572623">
        <ele>229.8</ele>
        <time>2018-03-24T10:20:28Z</time>
      </trkpt>
      <trkpt lat="62.636187637271" lon="17.984128951443">
        <ele>229.8</ele>
        <time>2018-03-24T10:20:29Z</time>
      </trkpt>
      <trkpt lat="62.636189565108" lon="17.984181003042">
        <ele>229.8</ele>
        <time>2018-03-24T10:20:30Z</time>
      </trkpt>
      <trkpt lat="62.636186212348" lon="17.984231545899">
        <ele>229.8</ele>
        <time>2018-03-24T10:20:31Z</time>
      </trkpt>
      <trkpt lat="62.636188391642" lon="17.984296673262">
        <ele>229.8</ele>
        <time>2018-03-24T10:20:32Z</time>
      </trkpt>
      <trkpt lat="62.636191409126" lon="17.984353418725">
        <ele>229.8</ele>
        <time>2018-03-24T10:20:33Z</time>
      </trkpt>
      <trkpt lat="62.636182775769" lon="17.984400692641">
        <ele>230</ele>
        <time>2018-03-24T10:20:34Z</time>
      </trkpt>
      <trkpt lat="62.636187050538" lon="17.984461293778">
        <ele>230</ele>
        <time>2018-03-24T10:20:35Z</time>
      </trkpt>
      <trkpt lat="62.636177243715" lon="17.984513513015">
        <ele>230.2</ele>
        <time>2018-03-24T10:20:36Z</time>
      </trkpt>
      <trkpt lat="62.636178249543" lon="17.98456757627">
        <ele>230.2</ele>
        <time>2018-03-24T10:20:37Z</time>
      </trkpt>
      <trkpt lat="62.636170622014" lon="17.98461786767">
        <ele>230.4</ele>
        <time>2018-03-24T10:20:38Z</time>
      </trkpt>
      <trkpt lat="62.636177578991" lon="17.9846656445">
        <ele>230.4</ele>
        <time>2018-03-24T10:20:39Z</time>
      </trkpt>
      <trkpt lat="62.636176321706" lon="17.98471845047">
        <ele>230.6</ele>
        <time>2018-03-24T10:20:40Z</time>
      </trkpt>
      <trkpt lat="62.636173388041" lon="17.984763209816">
        <ele>230.6</ele>
        <time>2018-03-24T10:20:41Z</time>
      </trkpt>
      <trkpt lat="62.636166263426" lon="17.984814339406">
        <ele>230.8</ele>
        <time>2018-03-24T10:20:42Z</time>
      </trkpt>
      <trkpt lat="62.636163329761" lon="17.984853985793">
        <ele>230.8</ele>
        <time>2018-03-24T10:20:43Z</time>
      </trkpt>
      <trkpt lat="62.636168275082" lon="17.984907797591">
        <ele>231</ele>
        <time>2018-03-24T10:20:44Z</time>
      </trkpt>
      <trkpt lat="62.636162491571" lon="17.984955490602">
        <ele>231.2</ele>
        <time>2018-03-24T10:20:45Z</time>
      </trkpt>
      <trkpt lat="62.636161821019" lon="17.985006368735">
        <ele>231.2</ele>
        <time>2018-03-24T10:20:46Z</time>
      </trkpt>
      <trkpt lat="62.636160815191" lon="17.985020031232">
        <ele>231.2</ele>
        <time>2018-03-24T10:20:47Z</time>
      </trkpt>
      <trkpt lat="62.636151511282" lon="17.985093791952">
        <ele>231.4</ele>
        <time>2018-03-24T10:20:48Z</time>
      </trkpt>
      <trkpt lat="62.636148577617" lon="17.98515933841">
        <ele>231.4</ele>
        <time>2018-03-24T10:20:49Z</time>
      </trkpt>
      <trkpt lat="62.636144889581" lon="17.985202840471">
        <ele>231.6</ele>
        <time>2018-03-24T10:20:50Z</time>
      </trkpt>
      <trkpt lat="62.636146565961" lon="17.985258831563">
        <ele>231.6</ele>
        <time>2018-03-24T10:20:51Z</time>
      </trkpt>
      <trkpt lat="62.63614162064" lon="17.985304680556">
        <ele>231.6</ele>
        <time>2018-03-24T10:20:52Z</time>
      </trkpt>
      <trkpt lat="62.636139189889" lon="17.985360252553">
        <ele>231.8</ele>
        <time>2018-03-24T10:20:53Z</time>
      </trkpt>
      <trkpt lat="62.636133574016" lon="17.985410711591">
        <ele>232</ele>
        <time>2018-03-24T10:20:54Z</time>
      </trkpt>
      <trkpt lat="62.636132316731" lon="17.985455135661">
        <ele>232.2</ele>
        <time>2018-03-24T10:20:55Z</time>
      </trkpt>
      <trkpt lat="62.636126868496" lon="17.985507019622">
        <ele>232.4</ele>
        <time>2018-03-24T10:20:56Z</time>
      </trkpt>
      <trkpt lat="62.636113625094" lon="17.985564100361">
        <ele>232.4</ele>
        <time>2018-03-24T10:20:57Z</time>
      </trkpt>
      <trkpt lat="62.636117396949" lon="17.985628138077">
        <ele>232.4</ele>
        <time>2018-03-24T10:20:58Z</time>
      </trkpt>
      <trkpt lat="62.636096777475" lon="17.985670047577">
        <ele>232.4</ele>
        <time>2018-03-24T10:20:59Z</time>
      </trkpt>
      <trkpt lat="62.636087473566" lon="17.985724529927">
        <ele>232.4</ele>
        <time>2018-03-24T10:21:00Z</time>
      </trkpt>
      <trkpt lat="62.636069955395" lon="17.985768870178">
        <ele>232.4</ele>
        <time>2018-03-24T10:21:01Z</time>
      </trkpt>
      <trkpt lat="62.636055706165" lon="17.985811114954">
        <ele>232.4</ele>
        <time>2018-03-24T10:21:02Z</time>
      </trkpt>
      <trkpt lat="62.636045983161" lon="17.985854784653">
        <ele>232.4</ele>
        <time>2018-03-24T10:21:03Z</time>
      </trkpt>
      <trkpt lat="62.636028967904" lon="17.985883115475">
        <ele>232.6</ele>
        <time>2018-03-24T10:21:04Z</time>
      </trkpt>
      <trkpt lat="62.636011952647" lon="17.985919241464">
        <ele>232.6</ele>
        <time>2018-03-24T10:21:05Z</time>
      </trkpt>
      <trkpt lat="62.635988399508" lon="17.985945141535">
        <ele>232.6</ele>
        <time>2018-03-24T10:21:06Z</time>
      </trkpt>
      <trkpt lat="62.635973060631" lon="17.985969784321">
        <ele>232.8</ele>
        <time>2018-03-24T10:21:07Z</time>
      </trkpt>
      <trkpt lat="62.635954536632" lon="17.985977160393">
        <ele>232.8</ele>
        <time>2018-03-24T10:21:08Z</time>
      </trkpt>
      <trkpt lat="62.6359354259" lon="17.985986045207">
        <ele>232.8</ele>
        <time>2018-03-24T10:21:09Z</time>
      </trkpt>
      <trkpt lat="62.635917237177" lon="17.986007670509">
        <ele>233</ele>
        <time>2018-03-24T10:21:10Z</time>
      </trkpt>
      <trkpt lat="62.635889996002" lon="17.986027787069">
        <ele>233</ele>
        <time>2018-03-24T10:21:11Z</time>
      </trkpt>
      <trkpt lat="62.635865185578" lon="17.986064248334">
        <ele>233</ele>
        <time>2018-03-24T10:21:12Z</time>
      </trkpt>
      <trkpt lat="62.635840291335" lon="17.986082772333">
        <ele>233.2</ele>
        <time>2018-03-24T10:21:13Z</time>
      </trkpt>
      <trkpt lat="62.635818749852" lon="17.986095177545">
        <ele>233.4</ele>
        <time>2018-03-24T10:21:14Z</time>
      </trkpt>
      <trkpt lat="62.635801399319" lon="17.986115210286">
        <ele>233.4</ele>
        <time>2018-03-24T10:21:15Z</time>
      </trkpt>
      <trkpt lat="62.635784300243" lon="17.986135410665">
        <ele>233.6</ele>
        <time>2018-03-24T10:21:16Z</time>
      </trkpt>
      <trkpt lat="62.635765860063" lon="17.986167429523">
        <ele>233.6</ele>
        <time>2018-03-24T10:21:17Z</time>
      </trkpt>
      <trkpt lat="62.635752868118" lon="17.98619701763">
        <ele>233.6</ele>
        <time>2018-03-24T10:21:18Z</time>
      </trkpt>
      <trkpt lat="62.635737445422" lon="17.986227863022">
        <ele>234</ele>
        <time>2018-03-24T10:21:19Z</time>
      </trkpt>
      <trkpt lat="62.635718921423" lon="17.986264156649">
        <ele>234</ele>
        <time>2018-03-24T10:21:20Z</time>
      </trkpt>
      <trkpt lat="62.635707522039" lon="17.986300366457">
        <ele>234.2</ele>
        <time>2018-03-24T10:21:21Z</time>
      </trkpt>
      <trkpt lat="62.635688578945" lon="17.986340515758">
        <ele>234.6</ele>
        <time>2018-03-24T10:21:22Z</time>
      </trkpt>
      <trkpt lat="62.635678017751" lon="17.986388041131">
        <ele>234.8</ele>
        <time>2018-03-24T10:21:23Z</time>
      </trkpt>
      <trkpt lat="62.63564960311" lon="17.986428106613">
        <ele>235</ele>
        <time>2018-03-24T10:21:24Z</time>
      </trkpt>
      <trkpt lat="62.63563619207" lon="17.986471776312">
        <ele>235.2</ele>
        <time>2018-03-24T10:21:25Z</time>
      </trkpt>
      <trkpt lat="62.635613477121" lon="17.986510165414">
        <ele>235.2</ele>
        <time>2018-03-24T10:21:26Z</time>
      </trkpt>
      <trkpt lat="62.635595204579" lon="17.986550482353">
        <ele>235.2</ele>
        <time>2018-03-24T10:21:27Z</time>
      </trkpt>
      <trkpt lat="62.635578189322" lon="17.986589961102">
        <ele>235.2</ele>
        <time>2018-03-24T10:21:28Z</time>
      </trkpt>
      <trkpt lat="62.635558072762" lon="17.986630026584">
        <ele>235.4</ele>
        <time>2018-03-24T10:21:29Z</time>
      </trkpt>
      <trkpt lat="62.635545835188" lon="17.98666137489">
        <ele>235.4</ele>
        <time>2018-03-24T10:21:30Z</time>
      </trkpt>
      <trkpt lat="62.635529071388" lon="17.986706804788">
        <ele>235.4</ele>
        <time>2018-03-24T10:21:31Z</time>
      </trkpt>
      <trkpt lat="62.635506607896" lon="17.986740751483">
        <ele>235.4</ele>
        <time>2018-03-24T10:21:32Z</time>
      </trkpt>
      <trkpt lat="62.635497387806" lon="17.986786181381">
        <ele>235.6</ele>
        <time>2018-03-24T10:21:33Z</time>
      </trkpt>
      <trkpt lat="62.635478025617" lon="17.986825073397">
        <ele>235.6</ele>
        <time>2018-03-24T10:21:34Z</time>
      </trkpt>
      <trkpt lat="62.635463944025" lon="17.986862875766">
        <ele>235.6</ele>
        <time>2018-03-24T10:21:35Z</time>
      </trkpt>
      <trkpt lat="62.635444917112" lon="17.986915178822">
        <ele>235.8</ele>
        <time>2018-03-24T10:21:36Z</time>
      </trkpt>
      <trkpt lat="62.635427063665" lon="17.986949125517">
        <ele>235.8</ele>
        <time>2018-03-24T10:21:37Z</time>
      </trkpt>
      <trkpt lat="62.635409545494" lon="17.986994806872">
        <ele>236</ele>
        <time>2018-03-24T10:21:38Z</time>
      </trkpt>
      <trkpt lat="62.635398481386" lon="17.987021880409">
        <ele>236</ele>
        <time>2018-03-24T10:21:39Z</time>
      </trkpt>
      <trkpt lat="62.635382639595" lon="17.987048031937">
        <ele>236</ele>
        <time>2018-03-24T10:21:40Z</time>
      </trkpt>
      <trkpt lat="62.6353654567" lon="17.987090444351">
        <ele>236</ele>
        <time>2018-03-24T10:21:41Z</time>
      </trkpt>
      <trkpt lat="62.635340897733" lon="17.987130928928">
        <ele>236.2</ele>
        <time>2018-03-24T10:21:42Z</time>
      </trkpt>
      <trkpt lat="62.635330001263" lon="17.987153727696">
        <ele>236.2</ele>
        <time>2018-03-24T10:21:43Z</time>
      </trkpt>
      <trkpt lat="62.635311561083" lon="17.987182980527">
        <ele>236.4</ele>
        <time>2018-03-24T10:21:44Z</time>
      </trkpt>
      <trkpt lat="62.635296641301" lon="17.987223632742">
        <ele>236.4</ele>
        <time>2018-03-24T10:21:45Z</time>
      </trkpt>
      <trkpt lat="62.635271747058" lon="17.987263027672">
        <ele>236.6</ele>
        <time>2018-03-24T10:21:46Z</time>
      </trkpt>
      <trkpt lat="62.635255737629" lon="17.987304937172">
        <ele>236.4</ele>
        <time>2018-03-24T10:21:47Z</time>
      </trkpt>
      <trkpt lat="62.635237884182" lon="17.987331675433">
        <ele>236.6</ele>
        <time>2018-03-24T10:21:48Z</time>
      </trkpt>
      <trkpt lat="62.635231765395" lon="17.98737216001">
        <ele>236.6</ele>
        <time>2018-03-24T10:21:49Z</time>
      </trkpt>
      <trkpt lat="62.635206368238" lon="17.9874149077">
        <ele>236.6</ele>
        <time>2018-03-24T10:21:50Z</time>
      </trkpt>
      <trkpt lat="62.635195220311" lon="17.987457403933">
        <ele>236.6</ele>
        <time>2018-03-24T10:21:51Z</time>
      </trkpt>
      <trkpt lat="62.635176109579" lon="17.987491769723">
        <ele>236.8</ele>
        <time>2018-03-24T10:21:52Z</time>
      </trkpt>
      <trkpt lat="62.635160016331" lon="17.987534685051">
        <ele>237</ele>
        <time>2018-03-24T10:21:53Z</time>
      </trkpt>
      <trkpt lat="62.63515926196" lon="17.98757164923">
        <ele>237.2</ele>
        <time>2018-03-24T10:21:54Z</time>
      </trkpt>
      <trkpt lat="62.635151047698" lon="17.987619258422">
        <ele>237.4</ele>
        <time>2018-03-24T10:21:55Z</time>
      </trkpt>
      <trkpt lat="62.635143839264" lon="17.987666280881">
        <ele>237.6</ele>
        <time>2018-03-24T10:21:56Z</time>
      </trkpt>
      <trkpt lat="62.635144425997" lon="17.987706262544">
        <ele>238</ele>
        <time>2018-03-24T10:21:57Z</time>
      </trkpt>
      <trkpt lat="62.635131434052" lon="17.987750602795">
        <ele>238.2</ele>
        <time>2018-03-24T10:21:58Z</time>
      </trkpt>
      <trkpt lat="62.635129003301" lon="17.987800056005">
        <ele>238.4</ele>
        <time>2018-03-24T10:21:59Z</time>
      </trkpt>
      <trkpt lat="62.635120286125" lon="17.987847497559">
        <ele>238.8</ele>
        <time>2018-03-24T10:22:00Z</time>
      </trkpt>
      <trkpt lat="62.63511232332" lon="17.987898710968">
        <ele>238.8</ele>
        <time>2018-03-24T10:22:01Z</time>
      </trkpt>
      <trkpt lat="62.635109473474" lon="17.98794045283">
        <ele>238.8</ele>
        <time>2018-03-24T10:22:02Z</time>
      </trkpt>
      <trkpt lat="62.635097654995" lon="17.987992923524">
        <ele>238.8</ele>
        <time>2018-03-24T10:22:03Z</time>
      </trkpt>
      <trkpt lat="62.635099079918" lon="17.988032569911">
        <ele>238.8</ele>
        <time>2018-03-24T10:22:04Z</time>
      </trkpt>
      <trkpt lat="62.635080388281" lon="17.988091662306">
        <ele>238.8</ele>
        <time>2018-03-24T10:22:05Z</time>
      </trkpt>
      <trkpt lat="62.635073179847" lon="17.988148910683">
        <ele>239</ele>
        <time>2018-03-24T10:22:06Z</time>
      </trkpt>
      <trkpt lat="62.635046525405" lon="17.988191239278">
        <ele>239.2</ele>
        <time>2018-03-24T10:22:07Z</time>
      </trkpt>
      <trkpt lat="62.635034706926" lon="17.988229879837">
        <ele>239.2</ele>
        <time>2018-03-24T10:22:08Z</time>
      </trkpt>
      <trkpt lat="62.635021379705" lon="17.988258462116">
        <ele>239.4</ele>
        <time>2018-03-24T10:22:09Z</time>
      </trkpt>
      <trkpt lat="62.635000508774" lon="17.988286122386">
        <ele>239.4</ele>
        <time>2018-03-24T10:22:10Z</time>
      </trkpt>
      <trkpt lat="62.634983996431" lon="17.98830506548">
        <ele>239.4</ele>
        <time>2018-03-24T10:22:11Z</time>
      </trkpt>
      <trkpt lat="62.634962790224" lon="17.988338676899">
        <ele>239.4</ele>
        <time>2018-03-24T10:22:12Z</time>
      </trkpt>
      <trkpt lat="62.634939488542" lon="17.988362816771">
        <ele>239.4</ele>
        <time>2018-03-24T10:22:13Z</time>
      </trkpt>
      <trkpt lat="62.634925155493" lon="17.988382681874">
        <ele>239.4</ele>
        <time>2018-03-24T10:22:14Z</time>
      </trkpt>
      <trkpt lat="62.634899590698" lon="17.988397936932">
        <ele>239.4</ele>
        <time>2018-03-24T10:22:15Z</time>
      </trkpt>
      <trkpt lat="62.634879055043" lon="17.988413778723">
        <ele>239.4</ele>
        <time>2018-03-24T10:22:16Z</time>
      </trkpt>
      <trkpt lat="62.634862291243" lon="17.988424256098">
        <ele>239.6</ele>
        <time>2018-03-24T10:22:17Z</time>
      </trkpt>
      <trkpt lat="62.634839576294" lon="17.988433727645">
        <ele>239.6</ele>
        <time>2018-03-24T10:22:18Z</time>
      </trkpt>
      <trkpt lat="62.63482147139" lon="17.988457280784">
        <ele>239.6</ele>
        <time>2018-03-24T10:22:19Z</time>
      </trkpt>
      <trkpt lat="62.634793978758" lon="17.98846683615">
        <ele>239.8</ele>
        <time>2018-03-24T10:22:20Z</time>
      </trkpt>
      <trkpt lat="62.634778639881" lon="17.988496508076">
        <ele>239.8</ele>
        <time>2018-03-24T10:22:21Z</time>
      </trkpt>
      <trkpt lat="62.634762630452" lon="17.988517714283">
        <ele>239.8</ele>
        <time>2018-03-24T10:22:22Z</time>
      </trkpt>
      <trkpt lat="62.634736227467" lon="17.988531712056">
        <ele>239.8</ele>
        <time>2018-03-24T10:22:23Z</time>
      </trkpt>
      <trkpt lat="62.634709908301" lon="17.988546380381">
        <ele>240</ele>
        <time>2018-03-24T10:22:24Z</time>
      </trkpt>
      <trkpt lat="62.634682918583" lon="17.988568927692">
        <ele>240.2</ele>
        <time>2018-03-24T10:22:25Z</time>
      </trkpt>
      <trkpt lat="62.634667663525" lon="17.98858166818">
        <ele>240.4</ele>
        <time>2018-03-24T10:22:26Z</time>
      </trkpt>
      <trkpt lat="62.63464042235" lon="17.98859843198">
        <ele>240.6</ele>
        <time>2018-03-24T10:22:27Z</time>
      </trkpt>
      <trkpt lat="62.634619299962" lon="17.988610082821">
        <ele>240.8</ele>
        <time>2018-03-24T10:22:28Z</time>
      </trkpt>
      <trkpt lat="62.634607481483" lon="17.988629528829">
        <ele>241.2</ele>
        <time>2018-03-24T10:22:29Z</time>
      </trkpt>
      <trkpt lat="62.63458007267" lon="17.988652662873">
        <ele>241.6</ele>
        <time>2018-03-24T10:22:30Z</time>
      </trkpt>
      <trkpt lat="62.634555597522" lon="17.988668169388">
        <ele>241.6</ele>
        <time>2018-03-24T10:22:31Z</time>
      </trkpt>
      <trkpt lat="62.634539923369" lon="17.988694656192">
        <ele>241.8</ele>
        <time>2018-03-24T10:22:32Z</time>
      </trkpt>
      <trkpt lat="62.634510754357" lon="17.988720053349">
        <ele>242.2</ele>
        <time>2018-03-24T10:22:33Z</time>
      </trkpt>
      <trkpt lat="62.634495583118" lon="17.988754251501">
        <ele>242.2</ele>
        <time>2018-03-24T10:22:34Z</time>
      </trkpt>
      <trkpt lat="62.634473119626" lon="17.988784426341">
        <ele>242.2</ele>
        <time>2018-03-24T10:22:35Z</time>
      </trkpt>
      <trkpt lat="62.634453338342" lon="17.988824659461">
        <ele>242.4</ele>
        <time>2018-03-24T10:22:36Z</time>
      </trkpt>
      <trkpt lat="62.634443950614" lon="17.988856175405">
        <ele>242.4</ele>
        <time>2018-03-24T10:22:37Z</time>
      </trkpt>
      <trkpt lat="62.634420481294" lon="17.988887356073">
        <ele>242.4</ele>
        <time>2018-03-24T10:22:38Z</time>
      </trkpt>
      <trkpt lat="62.634406651159" lon="17.98893706074">
        <ele>242.4</ele>
        <time>2018-03-24T10:22:39Z</time>
      </trkpt>
      <trkpt lat="62.634385528771" lon="17.988962960811">
        <ele>242.4</ele>
        <time>2018-03-24T10:22:40Z</time>
      </trkpt>
      <trkpt lat="62.634376979233" lon="17.9890158506">
        <ele>242.6</ele>
        <time>2018-03-24T10:22:41Z</time>
      </trkpt>
      <trkpt lat="62.634354851017" lon="17.989041583033">
        <ele>242.6</ele>
        <time>2018-03-24T10:22:42Z</time>
      </trkpt>
      <trkpt lat="62.63434621766" lon="17.989084749818">
        <ele>242.6</ele>
        <time>2018-03-24T10:22:43Z</time>
      </trkpt>
      <trkpt lat="62.634317132467" lon="17.989109057328">
        <ele>242.8</ele>
        <time>2018-03-24T10:22:44Z</time>
      </trkpt>
      <trkpt lat="62.634298189373" lon="17.989160773651">
        <ele>242.8</ele>
        <time>2018-03-24T10:22:45Z</time>
      </trkpt>
      <trkpt lat="62.634276396433" lon="17.98918097403">
        <ele>243</ele>
        <time>2018-03-24T10:22:46Z</time>
      </trkpt>
      <trkpt lat="62.634265164687" lon="17.989232606534">
        <ele>243</ele>
        <time>2018-03-24T10:22:47Z</time>
      </trkpt>
      <trkpt lat="62.634238426426" lon="17.989258590424">
        <ele>243.2</ele>
        <time>2018-03-24T10:22:48Z</time>
      </trkpt>
      <trkpt lat="62.634214202735" lon="17.989291363653">
        <ele>243.2</ele>
        <time>2018-03-24T10:22:49Z</time>
      </trkpt>
      <trkpt lat="62.634198780039" lon="17.989318018095">
        <ele>243.2</ele>
        <time>2018-03-24T10:22:50Z</time>
      </trkpt>
      <trkpt lat="62.634168605199" lon="17.989336793551">
        <ele>243.2</ele>
        <time>2018-03-24T10:22:51Z</time>
      </trkpt>
      <trkpt lat="62.634155445616" lon="17.989360598147">
        <ele>243.2</ele>
        <time>2018-03-24T10:22:52Z</time>
      </trkpt>
      <trkpt lat="62.634139268549" lon="17.989398400516">
        <ele>243.4</ele>
        <time>2018-03-24T10:22:53Z</time>
      </trkpt>
      <trkpt lat="62.634114122849" lon="17.98941734361">
        <ele>243.4</ele>
        <time>2018-03-24T10:22:54Z</time>
      </trkpt>
      <trkpt lat="62.634097526687" lon="17.989441986396">
        <ele>243.4</ele>
        <time>2018-03-24T10:22:55Z</time>
      </trkpt>
      <trkpt lat="62.634072548625" lon="17.989462354413">
        <ele>243.6</ele>
        <time>2018-03-24T10:22:56Z</time>
      </trkpt>
      <trkpt lat="62.634055449549" lon="17.989492277796">
        <ele>243.8</ele>
        <time>2018-03-24T10:22:57Z</time>
      </trkpt>
      <trkpt lat="62.634033237514" lon="17.989503844818">
        <ele>244</ele>
        <time>2018-03-24T10:22:58Z</time>
      </trkpt>
      <trkpt lat="62.63401513261" lon="17.989537623875">
        <ele>244</ele>
        <time>2018-03-24T10:22:59Z</time>
      </trkpt>
      <trkpt lat="62.633991328014" lon="17.989562601937">
        <ele>244</ele>
        <time>2018-03-24T10:23:00Z</time>
      </trkpt>
      <trkpt lat="62.633963500106" lon="17.989586322714">
        <ele>244</ele>
        <time>2018-03-24T10:23:01Z</time>
      </trkpt>
      <trkpt lat="62.633942712994" lon="17.989613731527">
        <ele>244.2</ele>
        <time>2018-03-24T10:23:02Z</time>
      </trkpt>
      <trkpt lat="62.633918573122" lon="17.98963275844">
        <ele>244.2</ele>
        <time>2018-03-24T10:23:03Z</time>
      </trkpt>
      <trkpt lat="62.633898875657" lon="17.989656563036">
        <ele>244.4</ele>
        <time>2018-03-24T10:23:04Z</time>
      </trkpt>
      <trkpt lat="62.633873059405" lon="17.989679445623">
        <ele>244.6</ele>
        <time>2018-03-24T10:23:05Z</time>
      </trkpt>
      <trkpt lat="62.633845482954" lon="17.989707860264">
        <ele>244.8</ele>
        <time>2018-03-24T10:23:06Z</time>
      </trkpt>
      <trkpt lat="62.633833748294" lon="17.989744405348">
        <ele>245</ele>
        <time>2018-03-24T10:23:07Z</time>
      </trkpt>
      <trkpt lat="62.633808183499" lon="17.989779609328">
        <ele>245</ele>
        <time>2018-03-24T10:23:08Z</time>
      </trkpt>
      <trkpt lat="62.633792593165" lon="17.989829984547">
        <ele>245</ele>
        <time>2018-03-24T10:23:09Z</time>
      </trkpt>
      <trkpt lat="62.633761831592" lon="17.989870972038">
        <ele>245</ele>
        <time>2018-03-24T10:23:10Z</time>
      </trkpt>
      <trkpt lat="62.633752276226" lon="17.989910283149">
        <ele>245</ele>
        <time>2018-03-24T10:23:11Z</time>
      </trkpt>
      <trkpt lat="62.633729561277" lon="17.989943391654">
        <ele>245.2</ele>
        <time>2018-03-24T10:23:12Z</time>
      </trkpt>
      <trkpt lat="62.633715647323" lon="17.989974823779">
        <ele>245</ele>
        <time>2018-03-24T10:23:13Z</time>
      </trkpt>
      <trkpt lat="62.633698715885" lon="17.99000994394">
        <ele>245.2</ele>
        <time>2018-03-24T10:23:14Z</time>
      </trkpt>
      <trkpt lat="62.633678096411" lon="17.990061995539">
        <ele>245</ele>
        <time>2018-03-24T10:23:15Z</time>
      </trkpt>
      <trkpt lat="62.633664853009" lon="17.990097283338">
        <ele>245.2</ele>
        <time>2018-03-24T10:23:16Z</time>
      </trkpt>
      <trkpt lat="62.633639791128" lon="17.99014992167">
        <ele>245.2</ele>
        <time>2018-03-24T10:23:17Z</time>
      </trkpt>
      <trkpt lat="62.633630990133" lon="17.990192082627">
        <ele>245.2</ele>
        <time>2018-03-24T10:23:18Z</time>
      </trkpt>
      <trkpt lat="62.633600060922" lon="17.990223514752">
        <ele>245.2</ele>
        <time>2018-03-24T10:23:19Z</time>
      </trkpt>
      <trkpt lat="62.633584386769" lon="17.990255114515">
        <ele>245.2</ele>
        <time>2018-03-24T10:23:20Z</time>
      </trkpt>
      <trkpt lat="62.633573322661" lon="17.990279589663">
        <ele>245.2</ele>
        <time>2018-03-24T10:23:21Z</time>
      </trkpt>
      <trkpt lat="62.633539962699" lon="17.990292749246">
        <ele>245.4</ele>
        <time>2018-03-24T10:23:22Z</time>
      </trkpt>
      <trkpt lat="62.633516493379" lon="17.990330635434">
        <ele>245.4</ele>
        <time>2018-03-24T10:23:23Z</time>
      </trkpt>
      <trkpt lat="62.633492604964" lon="17.990343795017">
        <ele>245.4</ele>
        <time>2018-03-24T10:23:24Z</time>
      </trkpt>
      <trkpt lat="62.633472404585" lon="17.990359385351">
        <ele>245.6</ele>
        <time>2018-03-24T10:23:25Z</time>
      </trkpt>
      <trkpt lat="62.633444073763" lon="17.990369443631">
        <ele>245.6</ele>
        <time>2018-03-24T10:23:26Z</time>
      </trkpt>
      <trkpt lat="62.633422699918" lon="17.990391404209">
        <ele>246</ele>
        <time>2018-03-24T10:23:27Z</time>
      </trkpt>
      <trkpt lat="62.63339738658" lon="17.990390901295">
        <ele>246</ele>
        <time>2018-03-24T10:23:28Z</time>
      </trkpt>
      <trkpt lat="62.633366457369" lon="17.990387213259">
        <ele>246.2</ele>
        <time>2018-03-24T10:23:29Z</time>
      </trkpt>
      <trkpt lat="62.633340138203" lon="17.990420237945">
        <ele>246.2</ele>
        <time>2018-03-24T10:23:30Z</time>
      </trkpt>
      <trkpt lat="62.633303844576" lon="17.990448820224">
        <ele>246.4</ele>
        <time>2018-03-24T10:23:31Z</time>
      </trkpt>
      <trkpt lat="62.633280961989" lon="17.990468685327">
        <ele>246.2</ele>
        <time>2018-03-24T10:23:32Z</time>
      </trkpt>
      <trkpt lat="62.633255564832" lon="17.99049441776">
        <ele>246</ele>
        <time>2018-03-24T10:23:33Z</time>
      </trkpt>
      <trkpt lat="62.633230754408" lon="17.990539512382">
        <ele>246</ele>
        <time>2018-03-24T10:23:34Z</time>
      </trkpt>
      <trkpt lat="62.63320627926" lon="17.990578069122">
        <ele>246</ele>
        <time>2018-03-24T10:23:35Z</time>
      </trkpt>
      <trkpt lat="62.633185995062" lon="17.990632886748">
        <ele>245.8</ele>
        <time>2018-03-24T10:23:36Z</time>
      </trkpt>
      <trkpt lat="62.633171745832" lon="17.990665911434">
        <ele>245.8</ele>
        <time>2018-03-24T10:23:37Z</time>
      </trkpt>
      <trkpt lat="62.633149785254" lon="17.990711006056">
        <ele>245.8</ele>
        <time>2018-03-24T10:23:38Z</time>
      </trkpt>
      <trkpt lat="62.633135368386" lon="17.990750820081">
        <ele>245.8</ele>
        <time>2018-03-24T10:23:39Z</time>
      </trkpt>
      <trkpt lat="62.633115335645" lon="17.990800608567">
        <ele>245.8</ele>
        <time>2018-03-24T10:23:40Z</time>
      </trkpt>
      <trkpt lat="62.633093542705" lon="17.990864478645">
        <ele>245.8</ele>
        <time>2018-03-24T10:23:41Z</time>
      </trkpt>
      <trkpt lat="62.633080466941" lon="17.990912842208">
        <ele>245.8</ele>
        <time>2018-03-24T10:23:42Z</time>
      </trkpt>
      <trkpt lat="62.63307300705" lon="17.990956595726">
        <ele>245.8</ele>
        <time>2018-03-24T10:23:43Z</time>
      </trkpt>
      <trkpt lat="62.633063116408" lon="17.990995152466">
        <ele>245.8</ele>
        <time>2018-03-24T10:23:44Z</time>
      </trkpt>
      <trkpt lat="62.633037719251" lon="17.991063297313">
        <ele>245.8</ele>
        <time>2018-03-24T10:23:45Z</time>
      </trkpt>
      <trkpt lat="62.633029085894" lon="17.991119204586">
        <ele>245.8</ele>
        <time>2018-03-24T10:23:46Z</time>
      </trkpt>
      <trkpt lat="62.633013160284" lon="17.991175279497">
        <ele>245.8</ele>
        <time>2018-03-24T10:23:47Z</time>
      </trkpt>
      <trkpt lat="62.632991870258" lon="17.991230767675">
        <ele>245.8</ele>
        <time>2018-03-24T10:23:48Z</time>
      </trkpt>
      <trkpt lat="62.63299002624" lon="17.99126722894">
        <ele>245.8</ele>
        <time>2018-03-24T10:23:49Z</time>
      </trkpt>
      <trkpt lat="62.632962030694" lon="17.991309389897">
        <ele>246</ele>
        <time>2018-03-24T10:23:50Z</time>
      </trkpt>
      <trkpt lat="62.632949960758" lon="17.991342079307">
        <ele>246</ele>
        <time>2018-03-24T10:23:51Z</time>
      </trkpt>
      <trkpt lat="62.632927748723" lon="17.991386168101">
        <ele>246</ele>
        <time>2018-03-24T10:23:52Z</time>
      </trkpt>
      <trkpt lat="62.63290788362" lon="17.991442159193">
        <ele>246</ele>
        <time>2018-03-24T10:23:53Z</time>
      </trkpt>
      <trkpt lat="62.632887431784" lon="17.991488594919">
        <ele>246</ele>
        <time>2018-03-24T10:23:54Z</time>
      </trkpt>
      <trkpt lat="62.632868823966" lon="17.991555314843">
        <ele>246</ele>
        <time>2018-03-24T10:23:55Z</time>
      </trkpt>
      <trkpt lat="62.632857424582" lon="17.991593201031">
        <ele>246</ele>
        <time>2018-03-24T10:23:56Z</time>
      </trkpt>
      <trkpt lat="62.632832865615" lon="17.991628237373">
        <ele>246</ele>
        <time>2018-03-24T10:23:57Z</time>
      </trkpt>
      <trkpt lat="62.632811575589" lon="17.991669308683">
        <ele>246</ele>
        <time>2018-03-24T10:23:58Z</time>
      </trkpt>
      <trkpt lat="62.63279305159" lon="17.991716247323">
        <ele>246</ele>
        <time>2018-03-24T10:23:59Z</time>
      </trkpt>
      <trkpt lat="62.632776706885" lon="17.991811800983">
        <ele>246</ele>
        <time>2018-03-24T10:24:00Z</time>
      </trkpt>
      <trkpt lat="62.632770755736" lon="17.99185982927">
        <ele>246</ele>
        <time>2018-03-24T10:24:01Z</time>
      </trkpt>
      <trkpt lat="62.632771761564" lon="17.991909450118">
        <ele>246</ele>
        <time>2018-03-24T10:24:02Z</time>
      </trkpt>
      <trkpt lat="62.632789363554" lon="17.991962759002">
        <ele>246.2</ele>
        <time>2018-03-24T10:24:03Z</time>
      </trkpt>
      <trkpt lat="62.632808055191" lon="17.99198555777">
        <ele>246.2</ele>
        <time>2018-03-24T10:24:04Z</time>
      </trkpt>
      <trkpt lat="62.632827585018" lon="17.992010619651">
        <ele>246.4</ele>
        <time>2018-03-24T10:24:05Z</time>
      </trkpt>
      <trkpt lat="62.632849629415" lon="17.992016319343">
        <ele>246.4</ele>
        <time>2018-03-24T10:24:06Z</time>
      </trkpt>
      <trkpt lat="62.63287267964" lon="17.992020091198">
        <ele>246.4</ele>
        <time>2018-03-24T10:24:07Z</time>
      </trkpt>
      <trkpt lat="62.632888940526" lon="17.992032161134">
        <ele>246.6</ele>
        <time>2018-03-24T10:24:08Z</time>
      </trkpt>
      <trkpt lat="62.632903860308" lon="17.992042722328">
        <ele>246.6</ele>
        <time>2018-03-24T10:24:09Z</time>
      </trkpt>
      <trkpt lat="62.632920624108" lon="17.992043309061">
        <ele>246.6</ele>
        <time>2018-03-24T10:24:10Z</time>
      </trkpt>
      <trkpt lat="62.632949374025" lon="17.992065772553">
        <ele>246.6</ele>
        <time>2018-03-24T10:24:11Z</time>
      </trkpt>
      <trkpt lat="62.632976363743" lon="17.992069209132">
        <ele>246.6</ele>
        <time>2018-03-24T10:24:12Z</time>
      </trkpt>
      <trkpt lat="62.633005197479" lon="17.992081865801">
        <ele>246.6</ele>
        <time>2018-03-24T10:24:13Z</time>
      </trkpt>
      <trkpt lat="62.633038389803" lon="17.992083709819">
        <ele>246.4</ele>
        <time>2018-03-24T10:24:14Z</time>
      </trkpt>
      <trkpt lat="62.633068983738" lon="17.992100222162">
        <ele>246.4</ele>
        <time>2018-03-24T10:24:15Z</time>
      </trkpt>
      <trkpt lat="62.633090944316" lon="17.99211547722">
        <ele>246.4</ele>
        <time>2018-03-24T10:24:16Z</time>
      </trkpt>
      <trkpt lat="62.633127657038" lon="17.99213056464">
        <ele>246.4</ele>
        <time>2018-03-24T10:24:17Z</time>
      </trkpt>
      <trkpt lat="62.633156658412" lon="17.992140036187">
        <ele>246.4</ele>
        <time>2018-03-24T10:24:18Z</time>
      </trkpt>
      <trkpt lat="62.633185240691" lon="17.992160320385">
        <ele>246.4</ele>
        <time>2018-03-24T10:24:19Z</time>
      </trkpt>
      <trkpt lat="62.633220779947" lon="17.992179347298">
        <ele>246.4</ele>
        <time>2018-03-24T10:24:20Z</time>
      </trkpt>
      <trkpt lat="62.633249362226" lon="17.992173563787">
        <ele>246.2</ele>
        <time>2018-03-24T10:24:21Z</time>
      </trkpt>
      <trkpt lat="62.633271574261" lon="17.992187477741">
        <ele>246.2</ele>
        <time>2018-03-24T10:24:22Z</time>
      </trkpt>
      <trkpt lat="62.633299905083" lon="17.992190495225">
        <ele>246.2</ele>
        <time>2018-03-24T10:24:23Z</time>
      </trkpt>
      <trkpt lat="62.633342233678" lon="17.992203822446">
        <ele>246.2</ele>
        <time>2018-03-24T10:24:24Z</time>
      </trkpt>
      <trkpt lat="62.633371737966" lon="17.992197116926">
        <ele>246.2</ele>
        <time>2018-03-24T10:24:25Z</time>
      </trkpt>
      <trkpt lat="62.633415323846" lon="17.992221759712">
        <ele>246.2</ele>
        <time>2018-03-24T10:24:26Z</time>
      </trkpt>
      <trkpt lat="62.633457903898" lon="17.992243217376">
        <ele>246</ele>
        <time>2018-03-24T10:24:27Z</time>
      </trkpt>
      <trkpt lat="62.633497298828" lon="17.99227389513">
        <ele>245.6</ele>
        <time>2018-03-24T10:24:28Z</time>
      </trkpt>
      <trkpt lat="62.633529652962" lon="17.992319576485">
        <ele>245.2</ele>
        <time>2018-03-24T10:24:29Z</time>
      </trkpt>
      <trkpt lat="62.633569634625" lon="17.992372466274">
        <ele>244.6</ele>
        <time>2018-03-24T10:24:30Z</time>
      </trkpt>
      <trkpt lat="62.633612969048" lon="17.992414040498">
        <ele>244</ele>
        <time>2018-03-24T10:24:31Z</time>
      </trkpt>
      <trkpt lat="62.633641635146" lon="17.992478329671">
        <ele>243.6</ele>
        <time>2018-03-24T10:24:32Z</time>
      </trkpt>
      <trkpt lat="62.633660745878" lon="17.992529459261">
        <ele>243.4</ele>
        <time>2018-03-24T10:24:33Z</time>
      </trkpt>
      <trkpt lat="62.633683879922" lon="17.992574889159">
        <ele>243.4</ele>
        <time>2018-03-24T10:24:34Z</time>
      </trkpt>
      <trkpt lat="62.63371003145" lon="17.992635574115">
        <ele>243.6</ele>
        <time>2018-03-24T10:24:35Z</time>
      </trkpt>
      <trkpt lat="62.633740876842" lon="17.992693241587">
        <ele>243.6</ele>
        <time>2018-03-24T10:24:36Z</time>
      </trkpt>
      <trkpt lat="62.633770967863" lon="17.992766164117">
        <ele>243.8</ele>
        <time>2018-03-24T10:24:37Z</time>
      </trkpt>
      <trkpt lat="62.633804914558" lon="17.992835230973">
        <ele>243.6</ele>
        <time>2018-03-24T10:24:38Z</time>
      </trkpt>
      <trkpt lat="62.633837520149" lon="17.992887366391">
        <ele>243.4</ele>
        <time>2018-03-24T10:24:39Z</time>
      </trkpt>
      <trkpt lat="62.633863084944" lon="17.992946207329">
        <ele>243.4</ele>
        <time>2018-03-24T10:24:40Z</time>
      </trkpt>
      <trkpt lat="62.633894265612" lon="17.993027511759">
        <ele>243.2</ele>
        <time>2018-03-24T10:24:41Z</time>
      </trkpt>
      <trkpt lat="62.63392293171" lon="17.993085682145">
        <ele>243.2</ele>
        <time>2018-03-24T10:24:42Z</time>
      </trkpt>
      <trkpt lat="62.633961739907" lon="17.993141002685">
        <ele>243</ele>
        <time>2018-03-24T10:24:43Z</time>
      </trkpt>
      <trkpt lat="62.634002811217" lon="17.993197161415">
        <ele>242.8</ele>
        <time>2018-03-24T10:24:44Z</time>
      </trkpt>
      <trkpt lat="62.634047905839" lon="17.993264887167">
        <ele>242.6</ele>
        <time>2018-03-24T10:24:45Z</time>
      </trkpt>
      <trkpt lat="62.634087971321" lon="17.993314424196">
        <ele>242.4</ele>
        <time>2018-03-24T10:24:46Z</time>
      </trkpt>
      <trkpt lat="62.63413583197" lon="17.993368822727">
        <ele>242.2</ele>
        <time>2018-03-24T10:24:47Z</time>
      </trkpt>
      <trkpt lat="62.634190398139" lon="17.99342053905">
        <ele>242.2</ele>
        <time>2018-03-24T10:24:48Z</time>
      </trkpt>
      <trkpt lat="62.634236833865" lon="17.99345322846">
        <ele>241.8</ele>
        <time>2018-03-24T10:24:49Z</time>
      </trkpt>
      <trkpt lat="62.634296512993" lon="17.993479463807">
        <ele>241.6</ele>
        <time>2018-03-24T10:24:50Z</time>
      </trkpt>
      <trkpt lat="62.634354180465" lon="17.993509973923">
        <ele>241.2</ele>
        <time>2018-03-24T10:24:51Z</time>
      </trkpt>
      <trkpt lat="62.634410423014" lon="17.993528497922">
        <ele>240.8</ele>
        <time>2018-03-24T10:24:52Z</time>
      </trkpt>
      <trkpt lat="62.634476304748" lon="17.993558756581">
        <ele>240.2</ele>
        <time>2018-03-24T10:24:53Z</time>
      </trkpt>
      <trkpt lat="62.634538330808" lon="17.993592535638">
        <ele>239.6</ele>
        <time>2018-03-24T10:24:54Z</time>
      </trkpt>
      <trkpt lat="62.63460689475" lon="17.993616172596">
        <ele>238.4</ele>
        <time>2018-03-24T10:24:55Z</time>
      </trkpt>
      <trkpt lat="62.63468065547" lon="17.993654142603">
        <ele>237.4</ele>
        <time>2018-03-24T10:24:56Z</time>
      </trkpt>
      <trkpt lat="62.634752153077" lon="17.993668224195">
        <ele>236.4</ele>
        <time>2018-03-24T10:24:57Z</time>
      </trkpt>
      <trkpt lat="62.634838067552" lon="17.993675935543">
        <ele>235.2</ele>
        <time>2018-03-24T10:24:58Z</time>
      </trkpt>
      <trkpt lat="62.634903530191" lon="17.993677611923">
        <ele>234.2</ele>
        <time>2018-03-24T10:24:59Z</time>
      </trkpt>
      <trkpt lat="62.634971255943" lon="17.993691861153">
        <ele>233.4</ele>
        <time>2018-03-24T10:25:00Z</time>
      </trkpt>
      <trkpt lat="62.6350301807" lon="17.99371222917">
        <ele>233</ele>
        <time>2018-03-24T10:25:01Z</time>
      </trkpt>
      <trkpt lat="62.635069743268" lon="17.993730501712">
        <ele>232.4</ele>
        <time>2018-03-24T10:25:02Z</time>
      </trkpt>
      <trkpt lat="62.635126069636" lon="17.993765202778">
        <ele>232.2</ele>
        <time>2018-03-24T10:25:03Z</time>
      </trkpt>
      <trkpt lat="62.635174852294" lon="17.9937767698">
        <ele>232.4</ele>
        <time>2018-03-24T10:25:04Z</time>
      </trkpt>
      <trkpt lat="62.635235034336" lon="17.993788253003">
        <ele>232.4</ele>
        <time>2018-03-24T10:25:05Z</time>
      </trkpt>
      <trkpt lat="62.635299910242" lon="17.993805184441">
        <ele>232.4</ele>
        <time>2018-03-24T10:25:06Z</time>
      </trkpt>
      <trkpt lat="62.635353889678" lon="17.993812476694">
        <ele>232.4</ele>
        <time>2018-03-24T10:25:07Z</time>
      </trkpt>
      <trkpt lat="62.635403426707" lon="17.993822451155">
        <ele>232.4</ele>
        <time>2018-03-24T10:25:08Z</time>
      </trkpt>
      <trkpt lat="62.635446425854" lon="17.993839047317">
        <ele>232.2</ele>
        <time>2018-03-24T10:25:09Z</time>
      </trkpt>
      <trkpt lat="62.635496717254" lon="17.993822367336">
        <ele>231.8</ele>
        <time>2018-03-24T10:25:10Z</time>
      </trkpt>
      <trkpt lat="62.635555474373" lon="17.99383711948">
        <ele>231.4</ele>
        <time>2018-03-24T10:25:11Z</time>
      </trkpt>
      <trkpt lat="62.635620434098" lon="17.993896798608">
        <ele>231</ele>
        <time>2018-03-24T10:25:12Z</time>
      </trkpt>
      <trkpt lat="62.635669300575" lon="17.993899732273">
        <ele>230.8</ele>
        <time>2018-03-24T10:25:13Z</time>
      </trkpt>
      <trkpt lat="62.635719005242" lon="17.99390333649">
        <ele>230.4</ele>
        <time>2018-03-24T10:25:14Z</time>
      </trkpt>
      <trkpt lat="62.635781701854" lon="17.993937450823">
        <ele>229.6</ele>
        <time>2018-03-24T10:25:15Z</time>
      </trkpt>
      <trkpt lat="62.635819001309" lon="17.993950861863">
        <ele>229</ele>
        <time>2018-03-24T10:25:16Z</time>
      </trkpt>
      <trkpt lat="62.635873316021" lon="17.993973828269">
        <ele>228.6</ele>
        <time>2018-03-24T10:25:17Z</time>
      </trkpt>
      <trkpt lat="62.635914135874" lon="17.993978019219">
        <ele>228.2</ele>
        <time>2018-03-24T10:25:18Z</time>
      </trkpt>
      <trkpt lat="62.635964175817" lon="17.993951280958">
        <ele>227.8</ele>
        <time>2018-03-24T10:25:19Z</time>
      </trkpt>
      <trkpt lat="62.636023184393" lon="17.993929404199">
        <ele>227.8</ele>
        <time>2018-03-24T10:25:20Z</time>
      </trkpt>
      <trkpt lat="62.636078672571" lon="17.993901492472">
        <ele>227.8</ele>
        <time>2018-03-24T10:25:21Z</time>
      </trkpt>
      <trkpt lat="62.636135166577" lon="17.993863606284">
        <ele>227.6</ele>
        <time>2018-03-24T10:25:22Z</time>
      </trkpt>
      <trkpt lat="62.636181686122" lon="17.993825887734">
        <ele>227</ele>
        <time>2018-03-24T10:25:23Z</time>
      </trkpt>
      <trkpt lat="62.636223511803" lon="17.993785403157">
        <ele>226.4</ele>
        <time>2018-03-24T10:25:24Z</time>
      </trkpt>
      <trkpt lat="62.636267097683" lon="17.993741398182">
        <ele>226</ele>
        <time>2018-03-24T10:25:25Z</time>
      </trkpt>
      <trkpt lat="62.636316047979" lon="17.993672498964">
        <ele>225.6</ele>
        <time>2018-03-24T10:25:26Z</time>
      </trkpt>
      <trkpt lat="62.636353850348" lon="17.993608125972">
        <ele>225</ele>
        <time>2018-03-24T10:25:27Z</time>
      </trkpt>
      <trkpt lat="62.63638134298" lon="17.993565462101">
        <ele>224.8</ele>
        <time>2018-03-24T10:25:28Z</time>
      </trkpt>
      <trkpt lat="62.636419229168" lon="17.993510057742">
        <ele>224.4</ele>
        <time>2018-03-24T10:25:29Z</time>
      </trkpt>
      <trkpt lat="62.636450745112" lon="17.993447612587">
        <ele>224.2</ele>
        <time>2018-03-24T10:25:30Z</time>
      </trkpt>
      <trkpt lat="62.636504892186" lon="17.993363039216">
        <ele>224.4</ele>
        <time>2018-03-24T10:25:31Z</time>
      </trkpt>
      <trkpt lat="62.636548561885" lon="17.993310233246">
        <ele>224.2</ele>
        <time>2018-03-24T10:25:32Z</time>
      </trkpt>
      <trkpt lat="62.636604133882" lon="17.99325625381">
        <ele>223.8</ele>
        <time>2018-03-24T10:25:33Z</time>
      </trkpt>
      <trkpt lat="62.636651323979" lon="17.993195317397">
        <ele>223.2</ele>
        <time>2018-03-24T10:25:34Z</time>
      </trkpt>
      <trkpt lat="62.63669734061" lon="17.993112420406">
        <ele>223</ele>
        <time>2018-03-24T10:25:35Z</time>
      </trkpt>
      <trkpt lat="62.636731203486" lon="17.993030445424">
        <ele>222.4</ele>
        <time>2018-03-24T10:25:36Z</time>
      </trkpt>
      <trkpt lat="62.636754505168" lon="17.992962132939">
        <ele>221.6</ele>
        <time>2018-03-24T10:25:37Z</time>
      </trkpt>
      <trkpt lat="62.636785182922" lon="17.992886025287">
        <ele>220.8</ele>
        <time>2018-03-24T10:25:38Z</time>
      </trkpt>
      <trkpt lat="62.636804461292" lon="17.992817209888">
        <ele>220.8</ele>
        <time>2018-03-24T10:25:39Z</time>
      </trkpt>
      <trkpt lat="62.636816866504" lon="17.992742778616">
        <ele>220.6</ele>
        <time>2018-03-24T10:25:40Z</time>
      </trkpt>
      <trkpt lat="62.636826589508" lon="17.992670191362">
        <ele>220.6</ele>
        <time>2018-03-24T10:25:41Z</time>
      </trkpt>
      <trkpt lat="62.63683061282" lon="17.992611182786">
        <ele>220.8</ele>
        <time>2018-03-24T10:25:42Z</time>
      </trkpt>
      <trkpt lat="62.636838072711" lon="17.992544965776">
        <ele>221.2</ele>
        <time>2018-03-24T10:25:43Z</time>
      </trkpt>
      <trkpt lat="62.636840000548" lon="17.992482772078">
        <ele>221.2</ele>
        <time>2018-03-24T10:25:44Z</time>
      </trkpt>
      <trkpt lat="62.636837737435" lon="17.992419404914">
        <ele>221.2</ele>
        <time>2018-03-24T10:25:45Z</time>
      </trkpt>
      <trkpt lat="62.63684150929" lon="17.992344806004">
        <ele>221.6</ele>
        <time>2018-03-24T10:25:46Z</time>
      </trkpt>
      <trkpt lat="62.63683899472" lon="17.992286216523">
        <ele>221.6</ele>
        <time>2018-03-24T10:25:47Z</time>
      </trkpt>
      <trkpt lat="62.636839078539" lon="17.992230895983">
        <ele>221.8</ele>
        <time>2018-03-24T10:25:48Z</time>
      </trkpt>
      <trkpt lat="62.636846706068" lon="17.992158057272">
        <ele>221.8</ele>
        <time>2018-03-24T10:25:49Z</time>
      </trkpt>
      <trkpt lat="62.636852321941" lon="17.99211296265">
        <ele>222</ele>
        <time>2018-03-24T10:25:50Z</time>
      </trkpt>
      <trkpt lat="62.636859530375" lon="17.992068706218">
        <ele>222.2</ele>
        <time>2018-03-24T10:25:51Z</time>
      </trkpt>
      <trkpt lat="62.636875791261" lon="17.99199896881">
        <ele>222.2</ele>
        <time>2018-03-24T10:25:52Z</time>
      </trkpt>
      <trkpt lat="62.636885178989" lon="17.991955969663">
        <ele>222.4</ele>
        <time>2018-03-24T10:25:53Z</time>
      </trkpt>
      <trkpt lat="62.636898338572" lon="17.99190592972">
        <ele>222.4</ele>
        <time>2018-03-24T10:25:54Z</time>
      </trkpt>
      <trkpt lat="62.636925244471" lon="17.99184306547">
        <ele>222.4</ele>
        <time>2018-03-24T10:25:55Z</time>
      </trkpt>
      <trkpt lat="62.636942175909" lon="17.99178690674">
        <ele>222.6</ele>
        <time>2018-03-24T10:25:56Z</time>
      </trkpt>
      <trkpt lat="62.636963549754" lon="17.991729826001">
        <ele>222.6</ele>
        <time>2018-03-24T10:25:57Z</time>
      </trkpt>
      <trkpt lat="62.636978637174" lon="17.991693197098">
        <ele>222.4</ele>
        <time>2018-03-24T10:25:58Z</time>
      </trkpt>
      <trkpt lat="62.636990539472" lon="17.991667967579">
        <ele>222.4</ele>
        <time>2018-03-24T10:25:59Z</time>
      </trkpt>
      <trkpt lat="62.63701166186" lon="17.991611305935">
        <ele>222.4</ele>
        <time>2018-03-24T10:26:00Z</time>
      </trkpt>
      <trkpt lat="62.637030353497" lon="17.991557075042">
        <ele>222.2</ele>
        <time>2018-03-24T10:26:01Z</time>
      </trkpt>
      <trkpt lat="62.63704267489" lon="17.991511728963">
        <ele>222.2</ele>
        <time>2018-03-24T10:26:02Z</time>
      </trkpt>
      <trkpt lat="62.637068239685" lon="17.991455737871">
        <ele>222.2</ele>
        <time>2018-03-24T10:26:03Z</time>
      </trkpt>
      <trkpt lat="62.637076956861" lon="17.991414247466">
        <ele>222.2</ele>
        <time>2018-03-24T10:26:04Z</time>
      </trkpt>
      <trkpt lat="62.637100426181" lon="17.991357418184">
        <ele>222.4</ele>
        <time>2018-03-24T10:26:05Z</time>
      </trkpt>
      <trkpt lat="62.637118195809" lon="17.991301007997">
        <ele>222.2</ele>
        <time>2018-03-24T10:26:06Z</time>
      </trkpt>
      <trkpt lat="62.637137725636" lon="17.99125968523">
        <ele>222.4</ele>
        <time>2018-03-24T10:26:07Z</time>
      </trkpt>
      <trkpt lat="62.637160608223" lon="17.991194557867">
        <ele>222.4</ele>
        <time>2018-03-24T10:26:08Z</time>
      </trkpt>
      <trkpt lat="62.637169409218" lon="17.991138315318">
        <ele>222.4</ele>
        <time>2018-03-24T10:26:09Z</time>
      </trkpt>
      <trkpt lat="62.63720444556" lon="17.99105851963">
        <ele>222.4</ele>
        <time>2018-03-24T10:26:10Z</time>
      </trkpt>
      <trkpt lat="62.637210815804" lon="17.990993056991">
        <ele>222.2</ele>
        <time>2018-03-24T10:26:11Z</time>
      </trkpt>
      <trkpt lat="62.637226070862" lon="17.990936730623">
        <ele>222.2</ele>
        <time>2018-03-24T10:26:12Z</time>
      </trkpt>
      <trkpt lat="62.637239062807" lon="17.990860120057">
        <ele>222.2</ele>
        <time>2018-03-24T10:26:13Z</time>
      </trkpt>
      <trkpt lat="62.63724216411" lon="17.990823910249">
        <ele>222.4</ele>
        <time>2018-03-24T10:26:14Z</time>
      </trkpt>
      <trkpt lat="62.637256245702" lon="17.99074671295">
        <ele>222.4</ele>
        <time>2018-03-24T10:26:15Z</time>
      </trkpt>
      <trkpt lat="62.637265884887" lon="17.990682507596">
        <ele>222.4</ele>
        <time>2018-03-24T10:26:16Z</time>
      </trkpt>
      <trkpt lat="62.637271249303" lon="17.99061595531">
        <ele>222.6</ele>
        <time>2018-03-24T10:26:17Z</time>
      </trkpt>
      <trkpt lat="62.637284576524" lon="17.990516378338">
        <ele>222.6</ele>
        <time>2018-03-24T10:26:18Z</time>
      </trkpt>
      <trkpt lat="62.637288096922" lon="17.990460973979">
        <ele>222.8</ele>
        <time>2018-03-24T10:26:19Z</time>
      </trkpt>
      <trkpt lat="62.637299328668" lon="17.990371790563">
        <ele>222.6</ele>
        <time>2018-03-24T10:26:20Z</time>
      </trkpt>
      <trkpt lat="62.637309470767" lon="17.990292833065">
        <ele>222.6</ele>
        <time>2018-03-24T10:26:21Z</time>
      </trkpt>
      <trkpt lat="62.637318020305" lon="17.990243212217">
        <ele>222.4</ele>
        <time>2018-03-24T10:26:22Z</time>
      </trkpt>
      <trkpt lat="62.63732430673" lon="17.990186718211">
        <ele>222.4</ele>
        <time>2018-03-24T10:26:23Z</time>
      </trkpt>
      <trkpt lat="62.637326737481" lon="17.990133912241">
        <ele>222.2</ele>
        <time>2018-03-24T10:26:24Z</time>
      </trkpt>
      <trkpt lat="62.63733855596" lon="17.990078004968">
        <ele>222.4</ele>
        <time>2018-03-24T10:26:25Z</time>
      </trkpt>
      <trkpt lat="62.637351380267" lon="17.990004495705">
        <ele>222.4</ele>
        <time>2018-03-24T10:26:26Z</time>
      </trkpt>
      <trkpt lat="62.637366300049" lon="17.989945738586">
        <ele>222.4</ele>
        <time>2018-03-24T10:26:27Z</time>
      </trkpt>
      <trkpt lat="62.637386500428" lon="17.989912043348">
        <ele>222.6</ele>
        <time>2018-03-24T10:26:28Z</time>
      </trkpt>
      <trkpt lat="62.637409383015" lon="17.989872229323">
        <ele>222.6</ele>
        <time>2018-03-24T10:26:29Z</time>
      </trkpt>
      <trkpt lat="62.637423296969" lon="17.989811460548">
        <ele>222.6</ele>
        <time>2018-03-24T10:26:30Z</time>
      </trkpt>
      <trkpt lat="62.63744500609" lon="17.989759911863">
        <ele>222.4</ele>
        <time>2018-03-24T10:26:31Z</time>
      </trkpt>
      <trkpt lat="62.637467134306" lon="17.989708363178">
        <ele>222.4</ele>
        <time>2018-03-24T10:26:32Z</time>
      </trkpt>
      <trkpt lat="62.637482473183" lon="17.989656060122">
        <ele>222.4</ele>
        <time>2018-03-24T10:26:33Z</time>
      </trkpt>
      <trkpt lat="62.637509462901" lon="17.989579449556">
        <ele>222.2</ele>
        <time>2018-03-24T10:26:34Z</time>
      </trkpt>
      <trkpt lat="62.637530669108" lon="17.98951373546">
        <ele>222.2</ele>
        <time>2018-03-24T10:26:35Z</time>
      </trkpt>
      <trkpt lat="62.637562436509" lon="17.989437208713">
        <ele>222.2</ele>
        <time>2018-03-24T10:26:36Z</time>
      </trkpt>
      <trkpt lat="62.637584397087" lon="17.989377613404">
        <ele>222.2</ele>
        <time>2018-03-24T10:26:37Z</time>
      </trkpt>
      <trkpt lat="62.637608536959" lon="17.989314078602">
        <ele>222</ele>
        <time>2018-03-24T10:26:38Z</time>
      </trkpt>
      <trkpt lat="62.637644998224" lon="17.989230091964">
        <ele>221.8</ele>
        <time>2018-03-24T10:26:39Z</time>
      </trkpt>
      <trkpt lat="62.637681543308" lon="17.989148452258">
        <ele>221.6</ele>
        <time>2018-03-24T10:26:40Z</time>
      </trkpt>
      <trkpt lat="62.637706940465" lon="17.989058682109">
        <ele>220.8</ele>
        <time>2018-03-24T10:26:41Z</time>
      </trkpt>
      <trkpt lat="62.63772999069" lon="17.988995398764">
        <ele>220</ele>
        <time>2018-03-24T10:26:42Z</time>
      </trkpt>
      <trkpt lat="62.637744659015" lon="17.988945526459">
        <ele>219.4</ele>
        <time>2018-03-24T10:26:43Z</time>
      </trkpt>
      <trkpt lat="62.637752202725" lon="17.988877716888">
        <ele>219.2</ele>
        <time>2018-03-24T10:26:44Z</time>
      </trkpt>
      <trkpt lat="62.637769217982" lon="17.988778056097">
        <ele>219.2</ele>
        <time>2018-03-24T10:26:45Z</time>
      </trkpt>
      <trkpt lat="62.637784305402" lon="17.988730866">
        <ele>219.8</ele>
        <time>2018-03-24T10:26:46Z</time>
      </trkpt>
      <trkpt lat="62.637794615139" lon="17.988645873534">
        <ele>220</ele>
        <time>2018-03-24T10:26:47Z</time>
      </trkpt>
      <trkpt lat="62.637807858541" lon="17.988555516652">
        <ele>220.2</ele>
        <time>2018-03-24T10:26:48Z</time>
      </trkpt>
      <trkpt lat="62.637813977328" lon="17.988483683769">
        <ele>220.2</ele>
        <time>2018-03-24T10:26:49Z</time>
      </trkpt>
      <trkpt lat="62.637826466359" lon="17.988381173132">
        <ele>220.2</ele>
        <time>2018-03-24T10:26:50Z</time>
      </trkpt>
      <trkpt lat="62.63783476444" lon="17.988312441552">
        <ele>220</ele>
        <time>2018-03-24T10:26:51Z</time>
      </trkpt>
      <trkpt lat="62.637852617887" lon="17.988232562045">
        <ele>219.8</ele>
        <time>2018-03-24T10:26:52Z</time>
      </trkpt>
      <trkpt lat="62.637860999787" lon="17.988133068892">
        <ele>219.6</ele>
        <time>2018-03-24T10:26:53Z</time>
      </trkpt>
      <trkpt lat="62.637885307297" lon="17.988032066997">
        <ele>219.6</ele>
        <time>2018-03-24T10:26:54Z</time>
      </trkpt>
      <trkpt lat="62.637914476309" lon="17.987922599383">
        <ele>219.4</ele>
        <time>2018-03-24T10:26:55Z</time>
      </trkpt>
      <trkpt lat="62.637940795475" lon="17.987828554465">
        <ele>219.2</ele>
        <time>2018-03-24T10:26:56Z</time>
      </trkpt>
      <trkpt lat="62.637967030822" lon="17.987753033546">
        <ele>218.6</ele>
        <time>2018-03-24T10:26:57Z</time>
      </trkpt>
      <trkpt lat="62.637986979744" lon="17.987673154039">
        <ele>217.8</ele>
        <time>2018-03-24T10:26:58Z</time>
      </trkpt>
      <trkpt lat="62.638012376901" lon="17.987596124378">
        <ele>217.2</ele>
        <time>2018-03-24T10:26:59Z</time>
      </trkpt>
      <trkpt lat="62.63803509185" lon="17.987500738356">
        <ele>216.4</ele>
        <time>2018-03-24T10:27:00Z</time>
      </trkpt>
      <trkpt lat="62.638051604193" lon="17.987408537456">
        <ele>215.8</ele>
        <time>2018-03-24T10:27:01Z</time>
      </trkpt>
      <trkpt lat="62.638070798744" lon="17.987316755651">
        <ele>215.8</ele>
        <time>2018-03-24T10:27:02Z</time>
      </trkpt>
      <trkpt lat="62.63808203049" lon="17.987243833121">
        <ele>216</ele>
        <time>2018-03-24T10:27:03Z</time>
      </trkpt>
      <trkpt lat="62.63810969076" lon="17.987151380764">
        <ele>216.2</ele>
        <time>2018-03-24T10:27:04Z</time>
      </trkpt>
      <trkpt lat="62.638125364913" lon="17.987036548734">
        <ele>216.4</ele>
        <time>2018-03-24T10:27:05Z</time>
      </trkpt>
      <trkpt lat="62.638148834233" lon="17.986972930113">
        <ele>216.4</ele>
        <time>2018-03-24T10:27:06Z</time>
      </trkpt>
      <trkpt lat="62.638147493129" lon="17.986884501068">
        <ele>216.4</ele>
        <time>2018-03-24T10:27:07Z</time>
      </trkpt>
      <trkpt lat="62.63814154198" lon="17.986804873018">
        <ele>216.2</ele>
        <time>2018-03-24T10:27:08Z</time>
      </trkpt>
      <trkpt lat="62.638137267211" lon="17.986719461457">
        <ele>216</ele>
        <time>2018-03-24T10:27:09Z</time>
      </trkpt>
      <trkpt lat="62.638134417365" lon="17.986657603035">
        <ele>215.8</ele>
        <time>2018-03-24T10:27:10Z</time>
      </trkpt>
      <trkpt lat="62.638135255555" lon="17.986598426821">
        <ele>215.6</ele>
        <time>2018-03-24T10:27:11Z</time>
      </trkpt>
      <trkpt lat="62.638137183392" lon="17.986507650844">
        <ele>215.6</ele>
        <time>2018-03-24T10:27:12Z</time>
      </trkpt>
      <trkpt lat="62.638143637455" lon="17.986428022794">
        <ele>215.4</ele>
        <time>2018-03-24T10:27:13Z</time>
      </trkpt>
      <trkpt lat="62.638146235844" lon="17.986383347267">
        <ele>215.4</ele>
        <time>2018-03-24T10:27:14Z</time>
      </trkpt>
      <trkpt lat="62.638150594432" lon="17.986291146367">
        <ele>215.4</ele>
        <time>2018-03-24T10:27:15Z</time>
      </trkpt>
      <trkpt lat="62.638152522269" lon="17.986214200525">
        <ele>215.4</ele>
        <time>2018-03-24T10:27:16Z</time>
      </trkpt>
      <trkpt lat="62.638153528097" lon="17.986177152527">
        <ele>215.4</ele>
        <time>2018-03-24T10:27:17Z</time>
      </trkpt>
      <trkpt lat="62.638170375716" lon="17.986064835067">
        <ele>215.2</ele>
        <time>2018-03-24T10:27:18Z</time>
      </trkpt>
      <trkpt lat="62.638179763444" lon="17.986002809007">
        <ele>215.2</ele>
        <time>2018-03-24T10:27:19Z</time>
      </trkpt>
      <trkpt lat="62.638193593579" lon="17.985935083255">
        <ele>215.2</ele>
        <time>2018-03-24T10:27:20Z</time>
      </trkpt>
      <trkpt lat="62.638205663515" lon="17.985879511258">
        <ele>215.2</ele>
        <time>2018-03-24T10:27:21Z</time>
      </trkpt>
      <trkpt lat="62.638219912745" lon="17.985863334191">
        <ele>215.2</ele>
        <time>2018-03-24T10:27:22Z</time>
      </trkpt>
      <trkpt lat="62.638235670717" lon="17.985827711116">
        <ele>215.6</ele>
        <time>2018-03-24T10:27:23Z</time>
      </trkpt>
      <trkpt lat="62.638244890807" lon="17.985789405833">
        <ele>215.6</ele>
        <time>2018-03-24T10:27:24Z</time>
      </trkpt>
      <trkpt lat="62.638251177232" lon="17.985767612893">
        <ele>215.6</ele>
        <time>2018-03-24T10:27:25Z</time>
      </trkpt>
      <trkpt lat="62.638260229684" lon="17.985728720877">
        <ele>215.8</ele>
        <time>2018-03-24T10:27:26Z</time>
      </trkpt>
      <trkpt lat="62.63826894686" lon="17.985706844118">
        <ele>215.8</ele>
        <time>2018-03-24T10:27:27Z</time>
      </trkpt>
      <trkpt lat="62.638276658208" lon="17.985676250183">
        <ele>215.8</ele>
        <time>2018-03-24T10:27:28Z</time>
      </trkpt>
      <trkpt lat="62.638285543022" lon="17.985646075343">
        <ele>215.8</ele>
        <time>2018-03-24T10:27:29Z</time>
      </trkpt>
      <trkpt lat="62.638291829447" lon="17.985618415073">
        <ele>215.6</ele>
        <time>2018-03-24T10:27:30Z</time>
      </trkpt>
      <trkpt lat="62.638302642098" lon="17.985588994604">
        <ele>215.4</ele>
        <time>2018-03-24T10:27:31Z</time>
      </trkpt>
      <trkpt lat="62.638312616559" lon="17.985566195836">
        <ele>215.2</ele>
        <time>2018-03-24T10:27:32Z</time>
      </trkpt>
      <trkpt lat="62.638324518857" lon="17.985531746227">
        <ele>215.2</ele>
        <time>2018-03-24T10:27:33Z</time>
      </trkpt>
      <trkpt lat="62.638342372304" lon="17.985496374609">
        <ele>215</ele>
        <time>2018-03-24T10:27:34Z</time>
      </trkpt>
      <trkpt lat="62.638355699525" lon="17.985468379063">
        <ele>214.8</ele>
        <time>2018-03-24T10:27:35Z</time>
      </trkpt>
      <trkpt lat="62.638371960411" lon="17.98543510292">
        <ele>214.6</ele>
        <time>2018-03-24T10:27:36Z</time>
      </trkpt>
      <trkpt lat="62.638391490238" lon="17.985393361058">
        <ele>214.6</ele>
        <time>2018-03-24T10:27:37Z</time>
      </trkpt>
      <trkpt lat="62.638414540463" lon="17.985342566744">
        <ele>214.6</ele>
        <time>2018-03-24T10:27:38Z</time>
      </trkpt>
      <trkpt lat="62.638430885168" lon="17.985294203181">
        <ele>214.6</ele>
        <time>2018-03-24T10:27:39Z</time>
      </trkpt>
      <trkpt lat="62.638450498814" lon="17.985236619528">
        <ele>214.6</ele>
        <time>2018-03-24T10:27:40Z</time>
      </trkpt>
      <trkpt lat="62.638480254559" lon="17.985173168545">
        <ele>214.8</ele>
        <time>2018-03-24T10:27:41Z</time>
      </trkpt>
      <trkpt lat="62.638488887916" lon="17.985118686195">
        <ele>214.6</ele>
        <time>2018-03-24T10:27:42Z</time>
      </trkpt>
      <trkpt lat="62.638527025561" lon="17.985049367882">
        <ele>214.4</ele>
        <time>2018-03-24T10:27:43Z</time>
      </trkpt>
      <trkpt lat="62.638544459913" lon="17.984999076482">
        <ele>214.4</ele>
        <time>2018-03-24T10:27:44Z</time>
      </trkpt>
      <trkpt lat="62.638575137667" lon="17.984944426494">
        <ele>214</ele>
        <time>2018-03-24T10:27:45Z</time>
      </trkpt>
      <trkpt lat="62.638606318335" lon="17.984895392379">
        <ele>213.8</ele>
        <time>2018-03-24T10:27:46Z</time>
      </trkpt>
      <trkpt lat="62.638613862045" lon="17.984852812327">
        <ele>213.6</ele>
        <time>2018-03-24T10:27:47Z</time>
      </trkpt>
      <trkpt lat="62.638648479292" lon="17.984798665253">
        <ele>213.4</ele>
        <time>2018-03-24T10:27:48Z</time>
      </trkpt>
      <trkpt lat="62.638664740178" lon="17.984758432133">
        <ele>212.8</ele>
        <time>2018-03-24T10:27:49Z</time>
      </trkpt>
      <trkpt lat="62.638689802059" lon="17.98470671581">
        <ele>213</ele>
        <time>2018-03-24T10:27:50Z</time>
      </trkpt>
      <trkpt lat="62.638717797605" lon="17.98463798423">
        <ele>212.8</ele>
        <time>2018-03-24T10:27:51Z</time>
      </trkpt>
      <trkpt lat="62.638737159794" lon="17.984564391148">
        <ele>212.8</ele>
        <time>2018-03-24T10:27:52Z</time>
      </trkpt>
      <trkpt lat="62.638756102888" lon="17.984485182193">
        <ele>212.8</ele>
        <time>2018-03-24T10:27:53Z</time>
      </trkpt>
      <trkpt lat="62.63877186086" lon="17.984412930215">
        <ele>213</ele>
        <time>2018-03-24T10:27:54Z</time>
      </trkpt>
      <trkpt lat="62.638782505873" lon="17.984348892499">
        <ele>212.8</ele>
        <time>2018-03-24T10:27:55Z</time>
      </trkpt>
      <trkpt lat="62.638789127574" lon="17.984229534243">
        <ele>212.6</ele>
        <time>2018-03-24T10:27:56Z</time>
      </trkpt>
      <trkpt lat="62.638786193909" lon="17.984141272836">
        <ele>212.4</ele>
        <time>2018-03-24T10:27:57Z</time>
      </trkpt>
      <trkpt lat="62.638786193909" lon="17.984094334196">
        <ele>212.2</ele>
        <time>2018-03-24T10:27:58Z</time>
      </trkpt>
      <trkpt lat="62.638786193909" lon="17.983981765279">
        <ele>212</ele>
        <time>2018-03-24T10:27:59Z</time>
      </trkpt>
      <trkpt lat="62.638781248588" lon="17.983928959309">
        <ele>211.8</ele>
        <time>2018-03-24T10:28:00Z</time>
      </trkpt>
      <trkpt lat="62.638778231104" lon="17.983865424507">
        <ele>211.6</ele>
        <time>2018-03-24T10:28:01Z</time>
      </trkpt>
      <trkpt lat="62.638777895828" lon="17.983768529743">
        <ele>211.6</ele>
        <time>2018-03-24T10:28:02Z</time>
      </trkpt>
      <trkpt lat="62.638770687394" lon="17.983708515339">
        <ele>211.4</ele>
        <time>2018-03-24T10:28:03Z</time>
      </trkpt>
      <trkpt lat="62.63877186086" lon="17.983654619722">
        <ele>211.2</ele>
        <time>2018-03-24T10:28:04Z</time>
      </trkpt>
      <trkpt lat="62.638766077349" lon="17.983580356088">
        <ele>211.2</ele>
        <time>2018-03-24T10:28:05Z</time>
      </trkpt>
      <trkpt lat="62.63875593525" lon="17.983537692217">
        <ele>211.2</ele>
        <time>2018-03-24T10:28:06Z</time>
      </trkpt>
      <trkpt lat="62.638756689621" lon="17.98346619461">
        <ele>211.2</ele>
        <time>2018-03-24T10:28:07Z</time>
      </trkpt>
      <trkpt lat="62.638755851431" lon="17.983397295392">
        <ele>211.2</ele>
        <time>2018-03-24T10:28:08Z</time>
      </trkpt>
      <trkpt lat="62.63875593525" lon="17.98335639172">
        <ele>211.4</ele>
        <time>2018-03-24T10:28:09Z</time>
      </trkpt>
      <trkpt lat="62.638761551123" lon="17.983284558837">
        <ele>211.6</ele>
        <time>2018-03-24T10:28:10Z</time>
      </trkpt>
      <trkpt lat="62.638755432336" lon="17.98321473761">
        <ele>211.8</ele>
        <time>2018-03-24T10:28:11Z</time>
      </trkpt>
      <trkpt lat="62.638761551123" lon="17.983164697667">
        <ele>212</ele>
        <time>2018-03-24T10:28:12Z</time>
      </trkpt>
      <trkpt lat="62.638754342689" lon="17.983105186177">
        <ele>212</ele>
        <time>2018-03-24T10:28:13Z</time>
      </trkpt>
      <trkpt lat="62.638761886399" lon="17.983049446542">
        <ele>212</ele>
        <time>2018-03-24T10:28:14Z</time>
      </trkpt>
      <trkpt lat="62.638758952734" lon="17.982982056066">
        <ele>212</ele>
        <time>2018-03-24T10:28:15Z</time>
      </trkpt>
      <trkpt lat="62.63876683172" lon="17.982927908992">
        <ele>211.6</ele>
        <time>2018-03-24T10:28:16Z</time>
      </trkpt>
      <trkpt lat="62.638753839775" lon="17.98286772695">
        <ele>211.4</ele>
        <time>2018-03-24T10:28:17Z</time>
      </trkpt>
      <trkpt lat="62.638764233331" lon="17.98281156822">
        <ele>211.6</ele>
        <time>2018-03-24T10:28:18Z</time>
      </trkpt>
      <trkpt lat="62.638759958562" lon="17.982749961255">
        <ele>211.4</ele>
        <time>2018-03-24T10:28:19Z</time>
      </trkpt>
      <trkpt lat="62.638769513928" lon="17.982694724534">
        <ele>211.4</ele>
        <time>2018-03-24T10:28:20Z</time>
      </trkpt>
      <trkpt lat="62.638776303267" lon="17.982638314347">
        <ele>211.4</ele>
        <time>2018-03-24T10:28:21Z</time>
      </trkpt>
      <trkpt lat="62.638780997131" lon="17.982577294115">
        <ele>211.6</ele>
        <time>2018-03-24T10:28:22Z</time>
      </trkpt>
      <trkpt lat="62.638795665456" lon="17.982509400725">
        <ele>211.8</ele>
        <time>2018-03-24T10:28:23Z</time>
      </trkpt>
      <trkpt lat="62.638798766759" lon="17.982442596982">
        <ele>211.8</ele>
        <time>2018-03-24T10:28:24Z</time>
      </trkpt>
      <trkpt lat="62.638811507247" lon="17.982394736333">
        <ele>212</ele>
        <time>2018-03-24T10:28:25Z</time>
      </trkpt>
      <trkpt lat="62.638826678486" lon="17.98232038888">
        <ele>212</ele>
        <time>2018-03-24T10:28:26Z</time>
      </trkpt>
      <trkpt lat="62.638845118666" lon="17.982273198783">
        <ele>212.2</ele>
        <time>2018-03-24T10:28:27Z</time>
      </trkpt>
      <trkpt lat="62.638862553018" lon="17.982219386985">
        <ele>212</ele>
        <time>2018-03-24T10:28:28Z</time>
      </trkpt>
      <trkpt lat="62.638875880239" lon="17.982166497196">
        <ele>212.2</ele>
        <time>2018-03-24T10:28:29Z</time>
      </trkpt>
      <trkpt lat="62.638886106157" lon="17.982117714538">
        <ele>212</ele>
        <time>2018-03-24T10:28:30Z</time>
      </trkpt>
      <trkpt lat="62.638910413667" lon="17.982046971302">
        <ele>211.8</ele>
        <time>2018-03-24T10:28:31Z</time>
      </trkpt>
      <trkpt lat="62.638922148327" lon="17.981986286346">
        <ele>211.4</ele>
        <time>2018-03-24T10:28:32Z</time>
      </trkpt>
      <trkpt lat="62.638937654842" lon="17.981939766801">
        <ele>211.2</ele>
        <time>2018-03-24T10:28:33Z</time>
      </trkpt>
      <trkpt lat="62.638952406986" lon="17.981897605844">
        <ele>210.8</ele>
        <time>2018-03-24T10:28:34Z</time>
      </trkpt>
      <trkpt lat="62.638961207981" lon="17.981829712454">
        <ele>210.6</ele>
        <time>2018-03-24T10:28:35Z</time>
      </trkpt>
      <trkpt lat="62.638988197699" lon="17.981753856259">
        <ele>210.6</ele>
        <time>2018-03-24T10:28:36Z</time>
      </trkpt>
      <trkpt lat="62.638998507436" lon="17.981688980353">
        <ele>210.4</ele>
        <time>2018-03-24T10:28:37Z</time>
      </trkpt>
      <trkpt lat="62.639004710042" lon="17.981632151071">
        <ele>210.4</ele>
        <time>2018-03-24T10:28:38Z</time>
      </trkpt>
      <trkpt lat="62.639026586801" lon="17.981546571872">
        <ele>210.4</ele>
        <time>2018-03-24T10:28:39Z</time>
      </trkpt>
      <trkpt lat="62.639034298149" lon="17.98149309535">
        <ele>210.4</ele>
        <time>2018-03-24T10:28:40Z</time>
      </trkpt>
      <trkpt lat="62.639054917623" lon="17.981432242756">
        <ele>210.4</ele>
        <time>2018-03-24T10:28:41Z</time>
      </trkpt>
      <trkpt lat="62.639082326436" lon="17.981360996606">
        <ele>210.2</ele>
        <time>2018-03-24T10:28:42Z</time>
      </trkpt>
      <trkpt lat="62.639105376661" lon="17.981313219776">
        <ele>210.4</ele>
        <time>2018-03-24T10:28:43Z</time>
      </trkpt>
      <trkpt lat="62.63913814989" lon="17.981244404377">
        <ele>210.4</ele>
        <time>2018-03-24T10:28:44Z</time>
      </trkpt>
      <trkpt lat="62.639154662233" lon="17.981180618118">
        <ele>210.2</ele>
        <time>2018-03-24T10:28:45Z</time>
      </trkpt>
      <trkpt lat="62.639180729942" lon="17.981129991442">
        <ele>210</ele>
        <time>2018-03-24T10:28:46Z</time>
      </trkpt>
      <trkpt lat="62.639206127099" lon="17.981090177417">
        <ele>209.8</ele>
        <time>2018-03-24T10:28:47Z</time>
      </trkpt>
      <trkpt lat="62.639224148184" lon="17.981027564624">
        <ele>209.6</ele>
        <time>2018-03-24T10:28:48Z</time>
      </trkpt>
      <trkpt lat="62.639249796798" lon="17.980973166093">
        <ele>209.4</ele>
        <time>2018-03-24T10:28:49Z</time>
      </trkpt>
      <trkpt lat="62.639269578082" lon="17.98092564072">
        <ele>209.4</ele>
        <time>2018-03-24T10:28:50Z</time>
      </trkpt>
      <trkpt lat="62.639282905303" lon="17.980873756759">
        <ele>209.2</ele>
        <time>2018-03-24T10:28:51Z</time>
      </trkpt>
      <trkpt lat="62.639316432903" lon="17.980807707387">
        <ele>209.4</ele>
        <time>2018-03-24T10:28:52Z</time>
      </trkpt>
      <trkpt lat="62.63933596273" lon="17.980752805942">
        <ele>209.2</ele>
        <time>2018-03-24T10:28:53Z</time>
      </trkpt>
      <trkpt lat="62.639355660195" lon="17.980675692462">
        <ele>209.2</ele>
        <time>2018-03-24T10:28:54Z</time>
      </trkpt>
      <trkpt lat="62.639368149226" lon="17.980604446312">
        <ele>209</ele>
        <time>2018-03-24T10:28:55Z</time>
      </trkpt>
      <trkpt lat="62.639375022384" lon="17.980542839347">
        <ele>209</ele>
        <time>2018-03-24T10:28:56Z</time>
      </trkpt>
      <trkpt lat="62.639399078437" lon="17.980460109994">
        <ele>208.8</ele>
        <time>2018-03-24T10:28:57Z</time>
      </trkpt>
      <trkpt lat="62.639402934111" lon="17.980400011771">
        <ele>208.6</ele>
        <time>2018-03-24T10:28:58Z</time>
      </trkpt>
      <trkpt lat="62.639419949368" lon="17.980337398978">
        <ele>208.4</ele>
        <time>2018-03-24T10:28:59Z</time>
      </trkpt>
      <trkpt lat="62.639436629349" lon="17.980243521698">
        <ele>208.2</ele>
        <time>2018-03-24T10:29:00Z</time>
      </trkpt>
      <trkpt lat="62.639440317385" lon="17.980189961357">
        <ele>208</ele>
        <time>2018-03-24T10:29:01Z</time>
      </trkpt>
      <trkpt lat="62.639463451429" lon="17.980112177325">
        <ele>208</ele>
        <time>2018-03-24T10:29:02Z</time>
      </trkpt>
      <trkpt lat="62.639473342071" lon="17.980051827645">
        <ele>207.8</ele>
        <time>2018-03-24T10:29:03Z</time>
      </trkpt>
      <trkpt lat="62.639471581872" lon="17.98000866086">
        <ele>207.8</ele>
        <time>2018-03-24T10:29:04Z</time>
      </trkpt>
      <trkpt lat="62.639487256025" lon="17.979934648683">
        <ele>207.6</ele>
        <time>2018-03-24T10:29:05Z</time>
      </trkpt>
      <trkpt lat="62.639493374812" lon="17.97987622684">
        <ele>207.6</ele>
        <time>2018-03-24T10:29:06Z</time>
      </trkpt>
      <trkpt lat="62.639497984857" lon="17.979821576852">
        <ele>207.6</ele>
        <time>2018-03-24T10:29:07Z</time>
      </trkpt>
      <trkpt lat="62.6395144972" lon="17.979746055933">
        <ele>207.4</ele>
        <time>2018-03-24T10:29:08Z</time>
      </trkpt>
      <trkpt lat="62.639516927951" lon="17.979702050958">
        <ele>207.6</ele>
        <time>2018-03-24T10:29:09Z</time>
      </trkpt>
      <trkpt lat="62.639529500801" lon="17.979664080951">
        <ele>207.6</ele>
        <time>2018-03-24T10:29:10Z</time>
      </trkpt>
      <trkpt lat="62.639544420583" lon="17.979611777895">
        <ele>207.6</ele>
        <time>2018-03-24T10:29:11Z</time>
      </trkpt>
      <trkpt lat="62.639564872419" lon="17.979566767092">
        <ele>207.6</ele>
        <time>2018-03-24T10:29:12Z</time>
      </trkpt>
      <trkpt lat="62.639589599024" lon="17.979525695782">
        <ele>207.6</ele>
        <time>2018-03-24T10:29:13Z</time>
      </trkpt>
      <trkpt lat="62.639618013665" lon="17.979466519568">
        <ele>207.6</ele>
        <time>2018-03-24T10:29:14Z</time>
      </trkpt>
      <trkpt lat="62.639649613428" lon="17.979434835986">
        <ele>207.6</ele>
        <time>2018-03-24T10:29:15Z</time>
      </trkpt>
      <trkpt lat="62.639667299237" lon="17.979382030016">
        <ele>207.4</ele>
        <time>2018-03-24T10:29:16Z</time>
      </trkpt>
      <trkpt lat="62.639697474077" lon="17.979315896825">
        <ele>207.4</ele>
        <time>2018-03-24T10:29:17Z</time>
      </trkpt>
      <trkpt lat="62.639716752447" lon="17.979243980123">
        <ele>207.4</ele>
        <time>2018-03-24T10:29:18Z</time>
      </trkpt>
      <trkpt lat="62.639748184572" lon="17.979173488344">
        <ele>207.2</ele>
        <time>2018-03-24T10:29:19Z</time>
      </trkpt>
      <trkpt lat="62.639765451286" lon="17.979121101469">
        <ele>207</ele>
        <time>2018-03-24T10:29:20Z</time>
      </trkpt>
      <trkpt lat="62.639788333873" lon="17.979063350178">
        <ele>206.8</ele>
        <time>2018-03-24T10:29:21Z</time>
      </trkpt>
      <trkpt lat="62.639805181492" lon="17.979015070434">
        <ele>206.8</ele>
        <time>2018-03-24T10:29:22Z</time>
      </trkpt>
      <trkpt lat="62.639839798739" lon="17.979015154253">
        <ele>206.6</ele>
        <time>2018-03-24T10:29:23Z</time>
      </trkpt>
      <trkpt lat="62.639865363534" lon="17.978973077115">
        <ele>206.4</ele>
        <time>2018-03-24T10:29:24Z</time>
      </trkpt>
      <trkpt lat="62.639883803714" lon="17.978932508719">
        <ele>206.2</ele>
        <time>2018-03-24T10:29:25Z</time>
      </trkpt>
      <trkpt lat="62.639903584998" lon="17.978887414097">
        <ele>206</ele>
        <time>2018-03-24T10:29:26Z</time>
      </trkpt>
      <trkpt lat="62.639923617739" lon="17.978863609501">
        <ele>205.8</ele>
        <time>2018-03-24T10:29:27Z</time>
      </trkpt>
      <trkpt lat="62.639958654081" lon="17.978824382209">
        <ele>205.6</ele>
        <time>2018-03-24T10:29:28Z</time>
      </trkpt>
      <trkpt lat="62.639980698478" lon="17.978779455225">
        <ele>205.6</ele>
        <time>2018-03-24T10:29:29Z</time>
      </trkpt>
      <trkpt lat="62.640010286585" lon="17.978725978703">
        <ele>205.4</ele>
        <time>2018-03-24T10:29:30Z</time>
      </trkpt>
      <trkpt lat="62.640043562728" lon="17.978671831629">
        <ele>205.4</ele>
        <time>2018-03-24T10:29:31Z</time>
      </trkpt>
      <trkpt lat="62.640099302363" lon="17.978636795287">
        <ele>205.6</ele>
        <time>2018-03-24T10:29:32Z</time>
      </trkpt>
      <trkpt lat="62.640129058108" lon="17.978589772828">
        <ele>205.4</ele>
        <time>2018-03-24T10:29:33Z</time>
      </trkpt>
      <trkpt lat="62.640156383102" lon="17.978538810876">
        <ele>205.2</ele>
        <time>2018-03-24T10:29:34Z</time>
      </trkpt>
      <trkpt lat="62.640185216838" lon="17.978506792018">
        <ele>204.8</ele>
        <time>2018-03-24T10:29:35Z</time>
      </trkpt>
      <trkpt lat="62.640232239297" lon="17.978444011587">
        <ele>204.4</ele>
        <time>2018-03-24T10:29:36Z</time>
      </trkpt>
      <trkpt lat="62.640259396653" lon="17.97836999941">
        <ele>204</ele>
        <time>2018-03-24T10:29:37Z</time>
      </trkpt>
      <trkpt lat="62.640287476018" lon="17.978332783774">
        <ele>203.6</ele>
        <time>2018-03-24T10:29:38Z</time>
      </trkpt>
      <trkpt lat="62.640320333066" lon="17.978275535397">
        <ele>203.4</ele>
        <time>2018-03-24T10:29:39Z</time>
      </trkpt>
      <trkpt lat="62.640350759363" lon="17.978242175435">
        <ele>203.4</ele>
        <time>2018-03-24T10:29:40Z</time>
      </trkpt>
      <trkpt lat="62.640389064646" lon="17.97819230313">
        <ele>203.2</ele>
        <time>2018-03-24T10:29:41Z</time>
      </trkpt>
      <trkpt lat="62.640428878671" lon="17.978154668399">
        <ele>203</ele>
        <time>2018-03-24T10:29:42Z</time>
      </trkpt>
      <trkpt lat="62.640465591393" lon="17.978115944021">
        <ele>203</ele>
        <time>2018-03-24T10:29:43Z</time>
      </trkpt>
      <trkpt lat="62.640503729038" lon="17.97805986911">
        <ele>203</ele>
        <time>2018-03-24T10:29:44Z</time>
      </trkpt>
      <trkpt lat="62.640539100656" lon="17.978008990977">
        <ele>202.8</ele>
        <time>2018-03-24T10:29:45Z</time>
      </trkpt>
      <trkpt lat="62.640563994899" lon="17.977952413152">
        <ele>202.8</ele>
        <time>2018-03-24T10:29:46Z</time>
      </trkpt>
      <trkpt lat="62.640594840291" lon="17.97787714369">
        <ele>202.6</ele>
        <time>2018-03-24T10:29:47Z</time>
      </trkpt>
      <trkpt lat="62.640628619348" lon="17.977834479819">
        <ele>202.4</ele>
        <time>2018-03-24T10:29:48Z</time>
      </trkpt>
      <trkpt lat="62.640658458912" lon="17.977784439876">
        <ele>202.2</ele>
        <time>2018-03-24T10:29:49Z</time>
      </trkpt>
      <trkpt lat="62.64069299234" lon="17.977719480151">
        <ele>202</ele>
        <time>2018-03-24T10:29:50Z</time>
      </trkpt>
      <trkpt lat="62.64073154908" lon="17.977657286453">
        <ele>202</ele>
        <time>2018-03-24T10:29:51Z</time>
      </trkpt>
      <trkpt lat="62.640768345621" lon="17.977607833243">
        <ele>201.6</ele>
        <time>2018-03-24T10:29:52Z</time>
      </trkpt>
      <trkpt lat="62.640797095538" lon="17.977530803582">
        <ele>201.6</ele>
        <time>2018-03-24T10:29:53Z</time>
      </trkpt>
      <trkpt lat="62.64082626455" lon="17.9774655924">
        <ele>201.4</ele>
        <time>2018-03-24T10:29:54Z</time>
      </trkpt>
      <trkpt lat="62.64085141025" lon="17.977389820024">
        <ele>201</ele>
        <time>2018-03-24T10:29:55Z</time>
      </trkpt>
      <trkpt lat="62.640883512927" lon="17.977315807847">
        <ele>200.6</ele>
        <time>2018-03-24T10:29:56Z</time>
      </trkpt>
      <trkpt lat="62.640908910084" lon="17.977243052955">
        <ele>200.4</ele>
        <time>2018-03-24T10:29:57Z</time>
      </trkpt>
      <trkpt lat="62.64093858201" lon="17.977174069918">
        <ele>200</ele>
        <time>2018-03-24T10:29:58Z</time>
      </trkpt>
      <trkpt lat="62.640966493737" lon="17.977106511804">
        <ele>199.8</ele>
        <time>2018-03-24T10:29:59Z</time>
      </trkpt>
      <trkpt lat="62.640992645265" lon="17.977030487971">
        <ele>199.4</ele>
        <time>2018-03-24T10:30:00Z</time>
      </trkpt>
      <trkpt lat="62.641020892268" lon="17.976969216282">
        <ele>199.2</ele>
        <time>2018-03-24T10:30:01Z</time>
      </trkpt>
      <trkpt lat="62.641050648013" lon="17.976908363688">
        <ele>198.8</ele>
        <time>2018-03-24T10:30:02Z</time>
      </trkpt>
      <trkpt lat="62.641087947468" lon="17.976866370369">
        <ele>198.6</ele>
        <time>2018-03-24T10:30:03Z</time>
      </trkpt>
      <trkpt lat="62.641120217783" lon="17.97682353886">
        <ele>198.2</ele>
        <time>2018-03-24T10:30:04Z</time>
      </trkpt>
      <trkpt lat="62.641156595229" lon="17.976773163641">
        <ele>197.8</ele>
        <time>2018-03-24T10:30:05Z</time>
      </trkpt>
      <trkpt lat="62.641208982104" lon="17.976752627986">
        <ele>197.4</ele>
        <time>2018-03-24T10:30:06Z</time>
      </trkpt>
      <trkpt lat="62.641248125577" lon="17.976731840874">
        <ele>197.2</ele>
        <time>2018-03-24T10:30:07Z</time>
      </trkpt>
      <trkpt lat="62.641291376181" lon="17.976713233056">
        <ele>196.8</ele>
        <time>2018-03-24T10:30:08Z</time>
      </trkpt>
      <trkpt lat="62.641338566278" lon="17.976698732369">
        <ele>196.2</ele>
        <time>2018-03-24T10:30:09Z</time>
      </trkpt>
      <trkpt lat="62.641376787742" lon="17.976685321329">
        <ele>196</ele>
        <time>2018-03-24T10:30:10Z</time>
      </trkpt>
      <trkpt lat="62.641419032518" lon="17.976662438742">
        <ele>195.6</ele>
        <time>2018-03-24T10:30:11Z</time>
      </trkpt>
      <trkpt lat="62.641464378597" lon="17.976638131232">
        <ele>195</ele>
        <time>2018-03-24T10:30:12Z</time>
      </trkpt>
      <trkpt lat="62.641501929509" lon="17.97661985869">
        <ele>194.6</ele>
        <time>2018-03-24T10:30:13Z</time>
      </trkpt>
      <trkpt lat="62.641539983335" lon="17.976610135686">
        <ele>194.2</ele>
        <time>2018-03-24T10:30:14Z</time>
      </trkpt>
      <trkpt lat="62.641589436545" lon="17.976590102945">
        <ele>193.8</ele>
        <time>2018-03-24T10:30:15Z</time>
      </trkpt>
      <trkpt lat="62.641627825647" lon="17.976549618368">
        <ele>193.4</ele>
        <time>2018-03-24T10:30:16Z</time>
      </trkpt>
      <trkpt lat="62.641673423183" lon="17.976518018605">
        <ele>193</ele>
        <time>2018-03-24T10:30:17Z</time>
      </trkpt>
      <trkpt lat="62.641715165045" lon="17.976474935639">
        <ele>192.8</ele>
        <time>2018-03-24T10:30:18Z</time>
      </trkpt>
      <trkpt lat="62.641756320174" lon="17.976439144926">
        <ele>192.4</ele>
        <time>2018-03-24T10:30:19Z</time>
      </trkpt>
      <trkpt lat="62.641786662652" lon="17.976387009508">
        <ele>192</ele>
        <time>2018-03-24T10:30:20Z</time>
      </trkpt>
      <trkpt lat="62.64181029961" lon="17.976340909058">
        <ele>191.8</ele>
        <time>2018-03-24T10:30:21Z</time>
      </trkpt>
      <trkpt lat="62.641842234649" lon="17.976290952934">
        <ele>191.6</ele>
        <time>2018-03-24T10:30:22Z</time>
      </trkpt>
      <trkpt lat="62.641872744765" lon="17.976232866367">
        <ele>191.4</ele>
        <time>2018-03-24T10:30:23Z</time>
      </trkpt>
      <trkpt lat="62.641902668148" lon="17.976185340994">
        <ele>191.2</ele>
        <time>2018-03-24T10:30:24Z</time>
      </trkpt>
      <trkpt lat="62.641930328418" lon="17.976147203349">
        <ele>191.2</ele>
        <time>2018-03-24T10:30:25Z</time>
      </trkpt>
      <trkpt lat="62.641965532398" lon="17.976107976057">
        <ele>190.8</ele>
        <time>2018-03-24T10:30:26Z</time>
      </trkpt>
      <trkpt lat="62.642000904016" lon="17.976054415716">
        <ele>190.4</ele>
        <time>2018-03-24T10:30:27Z</time>
      </trkpt>
      <trkpt lat="62.642027474639" lon="17.975994904226">
        <ele>190.2</ele>
        <time>2018-03-24T10:30:28Z</time>
      </trkpt>
      <trkpt lat="62.642059744954" lon="17.975943104084">
        <ele>190</ele>
        <time>2018-03-24T10:30:29Z</time>
      </trkpt>
      <trkpt lat="62.64209863697" lon="17.975894405245">
        <ele>189.8</ele>
        <time>2018-03-24T10:30:30Z</time>
      </trkpt>
      <trkpt lat="62.642135601149" lon="17.975844449121">
        <ele>189.6</ele>
        <time>2018-03-24T10:30:31Z</time>
      </trkpt>
      <trkpt lat="62.642180528133" lon="17.97580513801">
        <ele>189</ele>
        <time>2018-03-24T10:30:32Z</time>
      </trkpt>
      <trkpt lat="62.642221096529" lon="17.975746967624">
        <ele>188.4</ele>
        <time>2018-03-24T10:30:33Z</time>
      </trkpt>
      <trkpt lat="62.64225370212" lon="17.975692988188">
        <ele>187.8</ele>
        <time>2018-03-24T10:30:34Z</time>
      </trkpt>
      <trkpt lat="62.642288738462" lon="17.975623334599">
        <ele>187.4</ele>
        <time>2018-03-24T10:30:35Z</time>
      </trkpt>
      <trkpt lat="62.642322768976" lon="17.975547981318">
        <ele>187</ele>
        <time>2018-03-24T10:30:36Z</time>
      </trkpt>
      <trkpt lat="62.642361912449" lon="17.975498611927">
        <ele>186.6</ele>
        <time>2018-03-24T10:30:37Z</time>
      </trkpt>
      <trkpt lat="62.642389321262" lon="17.975400208421">
        <ele>186.4</ele>
        <time>2018-03-24T10:30:38Z</time>
      </trkpt>
      <trkpt lat="62.642405498329" lon="17.975344887881">
        <ele>186.2</ele>
        <time>2018-03-24T10:30:39Z</time>
      </trkpt>
      <trkpt lat="62.642425698708" lon="17.97525360899">
        <ele>186</ele>
        <time>2018-03-24T10:30:40Z</time>
      </trkpt>
      <trkpt lat="62.64245905867" lon="17.975154954027">
        <ele>185.8</ele>
        <time>2018-03-24T10:30:41Z</time>
      </trkpt>
      <trkpt lat="62.64248671894" lon="17.975086725361">
        <ele>185.6</ele>
        <time>2018-03-24T10:30:42Z</time>
      </trkpt>
      <trkpt lat="62.642513708658" lon="17.974977173928">
        <ele>185.6</ele>
        <time>2018-03-24T10:30:43Z</time>
      </trkpt>
      <trkpt lat="62.64253784853" lon="17.974897126783">
        <ele>185.2</ele>
        <time>2018-03-24T10:30:44Z</time>
      </trkpt>
      <trkpt lat="62.642566514628" lon="17.974803752417">
        <ele>185</ele>
        <time>2018-03-24T10:30:45Z</time>
      </trkpt>
      <trkpt lat="62.6425822726" lon="17.974714149906">
        <ele>184.8</ele>
        <time>2018-03-24T10:30:46Z</time>
      </trkpt>
      <trkpt lat="62.642614291458" lon="17.974656901529">
        <ele>184.6</ele>
        <time>2018-03-24T10:30:47Z</time>
      </trkpt>
      <trkpt lat="62.642641448814" lon="17.974557576014">
        <ele>184.2</ele>
        <time>2018-03-24T10:30:48Z</time>
      </trkpt>
      <trkpt lat="62.642669360541" lon="17.9744900179">
        <ele>184.2</ele>
        <time>2018-03-24T10:30:49Z</time>
      </trkpt>
      <trkpt lat="62.64268453178" lon="17.974392871679">
        <ele>184</ele>
        <time>2018-03-24T10:30:50Z</time>
      </trkpt>
      <trkpt lat="62.642695260612" lon="17.974295054906">
        <ele>183.8</ele>
        <time>2018-03-24T10:30:51Z</time>
      </trkpt>
      <trkpt lat="62.642722920882" lon="17.974222383833">
        <ele>183.6</ele>
        <time>2018-03-24T10:30:52Z</time>
      </trkpt>
      <trkpt lat="62.642741193424" lon="17.974122136309">
        <ele>183.4</ele>
        <time>2018-03-24T10:30:53Z</time>
      </trkpt>
      <trkpt lat="62.642764662744" lon="17.974035886558">
        <ele>183.2</ele>
        <time>2018-03-24T10:30:54Z</time>
      </trkpt>
      <trkpt lat="62.642780253078" lon="17.973942596011">
        <ele>183</ele>
        <time>2018-03-24T10:30:55Z</time>
      </trkpt>
      <trkpt lat="62.642788634978" lon="17.973828937447">
        <ele>182.8</ele>
        <time>2018-03-24T10:30:56Z</time>
      </trkpt>
      <trkpt lat="62.642789724625" lon="17.973735814538">
        <ele>182.4</ele>
        <time>2018-03-24T10:30:57Z</time>
      </trkpt>
      <trkpt lat="62.642799615267" lon="17.973684852586">
        <ele>182.4</ele>
        <time>2018-03-24T10:30:58Z</time>
      </trkpt>
      <trkpt lat="62.642809086814" lon="17.973591562039">
        <ele>182</ele>
        <time>2018-03-24T10:30:59Z</time>
      </trkpt>
      <trkpt lat="62.64281277485" lon="17.973498858225">
        <ele>181.8</ele>
        <time>2018-03-24T10:31:00Z</time>
      </trkpt>
      <trkpt lat="62.642800872552" lon="17.973434652871">
        <ele>182</ele>
        <time>2018-03-24T10:31:01Z</time>
      </trkpt>
      <trkpt lat="62.642788299702" lon="17.973352007337">
        <ele>181.6</ele>
        <time>2018-03-24T10:31:02Z</time>
      </trkpt>
      <trkpt lat="62.64279098191" lon="17.973283778671">
        <ele>181.8</ele>
        <time>2018-03-24T10:31:03Z</time>
      </trkpt>
      <trkpt lat="62.642799279991" lon="17.973243294094">
        <ele>181.8</ele>
        <time>2018-03-24T10:31:04Z</time>
      </trkpt>
      <trkpt lat="62.642802548932" lon="17.97315813399">
        <ele>181.8</ele>
        <time>2018-03-24T10:31:05Z</time>
      </trkpt>
      <trkpt lat="62.642792909747" lon="17.97310113707">
        <ele>181.6</ele>
        <time>2018-03-24T10:31:06Z</time>
      </trkpt>
      <trkpt lat="62.642776145947" lon="17.973067944746">
        <ele>181.8</ele>
        <time>2018-03-24T10:31:07Z</time>
      </trkpt>
      <trkpt lat="62.642767428771" lon="17.972992340008">
        <ele>181.6</ele>
        <time>2018-03-24T10:31:08Z</time>
      </trkpt>
      <trkpt lat="62.642743121261" lon="17.972942467703">
        <ele>181.6</ele>
        <time>2018-03-24T10:31:09Z</time>
      </trkpt>
      <trkpt lat="62.64273398499" lon="17.972881615109">
        <ele>181.6</ele>
        <time>2018-03-24T10:31:10Z</time>
      </trkpt>
      <trkpt lat="62.64272392671" lon="17.972832497175">
        <ele>181.8</ele>
        <time>2018-03-24T10:31:11Z</time>
      </trkpt>
      <trkpt lat="62.642717305009" lon="17.972791425865">
        <ele>181.8</ele>
        <time>2018-03-24T10:31:12Z</time>
      </trkpt>
      <trkpt lat="62.642706157082" lon="17.972732501108">
        <ele>182</ele>
        <time>2018-03-24T10:31:13Z</time>
      </trkpt>
      <trkpt lat="62.642692159309" lon="17.972691597436">
        <ele>182</ele>
        <time>2018-03-24T10:31:14Z</time>
      </trkpt>
      <trkpt lat="62.642681765753" lon="17.972625380426">
        <ele>182.2</ele>
        <time>2018-03-24T10:31:15Z</time>
      </trkpt>
      <trkpt lat="62.642670114912" lon="17.972578022691">
        <ele>182.4</ele>
        <time>2018-03-24T10:31:16Z</time>
      </trkpt>
      <trkpt lat="62.642656536234" lon="17.972525719635">
        <ele>182.4</ele>
        <time>2018-03-24T10:31:17Z</time>
      </trkpt>
      <trkpt lat="62.642648238153" lon="17.972464699403">
        <ele>182.6</ele>
        <time>2018-03-24T10:31:18Z</time>
      </trkpt>
      <trkpt lat="62.642636084398" lon="17.972411139062">
        <ele>182.6</ele>
        <time>2018-03-24T10:31:19Z</time>
      </trkpt>
      <trkpt lat="62.642626948127" lon="17.972343916224">
        <ele>182.4</ele>
        <time>2018-03-24T10:31:20Z</time>
      </trkpt>
      <trkpt lat="62.642618650046" lon="17.972296558489">
        <ele>182.4</ele>
        <time>2018-03-24T10:31:21Z</time>
      </trkpt>
      <trkpt lat="62.642608172671" lon="17.972251463867">
        <ele>182.4</ele>
        <time>2018-03-24T10:31:22Z</time>
      </trkpt>
      <trkpt lat="62.642598952581" lon="17.972187593789">
        <ele>182.4</ele>
        <time>2018-03-24T10:31:23Z</time>
      </trkpt>
      <trkpt lat="62.64258897812" lon="17.972136212742">
        <ele>182.8</ele>
        <time>2018-03-24T10:31:24Z</time>
      </trkpt>
      <trkpt lat="62.642582188781" lon="17.972073767587">
        <ele>182.8</ele>
        <time>2018-03-24T10:31:25Z</time>
      </trkpt>
      <trkpt lat="62.642566263171" lon="17.972016435391">
        <ele>183</ele>
        <time>2018-03-24T10:31:26Z</time>
      </trkpt>
      <trkpt lat="62.642556791624" lon="17.971943848137">
        <ele>182.8</ele>
        <time>2018-03-24T10:31:27Z</time>
      </trkpt>
      <trkpt lat="62.642552684493" lon="17.971877882584">
        <ele>182.8</ele>
        <time>2018-03-24T10:31:28Z</time>
      </trkpt>
      <trkpt lat="62.642562323678" lon="17.971830943944">
        <ele>182.8</ele>
        <time>2018-03-24T10:31:29Z</time>
      </trkpt>
      <trkpt lat="62.642577411098" lon="17.971798925086">
        <ele>182.8</ele>
        <time>2018-03-24T10:31:30Z</time>
      </trkpt>
      <trkpt lat="62.642614459096" lon="17.971793225394">
        <ele>182.8</ele>
        <time>2018-03-24T10:31:31Z</time>
      </trkpt>
      <trkpt lat="62.642635246208" lon="17.9718161918">
        <ele>182.8</ele>
        <time>2018-03-24T10:31:32Z</time>
      </trkpt>
      <trkpt lat="62.642665672505" lon="17.971868746313">
        <ele>182.8</ele>
        <time>2018-03-24T10:31:33Z</time>
      </trkpt>
      <trkpt lat="62.642681262839" lon="17.971920797912">
        <ele>182.8</ele>
        <time>2018-03-24T10:31:34Z</time>
      </trkpt>
      <trkpt lat="62.642703307236" lon="17.971995983555">
        <ele>182.6</ele>
        <time>2018-03-24T10:31:35Z</time>
      </trkpt>
      <trkpt lat="62.642725938366" lon="17.972057422882">
        <ele>182.6</ele>
        <time>2018-03-24T10:31:36Z</time>
      </trkpt>
      <trkpt lat="62.64274236689" lon="17.972113246336">
        <ele>182.4</ele>
        <time>2018-03-24T10:31:37Z</time>
      </trkpt>
      <trkpt lat="62.642758460138" lon="17.972182229373">
        <ele>182.2</ele>
        <time>2018-03-24T10:31:38Z</time>
      </trkpt>
      <trkpt lat="62.642783019105" lon="17.972225060882">
        <ele>182</ele>
        <time>2018-03-24T10:31:39Z</time>
      </trkpt>
      <trkpt lat="62.642798860896" lon="17.972307538778">
        <ele>181.8</ele>
        <time>2018-03-24T10:31:40Z</time>
      </trkpt>
      <trkpt lat="62.642828868098" lon="17.972377695281">
        <ele>181.6</ele>
        <time>2018-03-24T10:31:41Z</time>
      </trkpt>
      <trkpt lat="62.642844123156" lon="17.97244986344">
        <ele>181.4</ele>
        <time>2018-03-24T10:31:42Z</time>
      </trkpt>
      <trkpt lat="62.642859629671" lon="17.972540052684">
        <ele>181.4</ele>
        <time>2018-03-24T10:31:43Z</time>
      </trkpt>
      <trkpt lat="62.642879075679" lon="17.972587410419">
        <ele>181.4</ele>
        <time>2018-03-24T10:31:44Z</time>
      </trkpt>
      <trkpt lat="62.642895252746" lon="17.97268623302">
        <ele>181.4</ele>
        <time>2018-03-24T10:31:45Z</time>
      </trkpt>
      <trkpt lat="62.642917464781" lon="17.97274825908">
        <ele>181.4</ele>
        <time>2018-03-24T10:31:46Z</time>
      </trkpt>
      <trkpt lat="62.642926601052" lon="17.972853200468">
        <ele>181.4</ele>
        <time>2018-03-24T10:31:47Z</time>
      </trkpt>
      <trkpt lat="62.642938754807" lon="17.972933666708">
        <ele>181.2</ele>
        <time>2018-03-24T10:31:48Z</time>
      </trkpt>
      <trkpt lat="62.642946549974" lon="17.973014384405">
        <ele>181.2</ele>
        <time>2018-03-24T10:31:49Z</time>
      </trkpt>
      <trkpt lat="62.642962559403" lon="17.973087893668">
        <ele>181</ele>
        <time>2018-03-24T10:31:50Z</time>
      </trkpt>
      <trkpt lat="62.642981167221" lon="17.973155451782">
        <ele>181</ele>
        <time>2018-03-24T10:31:51Z</time>
      </trkpt>
      <trkpt lat="62.642983178877" lon="17.97326039317">
        <ele>181</ele>
        <time>2018-03-24T10:31:52Z</time>
      </trkpt>
      <trkpt lat="62.643006480559" lon="17.973326777818">
        <ele>181</ele>
        <time>2018-03-24T10:31:53Z</time>
      </trkpt>
      <trkpt lat="62.643007402568" lon="17.973421074193">
        <ele>181</ele>
        <time>2018-03-24T10:31:54Z</time>
      </trkpt>
      <trkpt lat="62.643019975418" lon="17.973507240125">
        <ele>180.8</ele>
        <time>2018-03-24T10:31:55Z</time>
      </trkpt>
      <trkpt lat="62.643032296811" lon="17.973572283669">
        <ele>180.8</ele>
        <time>2018-03-24T10:31:56Z</time>
      </trkpt>
      <trkpt lat="62.643039589064" lon="17.97366272437">
        <ele>180.8</ele>
        <time>2018-03-24T10:31:57Z</time>
      </trkpt>
      <trkpt lat="62.643063477479" lon="17.973713937779">
        <ele>180.8</ele>
        <time>2018-03-24T10:31:58Z</time>
      </trkpt>
      <trkpt lat="62.643075715053" lon="17.973796499494">
        <ele>180.6</ele>
        <time>2018-03-24T10:31:59Z</time>
      </trkpt>
      <trkpt lat="62.643080576555" lon="17.97387311006">
        <ele>180.6</ele>
        <time>2018-03-24T10:32:00Z</time>
      </trkpt>
      <trkpt lat="62.643081247107" lon="17.973920970709">
        <ele>180.8</ele>
        <time>2018-03-24T10:32:01Z</time>
      </trkpt>
      <trkpt lat="62.643074457768" lon="17.974013171609">
        <ele>180.6</ele>
        <time>2018-03-24T10:32:02Z</time>
      </trkpt>
      <trkpt lat="62.64307931927" lon="17.974073772746">
        <ele>180.6</ele>
        <time>2018-03-24T10:32:03Z</time>
      </trkpt>
      <trkpt lat="62.643069428628" lon="17.974148120199">
        <ele>180.6</ele>
        <time>2018-03-24T10:32:04Z</time>
      </trkpt>
      <trkpt lat="62.643069596266" lon="17.974231184828">
        <ele>180.6</ele>
        <time>2018-03-24T10:32:05Z</time>
      </trkpt>
      <trkpt lat="62.643068255162" lon="17.974297904752">
        <ele>180.6</ele>
        <time>2018-03-24T10:32:06Z</time>
      </trkpt>
      <trkpt lat="62.643055766131" lon="17.974381556114">
        <ele>180.6</ele>
        <time>2018-03-24T10:32:07Z</time>
      </trkpt>
      <trkpt lat="62.643066830239" lon="17.974433775351">
        <ele>180.4</ele>
        <time>2018-03-24T10:32:08Z</time>
      </trkpt>
      <trkpt lat="62.643057191054" lon="17.974498148343">
        <ele>180.6</ele>
        <time>2018-03-24T10:32:09Z</time>
      </trkpt>
      <trkpt lat="62.643064315669" lon="17.97455455853">
        <ele>180.4</ele>
        <time>2018-03-24T10:32:10Z</time>
      </trkpt>
      <trkpt lat="62.643057191054" lon="17.974603089731">
        <ele>180.6</ele>
        <time>2018-03-24T10:32:11Z</time>
      </trkpt>
      <trkpt lat="62.6430432771" lon="17.974687579283">
        <ele>180.6</ele>
        <time>2018-03-24T10:32:12Z</time>
      </trkpt>
      <trkpt lat="62.643049563525" lon="17.974745330574">
        <ele>180.6</ele>
        <time>2018-03-24T10:32:13Z</time>
      </trkpt>
      <trkpt lat="62.64303908615" lon="17.974811128489">
        <ele>180.6</ele>
        <time>2018-03-24T10:32:14Z</time>
      </trkpt>
      <trkpt lat="62.643037996503" lon="17.974882374639">
        <ele>180.6</ele>
        <time>2018-03-24T10:32:15Z</time>
      </trkpt>
      <trkpt lat="62.643042941824" lon="17.974933168953">
        <ele>180.8</ele>
        <time>2018-03-24T10:32:16Z</time>
      </trkpt>
      <trkpt lat="62.643041349263" lon="17.97500885751">
        <ele>180.6</ele>
        <time>2018-03-24T10:32:17Z</time>
      </trkpt>
      <trkpt lat="62.643061801099" lon="17.975064345688">
        <ele>180.6</ele>
        <time>2018-03-24T10:32:18Z</time>
      </trkpt>
      <trkpt lat="62.643068087524" lon="17.975137268218">
        <ele>180.6</ele>
        <time>2018-03-24T10:32:19Z</time>
      </trkpt>
      <trkpt lat="62.643075631234" lon="17.975214297879">
        <ele>180.6</ele>
        <time>2018-03-24T10:32:20Z</time>
      </trkpt>
      <trkpt lat="62.643062304013" lon="17.975263080537">
        <ele>180.6</ele>
        <time>2018-03-24T10:32:21Z</time>
      </trkpt>
      <trkpt lat="62.643038667055" lon="17.975339858741">
        <ele>180.6</ele>
        <time>2018-03-24T10:32:22Z</time>
      </trkpt>
      <trkpt lat="62.643022489988" lon="17.975392413254">
        <ele>180.6</ele>
        <time>2018-03-24T10:32:23Z</time>
      </trkpt>
      <trkpt lat="62.643006815835" lon="17.975430299442">
        <ele>180.8</ele>
        <time>2018-03-24T10:32:24Z</time>
      </trkpt>
      <trkpt lat="62.642983849429" lon="17.975482015765">
        <ele>180.8</ele>
        <time>2018-03-24T10:32:25Z</time>
      </trkpt>
      <trkpt lat="62.642971444217" lon="17.975533061536">
        <ele>180.8</ele>
        <time>2018-03-24T10:32:26Z</time>
      </trkpt>
      <trkpt lat="62.642959541919" lon="17.975577653244">
        <ele>181</ele>
        <time>2018-03-24T10:32:27Z</time>
      </trkpt>
      <trkpt lat="62.642943197214" lon="17.975637667648">
        <ele>181</ele>
        <time>2018-03-24T10:32:28Z</time>
      </trkpt>
      <trkpt lat="62.642935485866" lon="17.975681169709">
        <ele>181.2</ele>
        <time>2018-03-24T10:32:29Z</time>
      </trkpt>
      <trkpt lat="62.642938000436" lon="17.975724252675">
        <ele>181.2</ele>
        <time>2018-03-24T10:32:30Z</time>
      </trkpt>
      <trkpt lat="62.642927355423" lon="17.975792732798">
        <ele>181.4</ele>
        <time>2018-03-24T10:32:31Z</time>
      </trkpt>
      <trkpt lat="62.642931211097" lon="17.975828188235">
        <ele>181.4</ele>
        <time>2018-03-24T10:32:32Z</time>
      </trkpt>
      <trkpt lat="62.642921152817" lon="17.975909576484">
        <ele>181.6</ele>
        <time>2018-03-24T10:32:33Z</time>
      </trkpt>
      <trkpt lat="62.642913609107" lon="17.975961460445">
        <ele>181.6</ele>
        <time>2018-03-24T10:32:34Z</time>
      </trkpt>
      <trkpt lat="62.642912268003" lon="17.976029940568">
        <ele>181.6</ele>
        <time>2018-03-24T10:32:35Z</time>
      </trkpt>
      <trkpt lat="62.642905646302" lon="17.976080651063">
        <ele>181.6</ele>
        <time>2018-03-24T10:32:36Z</time>
      </trkpt>
      <trkpt lat="62.642903718465" lon="17.976141336019">
        <ele>181.6</ele>
        <time>2018-03-24T10:32:37Z</time>
      </trkpt>
      <trkpt lat="62.642895504203" lon="17.976229178331">
        <ele>181.4</ele>
        <time>2018-03-24T10:32:38Z</time>
      </trkpt>
      <trkpt lat="62.642894749832" lon="17.976265723415">
        <ele>181.6</ele>
        <time>2018-03-24T10:32:39Z</time>
      </trkpt>
      <trkpt lat="62.642891983805" lon="17.976332778615">
        <ele>181.4</ele>
        <time>2018-03-24T10:32:40Z</time>
      </trkpt>
      <trkpt lat="62.642898856963" lon="17.976389188802">
        <ele>181.4</ele>
        <time>2018-03-24T10:32:41Z</time>
      </trkpt>
      <trkpt lat="62.642901120076" lon="17.976437217089">
        <ele>181.4</ele>
        <time>2018-03-24T10:32:42Z</time>
      </trkpt>
      <trkpt lat="62.642898354049" lon="17.976504104651">
        <ele>181.4</ele>
        <time>2018-03-24T10:32:43Z</time>
      </trkpt>
      <trkpt lat="62.642904389017" lon="17.97655364168">
        <ele>181.4</ele>
        <time>2018-03-24T10:32:44Z</time>
      </trkpt>
      <trkpt lat="62.642901874447" lon="17.976636287214">
        <ele>181.4</ele>
        <time>2018-03-24T10:32:45Z</time>
      </trkpt>
      <trkpt lat="62.642893744004" lon="17.976705940803">
        <ele>181.4</ele>
        <time>2018-03-24T10:32:46Z</time>
      </trkpt>
      <trkpt lat="62.642893157271" lon="17.976754639642">
        <ele>181.4</ele>
        <time>2018-03-24T10:32:47Z</time>
      </trkpt>
      <trkpt lat="62.642890055968" lon="17.976830831113">
        <ele>181.4</ele>
        <time>2018-03-24T10:32:48Z</time>
      </trkpt>
      <trkpt lat="62.642871867245" lon="17.976862598514">
        <ele>181.4</ele>
        <time>2018-03-24T10:32:49Z</time>
      </trkpt>
      <trkpt lat="62.642874465634" lon="17.976897383399">
        <ele>181.4</ele>
        <time>2018-03-24T10:32:50Z</time>
      </trkpt>
      <trkpt lat="62.642857115101" lon="17.976950440826">
        <ele>181.4</ele>
        <time>2018-03-24T10:32:51Z</time>
      </trkpt>
      <trkpt lat="62.642858204748" lon="17.976995703086">
        <ele>181.6</ele>
        <time>2018-03-24T10:32:52Z</time>
      </trkpt>
      <trkpt lat="62.642841189491" lon="17.977043731373">
        <ele>181.8</ele>
        <time>2018-03-24T10:32:53Z</time>
      </trkpt>
      <trkpt lat="62.642843368785" lon="17.977098884275">
        <ele>181.8</ele>
        <time>2018-03-24T10:32:54Z</time>
      </trkpt>
      <trkpt lat="62.642828197546" lon="17.977149091856">
        <ele>182</ele>
        <time>2018-03-24T10:32:55Z</time>
      </trkpt>
      <trkpt lat="62.642827946089" lon="17.977214470676">
        <ele>182.2</ele>
        <time>2018-03-24T10:32:56Z</time>
      </trkpt>
      <trkpt lat="62.642823587501" lon="17.977261576954">
        <ele>182.2</ele>
        <time>2018-03-24T10:32:57Z</time>
      </trkpt>
      <trkpt lat="62.642819899465" lon="17.977311616897">
        <ele>182.2</ele>
        <time>2018-03-24T10:32:58Z</time>
      </trkpt>
      <trkpt lat="62.64281528942" lon="17.977356879157">
        <ele>182.2</ele>
        <time>2018-03-24T10:32:59Z</time>
      </trkpt>
      <trkpt lat="62.642793664118" lon="17.977406583824">
        <ele>182.4</ele>
        <time>2018-03-24T10:33:00Z</time>
      </trkpt>
      <trkpt lat="62.642780588354" lon="17.977450002066">
        <ele>182.2</ele>
        <time>2018-03-24T10:33:01Z</time>
      </trkpt>
      <trkpt lat="62.642766842038" lon="17.977489983729">
        <ele>182.2</ele>
        <time>2018-03-24T10:33:02Z</time>
      </trkpt>
      <trkpt lat="62.642743875632" lon="17.977550584866">
        <ele>182.4</ele>
        <time>2018-03-24T10:33:03Z</time>
      </trkpt>
      <trkpt lat="62.642733482076" lon="17.97758796814">
        <ele>182.4</ele>
        <time>2018-03-24T10:33:04Z</time>
      </trkpt>
      <trkpt lat="62.64271805938" lon="17.977617388609">
        <ele>182.6</ele>
        <time>2018-03-24T10:33:05Z</time>
      </trkpt>
      <trkpt lat="62.642696853173" lon="17.977634822961">
        <ele>182.8</ele>
        <time>2018-03-24T10:33:06Z</time>
      </trkpt>
      <trkpt lat="62.64268117902" lon="17.977664075792">
        <ele>182.8</ele>
        <time>2018-03-24T10:33:07Z</time>
      </trkpt>
      <trkpt lat="62.642663744668" lon="17.977692238976">
        <ele>183</ele>
        <time>2018-03-24T10:33:08Z</time>
      </trkpt>
      <trkpt lat="62.642648238153" lon="17.977719480151">
        <ele>183.2</ele>
        <time>2018-03-24T10:33:09Z</time>
      </trkpt>
      <trkpt lat="62.642632815457" lon="17.977750241724">
        <ele>183.4</ele>
        <time>2018-03-24T10:33:10Z</time>
      </trkpt>
      <trkpt lat="62.642615297286" lon="17.97777236994">
        <ele>183.6</ele>
        <time>2018-03-24T10:33:11Z</time>
      </trkpt>
      <trkpt lat="62.642595599821" lon="17.977800281667">
        <ele>183.8</ele>
        <time>2018-03-24T10:33:12Z</time>
      </trkpt>
      <trkpt lat="62.642581685867" lon="17.977832887258">
        <ele>183.8</ele>
        <time>2018-03-24T10:33:13Z</time>
      </trkpt>
      <trkpt lat="62.642560060565" lon="17.9778595417">
        <ele>184</ele>
        <time>2018-03-24T10:33:14Z</time>
      </trkpt>
      <trkpt lat="62.642544218774" lon="17.977894997137">
        <ele>184.4</ele>
        <time>2018-03-24T10:33:15Z</time>
      </trkpt>
      <trkpt lat="62.642518486341" lon="17.977909162548">
        <ele>184.4</ele>
        <time>2018-03-24T10:33:16Z</time>
      </trkpt>
      <trkpt lat="62.642502309274" lon="17.977935146438">
        <ele>184.6</ele>
        <time>2018-03-24T10:33:17Z</time>
      </trkpt>
      <trkpt lat="62.642491999537" lon="17.977969428409">
        <ele>184.6</ele>
        <time>2018-03-24T10:33:18Z</time>
      </trkpt>
      <trkpt lat="62.642475319556" lon="17.977986024571">
        <ele>184.6</ele>
        <time>2018-03-24T10:33:19Z</time>
      </trkpt>
      <trkpt lat="62.642463081982" lon="17.978021228551">
        <ele>184.8</ele>
        <time>2018-03-24T10:33:20Z</time>
      </trkpt>
      <trkpt lat="62.642446318182" lon="17.978055929617">
        <ele>184.8</ele>
        <time>2018-03-24T10:33:21Z</time>
      </trkpt>
      <trkpt lat="62.642431314581" lon="17.978086775009">
        <ele>185</ele>
        <time>2018-03-24T10:33:22Z</time>
      </trkpt>
      <trkpt lat="62.64242385469" lon="17.978119548238">
        <ele>185</ele>
        <time>2018-03-24T10:33:23Z</time>
      </trkpt>
      <trkpt lat="62.642404241044" lon="17.978160116634">
        <ele>185.2</ele>
        <time>2018-03-24T10:33:24Z</time>
      </trkpt>
      <trkpt lat="62.642387477244" lon="17.978202948143">
        <ele>185.4</ele>
        <time>2018-03-24T10:33:25Z</time>
      </trkpt>
      <trkpt lat="62.642372054548" lon="17.978229854042">
        <ele>185.6</ele>
        <time>2018-03-24T10:33:26Z</time>
      </trkpt>
      <trkpt lat="62.642351602712" lon="17.978276625044">
        <ele>185.6</ele>
        <time>2018-03-24T10:33:27Z</time>
      </trkpt>
      <trkpt lat="62.64234422664" lon="17.978311829024">
        <ele>185.8</ele>
        <time>2018-03-24T10:33:28Z</time>
      </trkpt>
      <trkpt lat="62.642319583854" lon="17.978351894506">
        <ele>185.8</ele>
        <time>2018-03-24T10:33:29Z</time>
      </trkpt>
      <trkpt lat="62.642315644361" lon="17.978398749327">
        <ele>186</ele>
        <time>2018-03-24T10:33:30Z</time>
      </trkpt>
      <trkpt lat="62.642299215837" lon="17.978438898628">
        <ele>186</ele>
        <time>2018-03-24T10:33:31Z</time>
      </trkpt>
      <trkpt lat="62.642290079566" lon="17.978481394861">
        <ele>186</ele>
        <time>2018-03-24T10:33:32Z</time>
      </trkpt>
      <trkpt lat="62.642275327422" lon="17.978507714027">
        <ele>186.2</ele>
        <time>2018-03-24T10:33:33Z</time>
      </trkpt>
      <trkpt lat="62.642265269142" lon="17.978531602442">
        <ele>186.2</ele>
        <time>2018-03-24T10:33:34Z</time>
      </trkpt>
      <trkpt lat="62.642248253885" lon="17.978560519997">
        <ele>186.4</ele>
        <time>2018-03-24T10:33:35Z</time>
      </trkpt>
      <trkpt lat="62.64223693832" lon="17.978588515543">
        <ele>186.4</ele>
        <time>2018-03-24T10:33:36Z</time>
      </trkpt>
      <trkpt lat="62.642224616927" lon="17.978612320139">
        <ele>186.8</ele>
        <time>2018-03-24T10:33:37Z</time>
      </trkpt>
      <trkpt lat="62.642209613326" lon="17.978635621821">
        <ele>186.8</ele>
        <time>2018-03-24T10:33:38Z</time>
      </trkpt>
      <trkpt lat="62.642189832042" lon="17.978648194671">
        <ele>187</ele>
        <time>2018-03-24T10:33:39Z</time>
      </trkpt>
      <trkpt lat="62.642181785418" lon="17.978669484697">
        <ele>187.2</ele>
        <time>2018-03-24T10:33:40Z</time>
      </trkpt>
      <trkpt lat="62.642149012189" lon="17.978682309004">
        <ele>187.2</ele>
        <time>2018-03-24T10:33:41Z</time>
      </trkpt>
      <trkpt lat="62.642134092407" lon="17.97871701007">
        <ele>187.4</ele>
        <time>2018-03-24T10:33:42Z</time>
      </trkpt>
      <trkpt lat="62.642105258671" lon="17.978727990359">
        <ele>187.4</ele>
        <time>2018-03-24T10:33:43Z</time>
      </trkpt>
      <trkpt lat="62.642097547323" lon="17.978700916822">
        <ele>187.6</ele>
        <time>2018-03-24T10:33:44Z</time>
      </trkpt>
      <trkpt lat="62.642076257297" lon="17.978715752785">
        <ele>188</ele>
        <time>2018-03-24T10:33:45Z</time>
      </trkpt>
      <trkpt lat="62.642067204845" lon="17.978736623716">
        <ele>188.2</ele>
        <time>2018-03-24T10:33:46Z</time>
      </trkpt>
      <trkpt lat="62.642048513208" lon="17.978738970648">
        <ele>188.4</ele>
        <time>2018-03-24T10:33:47Z</time>
      </trkpt>
      <trkpt lat="62.642025043888" lon="17.978748609833">
        <ele>188.6</ele>
        <time>2018-03-24T10:33:48Z</time>
      </trkpt>
      <trkpt lat="62.642013560685" lon="17.97875891957">
        <ele>189</ele>
        <time>2018-03-24T10:33:49Z</time>
      </trkpt>
      <trkpt lat="62.641989504632" lon="17.978764283986">
        <ele>189</ele>
        <time>2018-03-24T10:33:50Z</time>
      </trkpt>
      <trkpt lat="62.641969890986" lon="17.97876394871">
        <ele>189.2</ele>
        <time>2018-03-24T10:33:51Z</time>
      </trkpt>
      <trkpt lat="62.641960000344" lon="17.978783478537">
        <ele>189.4</ele>
        <time>2018-03-24T10:33:52Z</time>
      </trkpt>
      <trkpt lat="62.641944912924" lon="17.978789513505">
        <ele>189.6</ele>
        <time>2018-03-24T10:33:53Z</time>
      </trkpt>
      <trkpt lat="62.641924712545" lon="17.978802253993">
        <ele>189.6</ele>
        <time>2018-03-24T10:33:54Z</time>
      </trkpt>
      <trkpt lat="62.641909708944" lon="17.978820191259">
        <ele>190</ele>
        <time>2018-03-24T10:33:55Z</time>
      </trkpt>
      <trkpt lat="62.641889760022" lon="17.978813904834">
        <ele>190.2</ele>
        <time>2018-03-24T10:33:56Z</time>
      </trkpt>
      <trkpt lat="62.641877438629" lon="17.978825890951">
        <ele>190.4</ele>
        <time>2018-03-24T10:33:57Z</time>
      </trkpt>
      <trkpt lat="62.641864111408" lon="17.978838212344">
        <ele>190.6</ele>
        <time>2018-03-24T10:33:58Z</time>
      </trkpt>
      <trkpt lat="62.64185137092" lon="17.978835446317">
        <ele>190.6</ele>
        <time>2018-03-24T10:33:59Z</time>
      </trkpt>
      <trkpt lat="62.641834355663" lon="17.978847600072">
        <ele>191</ele>
        <time>2018-03-24T10:34:00Z</time>
      </trkpt>
      <trkpt lat="62.641820860804" lon="17.978855479058">
        <ele>191</ele>
        <time>2018-03-24T10:34:01Z</time>
      </trkpt>
      <trkpt lat="62.641793284353" lon="17.978856401067">
        <ele>191</ele>
        <time>2018-03-24T10:34:02Z</time>
      </trkpt>
      <trkpt lat="62.64178431572" lon="17.978859753827">
        <ele>191.2</ele>
        <time>2018-03-24T10:34:03Z</time>
      </trkpt>
      <trkpt lat="62.641775347087" lon="17.978879032197">
        <ele>191.6</ele>
        <time>2018-03-24T10:34:04Z</time>
      </trkpt>
      <trkpt lat="62.641763696246" lon="17.978873835419">
        <ele>191.8</ele>
        <time>2018-03-24T10:34:05Z</time>
      </trkpt>
      <trkpt lat="62.641741903306" lon="17.978871907582">
        <ele>192</ele>
        <time>2018-03-24T10:34:06Z</time>
      </trkpt>
      <trkpt lat="62.6417273188" lon="17.97887207522">
        <ele>192.4</ele>
        <time>2018-03-24T10:34:07Z</time>
      </trkpt>
      <trkpt lat="62.641710974095" lon="17.978884564251">
        <ele>192.8</ele>
        <time>2018-03-24T10:34:08Z</time>
      </trkpt>
      <trkpt lat="62.641674429011" lon="17.9788737516">
        <ele>192.8</ele>
        <time>2018-03-24T10:34:09Z</time>
      </trkpt>
      <trkpt lat="62.641659760686" lon="17.978869057736">
        <ele>193</ele>
        <time>2018-03-24T10:34:10Z</time>
      </trkpt>
      <trkpt lat="62.641644086533" lon="17.978877858731">
        <ele>193.2</ele>
        <time>2018-03-24T10:34:11Z</time>
      </trkpt>
      <trkpt lat="62.641623969973" lon="17.978860089103">
        <ele>193.4</ele>
        <time>2018-03-24T10:34:12Z</time>
      </trkpt>
      <trkpt lat="62.641603434318" lon="17.97885195866">
        <ele>193.6</ele>
        <time>2018-03-24T10:34:13Z</time>
      </trkpt>
      <trkpt lat="62.641584742681" lon="17.978861262569">
        <ele>193.8</ele>
        <time>2018-03-24T10:34:14Z</time>
      </trkpt>
      <trkpt lat="62.641565631949" lon="17.978845420778">
        <ele>194</ele>
        <time>2018-03-24T10:34:15Z</time>
      </trkpt>
      <trkpt lat="62.641548616692" lon="17.978829411349">
        <ele>194.2</ele>
        <time>2018-03-24T10:34:16Z</time>
      </trkpt>
      <trkpt lat="62.641538893688" lon="17.978839888724">
        <ele>194.4</ele>
        <time>2018-03-24T10:34:17Z</time>
      </trkpt>
      <trkpt lat="62.641507796839" lon="17.97882513658">
        <ele>194.6</ele>
        <time>2018-03-24T10:34:18Z</time>
      </trkpt>
      <trkpt lat="62.641482818777" lon="17.978821280906">
        <ele>194.8</ele>
        <time>2018-03-24T10:34:19Z</time>
      </trkpt>
      <trkpt lat="62.641461277294" lon="17.978821616182">
        <ele>194.8</ele>
        <time>2018-03-24T10:34:20Z</time>
      </trkpt>
      <trkpt lat="62.64144401058" lon="17.978820442716">
        <ele>195</ele>
        <time>2018-03-24T10:34:21Z</time>
      </trkpt>
      <trkpt lat="62.641430934816" lon="17.978818179603">
        <ele>195.2</ele>
        <time>2018-03-24T10:34:22Z</time>
      </trkpt>
      <trkpt lat="62.641410902075" lon="17.978826561503">
        <ele>195.2</ele>
        <time>2018-03-24T10:34:23Z</time>
      </trkpt>
      <trkpt lat="62.641388270945" lon="17.978834943403">
        <ele>195.4</ele>
        <time>2018-03-24T10:34:24Z</time>
      </trkpt>
      <trkpt lat="62.64137276443" lon="17.978854305592">
        <ele>195.4</ele>
        <time>2018-03-24T10:34:25Z</time>
      </trkpt>
      <trkpt lat="62.641347031997" lon="17.978849863185">
        <ele>195.6</ele>
        <time>2018-03-24T10:34:26Z</time>
      </trkpt>
      <trkpt lat="62.641322137754" lon="17.97885363504">
        <ele>195.8</ele>
        <time>2018-03-24T10:34:27Z</time>
      </trkpt>
      <trkpt lat="62.641304787221" lon="17.97886704608">
        <ele>196.2</ele>
        <time>2018-03-24T10:34:28Z</time>
      </trkpt>
      <trkpt lat="62.64128475448" lon="17.978862100759">
        <ele>196.4</ele>
        <time>2018-03-24T10:34:29Z</time>
      </trkpt>
      <trkpt lat="62.641261452798" lon="17.978863190406">
        <ele>196.6</ele>
        <time>2018-03-24T10:34:30Z</time>
      </trkpt>
      <trkpt lat="62.641247455025" lon="17.978889593391">
        <ele>196.8</ele>
        <time>2018-03-24T10:34:31Z</time>
      </trkpt>
      <trkpt lat="62.641218286013" lon="17.978887665554">
        <ele>197.2</ele>
        <time>2018-03-24T10:34:32Z</time>
      </trkpt>
      <trkpt lat="62.641208646828" lon="17.978887330278">
        <ele>197.2</ele>
        <time>2018-03-24T10:34:33Z</time>
      </trkpt>
      <trkpt lat="62.641192469761" lon="17.978905351363">
        <ele>197.4</ele>
        <time>2018-03-24T10:34:34Z</time>
      </trkpt>
      <trkpt lat="62.641166737328" lon="17.978912643616">
        <ele>197.6</ele>
        <time>2018-03-24T10:34:35Z</time>
      </trkpt>
      <trkpt lat="62.641143351827" lon="17.978923456267">
        <ele>197.6</ele>
        <time>2018-03-24T10:34:36Z</time>
      </trkpt>
      <trkpt lat="62.641127258579" lon="17.978942231723">
        <ele>197.8</ele>
        <time>2018-03-24T10:34:37Z</time>
      </trkpt>
      <trkpt lat="62.641109656589" lon="17.978957319143">
        <ele>198</ele>
        <time>2018-03-24T10:34:38Z</time>
      </trkpt>
      <trkpt lat="62.641084091794" lon="17.9789994801">
        <ele>198</ele>
        <time>2018-03-24T10:34:39Z</time>
      </trkpt>
      <trkpt lat="62.641074117333" lon="17.97901875847">
        <ele>198.2</ele>
        <time>2018-03-24T10:34:40Z</time>
      </trkpt>
      <trkpt lat="62.641057018257" lon="17.979033929709">
        <ele>198.4</ele>
        <time>2018-03-24T10:34:41Z</time>
      </trkpt>
      <trkpt lat="62.641044864502" lon="17.979087406231">
        <ele>198.6</ele>
        <time>2018-03-24T10:34:42Z</time>
      </trkpt>
      <trkpt lat="62.641027933064" lon="17.979124035134">
        <ele>199</ele>
        <time>2018-03-24T10:34:43Z</time>
      </trkpt>
      <trkpt lat="62.641020305535" lon="17.979181451149">
        <ele>199</ele>
        <time>2018-03-24T10:34:44Z</time>
      </trkpt>
      <trkpt lat="62.641009409065" lon="17.979227216323">
        <ele>199.2</ele>
        <time>2018-03-24T10:34:45Z</time>
      </trkpt>
      <trkpt lat="62.640998847871" lon="17.979261414475">
        <ele>199.4</ele>
        <time>2018-03-24T10:34:46Z</time>
      </trkpt>
      <trkpt lat="62.641010750169" lon="17.979307347287">
        <ele>199.4</ele>
        <time>2018-03-24T10:34:47Z</time>
      </trkpt>
      <trkpt lat="62.640989124867" lon="17.979363003103">
        <ele>199.4</ele>
        <time>2018-03-24T10:34:48Z</time>
      </trkpt>
      <trkpt lat="62.640994070188" lon="17.979398374721">
        <ele>199.4</ele>
        <time>2018-03-24T10:34:49Z</time>
      </trkpt>
      <trkpt lat="62.64098216789" lon="17.979452521795">
        <ele>199.4</ele>
        <time>2018-03-24T10:34:50Z</time>
      </trkpt>
      <trkpt lat="62.640967834841" lon="17.979492671096">
        <ele>199.4</ele>
        <time>2018-03-24T10:34:51Z</time>
      </trkpt>
      <trkpt lat="62.640957525104" lon="17.979532904216">
        <ele>199.4</ele>
        <time>2018-03-24T10:34:52Z</time>
      </trkpt>
      <trkpt lat="62.640955764905" lon="17.979588476213">
        <ele>199.4</ele>
        <time>2018-03-24T10:34:53Z</time>
      </trkpt>
      <trkpt lat="62.640960794045" lon="17.979629966618">
        <ele>199.4</ele>
        <time>2018-03-24T10:34:54Z</time>
      </trkpt>
      <trkpt lat="62.64095031667" lon="17.979687298814">
        <ele>199.6</ele>
        <time>2018-03-24T10:34:55Z</time>
      </trkpt>
      <trkpt lat="62.640955178172" lon="17.979740188603">
        <ele>199.6</ele>
        <time>2018-03-24T10:34:56Z</time>
      </trkpt>
      <trkpt lat="62.640944868435" lon="17.979777571877">
        <ele>199.8</ele>
        <time>2018-03-24T10:34:57Z</time>
      </trkpt>
      <trkpt lat="62.640935061612" lon="17.979832808598">
        <ele>199.8</ele>
        <time>2018-03-24T10:34:58Z</time>
      </trkpt>
      <trkpt lat="62.640941180399" lon="17.97988628512">
        <ele>200</ele>
        <time>2018-03-24T10:34:59Z</time>
      </trkpt>
      <trkpt lat="62.64091678907" lon="17.979935822149">
        <ele>200</ele>
        <time>2018-03-24T10:35:00Z</time>
      </trkpt>
      <trkpt lat="62.640908742446" lon="17.979986616463">
        <ele>200</ele>
        <time>2018-03-24T10:35:01Z</time>
      </trkpt>
      <trkpt lat="62.640911424654" lon="17.980026179031">
        <ele>199.8</ele>
        <time>2018-03-24T10:35:02Z</time>
      </trkpt>
      <trkpt lat="62.640914023043" lon="17.980091222575">
        <ele>200</ele>
        <time>2018-03-24T10:35:03Z</time>
      </trkpt>
      <trkpt lat="62.640916286156" lon="17.980139921414">
        <ele>199.8</ele>
        <time>2018-03-24T10:35:04Z</time>
      </trkpt>
      <trkpt lat="62.640921315296" lon="17.980186189502">
        <ele>199.8</ele>
        <time>2018-03-24T10:35:05Z</time>
      </trkpt>
      <trkpt lat="62.640919722735" lon="17.980265817552">
        <ele>199.8</ele>
        <time>2018-03-24T10:35:06Z</time>
      </trkpt>
      <trkpt lat="62.640926679712" lon="17.980316025133">
        <ele>199.8</ele>
        <time>2018-03-24T10:35:07Z</time>
      </trkpt>
      <trkpt lat="62.640930283929" lon="17.980402442522">
        <ele>199.8</ele>
        <time>2018-03-24T10:35:08Z</time>
      </trkpt>
      <trkpt lat="62.640930870662" lon="17.980462624564">
        <ele>199.6</ele>
        <time>2018-03-24T10:35:09Z</time>
      </trkpt>
      <trkpt lat="62.640941599494" lon="17.980535798551">
        <ele>199.4</ele>
        <time>2018-03-24T10:35:10Z</time>
      </trkpt>
      <trkpt lat="62.64095115486" lon="17.980627496537">
        <ele>199.4</ele>
        <time>2018-03-24T10:35:11Z</time>
      </trkpt>
      <trkpt lat="62.640970600868" lon="17.980683236172">
        <ele>199.2</ele>
        <time>2018-03-24T10:35:12Z</time>
      </trkpt>
      <trkpt lat="62.640979737139" lon="17.980760852566">
        <ele>199</ele>
        <time>2018-03-24T10:35:13Z</time>
      </trkpt>
      <trkpt lat="62.640989795419" lon="17.980800415134">
        <ele>198.8</ele>
        <time>2018-03-24T10:35:14Z</time>
      </trkpt>
      <trkpt lat="62.641002116812" lon="17.98087786389">
        <ele>198.6</ele>
        <time>2018-03-24T10:35:15Z</time>
      </trkpt>
      <trkpt lat="62.641017874784" lon="17.980950032049">
        <ele>198</ele>
        <time>2018-03-24T10:35:16Z</time>
      </trkpt>
      <trkpt lat="62.641037572249" lon="17.981022703122">
        <ele>197.6</ele>
        <time>2018-03-24T10:35:17Z</time>
      </trkpt>
      <trkpt lat="62.641055341877" lon="17.981108701416">
        <ele>197.2</ele>
        <time>2018-03-24T10:35:18Z</time>
      </trkpt>
      <trkpt lat="62.641078895016" lon="17.981168799639">
        <ele>196.8</ele>
        <time>2018-03-24T10:35:19Z</time>
      </trkpt>
      <trkpt lat="62.641096329368" lon="17.981266364955">
        <ele>196.6</ele>
        <time>2018-03-24T10:35:20Z</time>
      </trkpt>
      <trkpt lat="62.641099430671" lon="17.981380274976">
        <ele>196.2</ele>
        <time>2018-03-24T10:35:21Z</time>
      </trkpt>
      <trkpt lat="62.641093730979" lon="17.981480271043">
        <ele>196</ele>
        <time>2018-03-24T10:35:22Z</time>
      </trkpt>
      <trkpt lat="62.641083002147" lon="17.981557552161">
        <ele>195.6</ele>
        <time>2018-03-24T10:35:23Z</time>
      </trkpt>
      <trkpt lat="62.641086774002" lon="17.981640952066">
        <ele>195.4</ele>
        <time>2018-03-24T10:35:24Z</time>
      </trkpt>
      <trkpt lat="62.641089959124" lon="17.981696188787">
        <ele>195.4</ele>
        <time>2018-03-24T10:35:25Z</time>
      </trkpt>
      <trkpt lat="62.641086438726" lon="17.981782941452">
        <ele>195.6</ele>
        <time>2018-03-24T10:35:26Z</time>
      </trkpt>
      <trkpt lat="62.64109364716" lon="17.981887379926">
        <ele>195.8</ele>
        <time>2018-03-24T10:35:27Z</time>
      </trkpt>
      <trkpt lat="62.641134131737" lon="17.981964493406">
        <ele>196</ele>
        <time>2018-03-24T10:35:28Z</time>
      </trkpt>
      <trkpt lat="62.64111879286" lon="17.982039679049">
        <ele>196.2</ele>
        <time>2018-03-24T10:35:29Z</time>
      </trkpt>
      <trkpt lat="62.641137316859" lon="17.982149817215">
        <ele>196.2</ele>
        <time>2018-03-24T10:35:30Z</time>
      </trkpt>
      <trkpt lat="62.641180148368" lon="17.982227936523">
        <ele>196.2</ele>
        <time>2018-03-24T10:35:31Z</time>
      </trkpt>
      <trkpt lat="62.641189033182" lon="17.982297003379">
        <ele>196.2</ele>
        <time>2018-03-24T10:35:32Z</time>
      </trkpt>
      <trkpt lat="62.641220465307" lon="17.982371099375">
        <ele>196.2</ele>
        <time>2018-03-24T10:35:33Z</time>
      </trkpt>
      <trkpt lat="62.641227506103" lon="17.982411164857">
        <ele>196.2</ele>
        <time>2018-03-24T10:35:34Z</time>
      </trkpt>
      <trkpt lat="62.641247957939" lon="17.982501270282">
        <ele>196.2</ele>
        <time>2018-03-24T10:35:35Z</time>
      </trkpt>
      <trkpt lat="62.641280479711" lon="17.982564805084">
        <ele>196</ele>
        <time>2018-03-24T10:35:36Z</time>
      </trkpt>
      <trkpt lat="62.641270002336" lon="17.982640158365">
        <ele>196</ele>
        <time>2018-03-24T10:35:37Z</time>
      </trkpt>
      <trkpt lat="62.641266146662" lon="17.98270344171">
        <ele>196</ele>
        <time>2018-03-24T10:35:38Z</time>
      </trkpt>
      <trkpt lat="62.641281485539" lon="17.982774268765">
        <ele>196</ele>
        <time>2018-03-24T10:35:39Z</time>
      </trkpt>
      <trkpt lat="62.641287017593" lon="17.982861356706">
        <ele>195.8</ele>
        <time>2018-03-24T10:35:40Z</time>
      </trkpt>
      <trkpt lat="62.641285257394" lon="17.982928663363">
        <ele>195.8</ele>
        <time>2018-03-24T10:35:41Z</time>
      </trkpt>
      <trkpt lat="62.641283832471" lon="17.983021786272">
        <ele>195.8</ele>
        <time>2018-03-24T10:35:42Z</time>
      </trkpt>
      <trkpt lat="62.641300344814" lon="17.983083309418">
        <ele>195.6</ele>
        <time>2018-03-24T10:35:43Z</time>
      </trkpt>
      <trkpt lat="62.641288526335" lon="17.983171235549">
        <ele>195.4</ele>
        <time>2018-03-24T10:35:44Z</time>
      </trkpt>
      <trkpt lat="62.641294058389" lon="17.983248600486">
        <ele>195.4</ele>
        <time>2018-03-24T10:35:45Z</time>
      </trkpt>
      <trkpt lat="62.641311828017" lon="17.983320098093">
        <ele>195.2</ele>
        <time>2018-03-24T10:35:46Z</time>
      </trkpt>
      <trkpt lat="62.641331525482" lon="17.983402659808">
        <ele>195.2</ele>
        <time>2018-03-24T10:35:47Z</time>
      </trkpt>
      <trkpt lat="62.641337895726" lon="17.983506511549">
        <ele>195</ele>
        <time>2018-03-24T10:35:48Z</time>
      </trkpt>
      <trkpt lat="62.641339572106" lon="17.983607764901">
        <ele>194.8</ele>
        <time>2018-03-24T10:35:49Z</time>
      </trkpt>
      <trkpt lat="62.641340829391" lon="17.983719244171">
        <ele>194.6</ele>
        <time>2018-03-24T10:35:50Z</time>
      </trkpt>
      <trkpt lat="62.641336219346" lon="17.983822509179">
        <ele>194</ele>
        <time>2018-03-24T10:35:51Z</time>
      </trkpt>
      <trkpt lat="62.64133085493" lon="17.983916637916">
        <ele>193.4</ele>
        <time>2018-03-24T10:35:52Z</time>
      </trkpt>
      <trkpt lat="62.641323227401" lon="17.984019902924">
        <ele>192.8</ele>
        <time>2018-03-24T10:35:53Z</time>
      </trkpt>
      <trkpt lat="62.64131912027" lon="17.984094501834">
        <ele>192.2</ele>
        <time>2018-03-24T10:35:54Z</time>
      </trkpt>
      <trkpt lat="62.641317527709" lon="17.984209417683">
        <ele>191.8</ele>
        <time>2018-03-24T10:35:55Z</time>
      </trkpt>
      <trkpt lat="62.641315599872" lon="17.984314861985">
        <ele>191.4</ele>
        <time>2018-03-24T10:35:56Z</time>
      </trkpt>
      <trkpt lat="62.641305373954" lon="17.984415947699">
        <ele>191</ele>
        <time>2018-03-24T10:35:57Z</time>
      </trkpt>
      <trkpt lat="62.641301183004" lon="17.984513345377">
        <ele>190.8</ele>
        <time>2018-03-24T10:35:58Z</time>
      </trkpt>
      <trkpt lat="62.641295567131" lon="17.984591632323">
        <ele>190.4</ele>
        <time>2018-03-24T10:35:59Z</time>
      </trkpt>
      <trkpt lat="62.641285508851" lon="17.984682324481">
        <ele>190.2</ele>
        <time>2018-03-24T10:36:00Z</time>
      </trkpt>
      <trkpt lat="62.64127553439" lon="17.98477125644">
        <ele>190</ele>
        <time>2018-03-24T10:36:01Z</time>
      </trkpt>
      <trkpt lat="62.641261033703" lon="17.984842334952">
        <ele>189.8</ele>
        <time>2018-03-24T10:36:02Z</time>
      </trkpt>
      <trkpt lat="62.641256339839" lon="17.984944342675">
        <ele>190</ele>
        <time>2018-03-24T10:36:03Z</time>
      </trkpt>
      <trkpt lat="62.641250221052" lon="17.985032520263">
        <ele>190</ele>
        <time>2018-03-24T10:36:04Z</time>
      </trkpt>
      <trkpt lat="62.641253238536" lon="17.985116758358">
        <ele>190.2</ele>
        <time>2018-03-24T10:36:05Z</time>
      </trkpt>
      <trkpt lat="62.641236642374" lon="17.985228824361">
        <ele>190.2</ele>
        <time>2018-03-24T10:36:06Z</time>
      </trkpt>
      <trkpt lat="62.641228344293" lon="17.985318510691">
        <ele>190.4</ele>
        <time>2018-03-24T10:36:07Z</time>
      </trkpt>
      <trkpt lat="62.641223482791" lon="17.985406855917">
        <ele>190.4</ele>
        <time>2018-03-24T10:36:08Z</time>
      </trkpt>
      <trkpt lat="62.641211161398" lon="17.985493021849">
        <ele>190.2</ele>
        <time>2018-03-24T10:36:09Z</time>
      </trkpt>
      <trkpt lat="62.641209820294" lon="17.985568039854">
        <ele>190.2</ele>
        <time>2018-03-24T10:36:10Z</time>
      </trkpt>
      <trkpt lat="62.641191799209" lon="17.985660492211">
        <ele>190.2</ele>
        <time>2018-03-24T10:36:11Z</time>
      </trkpt>
      <trkpt lat="62.641182327662" lon="17.985741712822">
        <ele>190</ele>
        <time>2018-03-24T10:36:12Z</time>
      </trkpt>
      <trkpt lat="62.64116321693" lon="17.985813210429">
        <ele>189.8</ele>
        <time>2018-03-24T10:36:13Z</time>
      </trkpt>
      <trkpt lat="62.641136730126" lon="17.985900633646">
        <ele>189.8</ele>
        <time>2018-03-24T10:36:14Z</time>
      </trkpt>
      <trkpt lat="62.641137149221" lon="17.985970538692">
        <ele>189.6</ele>
        <time>2018-03-24T10:36:15Z</time>
      </trkpt>
      <trkpt lat="62.641131449529" lon="17.986027870888">
        <ele>189.6</ele>
        <time>2018-03-24T10:36:16Z</time>
      </trkpt>
      <trkpt lat="62.641113009349" lon="17.986103727083">
        <ele>189.8</ele>
        <time>2018-03-24T10:36:17Z</time>
      </trkpt>
      <trkpt lat="62.641115523919" lon="17.986187965178">
        <ele>189.8</ele>
        <time>2018-03-24T10:36:18Z</time>
      </trkpt>
      <trkpt lat="62.641097167558" lon="17.986242028433">
        <ele>189.8</ele>
        <time>2018-03-24T10:36:19Z</time>
      </trkpt>
      <trkpt lat="62.641070429297" lon="17.986321321207">
        <ele>190</ele>
        <time>2018-03-24T10:36:20Z</time>
      </trkpt>
      <trkpt lat="62.641075123161" lon="17.986371109693">
        <ele>190</ele>
        <time>2018-03-24T10:36:21Z</time>
      </trkpt>
      <trkpt lat="62.641053749316" lon="17.986462891498">
        <ele>189.8</ele>
        <time>2018-03-24T10:36:22Z</time>
      </trkpt>
      <trkpt lat="62.641060706293" lon="17.986520139875">
        <ele>189.8</ele>
        <time>2018-03-24T10:36:23Z</time>
      </trkpt>
      <trkpt lat="62.641046373244" lon="17.9865850996">
        <ele>189.6</ele>
        <time>2018-03-24T10:36:24Z</time>
      </trkpt>
      <trkpt lat="62.641037991344" lon="17.986673361007">
        <ele>189.6</ele>
        <time>2018-03-24T10:36:25Z</time>
      </trkpt>
      <trkpt lat="62.641043188122" lon="17.986736392895">
        <ele>189.4</ele>
        <time>2018-03-24T10:36:26Z</time>
      </trkpt>
      <trkpt lat="62.641019215888" lon="17.986823732293">
        <ele>189.4</ele>
        <time>2018-03-24T10:36:27Z</time>
      </trkpt>
      <trkpt lat="62.641021730458" lon="17.986869832743">
        <ele>189.4</ele>
        <time>2018-03-24T10:36:28Z</time>
      </trkpt>
      <trkpt lat="62.641012594187" lon="17.986932864631">
        <ele>189.4</ele>
        <time>2018-03-24T10:36:29Z</time>
      </trkpt>
      <trkpt lat="62.640999937518" lon="17.987018695287">
        <ele>189.6</ele>
        <time>2018-03-24T10:36:30Z</time>
      </trkpt>
      <trkpt lat="62.640997842043" lon="17.987075692207">
        <ele>189.4</ele>
        <time>2018-03-24T10:36:31Z</time>
      </trkpt>
      <trkpt lat="62.640981916433" lon="17.987147105995">
        <ele>189.6</ele>
        <time>2018-03-24T10:36:32Z</time>
      </trkpt>
      <trkpt lat="62.640989208686" lon="17.987205779295">
        <ele>189.4</ele>
        <time>2018-03-24T10:36:33Z</time>
      </trkpt>
      <trkpt lat="62.640974037447" lon="17.987288676286">
        <ele>189.4</ele>
        <time>2018-03-24T10:36:34Z</time>
      </trkpt>
      <trkpt lat="62.640981581157" lon="17.987342236627">
        <ele>189.4</ele>
        <time>2018-03-24T10:36:35Z</time>
      </trkpt>
      <trkpt lat="62.640965571728" lon="17.987432928785">
        <ele>189.4</ele>
        <time>2018-03-24T10:36:36Z</time>
      </trkpt>
      <trkpt lat="62.640962135149" lon="17.987505767496">
        <ele>189.2</ele>
        <time>2018-03-24T10:36:37Z</time>
      </trkpt>
      <trkpt lat="62.640952747421" lon="17.987574247619">
        <ele>189.2</ele>
        <time>2018-03-24T10:36:38Z</time>
      </trkpt>
      <trkpt lat="62.640937995277" lon="17.987673321677">
        <ele>189.2</ele>
        <time>2018-03-24T10:36:39Z</time>
      </trkpt>
      <trkpt lat="62.640939587838" lon="17.987740376877">
        <ele>189.2</ele>
        <time>2018-03-24T10:36:40Z</time>
      </trkpt>
      <trkpt lat="62.640919052183" lon="17.987812964131">
        <ele>189.2</ele>
        <time>2018-03-24T10:36:41Z</time>
      </trkpt>
      <trkpt lat="62.640910754102" lon="17.987873984363">
        <ele>189.2</ele>
        <time>2018-03-24T10:36:42Z</time>
      </trkpt>
      <trkpt lat="62.640894660854" lon="17.987920420089">
        <ele>189.4</ele>
        <time>2018-03-24T10:36:43Z</time>
      </trkpt>
      <trkpt lat="62.640871945905" lon="17.987998120302">
        <ele>189.4</ele>
        <time>2018-03-24T10:36:44Z</time>
      </trkpt>
      <trkpt lat="62.640872784095" lon="17.988073138307">
        <ele>189.2</ele>
        <time>2018-03-24T10:36:45Z</time>
      </trkpt>
      <trkpt lat="62.640853338087" lon="17.988126698648">
        <ele>189.4</ele>
        <time>2018-03-24T10:36:46Z</time>
      </trkpt>
      <trkpt lat="62.640836909563" lon="17.988200124092">
        <ele>189.4</ele>
        <time>2018-03-24T10:36:47Z</time>
      </trkpt>
      <trkpt lat="62.640830036405" lon="17.988246895094">
        <ele>189.4</ele>
        <time>2018-03-24T10:36:48Z</time>
      </trkpt>
      <trkpt lat="62.64081955903" lon="17.988288888413">
        <ele>189.2</ele>
        <time>2018-03-24T10:36:49Z</time>
      </trkpt>
      <trkpt lat="62.640804974524" lon="17.988357536174">
        <ele>189.2</ele>
        <time>2018-03-24T10:36:50Z</time>
      </trkpt>
      <trkpt lat="62.640783852136" lon="17.988394416534">
        <ele>189.4</ele>
        <time>2018-03-24T10:36:51Z</time>
      </trkpt>
      <trkpt lat="62.640769351449" lon="17.988427944134">
        <ele>189.2</ele>
        <time>2018-03-24T10:36:52Z</time>
      </trkpt>
      <trkpt lat="62.640751581821" lon="17.98844839597">
        <ele>189.2</ele>
        <time>2018-03-24T10:36:53Z</time>
      </trkpt>
      <trkpt lat="62.640736745858" lon="17.98849030547">
        <ele>189.2</ele>
        <time>2018-03-24T10:36:54Z</time>
      </trkpt>
      <trkpt lat="62.640714450004" lon="17.988551158064">
        <ele>189.2</ele>
        <time>2018-03-24T10:36:55Z</time>
      </trkpt>
      <trkpt lat="62.640686538277" lon="17.988603796396">
        <ele>189.2</ele>
        <time>2018-03-24T10:36:56Z</time>
      </trkpt>
      <trkpt lat="62.640668014278" lon="17.988637743091">
        <ele>189.2</ele>
        <time>2018-03-24T10:36:57Z</time>
      </trkpt>
      <trkpt lat="62.640644796415" lon="17.988651154131">
        <ele>189.4</ele>
        <time>2018-03-24T10:36:58Z</time>
      </trkpt>
      <trkpt lat="62.640629960452" lon="17.988683759722">
        <ele>189.6</ele>
        <time>2018-03-24T10:36:59Z</time>
      </trkpt>
      <trkpt lat="62.640607832236" lon="17.988716365313">
        <ele>189.8</ele>
        <time>2018-03-24T10:37:00Z</time>
      </trkpt>
      <trkpt lat="62.640576316292" lon="17.988768249274">
        <ele>189.8</ele>
        <time>2018-03-24T10:37:01Z</time>
      </trkpt>
      <trkpt lat="62.640573382627" lon="17.988801190141">
        <ele>190</ele>
        <time>2018-03-24T10:37:02Z</time>
      </trkpt>
      <trkpt lat="62.640546141452" lon="17.98883228699">
        <ele>190.2</ele>
        <time>2018-03-24T10:37:03Z</time>
      </trkpt>
      <trkpt lat="62.640531640765" lon="17.988881907838">
        <ele>190.4</ele>
        <time>2018-03-24T10:37:04Z</time>
      </trkpt>
      <trkpt lat="62.640504818685" lon="17.988927505374">
        <ele>190.4</ele>
        <time>2018-03-24T10:37:05Z</time>
      </trkpt>
      <trkpt lat="62.64048595941" lon="17.988976539489">
        <ele>190.4</ele>
        <time>2018-03-24T10:37:06Z</time>
      </trkpt>
      <trkpt lat="62.640471291085" lon="17.989015431505">
        <ele>190.6</ele>
        <time>2018-03-24T10:37:07Z</time>
      </trkpt>
      <trkpt lat="62.6404448881" lon="17.98906781838">
        <ele>190.6</ele>
        <time>2018-03-24T10:37:08Z</time>
      </trkpt>
      <trkpt lat="62.640438350218" lon="17.989117020133">
        <ele>190.8</ele>
        <time>2018-03-24T10:37:09Z</time>
      </trkpt>
      <trkpt lat="62.640417814563" lon="17.989166389524">
        <ele>190.8</ele>
        <time>2018-03-24T10:37:10Z</time>
      </trkpt>
      <trkpt lat="62.640398620012" lon="17.989212992888">
        <ele>190.8</ele>
        <time>2018-03-24T10:37:11Z</time>
      </trkpt>
      <trkpt lat="62.640374815416" lon="17.989265379763">
        <ele>191</ele>
        <time>2018-03-24T10:37:12Z</time>
      </trkpt>
      <trkpt lat="62.6403526872" lon="17.989310642023">
        <ele>191</ele>
        <time>2018-03-24T10:37:13Z</time>
      </trkpt>
      <trkpt lat="62.640338521789" lon="17.989350456048">
        <ele>191</ele>
        <time>2018-03-24T10:37:14Z</time>
      </trkpt>
      <trkpt lat="62.640309436596" lon="17.989401166543">
        <ele>191.2</ele>
        <time>2018-03-24T10:37:15Z</time>
      </trkpt>
      <trkpt lat="62.640302144343" lon="17.989447686088">
        <ele>191.2</ele>
        <time>2018-03-24T10:37:16Z</time>
      </trkpt>
      <trkpt lat="62.640284123258" lon="17.989489679407">
        <ele>191.2</ele>
        <time>2018-03-24T10:37:17Z</time>
      </trkpt>
      <trkpt lat="62.640277585376" lon="17.989548855621">
        <ele>191.2</ele>
        <time>2018-03-24T10:37:18Z</time>
      </trkpt>
      <trkpt lat="62.640256546807" lon="17.989584227239">
        <ele>191.4</ele>
        <time>2018-03-24T10:37:19Z</time>
      </trkpt>
      <trkpt lat="62.64024204612" lon="17.989630830603">
        <ele>191.4</ele>
        <time>2018-03-24T10:37:20Z</time>
      </trkpt>
      <trkpt lat="62.640235424419" lon="17.989675841406">
        <ele>191.6</ele>
        <time>2018-03-24T10:37:21Z</time>
      </trkpt>
      <trkpt lat="62.640222600112" lon="17.989730239937">
        <ele>191.8</ele>
        <time>2018-03-24T10:37:22Z</time>
      </trkpt>
      <trkpt lat="62.64021773861" lon="17.989789835246">
        <ele>192</ele>
        <time>2018-03-24T10:37:23Z</time>
      </trkpt>
      <trkpt lat="62.640207428873" lon="17.989823446665">
        <ele>192</ele>
        <time>2018-03-24T10:37:24Z</time>
      </trkpt>
      <trkpt lat="62.6401850492" lon="17.989869798572">
        <ele>192.4</ele>
        <time>2018-03-24T10:37:25Z</time>
      </trkpt>
      <trkpt lat="62.640183289001" lon="17.989929645338">
        <ele>192.4</ele>
        <time>2018-03-24T10:37:26Z</time>
      </trkpt>
      <trkpt lat="62.640161663699" lon="17.989979182367">
        <ele>192.6</ele>
        <time>2018-03-24T10:37:27Z</time>
      </trkpt>
      <trkpt lat="62.640147246831" lon="17.990035005821">
        <ele>192.8</ele>
        <time>2018-03-24T10:37:28Z</time>
      </trkpt>
      <trkpt lat="62.640146995374" lon="17.990074316932">
        <ele>193</ele>
        <time>2018-03-24T10:37:29Z</time>
      </trkpt>
      <trkpt lat="62.640127381728" lon="17.990124273056">
        <ele>193</ele>
        <time>2018-03-24T10:37:30Z</time>
      </trkpt>
      <trkpt lat="62.640115227973" lon="17.990174564456">
        <ele>193</ele>
        <time>2018-03-24T10:37:31Z</time>
      </trkpt>
      <trkpt lat="62.64010542115" lon="17.990210187531">
        <ele>193</ele>
        <time>2018-03-24T10:37:32Z</time>
      </trkpt>
      <trkpt lat="62.640081448916" lon="17.990249163366">
        <ele>193</ele>
        <time>2018-03-24T10:37:33Z</time>
      </trkpt>
      <trkpt lat="62.640081197459" lon="17.990289480305">
        <ele>193.2</ele>
        <time>2018-03-24T10:37:34Z</time>
      </trkpt>
      <trkpt lat="62.640055045931" lon="17.990339184972">
        <ele>193.2</ele>
        <time>2018-03-24T10:37:35Z</time>
      </trkpt>
      <trkpt lat="62.640044065642" lon="17.990380256282">
        <ele>193.4</ele>
        <time>2018-03-24T10:37:36Z</time>
      </trkpt>
      <trkpt lat="62.640022272702" lon="17.990426105275">
        <ele>193.4</ele>
        <time>2018-03-24T10:37:37Z</time>
      </trkpt>
      <trkpt lat="62.640004922169" lon="17.990478408331">
        <ele>193.6</ele>
        <time>2018-03-24T10:37:38Z</time>
      </trkpt>
      <trkpt lat="62.639988828921" lon="17.990513863768">
        <ele>193.6</ele>
        <time>2018-03-24T10:37:39Z</time>
      </trkpt>
      <trkpt lat="62.639968963818" lon="17.990562562607">
        <ele>193.8</ele>
        <time>2018-03-24T10:37:40Z</time>
      </trkpt>
      <trkpt lat="62.639954295493" lon="17.990606986677">
        <ele>194</ele>
        <time>2018-03-24T10:37:41Z</time>
      </trkpt>
      <trkpt lat="62.63993023944" lon="17.9906419392">
        <ele>194</ele>
        <time>2018-03-24T10:37:42Z</time>
      </trkpt>
      <trkpt lat="62.63991934297" lon="17.990689632211">
        <ele>194</ele>
        <time>2018-03-24T10:37:43Z</time>
      </trkpt>
      <trkpt lat="62.639892017976" lon="17.99072911096">
        <ele>194.4</ele>
        <time>2018-03-24T10:37:44Z</time>
      </trkpt>
      <trkpt lat="62.639871985235" lon="17.99077521141">
        <ele>194.4</ele>
        <time>2018-03-24T10:37:45Z</time>
      </trkpt>
      <trkpt lat="62.639863435697" lon="17.990812259408">
        <ele>194.4</ele>
        <time>2018-03-24T10:37:46Z</time>
      </trkpt>
      <trkpt lat="62.639849018829" lon="17.990840003497">
        <ele>194.4</ele>
        <time>2018-03-24T10:37:47Z</time>
      </trkpt>
      <trkpt lat="62.639827561165" lon="17.990878560237">
        <ele>194.4</ele>
        <time>2018-03-24T10:37:48Z</time>
      </trkpt>
      <trkpt lat="62.639817419066" lon="17.990913680398">
        <ele>194.4</ele>
        <time>2018-03-24T10:37:49Z</time>
      </trkpt>
      <trkpt lat="62.639792021909" lon="17.990964139436">
        <ele>194.4</ele>
        <time>2018-03-24T10:37:50Z</time>
      </trkpt>
      <trkpt lat="62.63978020343" lon="17.990998672864">
        <ele>194.6</ele>
        <time>2018-03-24T10:37:51Z</time>
      </trkpt>
      <trkpt lat="62.639776766851" lon="17.991040833821">
        <ele>194.8</ele>
        <time>2018-03-24T10:37:52Z</time>
      </trkpt>
      <trkpt lat="62.639764110182" lon="17.991077798">
        <ele>195</ele>
        <time>2018-03-24T10:37:53Z</time>
      </trkpt>
      <trkpt lat="62.639765618924" lon="17.991142003354">
        <ele>195.2</ele>
        <time>2018-03-24T10:37:54Z</time>
      </trkpt>
      <trkpt lat="62.639748603667" lon="17.991200006102">
        <ele>195.4</ele>
        <time>2018-03-24T10:37:55Z</time>
      </trkpt>
      <trkpt lat="62.639743071613" lon="17.991255578099">
        <ele>195.6</ele>
        <time>2018-03-24T10:37:56Z</time>
      </trkpt>
      <trkpt lat="62.639742401061" lon="17.991298828703">
        <ele>195.6</ele>
        <time>2018-03-24T10:37:57Z</time>
      </trkpt>
      <trkpt lat="62.639726894546" lon="17.991354652157">
        <ele>195.6</ele>
        <time>2018-03-24T10:37:58Z</time>
      </trkpt>
      <trkpt lat="62.639734773532" lon="17.99140133934">
        <ele>195.6</ele>
        <time>2018-03-24T10:37:59Z</time>
      </trkpt>
      <trkpt lat="62.639710466022" lon="17.991456240785">
        <ele>195.4</ele>
        <time>2018-03-24T10:38:00Z</time>
      </trkpt>
      <trkpt lat="62.639705772158" lon="17.991506029271">
        <ele>195.4</ele>
        <time>2018-03-24T10:38:01Z</time>
      </trkpt>
      <trkpt lat="62.639698396086" lon="17.99154383164">
        <ele>195.6</ele>
        <time>2018-03-24T10:38:02Z</time>
      </trkpt>
      <trkpt lat="62.639695043326" lon="17.991593703945">
        <ele>195.6</ele>
        <time>2018-03-24T10:38:03Z</time>
      </trkpt>
      <trkpt lat="62.639685571779" lon="17.991625387527">
        <ele>195.6</ele>
        <time>2018-03-24T10:38:04Z</time>
      </trkpt>
      <trkpt lat="62.639672579834" lon="17.991678025859">
        <ele>195.8</ele>
        <time>2018-03-24T10:38:05Z</time>
      </trkpt>
      <trkpt lat="62.639670316721" lon="17.991719516264">
        <ele>196</ele>
        <time>2018-03-24T10:38:06Z</time>
      </trkpt>
      <trkpt lat="62.639658079147" lon="17.9917818776">
        <ele>196.2</ele>
        <time>2018-03-24T10:38:07Z</time>
      </trkpt>
      <trkpt lat="62.639660761355" lon="17.991834767389">
        <ele>196.2</ele>
        <time>2018-03-24T10:38:08Z</time>
      </trkpt>
      <trkpt lat="62.639643913736" lon="17.991882879495">
        <ele>196.4</ele>
        <time>2018-03-24T10:38:09Z</time>
      </trkpt>
      <trkpt lat="62.639654642568" lon="17.991932667981">
        <ele>196.4</ele>
        <time>2018-03-24T10:38:10Z</time>
      </trkpt>
      <trkpt lat="62.639634190732" lon="17.991978684612">
        <ele>196.6</ele>
        <time>2018-03-24T10:38:11Z</time>
      </trkpt>
      <trkpt lat="62.639645003383" lon="17.992039118111">
        <ele>196.6</ele>
        <time>2018-03-24T10:38:12Z</time>
      </trkpt>
      <trkpt lat="62.63962178552" lon="17.992074741186">
        <ele>196.6</ele>
        <time>2018-03-24T10:38:13Z</time>
      </trkpt>
      <trkpt lat="62.63961927095" lon="17.992131905744">
        <ele>196.4</ele>
        <time>2018-03-24T10:38:14Z</time>
      </trkpt>
      <trkpt lat="62.639607787747" lon="17.992177754737">
        <ele>196.6</ele>
        <time>2018-03-24T10:38:15Z</time>
      </trkpt>
      <trkpt lat="62.639594292888" lon="17.992223268454">
        <ele>196.6</ele>
        <time>2018-03-24T10:38:16Z</time>
      </trkpt>
      <trkpt lat="62.639586832997" lon="17.992260064995">
        <ele>196.6</ele>
        <time>2018-03-24T10:38:17Z</time>
      </trkpt>
      <trkpt lat="62.639578954011" lon="17.992312787146">
        <ele>196.6</ele>
        <time>2018-03-24T10:38:18Z</time>
      </trkpt>
      <trkpt lat="62.639575852708" lon="17.992354109913">
        <ele>196.6</ele>
        <time>2018-03-24T10:38:19Z</time>
      </trkpt>
      <trkpt lat="62.639560932926" lon="17.992419404914">
        <ele>196.6</ele>
        <time>2018-03-24T10:38:20Z</time>
      </trkpt>
      <trkpt lat="62.639555987605" lon="17.992473719626">
        <ele>196.6</ele>
        <time>2018-03-24T10:38:21Z</time>
      </trkpt>
      <trkpt lat="62.639550790827" lon="17.992520490628">
        <ele>196.6</ele>
        <time>2018-03-24T10:38:22Z</time>
      </trkpt>
      <trkpt lat="62.639547521886" lon="17.992588970751">
        <ele>196.8</ele>
        <time>2018-03-24T10:38:23Z</time>
      </trkpt>
      <trkpt lat="62.639558166899" lon="17.992637585771">
        <ele>197</ele>
        <time>2018-03-24T10:38:24Z</time>
      </trkpt>
      <trkpt lat="62.639550623189" lon="17.99270807755">
        <ele>197.2</ele>
        <time>2018-03-24T10:38:25Z</time>
      </trkpt>
      <trkpt lat="62.639555484691" lon="17.99277177999">
        <ele>197.4</ele>
        <time>2018-03-24T10:38:26Z</time>
      </trkpt>
      <trkpt lat="62.639554311225" lon="17.992826513797">
        <ele>197.4</ele>
        <time>2018-03-24T10:38:27Z</time>
      </trkpt>
      <trkpt lat="62.63954970118" lon="17.992878733034">
        <ele>197.2</ele>
        <time>2018-03-24T10:38:28Z</time>
      </trkpt>
      <trkpt lat="62.639551629017" lon="17.992924665846">
        <ele>197.2</ele>
        <time>2018-03-24T10:38:29Z</time>
      </trkpt>
      <trkpt lat="62.639537044511" lon="17.992987949191">
        <ele>197.2</ele>
        <time>2018-03-24T10:38:30Z</time>
      </trkpt>
      <trkpt lat="62.639547521886" lon="17.993036564211">
        <ele>197.2</ele>
        <time>2018-03-24T10:38:31Z</time>
      </trkpt>
      <trkpt lat="62.639528327335" lon="17.993093896407">
        <ele>197.2</ele>
        <time>2018-03-24T10:38:32Z</time>
      </trkpt>
      <trkpt lat="62.639542408927" lon="17.993143768712">
        <ele>197.2</ele>
        <time>2018-03-24T10:38:33Z</time>
      </trkpt>
      <trkpt lat="62.639535116674" lon="17.993189952981">
        <ele>197.4</ele>
        <time>2018-03-24T10:38:34Z</time>
      </trkpt>
      <trkpt lat="62.639534110846" lon="17.993252146679">
        <ele>197.4</ele>
        <time>2018-03-24T10:38:35Z</time>
      </trkpt>
      <trkpt lat="62.63952623186" lon="17.993303946821">
        <ele>197.6</ele>
        <time>2018-03-24T10:38:36Z</time>
      </trkpt>
      <trkpt lat="62.639525058394" lon="17.993368822727">
        <ele>197.8</ele>
        <time>2018-03-24T10:38:37Z</time>
      </trkpt>
      <trkpt lat="62.639517682322" lon="17.993411067503">
        <ele>197.8</ele>
        <time>2018-03-24T10:38:38Z</time>
      </trkpt>
      <trkpt lat="62.639502846359" lon="17.993479463807">
        <ele>197.8</ele>
        <time>2018-03-24T10:38:39Z</time>
      </trkpt>
      <trkpt lat="62.639505109472" lon="17.993529084655">
        <ele>198</ele>
        <time>2018-03-24T10:38:40Z</time>
      </trkpt>
      <trkpt lat="62.639480885781" lon="17.993607790696">
        <ele>198</ele>
        <time>2018-03-24T10:38:41Z</time>
      </trkpt>
      <trkpt lat="62.63947174951" lon="17.993659926114">
        <ele>198</ele>
        <time>2018-03-24T10:38:42Z</time>
      </trkpt>
      <trkpt lat="62.639441993765" lon="17.993717425948">
        <ele>198</ele>
        <time>2018-03-24T10:38:43Z</time>
      </trkpt>
      <trkpt lat="62.639436377892" lon="17.993756485602">
        <ele>198</ele>
        <time>2018-03-24T10:38:44Z</time>
      </trkpt>
      <trkpt lat="62.63941056164" lon="17.993796467265">
        <ele>198</ele>
        <time>2018-03-24T10:38:45Z</time>
      </trkpt>
      <trkpt lat="62.639392708193" lon="17.993830330141">
        <ele>198</ele>
        <time>2018-03-24T10:38:46Z</time>
      </trkpt>
      <trkpt lat="62.639379297153" lon="17.993870982356">
        <ele>198.2</ele>
        <time>2018-03-24T10:38:47Z</time>
      </trkpt>
      <trkpt lat="62.639352307435" lon="17.993911466933">
        <ele>198.4</ele>
        <time>2018-03-24T10:38:48Z</time>
      </trkpt>
      <trkpt lat="62.639333783436" lon="17.993947173827">
        <ele>198.6</ele>
        <time>2018-03-24T10:38:49Z</time>
      </trkpt>
      <trkpt lat="62.639321462043" lon="17.993986149662">
        <ele>198.6</ele>
        <time>2018-03-24T10:38:50Z</time>
      </trkpt>
      <trkpt lat="62.639301261664" lon="17.99401900671">
        <ele>198.8</ele>
        <time>2018-03-24T10:38:51Z</time>
      </trkpt>
      <trkpt lat="62.639295645791" lon="17.994062508771">
        <ele>198.8</ele>
        <time>2018-03-24T10:38:52Z</time>
      </trkpt>
      <trkpt lat="62.63928064219" lon="17.994101484606">
        <ele>199</ele>
        <time>2018-03-24T10:38:53Z</time>
      </trkpt>
      <trkpt lat="62.639263794571" lon="17.994140208984">
        <ele>199.2</ele>
        <time>2018-03-24T10:38:54Z</time>
      </trkpt>
      <trkpt lat="62.639259268345" lon="17.994182286122">
        <ele>199.4</ele>
        <time>2018-03-24T10:38:55Z</time>
      </trkpt>
      <trkpt lat="62.639237643043" lon="17.994226710192">
        <ele>199.6</ele>
        <time>2018-03-24T10:38:56Z</time>
      </trkpt>
      <trkpt lat="62.639227500944" lon="17.994271972452">
        <ele>199.6</ele>
        <time>2018-03-24T10:38:57Z</time>
      </trkpt>
      <trkpt lat="62.639215933922" lon="17.994313714314">
        <ele>199.8</ele>
        <time>2018-03-24T10:38:58Z</time>
      </trkpt>
      <trkpt lat="62.639200008312" lon="17.994355875271">
        <ele>199.8</ele>
        <time>2018-03-24T10:38:59Z</time>
      </trkpt>
      <trkpt lat="62.639190620584" lon="17.994408262146">
        <ele>200</ele>
        <time>2018-03-24T10:39:00Z</time>
      </trkpt>
      <trkpt lat="62.639169079101" lon="17.994443466126">
        <ele>200</ele>
        <time>2018-03-24T10:39:01Z</time>
      </trkpt>
      <trkpt lat="62.639157512079" lon="17.994482777237">
        <ele>200.2</ele>
        <time>2018-03-24T10:39:02Z</time>
      </trkpt>
      <trkpt lat="62.639140999736" lon="17.994516304837">
        <ele>200.2</ele>
        <time>2018-03-24T10:39:03Z</time>
      </trkpt>
      <trkpt lat="62.639122308099" lon="17.99455209555">
        <ele>200.4</ele>
        <time>2018-03-24T10:39:04Z</time>
      </trkpt>
      <trkpt lat="62.639112249819" lon="17.994592496308">
        <ele>200.4</ele>
        <time>2018-03-24T10:39:05Z</time>
      </trkpt>
      <trkpt lat="62.639081488246" lon="17.994636836559">
        <ele>200.6</ele>
        <time>2018-03-24T10:39:06Z</time>
      </trkpt>
      <trkpt lat="62.639072687251" lon="17.99468452957">
        <ele>200.6</ele>
        <time>2018-03-24T10:39:07Z</time>
      </trkpt>
      <trkpt lat="62.639046535723" lon="17.994721074654">
        <ele>200.6</ele>
        <time>2018-03-24T10:39:08Z</time>
      </trkpt>
      <trkpt lat="62.63903002338" lon="17.994762816516">
        <ele>200.8</ele>
        <time>2018-03-24T10:39:09Z</time>
      </trkpt>
      <trkpt lat="62.639015019779" lon="17.994798607229">
        <ele>200.8</ele>
        <time>2018-03-24T10:39:10Z</time>
      </trkpt>
      <trkpt lat="62.638989203527" lon="17.99483121282">
        <ele>200.6</ele>
        <time>2018-03-24T10:39:11Z</time>
      </trkpt>
      <trkpt lat="62.638979899618" lon="17.994862728764">
        <ele>200.8</ele>
        <time>2018-03-24T10:39:12Z</time>
      </trkpt>
      <trkpt lat="62.638959950696" lon="17.994892987423">
        <ele>200.8</ele>
        <time>2018-03-24T10:39:13Z</time>
      </trkpt>
      <trkpt lat="62.638948216036" lon="17.994929616326">
        <ele>200.8</ele>
        <time>2018-03-24T10:39:14Z</time>
      </trkpt>
      <trkpt lat="62.638933882987" lon="17.994964987944">
        <ele>201</ele>
        <time>2018-03-24T10:39:15Z</time>
      </trkpt>
      <trkpt lat="62.638920723404" lon="17.994998683182">
        <ele>201</ele>
        <time>2018-03-24T10:39:16Z</time>
      </trkpt>
      <trkpt lat="62.638903624328" lon="17.995035898818">
        <ele>201</ele>
        <time>2018-03-24T10:39:17Z</time>
      </trkpt>
      <trkpt lat="62.638887279623" lon="17.995077137766">
        <ele>201</ele>
        <time>2018-03-24T10:39:18Z</time>
      </trkpt>
      <trkpt lat="62.63886992909" lon="17.99511200647">
        <ele>201</ele>
        <time>2018-03-24T10:39:19Z</time>
      </trkpt>
      <trkpt lat="62.638851908005" lon="17.995152574866">
        <ele>201.2</ele>
        <time>2018-03-24T10:39:20Z</time>
      </trkpt>
      <trkpt lat="62.638834473653" lon="17.995180402774">
        <ele>201.2</ele>
        <time>2018-03-24T10:39:21Z</time>
      </trkpt>
      <trkpt lat="62.638811088152" lon="17.995224994482">
        <ele>201.4</ele>
        <time>2018-03-24T10:39:22Z</time>
      </trkpt>
      <trkpt lat="62.638797760931" lon="17.995256258969">
        <ele>201.4</ele>
        <time>2018-03-24T10:39:23Z</time>
      </trkpt>
      <trkpt lat="62.638775884172" lon="17.995287439637">
        <ele>201.6</ele>
        <time>2018-03-24T10:39:24Z</time>
      </trkpt>
      <trkpt lat="62.638763562779" lon="17.995326666929">
        <ele>201.8</ele>
        <time>2018-03-24T10:39:25Z</time>
      </trkpt>
      <trkpt lat="62.638739758183" lon="17.995351058258">
        <ele>202</ele>
        <time>2018-03-24T10:39:26Z</time>
      </trkpt>
      <trkpt lat="62.638718384338" lon="17.995406462617">
        <ele>202</ele>
        <time>2018-03-24T10:39:27Z</time>
      </trkpt>
      <trkpt lat="62.638703380737" lon="17.995431440679">
        <ele>202</ele>
        <time>2018-03-24T10:39:28Z</time>
      </trkpt>
      <trkpt lat="62.638681420159" lon="17.99546907541">
        <ele>202</ele>
        <time>2018-03-24T10:39:29Z</time>
      </trkpt>
      <trkpt lat="62.638667590024" lon="17.995504363209">
        <ele>202</ele>
        <time>2018-03-24T10:39:30Z</time>
      </trkpt>
      <trkpt lat="62.63865367607" lon="17.995537890809">
        <ele>202.2</ele>
        <time>2018-03-24T10:39:31Z</time>
      </trkpt>
      <trkpt lat="62.638647054369" lon="17.995573932979">
        <ele>202.2</ele>
        <time>2018-03-24T10:39:32Z</time>
      </trkpt>
      <trkpt lat="62.638622160126" lon="17.995605532742">
        <ele>202.4</ele>
        <time>2018-03-24T10:39:33Z</time>
      </trkpt>
      <trkpt lat="62.638610006371" lon="17.995639479437">
        <ele>202.4</ele>
        <time>2018-03-24T10:39:34Z</time>
      </trkpt>
      <trkpt lat="62.638595086589" lon="17.995678371453">
        <ele>202.4</ele>
        <time>2018-03-24T10:39:35Z</time>
      </trkpt>
      <trkpt lat="62.638573628925" lon="17.995714329804">
        <ele>202.6</ele>
        <time>2018-03-24T10:39:36Z</time>
      </trkpt>
      <trkpt lat="62.638562229541" lon="17.995762609548">
        <ele>202.8</ele>
        <time>2018-03-24T10:39:37Z</time>
      </trkpt>
      <trkpt lat="62.638534066357" lon="17.995800076641">
        <ele>202.8</ele>
        <time>2018-03-24T10:39:38Z</time>
      </trkpt>
      <trkpt lat="62.638527863751" lon="17.995845255082">
        <ele>203</ele>
        <time>2018-03-24T10:39:39Z</time>
      </trkpt>
      <trkpt lat="62.6385086692" lon="17.995876351931">
        <ele>203</ele>
        <time>2018-03-24T10:39:40Z</time>
      </trkpt>
      <trkpt lat="62.638487379174" lon="17.995916333594">
        <ele>203</ele>
        <time>2018-03-24T10:39:41Z</time>
      </trkpt>
      <trkpt lat="62.638470196279" lon="17.995949525918">
        <ele>203</ele>
        <time>2018-03-24T10:39:42Z</time>
      </trkpt>
      <trkpt lat="62.638457455791" lon="17.995985903364">
        <ele>203</ele>
        <time>2018-03-24T10:39:43Z</time>
      </trkpt>
      <trkpt lat="62.638436836317" lon="17.996023789552">
        <ele>203</ele>
        <time>2018-03-24T10:39:44Z</time>
      </trkpt>
      <trkpt lat="62.638430298435" lon="17.996063435939">
        <ele>203.2</ele>
        <time>2018-03-24T10:39:45Z</time>
      </trkpt>
      <trkpt lat="62.638402889622" lon="17.996088330182">
        <ele>203.4</ele>
        <time>2018-03-24T10:39:46Z</time>
      </trkpt>
      <trkpt lat="62.638386880193" lon="17.996137280478">
        <ele>203.4</ele>
        <time>2018-03-24T10:39:47Z</time>
      </trkpt>
      <trkpt lat="62.638367685642" lon="17.996174915209">
        <ele>203.6</ele>
        <time>2018-03-24T10:39:48Z</time>
      </trkpt>
      <trkpt lat="62.638346982349" lon="17.996216321795">
        <ele>203.8</ele>
        <time>2018-03-24T10:39:49Z</time>
      </trkpt>
      <trkpt lat="62.63833013473" lon="17.996252280146">
        <ele>203.8</ele>
        <time>2018-03-24T10:39:50Z</time>
      </trkpt>
      <trkpt lat="62.638311107817" lon="17.99630558903">
        <ele>204</ele>
        <time>2018-03-24T10:39:51Z</time>
      </trkpt>
      <trkpt lat="62.638300630442" lon="17.996338194621">
        <ele>204</ele>
        <time>2018-03-24T10:39:52Z</time>
      </trkpt>
      <trkpt lat="62.638273724543" lon="17.996363759416">
        <ele>204.2</ele>
        <time>2018-03-24T10:39:53Z</time>
      </trkpt>
      <trkpt lat="62.638273221629" lon="17.996409608409">
        <ele>204.2</ele>
        <time>2018-03-24T10:39:54Z</time>
      </trkpt>
      <trkpt lat="62.638242460056" lon="17.996441291991">
        <ele>204.4</ele>
        <time>2018-03-24T10:39:55Z</time>
      </trkpt>
      <trkpt lat="62.638236844183" lon="17.9964925054">
        <ele>204.4</ele>
        <time>2018-03-24T10:39:56Z</time>
      </trkpt>
      <trkpt lat="62.638210692655" lon="17.996521925869">
        <ele>204.4</ele>
        <time>2018-03-24T10:39:57Z</time>
      </trkpt>
      <trkpt lat="62.638204825325" lon="17.996562745722">
        <ele>204.4</ele>
        <time>2018-03-24T10:39:58Z</time>
      </trkpt>
      <trkpt lat="62.638185546955" lon="17.99657883897">
        <ele>204.4</ele>
        <time>2018-03-24T10:39:59Z</time>
      </trkpt>
      <trkpt lat="62.638162077635" lon="17.996620329375">
        <ele>204.4</ele>
        <time>2018-03-24T10:40:00Z</time>
      </trkpt>
      <trkpt lat="62.638150426794" lon="17.996651174767">
        <ele>204.6</ele>
        <time>2018-03-24T10:40:01Z</time>
      </trkpt>
      <trkpt lat="62.63813483646" lon="17.996684283272">
        <ele>204.8</ele>
        <time>2018-03-24T10:40:02Z</time>
      </trkpt>
      <trkpt lat="62.638130394053" lon="17.996722756193">
        <ele>205</ele>
        <time>2018-03-24T10:40:03Z</time>
      </trkpt>
      <trkpt lat="62.638105918905" lon="17.996748237169">
        <ele>205</ele>
        <time>2018-03-24T10:40:04Z</time>
      </trkpt>
      <trkpt lat="62.638093681331" lon="17.996765252426">
        <ele>205.2</ele>
        <time>2018-03-24T10:40:05Z</time>
      </trkpt>
      <trkpt lat="62.638080270291" lon="17.996789643755">
        <ele>205.4</ele>
        <time>2018-03-24T10:40:06Z</time>
      </trkpt>
      <trkpt lat="62.63805688479" lon="17.996801210777">
        <ele>205.4</ele>
        <time>2018-03-24T10:40:07Z</time>
      </trkpt>
      <trkpt lat="62.638045653044" lon="17.996818980405">
        <ele>205.4</ele>
        <time>2018-03-24T10:40:08Z</time>
      </trkpt>
      <trkpt lat="62.638023943923" lon="17.996836750033">
        <ele>205.4</ele>
        <time>2018-03-24T10:40:09Z</time>
      </trkpt>
      <trkpt lat="62.638015562023" lon="17.99685879443">
        <ele>205.6</ele>
        <time>2018-03-24T10:40:10Z</time>
      </trkpt>
      <trkpt lat="62.637990835418" lon="17.996886287062">
        <ele>205.6</ele>
        <time>2018-03-24T10:40:11Z</time>
      </trkpt>
      <trkpt lat="62.637971473229" lon="17.996913360599">
        <ele>205.8</ele>
        <time>2018-03-24T10:40:12Z</time>
      </trkpt>
      <trkpt lat="62.637958900379" lon="17.996956192108">
        <ele>205.8</ele>
        <time>2018-03-24T10:40:13Z</time>
      </trkpt>
      <trkpt lat="62.637943477683" lon="17.996976727763">
        <ele>206</ele>
        <time>2018-03-24T10:40:14Z</time>
      </trkpt>
      <trkpt lat="62.63792947991" lon="17.997006483508">
        <ele>205.8</ele>
        <time>2018-03-24T10:40:15Z</time>
      </trkpt>
      <trkpt lat="62.637905507676" lon="17.997050991397">
        <ele>205.8</ele>
        <time>2018-03-24T10:40:16Z</time>
      </trkpt>
      <trkpt lat="62.637887905686" lon="17.997088793766">
        <ele>205.8</ele>
        <time>2018-03-24T10:40:17Z</time>
      </trkpt>
      <trkpt lat="62.637876757759" lon="17.997112682181">
        <ele>205.8</ele>
        <time>2018-03-24T10:40:18Z</time>
      </trkpt>
      <trkpt lat="62.637853707534" lon="17.997142773202">
        <ele>205.8</ele>
        <time>2018-03-24T10:40:19Z</time>
      </trkpt>
      <trkpt lat="62.637836859915" lon="17.997195579172">
        <ele>206</ele>
        <time>2018-03-24T10:40:20Z</time>
      </trkpt>
      <trkpt lat="62.637807355627" lon="17.997224664365">
        <ele>206.2</ele>
        <time>2018-03-24T10:40:21Z</time>
      </trkpt>
      <trkpt lat="62.637800985383" lon="17.997265819494">
        <ele>206.2</ele>
        <time>2018-03-24T10:40:22Z</time>
      </trkpt>
      <trkpt lat="62.63777273838" lon="17.997304543872">
        <ele>206.2</ele>
        <time>2018-03-24T10:40:23Z</time>
      </trkpt>
      <trkpt lat="62.637765781403" lon="17.997346704829">
        <ele>206.4</ele>
        <time>2018-03-24T10:40:24Z</time>
      </trkpt>
      <trkpt lat="62.637740300427" lon="17.997395822763">
        <ele>206.4</ele>
        <time>2018-03-24T10:40:25Z</time>
      </trkpt>
      <trkpt lat="62.637739546056" lon="17.997450053656">
        <ele>206.4</ele>
        <time>2018-03-24T10:40:26Z</time>
      </trkpt>
      <trkpt lat="62.637713562166" lon="17.997497327572">
        <ele>206.4</ele>
        <time>2018-03-24T10:40:27Z</time>
      </trkpt>
      <trkpt lat="62.637706269913" lon="17.997556839062">
        <ele>206.6</ele>
        <time>2018-03-24T10:40:28Z</time>
      </trkpt>
      <trkpt lat="62.637688667923" lon="17.997598664743">
        <ele>206.8</ele>
        <time>2018-03-24T10:40:29Z</time>
      </trkpt>
      <trkpt lat="62.637680202204" lon="17.997666977228">
        <ele>206.6</ele>
        <time>2018-03-24T10:40:30Z</time>
      </trkpt>
      <trkpt lat="62.63766964101" lon="17.997702516484">
        <ele>206.6</ele>
        <time>2018-03-24T10:40:31Z</time>
      </trkpt>
      <trkpt lat="62.637649608269" lon="17.997771080426">
        <ele>206.8</ele>
        <time>2018-03-24T10:40:32Z</time>
      </trkpt>
      <trkpt lat="62.637635694315" lon="17.997815253039">
        <ele>206.8</ele>
        <time>2018-03-24T10:40:33Z</time>
      </trkpt>
      <trkpt lat="62.637623289103" lon="17.997859928566">
        <ele>206.8</ele>
        <time>2018-03-24T10:40:34Z</time>
      </trkpt>
      <trkpt lat="62.637607866407" lon="17.997910806699">
        <ele>206.8</ele>
        <time>2018-03-24T10:40:35Z</time>
      </trkpt>
      <trkpt lat="62.637582301612" lon="17.997977694261">
        <ele>207</ele>
        <time>2018-03-24T10:40:36Z</time>
      </trkpt>
      <trkpt lat="62.63757660192" lon="17.998020022856">
        <ele>207</ele>
        <time>2018-03-24T10:40:37Z</time>
      </trkpt>
      <trkpt lat="62.637540978845" lon="17.998065536573">
        <ele>207</ele>
        <time>2018-03-24T10:40:38Z</time>
      </trkpt>
      <trkpt lat="62.637533183678" lon="17.998101914019">
        <ele>207</ele>
        <time>2018-03-24T10:40:39Z</time>
      </trkpt>
      <trkpt lat="62.637506864512" lon="17.998130077203">
        <ele>207</ele>
        <time>2018-03-24T10:40:40Z</time>
      </trkpt>
      <trkpt lat="62.637485742124" lon="17.9981688854">
        <ele>207</ele>
        <time>2018-03-24T10:40:41Z</time>
      </trkpt>
      <trkpt lat="62.637469397419" lon="17.998200904258">
        <ele>207</ele>
        <time>2018-03-24T10:40:42Z</time>
      </trkpt>
      <trkpt lat="62.637437546199" lon="17.998233006935">
        <ele>207.2</ele>
        <time>2018-03-24T10:40:43Z</time>
      </trkpt>
      <trkpt lat="62.637421620589" lon="17.998250944201">
        <ele>207.2</ele>
        <time>2018-03-24T10:40:44Z</time>
      </trkpt>
      <trkpt lat="62.637402845133" lon="17.998299056307">
        <ele>207.4</ele>
        <time>2018-03-24T10:40:45Z</time>
      </trkpt>
      <trkpt lat="62.637378453804" lon="17.998321938894">
        <ele>207.8</ele>
        <time>2018-03-24T10:40:46Z</time>
      </trkpt>
      <trkpt lat="62.637356493226" lon="17.99835496358">
        <ele>208</ele>
        <time>2018-03-24T10:40:47Z</time>
      </trkpt>
      <trkpt lat="62.637338975055" lon="17.99840776955">
        <ele>208</ele>
        <time>2018-03-24T10:40:48Z</time>
      </trkpt>
      <trkpt lat="62.637314332269" lon="17.99845135543">
        <ele>208.2</ele>
        <time>2018-03-24T10:40:49Z</time>
      </trkpt>
      <trkpt lat="62.637292204053" lon="17.998498545527">
        <ele>208.2</ele>
        <time>2018-03-24T10:40:50Z</time>
      </trkpt>
      <trkpt lat="62.637282564868" lon="17.998551435316">
        <ele>208.4</ele>
        <time>2018-03-24T10:40:51Z</time>
      </trkpt>
      <trkpt lat="62.637251635657" lon="17.998602061992">
        <ele>208.4</ele>
        <time>2018-03-24T10:40:52Z</time>
      </trkpt>
      <trkpt lat="62.637238224617" lon="17.998662327853">
        <ele>208.2</ele>
        <time>2018-03-24T10:40:53Z</time>
      </trkpt>
      <trkpt lat="62.637210480528" lon="17.998704907905">
        <ele>208.2</ele>
        <time>2018-03-24T10:40:54Z</time>
      </trkpt>
      <trkpt lat="62.637192291805" lon="17.998779003901">
        <ele>208.2</ele>
        <time>2018-03-24T10:40:55Z</time>
      </trkpt>
      <trkpt lat="62.637158009834" lon="17.998817309184">
        <ele>208</ele>
        <time>2018-03-24T10:40:56Z</time>
      </trkpt>
      <trkpt lat="62.637145436984" lon="17.998851926431">
        <ele>208</ele>
        <time>2018-03-24T10:40:57Z</time>
      </trkpt>
      <trkpt lat="62.63712314113" lon="17.998876150122">
        <ele>208</ele>
        <time>2018-03-24T10:40:58Z</time>
      </trkpt>
      <trkpt lat="62.637102773113" lon="17.998903223659">
        <ele>207.8</ele>
        <time>2018-03-24T10:40:59Z</time>
      </trkpt>
      <trkpt lat="62.637087769512" lon="17.99894421115">
        <ele>208</ele>
        <time>2018-03-24T10:41:00Z</time>
      </trkpt>
      <trkpt lat="62.637058097586" lon="17.998977487293">
        <ele>208</ele>
        <time>2018-03-24T10:41:01Z</time>
      </trkpt>
      <trkpt lat="62.637041669062" lon="17.998995843654">
        <ele>208</ele>
        <time>2018-03-24T10:41:02Z</time>
      </trkpt>
      <trkpt lat="62.637029012393" lon="17.99901629549">
        <ele>208.2</ele>
        <time>2018-03-24T10:41:03Z</time>
      </trkpt>
      <trkpt lat="62.637007387091" lon="17.999037082602">
        <ele>208.2</ele>
        <time>2018-03-24T10:41:04Z</time>
      </trkpt>
      <trkpt lat="62.636991712938" lon="17.999072370401">
        <ele>208.4</ele>
        <time>2018-03-24T10:41:05Z</time>
      </trkpt>
      <trkpt lat="62.636974949138" lon="17.999102796698">
        <ele>208.4</ele>
        <time>2018-03-24T10:41:06Z</time>
      </trkpt>
      <trkpt lat="62.63695131218" lon="17.999115034272">
        <ele>208.6</ele>
        <time>2018-03-24T10:41:07Z</time>
      </trkpt>
      <trkpt lat="62.636938487873" lon="17.999133306814">
        <ele>208.8</ele>
        <time>2018-03-24T10:41:08Z</time>
      </trkpt>
      <trkpt lat="62.636927675222" lon="17.999158536333">
        <ele>209</ele>
        <time>2018-03-24T10:41:09Z</time>
      </trkpt>
      <trkpt lat="62.636910157051" lon="17.99917974254">
        <ele>209</ele>
        <time>2018-03-24T10:41:10Z</time>
      </trkpt>
      <trkpt lat="62.636894650536" lon="17.999233721976">
        <ele>209.2</ele>
        <time>2018-03-24T10:41:11Z</time>
      </trkpt>
      <trkpt lat="62.636861709669" lon="17.999263645359">
        <ele>209.4</ele>
        <time>2018-03-24T10:41:12Z</time>
      </trkpt>
      <trkpt lat="62.636841593109" lon="17.999310332542">
        <ele>209.6</ele>
        <time>2018-03-24T10:41:13Z</time>
      </trkpt>
      <trkpt lat="62.636821560368" lon="17.999336064975">
        <ele>209.8</ele>
        <time>2018-03-24T10:41:14Z</time>
      </trkpt>
      <trkpt lat="62.636788284225" lon="17.99937755538">
        <ele>209.8</ele>
        <time>2018-03-24T10:41:15Z</time>
      </trkpt>
      <trkpt lat="62.636782333076" lon="17.99940856841">
        <ele>210</ele>
        <time>2018-03-24T10:41:16Z</time>
      </trkpt>
      <trkpt lat="62.636750817132" lon="17.999438156517">
        <ele>210.2</ele>
        <time>2018-03-24T10:41:17Z</time>
      </trkpt>
      <trkpt lat="62.636734053332" lon="17.999493477057">
        <ele>210.2</ele>
        <time>2018-03-24T10:41:18Z</time>
      </trkpt>
      <trkpt lat="62.636707817985" lon="17.999528597218">
        <ele>210.2</ele>
        <time>2018-03-24T10:41:19Z</time>
      </trkpt>
      <trkpt lat="62.636689293986" lon="17.999591629106">
        <ele>210.2</ele>
        <time>2018-03-24T10:41:20Z</time>
      </trkpt>
      <trkpt lat="62.636673703652" lon="17.999644518895">
        <ele>210.2</ele>
        <time>2018-03-24T10:41:21Z</time>
      </trkpt>
      <trkpt lat="62.636654425282" lon="17.999703192195">
        <ele>210</ele>
        <time>2018-03-24T10:41:22Z</time>
      </trkpt>
      <trkpt lat="62.636635901283" lon="17.999755998165">
        <ele>210</ele>
        <time>2018-03-24T10:41:23Z</time>
      </trkpt>
      <trkpt lat="62.636620394768" lon="17.99981089961">
        <ele>210</ele>
        <time>2018-03-24T10:41:24Z</time>
      </trkpt>
      <trkpt lat="62.636607067547" lon="17.999866806883">
        <ele>210</ele>
        <time>2018-03-24T10:41:25Z</time>
      </trkpt>
      <trkpt lat="62.636584855512" lon="17.999916260093">
        <ele>210</ele>
        <time>2018-03-24T10:41:26Z</time>
      </trkpt>
      <trkpt lat="62.636572869395" lon="17.999972586461">
        <ele>209.8</ele>
        <time>2018-03-24T10:41:27Z</time>
      </trkpt>
      <trkpt lat="62.636552501378" lon="18.00000368331">
        <ele>210</ele>
        <time>2018-03-24T10:41:28Z</time>
      </trkpt>
      <trkpt lat="62.636540431442" lon="18.000043748792">
        <ele>210.2</ele>
        <time>2018-03-24T10:41:29Z</time>
      </trkpt>
      <trkpt lat="62.636527774773" lon="18.000100410436">
        <ele>210.2</ele>
        <time>2018-03-24T10:41:30Z</time>
      </trkpt>
      <trkpt lat="62.636516207751" lon="18.000162436496">
        <ele>210.2</ele>
        <time>2018-03-24T10:41:31Z</time>
      </trkpt>
      <trkpt lat="62.636502461435" lon="18.000193198069">
        <ele>210.2</ele>
        <time>2018-03-24T10:41:32Z</time>
      </trkpt>
      <trkpt lat="62.636481506685" lon="18.000251955188">
        <ele>210.4</ele>
        <time>2018-03-24T10:41:33Z</time>
      </trkpt>
      <trkpt lat="62.636476729002" lon="18.000274502499">
        <ele>210.2</ele>
        <time>2018-03-24T10:41:34Z</time>
      </trkpt>
      <trkpt lat="62.636456277166" lon="18.000349688142">
        <ele>210.2</ele>
        <time>2018-03-24T10:41:35Z</time>
      </trkpt>
      <trkpt lat="62.636437250253" lon="18.000396710601">
        <ele>210.2</ele>
        <time>2018-03-24T10:41:36Z</time>
      </trkpt>
      <trkpt lat="62.636427359611" lon="18.000437949549">
        <ele>210.2</ele>
        <time>2018-03-24T10:41:37Z</time>
      </trkpt>
      <trkpt lat="62.636403890291" lon="18.000493353908">
        <ele>210.2</ele>
        <time>2018-03-24T10:41:38Z</time>
      </trkpt>
      <trkpt lat="62.636391820355" lon="18.000522187644">
        <ele>210.2</ele>
        <time>2018-03-24T10:41:39Z</time>
      </trkpt>
      <trkpt lat="62.636382684084" lon="18.000553452131">
        <ele>210.2</ele>
        <time>2018-03-24T10:41:40Z</time>
      </trkpt>
      <trkpt lat="62.636355610547" lon="18.000620926426">
        <ele>210.2</ele>
        <time>2018-03-24T10:41:41Z</time>
      </trkpt>
      <trkpt lat="62.636345384629" lon="18.000671050188">
        <ele>210.2</ele>
        <time>2018-03-24T10:41:42Z</time>
      </trkpt>
      <trkpt lat="62.636317556721" lon="18.000734249714">
        <ele>210.2</ele>
        <time>2018-03-24T10:41:43Z</time>
      </trkpt>
      <trkpt lat="62.636302385482" lon="18.000777500318">
        <ele>210.4</ele>
        <time>2018-03-24T10:41:44Z</time>
      </trkpt>
      <trkpt lat="62.636285202587" lon="18.000838352912">
        <ele>210.4</ele>
        <time>2018-03-24T10:41:45Z</time>
      </trkpt>
      <trkpt lat="62.63626064362" lon="18.000891997072">
        <ele>210.2</ele>
        <time>2018-03-24T10:41:46Z</time>
      </trkpt>
      <trkpt lat="62.636245975295" lon="18.000930805269">
        <ele>210.2</ele>
        <time>2018-03-24T10:41:47Z</time>
      </trkpt>
      <trkpt lat="62.63622376326" lon="18.000976905719">
        <ele>210.2</ele>
        <time>2018-03-24T10:41:48Z</time>
      </trkpt>
      <trkpt lat="62.636209597849" lon="18.001024431092">
        <ele>210.2</ele>
        <time>2018-03-24T10:41:49Z</time>
      </trkpt>
      <trkpt lat="62.636211525686" lon="18.001106992807">
        <ele>210.2</ele>
        <time>2018-03-24T10:41:50Z</time>
      </trkpt>
      <trkpt lat="62.636204736347" lon="18.001152757981">
        <ele>210.2</ele>
        <time>2018-03-24T10:41:51Z</time>
      </trkpt>
      <trkpt lat="62.636188391642" lon="18.001195421852">
        <ele>210.2</ele>
        <time>2018-03-24T10:41:52Z</time>
      </trkpt>
      <trkpt lat="62.636175483516" lon="18.001238420999">
        <ele>210.4</ele>
        <time>2018-03-24T10:41:53Z</time>
      </trkpt>
      <trkpt lat="62.636161569562" lon="18.001291729883">
        <ele>210.4</ele>
        <time>2018-03-24T10:41:54Z</time>
      </trkpt>
      <trkpt lat="62.636133406378" lon="18.001343278568">
        <ele>210.2</ele>
        <time>2018-03-24T10:41:55Z</time>
      </trkpt>
      <trkpt lat="62.636118486596" lon="18.001395413986">
        <ele>210.2</ele>
        <time>2018-03-24T10:41:56Z</time>
      </trkpt>
      <trkpt lat="62.636096609837" lon="18.001444112825">
        <ele>210.2</ele>
        <time>2018-03-24T10:41:57Z</time>
      </trkpt>
      <trkpt lat="62.636074062526" lon="18.001491386741">
        <ele>210.2</ele>
        <time>2018-03-24T10:41:58Z</time>
      </trkpt>
      <trkpt lat="62.636051766672" lon="18.001536146087">
        <ele>210.2</ele>
        <time>2018-03-24T10:41:59Z</time>
      </trkpt>
      <trkpt lat="62.636020669823" lon="18.001592556274">
        <ele>210.2</ele>
        <time>2018-03-24T10:42:00Z</time>
      </trkpt>
      <trkpt lat="62.636000553263" lon="18.001643518226">
        <ele>210.2</ele>
        <time>2018-03-24T10:42:01Z</time>
      </trkpt>
      <trkpt lat="62.635978425047" lon="18.00169431254">
        <ele>210.2</ele>
        <time>2018-03-24T10:42:02Z</time>
      </trkpt>
      <trkpt lat="62.635960739238" lon="18.001731025262">
        <ele>210.2</ele>
        <time>2018-03-24T10:42:03Z</time>
      </trkpt>
      <trkpt lat="62.635938946298" lon="18.001781651938">
        <ele>210.2</ele>
        <time>2018-03-24T10:42:04Z</time>
      </trkpt>
      <trkpt lat="62.635912710951" lon="18.001840576695">
        <ele>210.2</ele>
        <time>2018-03-24T10:42:05Z</time>
      </trkpt>
      <trkpt lat="62.635900557196" lon="18.001886006593">
        <ele>210</ele>
        <time>2018-03-24T10:42:06Z</time>
      </trkpt>
      <trkpt lat="62.635881111188" lon="18.001928335188">
        <ele>210</ele>
        <time>2018-03-24T10:42:07Z</time>
      </trkpt>
      <trkpt lat="62.635865353216" lon="18.001964880272">
        <ele>210</ele>
        <time>2018-03-24T10:42:08Z</time>
      </trkpt>
      <trkpt lat="62.635847499769" lon="18.002010058713">
        <ele>210.2</ele>
        <time>2018-03-24T10:42:09Z</time>
      </trkpt>
      <trkpt lat="62.635823862811" lon="18.002064541063">
        <ele>210.2</ele>
        <time>2018-03-24T10:42:10Z</time>
      </trkpt>
      <trkpt lat="62.635810284133" lon="18.002115503015">
        <ele>210.2</ele>
        <time>2018-03-24T10:42:11Z</time>
      </trkpt>
      <trkpt lat="62.635801147862" lon="18.002175349781">
        <ele>210.4</ele>
        <time>2018-03-24T10:42:12Z</time>
      </trkpt>
      <trkpt lat="62.63579460998" lon="18.002238046393">
        <ele>210.4</ele>
        <time>2018-03-24T10:42:13Z</time>
      </trkpt>
      <trkpt lat="62.635797459826" lon="18.002308454353">
        <ele>210.4</ele>
        <time>2018-03-24T10:42:14Z</time>
      </trkpt>
      <trkpt lat="62.63579041903" lon="18.00237157006">
        <ele>210.4</ele>
        <time>2018-03-24T10:42:15Z</time>
      </trkpt>
      <trkpt lat="62.635776672714" lon="18.002441056011">
        <ele>210.2</ele>
        <time>2018-03-24T10:42:16Z</time>
      </trkpt>
      <trkpt lat="62.635759657457" lon="18.002520935518">
        <ele>209.8</ele>
        <time>2018-03-24T10:42:17Z</time>
      </trkpt>
      <trkpt lat="62.635741384915" lon="18.002599473921">
        <ele>209.4</ele>
        <time>2018-03-24T10:42:18Z</time>
      </trkpt>
      <trkpt lat="62.635724621115" lon="18.002696452504">
        <ele>209</ele>
        <time>2018-03-24T10:42:19Z</time>
      </trkpt>
      <trkpt lat="62.635711377713" lon="18.002777840753">
        <ele>208.6</ele>
        <time>2018-03-24T10:42:20Z</time>
      </trkpt>
      <trkpt lat="62.635682795434" lon="18.002857552622">
        <ele>208.2</ele>
        <time>2018-03-24T10:42:21Z</time>
      </trkpt>
      <trkpt lat="62.635658320286" lon="18.002947658047">
        <ele>207.8</ele>
        <time>2018-03-24T10:42:22Z</time>
      </trkpt>
      <trkpt lat="62.635649770748" lon="18.003022089319">
        <ele>207.6</ele>
        <time>2018-03-24T10:42:23Z</time>
      </trkpt>
      <trkpt lat="62.635628564541" lon="18.003116804789">
        <ele>207.6</ele>
        <time>2018-03-24T10:42:24Z</time>
      </trkpt>
      <trkpt lat="62.635614650587" lon="18.003201629617">
        <ele>207.6</ele>
        <time>2018-03-24T10:42:25Z</time>
      </trkpt>
      <trkpt lat="62.635602077737" lon="18.003271953758">
        <ele>207.8</ele>
        <time>2018-03-24T10:42:26Z</time>
      </trkpt>
      <trkpt lat="62.635586068308" lon="18.00334638503">
        <ele>207.8</ele>
        <time>2018-03-24T10:42:27Z</time>
      </trkpt>
      <trkpt lat="62.635569891241" lon="18.003421570673">
        <ele>207.8</ele>
        <time>2018-03-24T10:42:28Z</time>
      </trkpt>
      <trkpt lat="62.635545164636" lon="18.003520477093">
        <ele>207.8</ele>
        <time>2018-03-24T10:42:29Z</time>
      </trkpt>
      <trkpt lat="62.63552890375" lon="18.003615192563">
        <ele>207.8</ele>
        <time>2018-03-24T10:42:30Z</time>
      </trkpt>
      <trkpt lat="62.635502584584" lon="18.003691551672">
        <ele>207.6</ele>
        <time>2018-03-24T10:42:31Z</time>
      </trkpt>
      <trkpt lat="62.635480372549" lon="18.003775454491">
        <ele>207.4</ele>
        <time>2018-03-24T10:42:32Z</time>
      </trkpt>
      <trkpt lat="62.635455310668" lon="18.003852735609">
        <ele>207.2</ele>
        <time>2018-03-24T10:42:33Z</time>
      </trkpt>
      <trkpt lat="62.635440139429" lon="18.003937560437">
        <ele>207</ele>
        <time>2018-03-24T10:42:34Z</time>
      </trkpt>
      <trkpt lat="62.635430416425" lon="18.004012326985">
        <ele>207</ele>
        <time>2018-03-24T10:42:35Z</time>
      </trkpt>
      <trkpt lat="62.635413149711" lon="18.004081393841">
        <ele>206.8</ele>
        <time>2018-03-24T10:42:36Z</time>
      </trkpt>
      <trkpt lat="62.635396721187" lon="18.004145263919">
        <ele>206.6</ele>
        <time>2018-03-24T10:42:37Z</time>
      </trkpt>
      <trkpt lat="62.63537802955" lon="18.004206116513">
        <ele>206.6</ele>
        <time>2018-03-24T10:42:38Z</time>
      </trkpt>
      <trkpt lat="62.635358834999" lon="18.004268729306">
        <ele>206.6</ele>
        <time>2018-03-24T10:42:39Z</time>
      </trkpt>
      <trkpt lat="62.63533779643" lon="18.004327570244">
        <ele>206.6</ele>
        <time>2018-03-24T10:42:40Z</time>
      </trkpt>
      <trkpt lat="62.63531432711" lon="18.004390434494">
        <ele>206.6</ele>
        <time>2018-03-24T10:42:41Z</time>
      </trkpt>
      <trkpt lat="62.635297144215" lon="18.004443994835">
        <ele>206.8</ele>
        <time>2018-03-24T10:42:42Z</time>
      </trkpt>
      <trkpt lat="62.635274429266" lon="18.004487832172">
        <ele>206.6</ele>
        <time>2018-03-24T10:42:43Z</time>
      </trkpt>
      <trkpt lat="62.635245763168" lon="18.004537117744">
        <ele>206.6</ele>
        <time>2018-03-24T10:42:44Z</time>
      </trkpt>
      <trkpt lat="62.635221371839" lon="18.004579949253">
        <ele>206.8</ele>
        <time>2018-03-24T10:42:45Z</time>
      </trkpt>
      <trkpt lat="62.635198573071" lon="18.004614147405">
        <ele>206.8</ele>
        <time>2018-03-24T10:42:46Z</time>
      </trkpt>
      <trkpt lat="62.635166135118" lon="18.004657481828">
        <ele>206.6</ele>
        <time>2018-03-24T10:42:47Z</time>
      </trkpt>
      <trkpt lat="62.635142246703" lon="18.004693775455">
        <ele>206.6</ele>
        <time>2018-03-24T10:42:48Z</time>
      </trkpt>
      <trkpt lat="62.635113664424" lon="18.004734679127">
        <ele>206.6</ele>
        <time>2018-03-24T10:42:49Z</time>
      </trkpt>
      <trkpt lat="62.635084830688" lon="18.004775331342">
        <ele>206.4</ele>
        <time>2018-03-24T10:42:50Z</time>
      </trkpt>
      <trkpt lat="62.635066809603" lon="18.004809613313">
        <ele>206.6</ele>
        <time>2018-03-24T10:42:51Z</time>
      </trkpt>
      <trkpt lat="62.63504275355" lon="18.00485009789">
        <ele>206.4</ele>
        <time>2018-03-24T10:42:52Z</time>
      </trkpt>
      <trkpt lat="62.635018781316" lon="18.004888570811">
        <ele>206.6</ele>
        <time>2018-03-24T10:42:53Z</time>
      </trkpt>
      <trkpt lat="62.634997072195" lon="18.004930312673">
        <ele>206.4</ele>
        <time>2018-03-24T10:42:54Z</time>
      </trkpt>
      <trkpt lat="62.634975363074" lon="18.004973228001">
        <ele>206.4</ele>
        <time>2018-03-24T10:42:55Z</time>
      </trkpt>
      <trkpt lat="62.634962538767" lon="18.005012958207">
        <ele>206.4</ele>
        <time>2018-03-24T10:42:56Z</time>
      </trkpt>
      <trkpt lat="62.634940913465" lon="18.005053945698">
        <ele>206.4</ele>
        <time>2018-03-24T10:42:57Z</time>
      </trkpt>
      <trkpt lat="62.634919455801" lon="18.005100968157">
        <ele>206.4</ele>
        <time>2018-03-24T10:42:58Z</time>
      </trkpt>
      <trkpt lat="62.634899003965" lon="18.005145895141">
        <ele>206.6</ele>
        <time>2018-03-24T10:42:59Z</time>
      </trkpt>
      <trkpt lat="62.634877881577" lon="18.005194091066">
        <ele>206.6</ele>
        <time>2018-03-24T10:43:00Z</time>
      </trkpt>
      <trkpt lat="62.634861788329" lon="18.005235832928">
        <ele>206.4</ele>
        <time>2018-03-24T10:43:01Z</time>
      </trkpt>
      <trkpt lat="62.63484074976" lon="18.005277071876">
        <ele>206.4</ele>
        <time>2018-03-24T10:43:02Z</time>
      </trkpt>
      <trkpt lat="62.634820130286" lon="18.005307833449">
        <ele>206.6</ele>
        <time>2018-03-24T10:43:03Z</time>
      </trkpt>
      <trkpt lat="62.634794230215" lon="18.005344210895">
        <ele>206.4</ele>
        <time>2018-03-24T10:43:04Z</time>
      </trkpt>
      <trkpt lat="62.634768581601" lon="18.00536977569">
        <ele>206.6</ele>
        <time>2018-03-24T10:43:05Z</time>
      </trkpt>
      <trkpt lat="62.634749722326" lon="18.005397268322">
        <ele>206.8</ele>
        <time>2018-03-24T10:43:06Z</time>
      </trkpt>
      <trkpt lat="62.634722229694" lon="18.00542090528">
        <ele>207</ele>
        <time>2018-03-24T10:43:07Z</time>
      </trkpt>
      <trkpt lat="62.634699011831" lon="18.005441273297">
        <ele>207</ele>
        <time>2018-03-24T10:43:08Z</time>
      </trkpt>
      <trkpt lat="62.634680906927" lon="18.005464826436">
        <ele>207.2</ele>
        <time>2018-03-24T10:43:09Z</time>
      </trkpt>
      <trkpt lat="62.634655845046" lon="18.005490894145">
        <ele>207.4</ele>
        <time>2018-03-24T10:43:10Z</time>
      </trkpt>
      <trkpt lat="62.634631705174" lon="18.00551645894">
        <ele>207.4</ele>
        <time>2018-03-24T10:43:11Z</time>
      </trkpt>
      <trkpt lat="62.634611840071" lon="18.005547555789">
        <ele>207.4</ele>
        <time>2018-03-24T10:43:12Z</time>
      </trkpt>
      <trkpt lat="62.634592729339" lon="18.00557513224">
        <ele>207.4</ele>
        <time>2018-03-24T10:43:13Z</time>
      </trkpt>
      <trkpt lat="62.634572445141" lon="18.005603211605">
        <ele>207.4</ele>
        <time>2018-03-24T10:43:14Z</time>
      </trkpt>
      <trkpt lat="62.634557860635" lon="18.005637912671">
        <ele>207.2</ele>
        <time>2018-03-24T10:43:15Z</time>
      </trkpt>
      <trkpt lat="62.634542270301" lon="18.005676469411">
        <ele>207.2</ele>
        <time>2018-03-24T10:43:16Z</time>
      </trkpt>
      <trkpt lat="62.63452139937" lon="18.005722066947">
        <ele>207.2</ele>
        <time>2018-03-24T10:43:17Z</time>
      </trkpt>
      <trkpt lat="62.634506898683" lon="18.005761545696">
        <ele>207.2</ele>
        <time>2018-03-24T10:43:18Z</time>
      </trkpt>
      <trkpt lat="62.634486865942" lon="18.005800772988">
        <ele>207.4</ele>
        <time>2018-03-24T10:43:19Z</time>
      </trkpt>
      <trkpt lat="62.63446524064" lon="18.005843688316">
        <ele>207.6</ele>
        <time>2018-03-24T10:43:20Z</time>
      </trkpt>
      <trkpt lat="62.634449817944" lon="18.005883250884">
        <ele>207.6</ele>
        <time>2018-03-24T10:43:21Z</time>
      </trkpt>
      <trkpt lat="62.634424420787" lon="18.00592884842">
        <ele>207.6</ele>
        <time>2018-03-24T10:43:22Z</time>
      </trkpt>
      <trkpt lat="62.634409249548" lon="18.005976289974">
        <ele>207.6</ele>
        <time>2018-03-24T10:43:23Z</time>
      </trkpt>
      <trkpt lat="62.634383852391" lon="18.006018450931">
        <ele>207.4</ele>
        <time>2018-03-24T10:43:24Z</time>
      </trkpt>
      <trkpt lat="62.634363652012" lon="18.006066646856">
        <ele>207.4</ele>
        <time>2018-03-24T10:43:25Z</time>
      </trkpt>
      <trkpt lat="62.634342781081" lon="18.006107969623">
        <ele>207.2</ele>
        <time>2018-03-24T10:43:26Z</time>
      </trkpt>
      <trkpt lat="62.634317970657" lon="18.006156919919">
        <ele>207.2</ele>
        <time>2018-03-24T10:43:27Z</time>
      </trkpt>
      <trkpt lat="62.634298692287" lon="18.006198326505">
        <ele>207.2</ele>
        <time>2018-03-24T10:43:28Z</time>
      </trkpt>
      <trkpt lat="62.634278072813" lon="18.006243840222">
        <ele>207.2</ele>
        <time>2018-03-24T10:43:29Z</time>
      </trkpt>
      <trkpt lat="62.634263488307" lon="18.006282983695">
        <ele>207.2</ele>
        <time>2018-03-24T10:43:30Z</time>
      </trkpt>
      <trkpt lat="62.634243371747" lon="18.006324893195">
        <ele>207.2</ele>
        <time>2018-03-24T10:43:31Z</time>
      </trkpt>
      <trkpt lat="62.634230212164" lon="18.006363533754">
        <ele>207.2</ele>
        <time>2018-03-24T10:43:32Z</time>
      </trkpt>
      <trkpt lat="62.634211855803" lon="18.006400162657">
        <ele>207</ele>
        <time>2018-03-24T10:43:33Z</time>
      </trkpt>
      <trkpt lat="62.63419618165" lon="18.006440479596">
        <ele>207</ele>
        <time>2018-03-24T10:43:34Z</time>
      </trkpt>
      <trkpt lat="62.634174137253" lon="18.006480628897">
        <ele>207</ele>
        <time>2018-03-24T10:43:35Z</time>
      </trkpt>
      <trkpt lat="62.634161229127" lon="18.006520945836">
        <ele>207</ele>
        <time>2018-03-24T10:43:36Z</time>
      </trkpt>
      <trkpt lat="62.634140274377" lon="18.00656252006">
        <ele>207</ele>
        <time>2018-03-24T10:43:37Z</time>
      </trkpt>
      <trkpt lat="62.634124600224" lon="18.006608536691">
        <ele>207</ele>
        <time>2018-03-24T10:43:38Z</time>
      </trkpt>
      <trkpt lat="62.634103645474" lon="18.006649943277">
        <ele>207</ele>
        <time>2018-03-24T10:43:39Z</time>
      </trkpt>
      <trkpt lat="62.634087133131" lon="18.006697971564">
        <ele>207.2</ele>
        <time>2018-03-24T10:43:40Z</time>
      </trkpt>
      <trkpt lat="62.634070201693" lon="18.006739629607">
        <ele>207.4</ele>
        <time>2018-03-24T10:43:41Z</time>
      </trkpt>
      <trkpt lat="62.634051007142" lon="18.006786987342">
        <ele>207.2</ele>
        <time>2018-03-24T10:43:42Z</time>
      </trkpt>
      <trkpt lat="62.634040110672" lon="18.006825124987">
        <ele>207.4</ele>
        <time>2018-03-24T10:43:43Z</time>
      </trkpt>
      <trkpt lat="62.634019658836" lon="18.00687516493">
        <ele>207.4</ele>
        <time>2018-03-24T10:43:44Z</time>
      </trkpt>
      <trkpt lat="62.634010774022" lon="18.006920594828">
        <ele>207.4</ele>
        <time>2018-03-24T10:43:45Z</time>
      </trkpt>
      <trkpt lat="62.633995686602" lon="18.006969377486">
        <ele>207.2</ele>
        <time>2018-03-24T10:43:46Z</time>
      </trkpt>
      <trkpt lat="62.633985963598" lon="18.0070201718">
        <ele>207.4</ele>
        <time>2018-03-24T10:43:47Z</time>
      </trkpt>
      <trkpt lat="62.633968948341" lon="18.007069876467">
        <ele>207.4</ele>
        <time>2018-03-24T10:43:48Z</time>
      </trkpt>
      <trkpt lat="62.633956878405" lon="18.007124610274">
        <ele>207.2</ele>
        <time>2018-03-24T10:43:49Z</time>
      </trkpt>
      <trkpt lat="62.633937767673" lon="18.007173225294">
        <ele>207.4</ele>
        <time>2018-03-24T10:43:50Z</time>
      </trkpt>
      <trkpt lat="62.633918656941" lon="18.007225025436">
        <ele>207.2</ele>
        <time>2018-03-24T10:43:51Z</time>
      </trkpt>
      <trkpt lat="62.633900216761" lon="18.007274562465">
        <ele>207.2</ele>
        <time>2018-03-24T10:43:52Z</time>
      </trkpt>
      <trkpt lat="62.633882866228" lon="18.007309514988">
        <ele>207.2</ele>
        <time>2018-03-24T10:43:53Z</time>
      </trkpt>
      <trkpt lat="62.633859899822" lon="18.007359052017">
        <ele>207</ele>
        <time>2018-03-24T10:43:54Z</time>
      </trkpt>
      <trkpt lat="62.633835676131" lon="18.007393836902">
        <ele>207.2</ele>
        <time>2018-03-24T10:43:55Z</time>
      </trkpt>
      <trkpt lat="62.633807764404" lon="18.007422586819">
        <ele>207.2</ele>
        <time>2018-03-24T10:43:56Z</time>
      </trkpt>
      <trkpt lat="62.63377876303" lon="18.007437925696">
        <ele>207.2</ele>
        <time>2018-03-24T10:43:57Z</time>
      </trkpt>
      <trkpt lat="62.633752527683" lon="18.00744513413">
        <ele>207.2</ele>
        <time>2018-03-24T10:43:58Z</time>
      </trkpt>
      <trkpt lat="62.633720592644" lon="18.007441026999">
        <ele>207.2</ele>
        <time>2018-03-24T10:43:59Z</time>
      </trkpt>
      <trkpt lat="62.633689663433" lon="18.007430801081">
        <ele>207.2</ele>
        <time>2018-03-24T10:44:00Z</time>
      </trkpt>
      <trkpt lat="62.633662003163" lon="18.007417390041">
        <ele>207.2</ele>
        <time>2018-03-24T10:44:01Z</time>
      </trkpt>
      <trkpt lat="62.633634342893" lon="18.007401129155">
        <ele>207.4</ele>
        <time>2018-03-24T10:44:02Z</time>
      </trkpt>
      <trkpt lat="62.633615651256" lon="18.007381180233">
        <ele>207.4</ele>
        <time>2018-03-24T10:44:03Z</time>
      </trkpt>
      <trkpt lat="62.63359352304" lon="18.007369110297">
        <ele>207.6</ele>
        <time>2018-03-24T10:44:04Z</time>
      </trkpt>
      <trkpt lat="62.633573322661" lon="18.007355531619">
        <ele>207.8</ele>
        <time>2018-03-24T10:44:05Z</time>
      </trkpt>
      <trkpt lat="62.633552954644" lon="18.007338851638">
        <ele>207.8</ele>
        <time>2018-03-24T10:44:06Z</time>
      </trkpt>
      <trkpt lat="62.633532754265" lon="18.007324602408">
        <ele>208</ele>
        <time>2018-03-24T10:44:07Z</time>
      </trkpt>
      <trkpt lat="62.633514481723" lon="18.007310017902">
        <ele>208.4</ele>
        <time>2018-03-24T10:44:08Z</time>
      </trkpt>
      <trkpt lat="62.633493359335" lon="18.007285710392">
        <ele>208.4</ele>
        <time>2018-03-24T10:44:09Z</time>
      </trkpt>
      <trkpt lat="62.633473410413" lon="18.007273891913">
        <ele>208.8</ele>
        <time>2018-03-24T10:44:10Z</time>
      </trkpt>
      <trkpt lat="62.633447510342" lon="18.007252015154">
        <ele>209</ele>
        <time>2018-03-24T10:44:11Z</time>
      </trkpt>
      <trkpt lat="62.633423286651" lon="18.00723558663">
        <ele>209</ele>
        <time>2018-03-24T10:44:12Z</time>
      </trkpt>
      <trkpt lat="62.633404678833" lon="18.00721044093">
        <ele>209.2</ele>
        <time>2018-03-24T10:44:13Z</time>
      </trkpt>
      <trkpt lat="62.633382131522" lon="18.007180014633">
        <ele>209.2</ele>
        <time>2018-03-24T10:44:14Z</time>
      </trkpt>
      <trkpt lat="62.633363942799" lon="18.007157970236">
        <ele>209.2</ele>
        <time>2018-03-24T10:44:15Z</time>
      </trkpt>
      <trkpt lat="62.633345083524" lon="18.007124610274">
        <ele>209.2</ele>
        <time>2018-03-24T10:44:16Z</time>
      </trkpt>
      <trkpt lat="62.633324380231" lon="18.007086221172">
        <ele>209.4</ele>
        <time>2018-03-24T10:44:17Z</time>
      </trkpt>
      <trkpt lat="62.63330686206" lon="18.007045988052">
        <ele>209.2</ele>
        <time>2018-03-24T10:44:18Z</time>
      </trkpt>
      <trkpt lat="62.63329261283" lon="18.007000222878">
        <ele>209.4</ele>
        <time>2018-03-24T10:44:19Z</time>
      </trkpt>
      <trkpt lat="62.633279704704" lon="18.006960073577">
        <ele>209.4</ele>
        <time>2018-03-24T10:44:20Z</time>
      </trkpt>
      <trkpt lat="62.633270316976" lon="18.006918583172">
        <ele>209.6</ele>
        <time>2018-03-24T10:44:21Z</time>
      </trkpt>
      <trkpt lat="62.633263695275" lon="18.006868962324">
        <ele>209.6</ele>
        <time>2018-03-24T10:44:22Z</time>
      </trkpt>
      <trkpt lat="62.633255983927" lon="18.006830573222">
        <ele>209.8</ele>
        <time>2018-03-24T10:44:23Z</time>
      </trkpt>
      <trkpt lat="62.633249529864" lon="18.006779695089">
        <ele>210</ele>
        <time>2018-03-24T10:44:24Z</time>
      </trkpt>
      <trkpt lat="62.633244333086" lon="18.006729236051">
        <ele>210</ele>
        <time>2018-03-24T10:44:25Z</time>
      </trkpt>
      <trkpt lat="62.633239220127" lon="18.006683973791">
        <ele>210</ele>
        <time>2018-03-24T10:44:26Z</time>
      </trkpt>
      <trkpt lat="62.6332364541" lon="18.006639801178">
        <ele>210.2</ele>
        <time>2018-03-24T10:44:27Z</time>
      </trkpt>
      <trkpt lat="62.633235029177" lon="18.006594874194">
        <ele>210.4</ele>
        <time>2018-03-24T10:44:28Z</time>
      </trkpt>
      <trkpt lat="62.633234442444" lon="18.00654994721">
        <ele>210.4</ele>
        <time>2018-03-24T10:44:29Z</time>
      </trkpt>
      <trkpt lat="62.633233352797" lon="18.006508121529">
        <ele>210.6</ele>
        <time>2018-03-24T10:44:30Z</time>
      </trkpt>
      <trkpt lat="62.633232598426" lon="18.006465709115">
        <ele>210.8</ele>
        <time>2018-03-24T10:44:31Z</time>
      </trkpt>
      <trkpt lat="62.633231927874" lon="18.006415417715">
        <ele>210.8</ele>
        <time>2018-03-24T10:44:32Z</time>
      </trkpt>
      <trkpt lat="62.633230419132" lon="18.006372837663">
        <ele>211</ele>
        <time>2018-03-24T10:44:33Z</time>
      </trkpt>
      <trkpt lat="62.63323142496" lon="18.006320786064">
        <ele>211</ele>
        <time>2018-03-24T10:44:34Z</time>
      </trkpt>
      <trkpt lat="62.633228742752" lon="18.00627669727">
        <ele>211.2</ele>
        <time>2018-03-24T10:44:35Z</time>
      </trkpt>
      <trkpt lat="62.633227820743" lon="18.006232357019">
        <ele>211.2</ele>
        <time>2018-03-24T10:44:36Z</time>
      </trkpt>
      <trkpt lat="62.633227736924" lon="18.006194973745">
        <ele>211.4</ele>
        <time>2018-03-24T10:44:37Z</time>
      </trkpt>
      <trkpt lat="62.633227150191" lon="18.00616689438">
        <ele>211.4</ele>
        <time>2018-03-24T10:44:38Z</time>
      </trkpt>
      <trkpt lat="62.633226312001" lon="18.006128756735">
        <ele>211.6</ele>
        <time>2018-03-24T10:44:39Z</time>
      </trkpt>
      <trkpt lat="62.633227401648" lon="18.00608726633">
        <ele>211.6</ele>
        <time>2018-03-24T10:44:40Z</time>
      </trkpt>
      <trkpt lat="62.633228658933" lon="18.006042926079">
        <ele>211.8</ele>
        <time>2018-03-24T10:44:41Z</time>
      </trkpt>
      <trkpt lat="62.633229497123" lon="18.006003866425">
        <ele>211.8</ele>
        <time>2018-03-24T10:44:42Z</time>
      </trkpt>
      <trkpt lat="62.633228826571" lon="18.005968578626">
        <ele>212</ele>
        <time>2018-03-24T10:44:43Z</time>
      </trkpt>
      <trkpt lat="62.63322723401" lon="18.005946198953">
        <ele>212.4</ele>
        <time>2018-03-24T10:44:44Z</time>
      </trkpt>
      <trkpt lat="62.633229916218" lon="18.005927004402">
        <ele>212.6</ele>
        <time>2018-03-24T10:44:45Z</time>
      </trkpt>
      <trkpt lat="62.633229413304" lon="18.005905127643">
        <ele>212.8</ele>
        <time>2018-03-24T10:44:46Z</time>
      </trkpt>
      <trkpt lat="62.633227485467" lon="18.005883250884">
        <ele>213</ele>
        <time>2018-03-24T10:44:47Z</time>
      </trkpt>
      <trkpt lat="62.633225892906" lon="18.005867912007">
        <ele>213.2</ele>
        <time>2018-03-24T10:44:48Z</time>
      </trkpt>
      <trkpt lat="62.633228239838" lon="18.005868834016">
        <ele>213.2</ele>
        <time>2018-03-24T10:44:49Z</time>
      </trkpt>
      <trkpt lat="62.633216588997" lon="18.005838742995">
        <ele>213.4</ele>
        <time>2018-03-24T10:44:50Z</time>
      </trkpt>
      <trkpt lat="62.63321466116" lon="18.005817620607">
        <ele>213.6</ele>
        <time>2018-03-24T10:44:51Z</time>
      </trkpt>
      <trkpt lat="62.633210302572" lon="18.005799431884">
        <ele>214</ele>
        <time>2018-03-24T10:44:52Z</time>
      </trkpt>
      <trkpt lat="62.633213236237" lon="18.005801694997">
        <ele>214</ele>
        <time>2018-03-24T10:44:53Z</time>
      </trkpt>
      <trkpt lat="62.633210302572" lon="18.005781243161">
        <ele>214.2</ele>
        <time>2018-03-24T10:44:54Z</time>
      </trkpt>
      <trkpt lat="62.633207871821" lon="18.005758947307">
        <ele>214.4</ele>
        <time>2018-03-24T10:44:55Z</time>
      </trkpt>
      <trkpt lat="62.633207285088" lon="18.005743524611">
        <ele>214.8</ele>
        <time>2018-03-24T10:44:56Z</time>
      </trkpt>
      <trkpt lat="62.63321047021" lon="18.005739920394">
        <ele>215</ele>
        <time>2018-03-24T10:44:57Z</time>
      </trkpt>
      <trkpt lat="62.633209045287" lon="18.00571846273">
        <ele>215.2</ele>
        <time>2018-03-24T10:44:58Z</time>
      </trkpt>
      <trkpt lat="62.633207368907" lon="18.00569415522">
        <ele>215.6</ele>
        <time>2018-03-24T10:44:59Z</time>
      </trkpt>
      <trkpt lat="62.633206446898" lon="18.005674373936">
        <ele>215.6</ele>
        <time>2018-03-24T10:45:00Z</time>
      </trkpt>
      <trkpt lat="62.633206363079" lon="18.005658280688">
        <ele>216</ele>
        <time>2018-03-24T10:45:01Z</time>
      </trkpt>
      <trkpt lat="62.633209045287" lon="18.005647635675">
        <ele>216</ele>
        <time>2018-03-24T10:45:02Z</time>
      </trkpt>
      <trkpt lat="62.633209883477" lon="18.00562961459">
        <ele>216.4</ele>
        <time>2018-03-24T10:45:03Z</time>
      </trkpt>
      <trkpt lat="62.633210386391" lon="18.005605809994">
        <ele>216.6</ele>
        <time>2018-03-24T10:45:04Z</time>
      </trkpt>
      <trkpt lat="62.633209548201" lon="18.005579071733">
        <ele>216.8</ele>
        <time>2018-03-24T10:45:05Z</time>
      </trkpt>
      <trkpt lat="62.633209967296" lon="18.005559374268">
        <ele>217</ele>
        <time>2018-03-24T10:45:06Z</time>
      </trkpt>
      <trkpt lat="62.633208290916" lon="18.005547639608">
        <ele>217.4</ele>
        <time>2018-03-24T10:45:07Z</time>
      </trkpt>
      <trkpt lat="62.633210805486" lon="18.005534563844">
        <ele>217.6</ele>
        <time>2018-03-24T10:45:08Z</time>
      </trkpt>
      <trkpt lat="62.633210051115" lon="18.005513357637">
        <ele>218</ele>
        <time>2018-03-24T10:45:09Z</time>
      </trkpt>
      <trkpt lat="62.633208039459" lon="18.005491899973">
        <ele>218.4</ele>
        <time>2018-03-24T10:45:10Z</time>
      </trkpt>
      <trkpt lat="62.633207871821" lon="18.00547706401">
        <ele>218.6</ele>
        <time>2018-03-24T10:45:11Z</time>
      </trkpt>
      <trkpt lat="62.633207536545" lon="18.00546449116">
        <ele>218.8</ele>
        <time>2018-03-24T10:45:12Z</time>
      </trkpt>
      <trkpt lat="62.633206027803" lon="18.005443620229">
        <ele>219</ele>
        <time>2018-03-24T10:45:13Z</time>
      </trkpt>
      <trkpt lat="62.633204770518" lon="18.005419061262">
        <ele>219</ele>
        <time>2018-03-24T10:45:14Z</time>
      </trkpt>
      <trkpt lat="62.633203261776" lon="18.005399363797">
        <ele>219.2</ele>
        <time>2018-03-24T10:45:15Z</time>
      </trkpt>
      <trkpt lat="62.633200914844" lon="18.005387545318">
        <ele>219.4</ele>
        <time>2018-03-24T10:45:16Z</time>
      </trkpt>
      <trkpt lat="62.633200244292" lon="18.005372374079">
        <ele>219.6</ele>
        <time>2018-03-24T10:45:17Z</time>
      </trkpt>
      <trkpt lat="62.633199238464" lon="18.005347898931">
        <ele>219.6</ele>
        <time>2018-03-24T10:45:18Z</time>
      </trkpt>
      <trkpt lat="62.633198232636" lon="18.005324261973">
        <ele>219.8</ele>
        <time>2018-03-24T10:45:19Z</time>
      </trkpt>
      <trkpt lat="62.633199406102" lon="18.005305905612">
        <ele>219.8</ele>
        <time>2018-03-24T10:45:20Z</time>
      </trkpt>
      <trkpt lat="62.633200663387" lon="18.005293584219">
        <ele>220</ele>
        <time>2018-03-24T10:45:21Z</time>
      </trkpt>
      <trkpt lat="62.633201753034" lon="18.00527254565">
        <ele>220</ele>
        <time>2018-03-24T10:45:22Z</time>
      </trkpt>
      <trkpt lat="62.633200998663" lon="18.005249411606">
        <ele>220.2</ele>
        <time>2018-03-24T10:45:23Z</time>
      </trkpt>
      <trkpt lat="62.633199322283" lon="18.005226361381">
        <ele>220.4</ele>
        <time>2018-03-24T10:45:24Z</time>
      </trkpt>
      <trkpt lat="62.633198148817" lon="18.005212698884">
        <ele>220.4</ele>
        <time>2018-03-24T10:45:25Z</time>
      </trkpt>
      <trkpt lat="62.633196640075" lon="18.005194342523">
        <ele>220.6</ele>
        <time>2018-03-24T10:45:26Z</time>
      </trkpt>
      <trkpt lat="62.633198148817" lon="18.005173387773">
        <ele>220.8</ele>
        <time>2018-03-24T10:45:27Z</time>
      </trkpt>
      <trkpt lat="62.633195885704" lon="18.005145559865">
        <ele>221</ele>
        <time>2018-03-24T10:45:28Z</time>
      </trkpt>
      <trkpt lat="62.633191024202" lon="18.005122006726">
        <ele>221.2</ele>
        <time>2018-03-24T10:45:29Z</time>
      </trkpt>
      <trkpt lat="62.633187922899" lon="18.005105410564">
        <ele>221.4</ele>
        <time>2018-03-24T10:45:30Z</time>
      </trkpt>
      <trkpt lat="62.63318783908" lon="18.00509401118">
        <ele>221.6</ele>
        <time>2018-03-24T10:45:31Z</time>
      </trkpt>
      <trkpt lat="62.63318867727" lon="18.00507054186">
        <ele>221.8</ele>
        <time>2018-03-24T10:45:32Z</time>
      </trkpt>
      <trkpt lat="62.633186833252" lon="18.005051431128">
        <ele>222</ele>
        <time>2018-03-24T10:45:33Z</time>
      </trkpt>
      <trkpt lat="62.633182558483" lon="18.005031398387">
        <ele>222.2</ele>
        <time>2018-03-24T10:45:34Z</time>
      </trkpt>
      <trkpt lat="62.633179373361" lon="18.005019496089">
        <ele>222.6</ele>
        <time>2018-03-24T10:45:35Z</time>
      </trkpt>
      <trkpt lat="62.633179038085" lon="18.005005833592">
        <ele>222.8</ele>
        <time>2018-03-24T10:45:36Z</time>
      </trkpt>
      <trkpt lat="62.633178535171" lon="18.004991249086">
        <ele>223</ele>
        <time>2018-03-24T10:45:37Z</time>
      </trkpt>
      <trkpt lat="62.633163783027" lon="18.004968198861">
        <ele>223.2</ele>
        <time>2018-03-24T10:45:38Z</time>
      </trkpt>
      <trkpt lat="62.633155317308" lon="18.004954620183">
        <ele>223.4</ele>
        <time>2018-03-24T10:45:39Z</time>
      </trkpt>
      <trkpt lat="62.633147354503" lon="18.004942214971">
        <ele>223.4</ele>
        <time>2018-03-24T10:45:40Z</time>
      </trkpt>
      <trkpt lat="62.633141151897" lon="18.004930815587">
        <ele>223.6</ele>
        <time>2018-03-24T10:45:41Z</time>
      </trkpt>
      <trkpt lat="62.633133524368" lon="18.004919835298">
        <ele>223.6</ele>
        <time>2018-03-24T10:45:42Z</time>
      </trkpt>
      <trkpt lat="62.633124052821" lon="18.004907933">
        <ele>223.6</ele>
        <time>2018-03-24T10:45:43Z</time>
      </trkpt>
      <trkpt lat="62.633113659265" lon="18.004894689598">
        <ele>223.8</ele>
        <time>2018-03-24T10:45:44Z</time>
      </trkpt>
      <trkpt lat="62.633103517166" lon="18.004887648802">
        <ele>224</ele>
        <time>2018-03-24T10:45:45Z</time>
      </trkpt>
      <trkpt lat="62.633096811646" lon="18.004880021273">
        <ele>224.2</ele>
        <time>2018-03-24T10:45:46Z</time>
      </trkpt>
      <trkpt lat="62.633085915176" lon="18.004867951337">
        <ele>224.4</ele>
        <time>2018-03-24T10:45:47Z</time>
      </trkpt>
      <trkpt lat="62.633073929059" lon="18.004861078179">
        <ele>224.6</ele>
        <time>2018-03-24T10:45:48Z</time>
      </trkpt>
      <trkpt lat="62.63305959601" lon="18.004859150342">
        <ele>224.8</ele>
        <time>2018-03-24T10:45:49Z</time>
      </trkpt>
      <trkpt lat="62.633040652916" lon="18.004854875573">
        <ele>225</ele>
        <time>2018-03-24T10:45:50Z</time>
      </trkpt>
      <trkpt lat="62.633029169713" lon="18.004865939681">
        <ele>225.2</ele>
        <time>2018-03-24T10:45:51Z</time>
      </trkpt>
      <trkpt lat="62.633008047325" lon="18.004875075952">
        <ele>225.4</ele>
        <time>2018-03-24T10:45:52Z</time>
      </trkpt>
      <trkpt lat="62.632988601317" lon="18.004886307698">
        <ele>225.4</ele>
        <time>2018-03-24T10:45:53Z</time>
      </trkpt>
      <trkpt lat="62.632968065662" lon="18.004917907461">
        <ele>225.6</ele>
        <time>2018-03-24T10:45:54Z</time>
      </trkpt>
      <trkpt lat="62.632948619654" lon="18.004949674862">
        <ele>225.6</ele>
        <time>2018-03-24T10:45:55Z</time>
      </trkpt>
      <trkpt lat="62.632934202786" lon="18.004981106987">
        <ele>225.6</ele>
        <time>2018-03-24T10:45:56Z</time>
      </trkpt>
      <trkpt lat="62.632923390135" lon="18.005015724234">
        <ele>225.6</ele>
        <time>2018-03-24T10:45:57Z</time>
      </trkpt>
      <trkpt lat="62.632909727638" lon="18.005049838567">
        <ele>225.8</ele>
        <time>2018-03-24T10:45:58Z</time>
      </trkpt>
      <trkpt lat="62.632892377105" lon="18.005089987868">
        <ele>226</ele>
        <time>2018-03-24T10:45:59Z</time>
      </trkpt>
      <trkpt lat="62.632880390988" lon="18.005131394454">
        <ele>226</ele>
        <time>2018-03-24T10:46:00Z</time>
      </trkpt>
      <trkpt lat="62.632860525885" lon="18.005174645058">
        <ele>226.2</ele>
        <time>2018-03-24T10:46:01Z</time>
      </trkpt>
      <trkpt lat="62.632839068221" lon="18.005225187915">
        <ele>226.4</ele>
        <time>2018-03-24T10:46:02Z</time>
      </trkpt>
      <trkpt lat="62.632825489543" lon="18.005264247569">
        <ele>226.4</ele>
        <time>2018-03-24T10:46:03Z</time>
      </trkpt>
      <trkpt lat="62.632800511481" lon="18.005311018571">
        <ele>226.4</ele>
        <time>2018-03-24T10:46:04Z</time>
      </trkpt>
      <trkpt lat="62.632774024677" lon="18.005345887275">
        <ele>226.4</ele>
        <time>2018-03-24T10:46:05Z</time>
      </trkpt>
      <trkpt lat="62.632740999991" lon="18.005372457898">
        <ele>226.4</ele>
        <time>2018-03-24T10:46:06Z</time>
      </trkpt>
      <trkpt lat="62.632719207051" lon="18.005390227526">
        <ele>226.4</ele>
        <time>2018-03-24T10:46:07Z</time>
      </trkpt>
      <trkpt lat="62.632696492102" lon="18.005398944702">
        <ele>226.2</ele>
        <time>2018-03-24T10:46:08Z</time>
      </trkpt>
      <trkpt lat="62.632676878456" lon="18.005405063489">
        <ele>226.2</ele>
        <time>2018-03-24T10:46:09Z</time>
      </trkpt>
      <trkpt lat="62.632657097172" lon="18.005413780665">
        <ele>226.2</ele>
        <time>2018-03-24T10:46:10Z</time>
      </trkpt>
      <trkpt lat="62.632642764123" lon="18.005417384882">
        <ele>226.4</ele>
        <time>2018-03-24T10:46:11Z</time>
      </trkpt>
      <trkpt lat="62.632622144649" lon="18.00541755252">
        <ele>226.4</ele>
        <time>2018-03-24T10:46:12Z</time>
      </trkpt>
      <trkpt lat="62.632606554315" lon="18.005420486185">
        <ele>226.6</ele>
        <time>2018-03-24T10:46:13Z</time>
      </trkpt>
      <trkpt lat="62.632585934841" lon="18.005417803977">
        <ele>226.8</ele>
        <time>2018-03-24T10:46:14Z</time>
      </trkpt>
      <trkpt lat="62.632566237376" lon="18.005415540864">
        <ele>227</ele>
        <time>2018-03-24T10:46:15Z</time>
      </trkpt>
      <trkpt lat="62.63254578554" lon="18.005422162565">
        <ele>227.2</ele>
        <time>2018-03-24T10:46:16Z</time>
      </trkpt>
      <trkpt lat="62.632526674808" lon="18.005427862257">
        <ele>227.4</ele>
        <time>2018-03-24T10:46:17Z</time>
      </trkpt>
      <trkpt lat="62.63250219966" lon="18.005422414022">
        <ele>227.4</ele>
        <time>2018-03-24T10:46:18Z</time>
      </trkpt>
      <trkpt lat="62.632474790847" lon="18.005414451217">
        <ele>227.6</ele>
        <time>2018-03-24T10:46:19Z</time>
      </trkpt>
      <trkpt lat="62.632445705654" lon="18.005411098457">
        <ele>227.8</ele>
        <time>2018-03-24T10:46:20Z</time>
      </trkpt>
      <trkpt lat="62.632427181655" lon="18.005414115941">
        <ele>227.8</ele>
        <time>2018-03-24T10:46:21Z</time>
      </trkpt>
      <trkpt lat="62.632411172226" lon="18.005412188104">
        <ele>227.8</ele>
        <time>2018-03-24T10:46:22Z</time>
      </trkpt>
      <trkpt lat="62.632381584119" lon="18.005413780665">
        <ele>227.8</ele>
        <time>2018-03-24T10:46:23Z</time>
      </trkpt>
      <trkpt lat="62.63236138374" lon="18.005437752899">
        <ele>227.8</ele>
        <time>2018-03-24T10:46:24Z</time>
      </trkpt>
      <trkpt lat="62.632340093714" lon="18.005460216391">
        <ele>227.8</ele>
        <time>2018-03-24T10:46:25Z</time>
      </trkpt>
      <trkpt lat="62.632315450928" lon="18.005471029042">
        <ele>228</ele>
        <time>2018-03-24T10:46:26Z</time>
      </trkpt>
      <trkpt lat="62.632295082911" lon="18.00547538763">
        <ele>228.2</ele>
        <time>2018-03-24T10:46:27Z</time>
      </trkpt>
      <trkpt lat="62.632277983835" lon="18.005488882489">
        <ele>228.2</ele>
        <time>2018-03-24T10:46:28Z</time>
      </trkpt>
      <trkpt lat="62.632254430696" lon="18.005502042072">
        <ele>228.6</ele>
        <time>2018-03-24T10:46:29Z</time>
      </trkpt>
      <trkpt lat="62.632234733231" lon="18.005529534704">
        <ele>228.8</ele>
        <time>2018-03-24T10:46:30Z</time>
      </trkpt>
      <trkpt lat="62.63221553868" lon="18.005542359011">
        <ele>228.8</ele>
        <time>2018-03-24T10:46:31Z</time>
      </trkpt>
      <trkpt lat="62.632189890066" lon="18.00555166292">
        <ele>229</ele>
        <time>2018-03-24T10:46:32Z</time>
      </trkpt>
      <trkpt lat="62.632172539533" lon="18.005561385924">
        <ele>229</ele>
        <time>2018-03-24T10:46:33Z</time>
      </trkpt>
      <trkpt lat="62.632149740765" lon="18.005568259082">
        <ele>229.2</ele>
        <time>2018-03-24T10:46:34Z</time>
      </trkpt>
      <trkpt lat="62.63212669054" lon="18.005578652638">
        <ele>229.2</ele>
        <time>2018-03-24T10:46:35Z</time>
      </trkpt>
      <trkpt lat="62.632104813781" lon="18.005590806393">
        <ele>229.2</ele>
        <time>2018-03-24T10:46:36Z</time>
      </trkpt>
      <trkpt lat="62.632076734416" lon="18.005599104474">
        <ele>229.4</ele>
        <time>2018-03-24T10:46:37Z</time>
      </trkpt>
      <trkpt lat="62.632058294236" lon="18.005610252401">
        <ele>229.4</ele>
        <time>2018-03-24T10:46:38Z</time>
      </trkpt>
      <trkpt lat="62.632037339486" lon="18.00561117441">
        <ele>229.6</ele>
        <time>2018-03-24T10:46:39Z</time>
      </trkpt>
      <trkpt lat="62.632009008664" lon="18.005630620418">
        <ele>229.6</ele>
        <time>2018-03-24T10:46:40Z</time>
      </trkpt>
      <trkpt lat="62.631981935127" lon="18.005631039513">
        <ele>229.6</ele>
        <time>2018-03-24T10:46:41Z</time>
      </trkpt>
      <trkpt lat="62.63195569978" lon="18.00563967287">
        <ele>229.6</ele>
        <time>2018-03-24T10:46:42Z</time>
      </trkpt>
      <trkpt lat="62.631931727546" lon="18.005642941811">
        <ele>229.6</ele>
        <time>2018-03-24T10:46:43Z</time>
      </trkpt>
      <trkpt lat="62.631902307077" lon="18.005642019802">
        <ele>229.4</ele>
        <time>2018-03-24T10:46:44Z</time>
      </trkpt>
      <trkpt lat="62.631877161377" lon="18.00565056934">
        <ele>229.4</ele>
        <time>2018-03-24T10:46:45Z</time>
      </trkpt>
      <trkpt lat="62.631848746736" lon="18.005642019802">
        <ele>229.6</ele>
        <time>2018-03-24T10:46:46Z</time>
      </trkpt>
      <trkpt lat="62.631828378719" lon="18.005635230463">
        <ele>229.6</ele>
        <time>2018-03-24T10:46:47Z</time>
      </trkpt>
      <trkpt lat="62.631809184168" lon="18.005621735604">
        <ele>229.6</ele>
        <time>2018-03-24T10:46:48Z</time>
      </trkpt>
      <trkpt lat="62.631787894142" lon="18.005597008999">
        <ele>229.6</ele>
        <time>2018-03-24T10:46:49Z</time>
      </trkpt>
      <trkpt lat="62.631770962704" lon="18.005583765597">
        <ele>229.4</ele>
        <time>2018-03-24T10:46:50Z</time>
      </trkpt>
      <trkpt lat="62.631753444533" lon="18.005557194974">
        <ele>229.4</ele>
        <time>2018-03-24T10:46:51Z</time>
      </trkpt>
      <trkpt lat="62.631728885566" lon="18.005514195827">
        <ele>229.2</ele>
        <time>2018-03-24T10:46:52Z</time>
      </trkpt>
      <trkpt lat="62.631711367395" lon="18.005483685711">
        <ele>229.4</ele>
        <time>2018-03-24T10:46:53Z</time>
      </trkpt>
      <trkpt lat="62.631690496464" lon="18.005434819234">
        <ele>229.2</ele>
        <time>2018-03-24T10:46:54Z</time>
      </trkpt>
      <trkpt lat="62.631671385732" lon="18.0054024651">
        <ele>229.4</ele>
        <time>2018-03-24T10:46:55Z</time>
      </trkpt>
      <trkpt lat="62.631655376303" lon="18.00535385008">
        <ele>229.6</ele>
        <time>2018-03-24T10:46:56Z</time>
      </trkpt>
      <trkpt lat="62.631637941951" lon="18.005311353847">
        <ele>229.6</ele>
        <time>2018-03-24T10:46:57Z</time>
      </trkpt>
      <trkpt lat="62.631618244486" lon="18.00527003108">
        <ele>229.8</ele>
        <time>2018-03-24T10:46:58Z</time>
      </trkpt>
      <trkpt lat="62.631593517881" lon="18.005217644205">
        <ele>229.8</ele>
        <time>2018-03-24T10:46:59Z</time>
      </trkpt>
      <trkpt lat="62.631577005538" lon="18.005181685854">
        <ele>230</ele>
        <time>2018-03-24T10:47:00Z</time>
      </trkpt>
      <trkpt lat="62.631556637521" lon="18.005139524897">
        <ele>230</ele>
        <time>2018-03-24T10:47:01Z</time>
      </trkpt>
      <trkpt lat="62.631533922572" lon="18.005098788863">
        <ele>230.2</ele>
        <time>2018-03-24T10:47:02Z</time>
      </trkpt>
      <trkpt lat="62.631516739677" lon="18.005078504665">
        <ele>230.4</ele>
        <time>2018-03-24T10:47:03Z</time>
      </trkpt>
      <trkpt lat="62.631495365832" lon="18.00504623435">
        <ele>230.4</ele>
        <time>2018-03-24T10:47:04Z</time>
      </trkpt>
      <trkpt lat="62.631474243444" lon="18.005019663727">
        <ele>230.6</ele>
        <time>2018-03-24T10:47:05Z</time>
      </trkpt>
      <trkpt lat="62.631454881255" lon="18.00499259019">
        <ele>230.8</ele>
        <time>2018-03-24T10:47:06Z</time>
      </trkpt>
      <trkpt lat="62.631433926505" lon="18.004963169721">
        <ele>231</ele>
        <time>2018-03-24T10:47:07Z</time>
      </trkpt>
      <trkpt lat="62.631413307031" lon="18.004950596871">
        <ele>231.2</ele>
        <time>2018-03-24T10:47:08Z</time>
      </trkpt>
      <trkpt lat="62.631392100824" lon="18.004921679316">
        <ele>231.2</ele>
        <time>2018-03-24T10:47:09Z</time>
      </trkpt>
      <trkpt lat="62.631369637332" lon="18.004902820041">
        <ele>231.4</ele>
        <time>2018-03-24T10:47:10Z</time>
      </trkpt>
      <trkpt lat="62.631346754745" lon="18.004887984078">
        <ele>231.6</ele>
        <time>2018-03-24T10:47:11Z</time>
      </trkpt>
      <trkpt lat="62.631321357588" lon="18.004865772043">
        <ele>231.6</ele>
        <time>2018-03-24T10:47:12Z</time>
      </trkpt>
      <trkpt lat="62.631294284051" lon="18.004857976876">
        <ele>231.6</ele>
        <time>2018-03-24T10:47:13Z</time>
      </trkpt>
      <trkpt lat="62.631273664577" lon="18.004838530868">
        <ele>231.6</ele>
        <time>2018-03-24T10:47:14Z</time>
      </trkpt>
      <trkpt lat="62.631247093954" lon="18.004826796208">
        <ele>231.8</ele>
        <time>2018-03-24T10:47:15Z</time>
      </trkpt>
      <trkpt lat="62.631225301014" lon="18.004819168679">
        <ele>231.8</ele>
        <time>2018-03-24T10:47:16Z</time>
      </trkpt>
      <trkpt lat="62.631205435911" lon="18.004799890309">
        <ele>232</ele>
        <time>2018-03-24T10:47:17Z</time>
      </trkpt>
      <trkpt lat="62.631185235532" lon="18.004779270835">
        <ele>232.2</ele>
        <time>2018-03-24T10:47:18Z</time>
      </trkpt>
      <trkpt lat="62.631166292438" lon="18.004762842311">
        <ele>232.4</ele>
        <time>2018-03-24T10:47:19Z</time>
      </trkpt>
      <trkpt lat="62.631145253869" lon="18.004739875905">
        <ele>232.4</ele>
        <time>2018-03-24T10:47:20Z</time>
      </trkpt>
      <trkpt lat="62.631124466757" lon="18.004727805969">
        <ele>232.4</ele>
        <time>2018-03-24T10:47:21Z</time>
      </trkpt>
      <trkpt lat="62.631106864767" lon="18.004704755744">
        <ele>232.6</ele>
        <time>2018-03-24T10:47:22Z</time>
      </trkpt>
      <trkpt lat="62.631085239465" lon="18.004686986116">
        <ele>232.6</ele>
        <time>2018-03-24T10:47:23Z</time>
      </trkpt>
      <trkpt lat="62.631069230036" lon="18.004666953375">
        <ele>232.6</ele>
        <time>2018-03-24T10:47:24Z</time>
      </trkpt>
      <trkpt lat="62.631050957494" lon="18.004642813503">
        <ele>232.8</ele>
        <time>2018-03-24T10:47:25Z</time>
      </trkpt>
      <trkpt lat="62.631035031884" lon="18.004627055531">
        <ele>232.8</ele>
        <time>2018-03-24T10:47:26Z</time>
      </trkpt>
      <trkpt lat="62.63102027974" lon="18.004600987822">
        <ele>232.8</ele>
        <time>2018-03-24T10:47:27Z</time>
      </trkpt>
      <trkpt lat="62.63100351594" lon="18.004573579009">
        <ele>233</ele>
        <time>2018-03-24T10:47:28Z</time>
      </trkpt>
      <trkpt lat="62.630984908122" lon="18.004550277327">
        <ele>233</ele>
        <time>2018-03-24T10:47:29Z</time>
      </trkpt>
      <trkpt lat="62.630961019707" lon="18.004524377256">
        <ele>233</ele>
        <time>2018-03-24T10:47:30Z</time>
      </trkpt>
      <trkpt lat="62.630942244251" lon="18.004508535465">
        <ele>233.2</ele>
        <time>2018-03-24T10:47:31Z</time>
      </trkpt>
      <trkpt lat="62.630919613121" lon="18.004475007865">
        <ele>233.2</ele>
        <time>2018-03-24T10:47:32Z</time>
      </trkpt>
      <trkpt lat="62.630900837665" lon="18.004450197441">
        <ele>233.4</ele>
        <time>2018-03-24T10:47:33Z</time>
      </trkpt>
      <trkpt lat="62.630878960906" lon="18.004420860791">
        <ele>233.6</ele>
        <time>2018-03-24T10:47:34Z</time>
      </trkpt>
      <trkpt lat="62.630860688364" lon="18.004372748685">
        <ele>233.6</ele>
        <time>2018-03-24T10:47:35Z</time>
      </trkpt>
      <trkpt lat="62.63084258346" lon="18.004325977683">
        <ele>233.8</ele>
        <time>2018-03-24T10:47:36Z</time>
      </trkpt>
      <trkpt lat="62.63083001061" lon="18.004291360436">
        <ele>233.8</ele>
        <time>2018-03-24T10:47:37Z</time>
      </trkpt>
      <trkpt lat="62.630819365597" lon="18.00425498299">
        <ele>233.8</ele>
        <time>2018-03-24T10:47:38Z</time>
      </trkpt>
      <trkpt lat="62.630809474955" lon="18.004216090974">
        <ele>234.2</ele>
        <time>2018-03-24T10:47:39Z</time>
      </trkpt>
      <trkpt lat="62.630799751951" lon="18.004175941673">
        <ele>234.4</ele>
        <time>2018-03-24T10:47:40Z</time>
      </trkpt>
      <trkpt lat="62.630789609852" lon="18.004143922815">
        <ele>234.6</ele>
        <time>2018-03-24T10:47:41Z</time>
      </trkpt>
      <trkpt lat="62.630781982323" lon="18.00411081431">
        <ele>234.8</ele>
        <time>2018-03-24T10:47:42Z</time>
      </trkpt>
      <trkpt lat="62.630777623735" lon="18.004084159868">
        <ele>235</ele>
        <time>2018-03-24T10:47:43Z</time>
      </trkpt>
      <trkpt lat="62.630771756405" lon="18.004034790477">
        <ele>235</ele>
        <time>2018-03-24T10:47:44Z</time>
      </trkpt>
      <trkpt lat="62.630768738921" lon="18.003999670316">
        <ele>235</ele>
        <time>2018-03-24T10:47:45Z</time>
      </trkpt>
      <trkpt lat="62.630761362849" lon="18.003956168255">
        <ele>235</ele>
        <time>2018-03-24T10:47:46Z</time>
      </trkpt>
      <trkpt lat="62.630755830795" lon="18.00391216328">
        <ele>235.2</ele>
        <time>2018-03-24T10:47:47Z</time>
      </trkpt>
      <trkpt lat="62.630754154415" lon="18.003864721726">
        <ele>235.2</ele>
        <time>2018-03-24T10:47:48Z</time>
      </trkpt>
      <trkpt lat="62.630758680641" lon="18.003810658471">
        <ele>235.4</ele>
        <time>2018-03-24T10:47:49Z</time>
      </trkpt>
      <trkpt lat="62.63076295541" lon="18.003763133098">
        <ele>235.4</ele>
        <time>2018-03-24T10:47:50Z</time>
      </trkpt>
      <trkpt lat="62.630766056713" lon="18.003712254965">
        <ele>235.6</ele>
        <time>2018-03-24T10:47:51Z</time>
      </trkpt>
      <trkpt lat="62.630773768061" lon="18.003665903058">
        <ele>236</ele>
        <time>2018-03-24T10:47:52Z</time>
      </trkpt>
      <trkpt lat="62.630774606251" lon="18.003620640798">
        <ele>236.2</ele>
        <time>2018-03-24T10:47:53Z</time>
      </trkpt>
      <trkpt lat="62.630774941527" lon="18.003567080457">
        <ele>236.4</ele>
        <time>2018-03-24T10:47:54Z</time>
      </trkpt>
      <trkpt lat="62.630779300115" lon="18.003509915899">
        <ele>236.6</ele>
        <time>2018-03-24T10:47:55Z</time>
      </trkpt>
      <trkpt lat="62.630781982323" lon="18.003465072734">
        <ele>236.8</ele>
        <time>2018-03-24T10:47:56Z</time>
      </trkpt>
      <trkpt lat="62.630787179101" lon="18.003416122438">
        <ele>236.8</ele>
        <time>2018-03-24T10:47:57Z</time>
      </trkpt>
      <trkpt lat="62.630789526033" lon="18.003370776359">
        <ele>236.8</ele>
        <time>2018-03-24T10:47:58Z</time>
      </trkpt>
      <trkpt lat="62.630799751951" lon="18.003315372">
        <ele>237</ele>
        <time>2018-03-24T10:47:59Z</time>
      </trkpt>
      <trkpt lat="62.630805954557" lon="18.003263823315">
        <ele>237</ele>
        <time>2018-03-24T10:48:00Z</time>
      </trkpt>
      <trkpt lat="62.630807882394" lon="18.003218309598">
        <ele>237</ele>
        <time>2018-03-24T10:48:01Z</time>
      </trkpt>
      <trkpt lat="62.630809139679" lon="18.00316533599">
        <ele>237.2</ele>
        <time>2018-03-24T10:48:02Z</time>
      </trkpt>
      <trkpt lat="62.630803775263" lon="18.00311923554">
        <ele>237.2</ele>
        <time>2018-03-24T10:48:03Z</time>
      </trkpt>
      <trkpt lat="62.630799249037" lon="18.003066848665">
        <ele>237.4</ele>
        <time>2018-03-24T10:48:04Z</time>
      </trkpt>
      <trkpt lat="62.630797656476" lon="18.003012198677">
        <ele>237.6</ele>
        <time>2018-03-24T10:48:05Z</time>
      </trkpt>
      <trkpt lat="62.630792459698" lon="18.002965260037">
        <ele>237.8</ele>
        <time>2018-03-24T10:48:06Z</time>
      </trkpt>
      <trkpt lat="62.630790531861" lon="18.002909436583">
        <ele>238</ele>
        <time>2018-03-24T10:48:07Z</time>
      </trkpt>
      <trkpt lat="62.630779216296" lon="18.002865431608">
        <ele>238.2</ele>
        <time>2018-03-24T10:48:08Z</time>
      </trkpt>
      <trkpt lat="62.630776953183" lon="18.002811703629">
        <ele>238.2</ele>
        <time>2018-03-24T10:48:09Z</time>
      </trkpt>
      <trkpt lat="62.630776031174" lon="18.002753365605">
        <ele>238.4</ele>
        <time>2018-03-24T10:48:10Z</time>
      </trkpt>
      <trkpt lat="62.630776953183" lon="18.002701146368">
        <ele>238.4</ele>
        <time>2018-03-24T10:48:11Z</time>
      </trkpt>
      <trkpt lat="62.630772594595" lon="18.002641299602">
        <ele>238.8</ele>
        <time>2018-03-24T10:48:12Z</time>
      </trkpt>
      <trkpt lat="62.630769912387" lon="18.002598468093">
        <ele>238.8</ele>
        <time>2018-03-24T10:48:13Z</time>
      </trkpt>
      <trkpt lat="62.630763709781" lon="18.002543901924">
        <ele>239.2</ele>
        <time>2018-03-24T10:48:14Z</time>
      </trkpt>
      <trkpt lat="62.630759937926" lon="18.002501908605">
        <ele>239.4</ele>
        <time>2018-03-24T10:48:15Z</time>
      </trkpt>
      <trkpt lat="62.630757674813" lon="18.002455472879">
        <ele>239.6</ele>
        <time>2018-03-24T10:48:16Z</time>
      </trkpt>
      <trkpt lat="62.630750047284" lon="18.002400822891">
        <ele>239.6</ele>
        <time>2018-03-24T10:48:17Z</time>
      </trkpt>
      <trkpt lat="62.63075122075" lon="18.002362098513">
        <ele>239.6</ele>
        <time>2018-03-24T10:48:18Z</time>
      </trkpt>
      <trkpt lat="62.630748873818" lon="18.002310214552">
        <ele>239.4</ele>
        <time>2018-03-24T10:48:19Z</time>
      </trkpt>
      <trkpt lat="62.63074200066" lon="18.002266377215">
        <ele>239.6</ele>
        <time>2018-03-24T10:48:20Z</time>
      </trkpt>
      <trkpt lat="62.630738983176" lon="18.002223461887">
        <ele>239.6</ele>
        <time>2018-03-24T10:48:21Z</time>
      </trkpt>
      <trkpt lat="62.630736720063" lon="18.002169985365">
        <ele>239.8</ele>
        <time>2018-03-24T10:48:22Z</time>
      </trkpt>
      <trkpt lat="62.63073194238" lon="18.002124555467">
        <ele>239.8</ele>
        <time>2018-03-24T10:48:23Z</time>
      </trkpt>
      <trkpt lat="62.63072691324" lon="18.002061355941">
        <ele>240</ele>
        <time>2018-03-24T10:48:24Z</time>
      </trkpt>
      <trkpt lat="62.630725572136" lon="18.002011651274">
        <ele>240</ele>
        <time>2018-03-24T10:48:25Z</time>
      </trkpt>
      <trkpt lat="62.630723057566" lon="18.00194409316">
        <ele>240</ele>
        <time>2018-03-24T10:48:26Z</time>
      </trkpt>
      <trkpt lat="62.630716771141" lon="18.001900004366">
        <ele>240.2</ele>
        <time>2018-03-24T10:48:27Z</time>
      </trkpt>
      <trkpt lat="62.630711993458" lon="18.001844600007">
        <ele>240.2</ele>
        <time>2018-03-24T10:48:28Z</time>
      </trkpt>
      <trkpt lat="62.630703695377" lon="18.001792296951">
        <ele>240.4</ele>
        <time>2018-03-24T10:48:29Z</time>
      </trkpt>
      <trkpt lat="62.630702270454" lon="18.001737227868">
        <ele>240.4</ele>
        <time>2018-03-24T10:48:30Z</time>
      </trkpt>
      <trkpt lat="62.630706629042" lon="18.001684505717">
        <ele>240.2</ele>
        <time>2018-03-24T10:48:31Z</time>
      </trkpt>
      <trkpt lat="62.630709562707" lon="18.001628263168">
        <ele>240.2</ele>
        <time>2018-03-24T10:48:32Z</time>
      </trkpt>
      <trkpt lat="62.630709227431" lon="18.001576463026">
        <ele>240.4</ele>
        <time>2018-03-24T10:48:33Z</time>
      </trkpt>
      <trkpt lat="62.630708975974" lon="18.001523740875">
        <ele>240.2</ele>
        <time>2018-03-24T10:48:34Z</time>
      </trkpt>
      <trkpt lat="62.630711322906" lon="18.001464145566">
        <ele>240.2</ele>
        <time>2018-03-24T10:48:35Z</time>
      </trkpt>
      <trkpt lat="62.63071014944" lon="18.001418967125">
        <ele>240.4</ele>
        <time>2018-03-24T10:48:36Z</time>
      </trkpt>
      <trkpt lat="62.630702438092" lon="18.00136574206">
        <ele>240.4</ele>
        <time>2018-03-24T10:48:37Z</time>
      </trkpt>
      <trkpt lat="62.630687937405" lon="18.001325928035">
        <ele>240.6</ele>
        <time>2018-03-24T10:48:38Z</time>
      </trkpt>
      <trkpt lat="62.630678633496" lon="18.001282677431">
        <ele>240.6</ele>
        <time>2018-03-24T10:48:39Z</time>
      </trkpt>
      <trkpt lat="62.630671257424" lon="18.001231883117">
        <ele>240.8</ele>
        <time>2018-03-24T10:48:40Z</time>
      </trkpt>
      <trkpt lat="62.630665390094" lon="18.001189805979">
        <ele>241</ele>
        <time>2018-03-24T10:48:41Z</time>
      </trkpt>
      <trkpt lat="62.630655499452" lon="18.001133144335">
        <ele>241</ele>
        <time>2018-03-24T10:48:42Z</time>
      </trkpt>
      <trkpt lat="62.630648877751" lon="18.001090564283">
        <ele>241.2</ele>
        <time>2018-03-24T10:48:43Z</time>
      </trkpt>
      <trkpt lat="62.630636723996" lon="18.001032058621">
        <ele>241</ele>
        <time>2018-03-24T10:48:44Z</time>
      </trkpt>
      <trkpt lat="62.630635047616" lon="18.000982521592">
        <ele>241.2</ele>
        <time>2018-03-24T10:48:45Z</time>
      </trkpt>
      <trkpt lat="62.630631778675" lon="18.00093155964">
        <ele>241.2</ele>
        <time>2018-03-24T10:48:46Z</time>
      </trkpt>
      <trkpt lat="62.630623899689" lon="18.000876155281">
        <ele>241.2</ele>
        <time>2018-03-24T10:48:47Z</time>
      </trkpt>
      <trkpt lat="62.630617026531" lon="18.000843633509">
        <ele>241.2</ele>
        <time>2018-03-24T10:48:48Z</time>
      </trkpt>
      <trkpt lat="62.630605124233" lon="18.000788145331">
        <ele>241.4</ele>
        <time>2018-03-24T10:48:49Z</time>
      </trkpt>
      <trkpt lat="62.630596574695" lon="18.000749588591">
        <ele>241.4</ele>
        <time>2018-03-24T10:48:50Z</time>
      </trkpt>
      <trkpt lat="62.630588108976" lon="18.000698878096">
        <ele>241.4</ele>
        <time>2018-03-24T10:48:51Z</time>
      </trkpt>
      <trkpt lat="62.63057352447" lon="18.000648921972">
        <ele>241.4</ele>
        <time>2018-03-24T10:48:52Z</time>
      </trkpt>
      <trkpt lat="62.630562795638" lon="18.000615897286">
        <ele>241.6</ele>
        <time>2018-03-24T10:48:53Z</time>
      </trkpt>
      <trkpt lat="62.630552988815" lon="18.00057113794">
        <ele>241.6</ele>
        <time>2018-03-24T10:48:54Z</time>
      </trkpt>
      <trkpt lat="62.630545445105" lon="18.00053174301">
        <ele>241.6</ele>
        <time>2018-03-24T10:48:55Z</time>
      </trkpt>
      <trkpt lat="62.630540918879" lon="18.000481619248">
        <ele>241.4</ele>
        <time>2018-03-24T10:48:56Z</time>
      </trkpt>
      <trkpt lat="62.630527759296" lon="18.000435854074">
        <ele>241.4</ele>
        <time>2018-03-24T10:48:57Z</time>
      </trkpt>
      <trkpt lat="62.630514934989" lon="18.000393609298">
        <ele>241.6</ele>
        <time>2018-03-24T10:48:58Z</time>
      </trkpt>
      <trkpt lat="62.630501943044" lon="18.00033895931">
        <ele>242</ele>
        <time>2018-03-24T10:48:59Z</time>
      </trkpt>
      <trkpt lat="62.630484173416" lon="18.000297636543">
        <ele>242.2</ele>
        <time>2018-03-24T10:49:00Z</time>
      </trkpt>
      <trkpt lat="62.630475372421" lon="18.000244579116">
        <ele>242.8</ele>
        <time>2018-03-24T10:49:01Z</time>
      </trkpt>
      <trkpt lat="62.630458189526" lon="18.000198813942">
        <ele>243</ele>
        <time>2018-03-24T10:49:02Z</time>
      </trkpt>
      <trkpt lat="62.630446873961" lon="18.000151372388">
        <ele>243</ele>
        <time>2018-03-24T10:49:03Z</time>
      </trkpt>
      <trkpt lat="62.630429104333" lon="18.000102086816">
        <ele>243</ele>
        <time>2018-03-24T10:49:04Z</time>
      </trkpt>
      <trkpt lat="62.630415777112" lon="18.000060596411">
        <ele>243</ele>
        <time>2018-03-24T10:49:05Z</time>
      </trkpt>
      <trkpt lat="62.630403874814" lon="18.00001122702">
        <ele>242.8</ele>
        <time>2018-03-24T10:49:06Z</time>
      </trkpt>
      <trkpt lat="62.630389206489" lon="17.99996764114">
        <ele>242.8</ele>
        <time>2018-03-24T10:49:07Z</time>
      </trkpt>
      <trkpt lat="62.630379567304" lon="17.999921959785">
        <ele>242.8</ele>
        <time>2018-03-24T10:49:08Z</time>
      </trkpt>
      <trkpt lat="62.630362384409" lon="17.999877284258">
        <ele>242.8</ele>
        <time>2018-03-24T10:49:09Z</time>
      </trkpt>
      <trkpt lat="62.63034888955" lon="17.999842499373">
        <ele>242.8</ele>
        <time>2018-03-24T10:49:10Z</time>
      </trkpt>
      <trkpt lat="62.6303363167" lon="17.999791872697">
        <ele>243</ele>
        <time>2018-03-24T10:49:11Z</time>
      </trkpt>
      <trkpt lat="62.63032122928" lon="17.999756333441">
        <ele>243.2</ele>
        <time>2018-03-24T10:49:12Z</time>
      </trkpt>
      <trkpt lat="62.630309578439" lon="17.999710065353">
        <ele>243.4</ele>
        <time>2018-03-24T10:49:13Z</time>
      </trkpt>
      <trkpt lat="62.630293066096" lon="17.999668323491">
        <ele>243.4</ele>
        <time>2018-03-24T10:49:14Z</time>
      </trkpt>
      <trkpt lat="62.630283007816" lon="17.999621133394">
        <ele>243.6</ele>
        <time>2018-03-24T10:49:15Z</time>
      </trkpt>
      <trkpt lat="62.630271189337" lon="17.999567992148">
        <ele>243.6</ele>
        <time>2018-03-24T10:49:16Z</time>
      </trkpt>
      <trkpt lat="62.630253587347" lon="17.999522143155">
        <ele>243.6</ele>
        <time>2018-03-24T10:49:17Z</time>
      </trkpt>
      <trkpt lat="62.630243026153" lon="17.999469421004">
        <ele>243.8</ele>
        <time>2018-03-24T10:49:18Z</time>
      </trkpt>
      <trkpt lat="62.630227603457" lon="17.999414603378">
        <ele>243.8</ele>
        <time>2018-03-24T10:49:19Z</time>
      </trkpt>
      <trkpt lat="62.630218802462" lon="17.999367664738">
        <ele>244</ele>
        <time>2018-03-24T10:49:20Z</time>
      </trkpt>
      <trkpt lat="62.630214360055" lon="17.999312428017">
        <ele>244</ele>
        <time>2018-03-24T10:49:21Z</time>
      </trkpt>
      <trkpt lat="62.630206481069" lon="17.999263142445">
        <ele>244</ele>
        <time>2018-03-24T10:49:22Z</time>
      </trkpt>
      <trkpt lat="62.63019885354" lon="17.999207486629">
        <ele>244.2</ele>
        <time>2018-03-24T10:49:23Z</time>
      </trkpt>
      <trkpt lat="62.630192818572" lon="17.999145963483">
        <ele>244.2</ele>
        <time>2018-03-24T10:49:24Z</time>
      </trkpt>
      <trkpt lat="62.630183179387" lon="17.999101874689">
        <ele>244.4</ele>
        <time>2018-03-24T10:49:25Z</time>
      </trkpt>
      <trkpt lat="62.63017873698" lon="17.999042866113">
        <ele>244.6</ele>
        <time>2018-03-24T10:49:26Z</time>
      </trkpt>
      <trkpt lat="62.630170187442" lon="17.998990479238">
        <ele>244.8</ele>
        <time>2018-03-24T10:49:27Z</time>
      </trkpt>
      <trkpt lat="62.630164990664" lon="17.998932141214">
        <ele>244.8</ele>
        <time>2018-03-24T10:49:28Z</time>
      </trkpt>
      <trkpt lat="62.630156441126" lon="17.998865756566">
        <ele>245</ele>
        <time>2018-03-24T10:49:29Z</time>
      </trkpt>
      <trkpt lat="62.630154010375" lon="17.998810352207">
        <ele>245</ele>
        <time>2018-03-24T10:49:30Z</time>
      </trkpt>
      <trkpt lat="62.630154178013" lon="17.998750253984">
        <ele>245</ele>
        <time>2018-03-24T10:49:31Z</time>
      </trkpt>
      <trkpt lat="62.630149484149" lon="17.99868688682">
        <ele>245</ele>
        <time>2018-03-24T10:49:32Z</time>
      </trkpt>
      <trkpt lat="62.63014856214" lon="17.998631147185">
        <ele>245</ele>
        <time>2018-03-24T10:49:33Z</time>
      </trkpt>
      <trkpt lat="62.630145963751" lon="17.998568282935">
        <ele>245</ele>
        <time>2018-03-24T10:49:34Z</time>
      </trkpt>
      <trkpt lat="62.63014688576" lon="17.998510447825">
        <ele>245.2</ele>
        <time>2018-03-24T10:49:35Z</time>
      </trkpt>
      <trkpt lat="62.630147807769" lon="17.998438950218">
        <ele>245.2</ele>
        <time>2018-03-24T10:49:36Z</time>
      </trkpt>
      <trkpt lat="62.630146550484" lon="17.998378516719">
        <ele>245.2</ele>
        <time>2018-03-24T10:49:37Z</time>
      </trkpt>
      <trkpt lat="62.630153842737" lon="17.998311042424">
        <ele>245.2</ele>
        <time>2018-03-24T10:49:38Z</time>
      </trkpt>
      <trkpt lat="62.630157195497" lon="17.998239209541">
        <ele>245.2</ele>
        <time>2018-03-24T10:49:39Z</time>
      </trkpt>
      <trkpt lat="62.630164236293" lon="17.998181542069">
        <ele>245.2</ele>
        <time>2018-03-24T10:49:40Z</time>
      </trkpt>
      <trkpt lat="62.630172534374" lon="17.99809763925">
        <ele>245</ele>
        <time>2018-03-24T10:49:41Z</time>
      </trkpt>
      <trkpt lat="62.63017789879" lon="17.998032176611">
        <ele>245</ele>
        <time>2018-03-24T10:49:42Z</time>
      </trkpt>
      <trkpt lat="62.630174881306" lon="17.997971743112">
        <ele>245</ele>
        <time>2018-03-24T10:49:43Z</time>
      </trkpt>
      <trkpt lat="62.63018460431" lon="17.997914243278">
        <ele>245</ele>
        <time>2018-03-24T10:49:44Z</time>
      </trkpt>
      <trkpt lat="62.630187035061" lon="17.997863365145">
        <ele>245</ele>
        <time>2018-03-24T10:49:45Z</time>
      </trkpt>
      <trkpt lat="62.630198685902" lon="17.997805027121">
        <ele>245</ele>
        <time>2018-03-24T10:49:46Z</time>
      </trkpt>
      <trkpt lat="62.630202373938" lon="17.997726488718">
        <ele>245.2</ele>
        <time>2018-03-24T10:49:47Z</time>
      </trkpt>
      <trkpt lat="62.630217545177" lon="17.997671503454">
        <ele>245.2</ele>
        <time>2018-03-24T10:49:48Z</time>
      </trkpt>
      <trkpt lat="62.630230201846" lon="17.997600089666">
        <ele>245.4</ele>
        <time>2018-03-24T10:49:49Z</time>
      </trkpt>
      <trkpt lat="62.630245037809" lon="17.997537225416">
        <ele>245.6</ele>
        <time>2018-03-24T10:49:50Z</time>
      </trkpt>
      <trkpt lat="62.630265992559" lon="17.997472684786">
        <ele>245.6</ele>
        <time>2018-03-24T10:49:51Z</time>
      </trkpt>
      <trkpt lat="62.630283175454" lon="17.997409066165">
        <ele>245.8</ele>
        <time>2018-03-24T10:49:52Z</time>
      </trkpt>
      <trkpt lat="62.630301447996" lon="17.997342681517">
        <ele>245.8</ele>
        <time>2018-03-24T10:49:53Z</time>
      </trkpt>
      <trkpt lat="62.630326593696" lon="17.997275291041">
        <ele>245.8</ele>
        <time>2018-03-24T10:49:54Z</time>
      </trkpt>
      <trkpt lat="62.630352409948" lon="17.997225334917">
        <ele>245.8</ele>
        <time>2018-03-24T10:49:55Z</time>
      </trkpt>
      <trkpt lat="62.630378310019" lon="17.997166996893">
        <ele>245.8</ele>
        <time>2018-03-24T10:49:56Z</time>
      </trkpt>
      <trkpt lat="62.630390631412" lon="17.997118130416">
        <ele>245.8</ele>
        <time>2018-03-24T10:49:57Z</time>
      </trkpt>
      <trkpt lat="62.630399013312" lon="17.997059373297">
        <ele>245.8</ele>
        <time>2018-03-24T10:49:58Z</time>
      </trkpt>
      <trkpt lat="62.630408987773" lon="17.996984271473">
        <ele>245.6</ele>
        <time>2018-03-24T10:49:59Z</time>
      </trkpt>
      <trkpt lat="62.630424242831" lon="17.996923167422">
        <ele>245.6</ele>
        <time>2018-03-24T10:50:00Z</time>
      </trkpt>
      <trkpt lat="62.630441509545" lon="17.996865835226">
        <ele>245.6</ele>
        <time>2018-03-24T10:50:01Z</time>
      </trkpt>
      <trkpt lat="62.630465984693" lon="17.996810766143">
        <ele>245.6</ele>
        <time>2018-03-24T10:50:02Z</time>
      </trkpt>
      <trkpt lat="62.630484592511" lon="17.996758295449">
        <ele>245.6</ele>
        <time>2018-03-24T10:50:03Z</time>
      </trkpt>
      <trkpt lat="62.630506636908" lon="17.996700627977">
        <ele>245.6</ele>
        <time>2018-03-24T10:50:04Z</time>
      </trkpt>
      <trkpt lat="62.630520550862" lon="17.996649414568">
        <ele>245.6</ele>
        <time>2018-03-24T10:50:05Z</time>
      </trkpt>
      <trkpt lat="62.630536057377" lon="17.996601218643">
        <ele>245.6</ele>
        <time>2018-03-24T10:50:06Z</time>
      </trkpt>
      <trkpt lat="62.630557095946" lon="17.996552184528">
        <ele>245.8</ele>
        <time>2018-03-24T10:50:07Z</time>
      </trkpt>
      <trkpt lat="62.630574446479" lon="17.996503988603">
        <ele>246</ele>
        <time>2018-03-24T10:50:08Z</time>
      </trkpt>
      <trkpt lat="62.630593389573" lon="17.996438609783">
        <ele>246.2</ele>
        <time>2018-03-24T10:50:09Z</time>
      </trkpt>
      <trkpt lat="62.630609399002" lon="17.996364094692">
        <ele>246.4</ele>
        <time>2018-03-24T10:50:10Z</time>
      </trkpt>
      <trkpt lat="62.630627420087" lon="17.996298464415">
        <ele>246.4</ele>
        <time>2018-03-24T10:50:11Z</time>
      </trkpt>
      <trkpt lat="62.630645944086" lon="17.99624021021">
        <ele>246.4</ele>
        <time>2018-03-24T10:50:12Z</time>
      </trkpt>
      <trkpt lat="62.630656840556" lon="17.996181369272">
        <ele>246.4</ele>
        <time>2018-03-24T10:50:13Z</time>
      </trkpt>
      <trkpt lat="62.630684584645" lon="17.996120265221">
        <ele>246.2</ele>
        <time>2018-03-24T10:50:14Z</time>
      </trkpt>
      <trkpt lat="62.630700007341" lon="17.996064357948">
        <ele>246.2</ele>
        <time>2018-03-24T10:50:15Z</time>
      </trkpt>
      <trkpt lat="62.630718866616" lon="17.996011719616">
        <ele>246.2</ele>
        <time>2018-03-24T10:50:16Z</time>
      </trkpt>
      <trkpt lat="62.630741916841" lon="17.995952543402">
        <ele>246.2</ele>
        <time>2018-03-24T10:50:17Z</time>
      </trkpt>
      <trkpt lat="62.630769493292" lon="17.995912813196">
        <ele>246.2</ele>
        <time>2018-03-24T10:50:18Z</time>
      </trkpt>
      <trkpt lat="62.630800925417" lon="17.995862940891">
        <ele>246.2</ele>
        <time>2018-03-24T10:50:19Z</time>
      </trkpt>
      <trkpt lat="62.630829088601" lon="17.995832766051">
        <ele>246</ele>
        <time>2018-03-24T10:50:20Z</time>
      </trkpt>
      <trkpt lat="62.630855826862" lon="17.995794796044">
        <ele>246</ele>
        <time>2018-03-24T10:50:21Z</time>
      </trkpt>
      <trkpt lat="62.63088449296" lon="17.99575573639">
        <ele>246</ele>
        <time>2018-03-24T10:50:22Z</time>
      </trkpt>
      <trkpt lat="62.630920870406" lon="17.99572053241">
        <ele>246</ele>
        <time>2018-03-24T10:50:23Z</time>
      </trkpt>
      <trkpt lat="62.630958840413" lon="17.99568951938">
        <ele>246.2</ele>
        <time>2018-03-24T10:50:24Z</time>
      </trkpt>
      <trkpt lat="62.630992368013" lon="17.995654818314">
        <ele>246.2</ele>
        <time>2018-03-24T10:50:25Z</time>
      </trkpt>
      <trkpt lat="62.631023297224" lon="17.995622715637">
        <ele>246.4</ele>
        <time>2018-03-24T10:50:26Z</time>
      </trkpt>
      <trkpt lat="62.63104710182" lon="17.995595474462">
        <ele>246.4</ele>
        <time>2018-03-24T10:50:27Z</time>
      </trkpt>
      <trkpt lat="62.631067805113" lon="17.995568317106">
        <ele>246.4</ele>
        <time>2018-03-24T10:50:28Z</time>
      </trkpt>
      <trkpt lat="62.631104517835" lon="17.995535543877">
        <ele>246.4</ele>
        <time>2018-03-24T10:50:29Z</time>
      </trkpt>
      <trkpt lat="62.631129579716" lon="17.995497070956">
        <ele>246.4</ele>
        <time>2018-03-24T10:50:30Z</time>
      </trkpt>
      <trkpt lat="62.631152881398" lon="17.995462453709">
        <ele>246.6</ele>
        <time>2018-03-24T10:50:31Z</time>
      </trkpt>
      <trkpt lat="62.631176769813" lon="17.995419789838">
        <ele>246.6</ele>
        <time>2018-03-24T10:50:32Z</time>
      </trkpt>
      <trkpt lat="62.6311996524" lon="17.995376203958">
        <ele>246.6</ele>
        <time>2018-03-24T10:50:33Z</time>
      </trkpt>
      <trkpt lat="62.631227396489" lon="17.995322056884">
        <ele>246.8</ele>
        <time>2018-03-24T10:50:34Z</time>
      </trkpt>
      <trkpt lat="62.631250949628" lon="17.995279225375">
        <ele>246.8</ele>
        <time>2018-03-24T10:50:35Z</time>
      </trkpt>
      <trkpt lat="62.631269976541" lon="17.995223234283">
        <ele>246.8</ele>
        <time>2018-03-24T10:50:36Z</time>
      </trkpt>
      <trkpt lat="62.63129017692" lon="17.995174619263">
        <ele>246.8</ele>
        <time>2018-03-24T10:50:37Z</time>
      </trkpt>
      <trkpt lat="62.631311466946" lon="17.99512457932">
        <ele>247</ele>
        <time>2018-03-24T10:50:38Z</time>
      </trkpt>
      <trkpt lat="62.631329907126" lon="17.995073701187">
        <ele>247</ele>
        <time>2018-03-24T10:50:39Z</time>
      </trkpt>
      <trkpt lat="62.631349101677" lon="17.995016368991">
        <ele>247</ele>
        <time>2018-03-24T10:50:40Z</time>
      </trkpt>
      <trkpt lat="62.631374917929" lon="17.994967921609">
        <ele>247</ele>
        <time>2018-03-24T10:50:41Z</time>
      </trkpt>
      <trkpt lat="62.63139578886" lon="17.994911846698">
        <ele>247</ele>
        <time>2018-03-24T10:50:42Z</time>
      </trkpt>
      <trkpt lat="62.631411882108" lon="17.994848647172">
        <ele>247.4</ele>
        <time>2018-03-24T10:50:43Z</time>
      </trkpt>
      <trkpt lat="62.631426885709" lon="17.994765666362">
        <ele>247.4</ele>
        <time>2018-03-24T10:50:44Z</time>
      </trkpt>
      <trkpt lat="62.631434932333" lon="17.994689139615">
        <ele>247.4</ele>
        <time>2018-03-24T10:50:45Z</time>
      </trkpt>
      <trkpt lat="62.631444739156" lon="17.994611439402">
        <ele>247.2</ele>
        <time>2018-03-24T10:50:46Z</time>
      </trkpt>
      <trkpt lat="62.631449181563" lon="17.994523094176">
        <ele>247.2</ele>
        <time>2018-03-24T10:50:47Z</time>
      </trkpt>
      <trkpt lat="62.631454881255" lon="17.994451428931">
        <ele>247</ele>
        <time>2018-03-24T10:50:48Z</time>
      </trkpt>
      <trkpt lat="62.631451863771" lon="17.994362161696">
        <ele>246.8</ele>
        <time>2018-03-24T10:50:49Z</time>
      </trkpt>
      <trkpt lat="62.631457144368" lon="17.994276666316">
        <ele>246.8</ele>
        <time>2018-03-24T10:50:50Z</time>
      </trkpt>
      <trkpt lat="62.631450438848" lon="17.99421514317">
        <ele>246.8</ele>
        <time>2018-03-24T10:50:51Z</time>
      </trkpt>
      <trkpt lat="62.631442978957" lon="17.994141885364">
        <ele>246.8</ele>
        <time>2018-03-24T10:50:52Z</time>
      </trkpt>
      <trkpt lat="62.631434764695" lon="17.994072986146">
        <ele>246.6</ele>
        <time>2018-03-24T10:50:53Z</time>
      </trkpt>
      <trkpt lat="62.631424957872" lon="17.993995118295">
        <ele>246.4</ele>
        <time>2018-03-24T10:50:54Z</time>
      </trkpt>
      <trkpt lat="62.631416408334" lon="17.993923117774">
        <ele>246.2</ele>
        <time>2018-03-24T10:50:55Z</time>
      </trkpt>
      <trkpt lat="62.631404086941" lon="17.993856565488">
        <ele>245.8</ele>
        <time>2018-03-24T10:50:56Z</time>
      </trkpt>
      <trkpt lat="62.631401907647" lon="17.993786995718">
        <ele>245.8</ele>
        <time>2018-03-24T10:50:57Z</time>
      </trkpt>
      <trkpt lat="62.631400231267" lon="17.99371642012">
        <ele>245.6</ele>
        <time>2018-03-24T10:50:58Z</time>
      </trkpt>
      <trkpt lat="62.631401740009" lon="17.993642240305">
        <ele>245.6</ele>
        <time>2018-03-24T10:50:59Z</time>
      </trkpt>
      <trkpt lat="62.631409116081" lon="17.99356135497">
        <ele>245.6</ele>
        <time>2018-03-24T10:51:00Z</time>
      </trkpt>
      <trkpt lat="62.63141422904" lon="17.99348759425">
        <ele>245.6</ele>
        <time>2018-03-24T10:51:01Z</time>
      </trkpt>
      <trkpt lat="62.631424790234" lon="17.993415258453">
        <ele>245.8</ele>
        <time>2018-03-24T10:51:02Z</time>
      </trkpt>
      <trkpt lat="62.631433255953" lon="17.993339318439">
        <ele>246</ele>
        <time>2018-03-24T10:51:03Z</time>
      </trkpt>
      <trkpt lat="62.631438285093" lon="17.993259690389">
        <ele>246</ele>
        <time>2018-03-24T10:51:04Z</time>
      </trkpt>
      <trkpt lat="62.631450355029" lon="17.993173440638">
        <ele>245.8</ele>
        <time>2018-03-24T10:51:05Z</time>
      </trkpt>
      <trkpt lat="62.631456054721" lon="17.993091214199">
        <ele>245.8</ele>
        <time>2018-03-24T10:51:06Z</time>
      </trkpt>
      <trkpt lat="62.631461000042" lon="17.993016447651">
        <ele>245.6</ele>
        <time>2018-03-24T10:51:07Z</time>
      </trkpt>
      <trkpt lat="62.631474075806" lon="17.992936987239">
        <ele>245.6</ele>
        <time>2018-03-24T10:51:08Z</time>
      </trkpt>
      <trkpt lat="62.631483882629" lon="17.99285727537">
        <ele>245.4</ele>
        <time>2018-03-24T10:51:09Z</time>
      </trkpt>
      <trkpt lat="62.631490001416" lon="17.992792902378">
        <ele>245.2</ele>
        <time>2018-03-24T10:51:10Z</time>
      </trkpt>
      <trkpt lat="62.631505256474" lon="17.992734564354">
        <ele>244.8</ele>
        <time>2018-03-24T10:51:11Z</time>
      </trkpt>
      <trkpt lat="62.631515733849" lon="17.992686536067">
        <ele>244.8</ele>
        <time>2018-03-24T10:51:12Z</time>
      </trkpt>
      <trkpt lat="62.631529563984" lon="17.992634652106">
        <ele>244.6</ele>
        <time>2018-03-24T10:51:13Z</time>
      </trkpt>
      <trkpt lat="62.63155001582" lon="17.992574553883">
        <ele>244.6</ele>
        <time>2018-03-24T10:51:14Z</time>
      </trkpt>
      <trkpt lat="62.631567282534" lon="17.992515461488">
        <ele>244.6</ele>
        <time>2018-03-24T10:51:15Z</time>
      </trkpt>
      <trkpt lat="62.631587650551" lon="17.992458883663">
        <ele>244.8</ele>
        <time>2018-03-24T10:51:16Z</time>
      </trkpt>
      <trkpt lat="62.631616651925" lon="17.992411442109">
        <ele>244.6</ele>
        <time>2018-03-24T10:51:17Z</time>
      </trkpt>
      <trkpt lat="62.631649425154" lon="17.992385961133">
        <ele>244.6</ele>
        <time>2018-03-24T10:51:18Z</time>
      </trkpt>
      <trkpt lat="62.631679516175" lon="17.992365341659">
        <ele>244.6</ele>
        <time>2018-03-24T10:51:19Z</time>
      </trkpt>
      <trkpt lat="62.631715390707" lon="17.992369784066">
        <ele>244.6</ele>
        <time>2018-03-24T10:51:20Z</time>
      </trkpt>
      <trkpt lat="62.631742045149" lon="17.992348577859">
        <ele>244.6</ele>
        <time>2018-03-24T10:51:21Z</time>
      </trkpt>
      <trkpt lat="62.631769789238" lon="17.992333322801">
        <ele>244.4</ele>
        <time>2018-03-24T10:51:22Z</time>
      </trkpt>
      <trkpt lat="62.631797952422" lon="17.992323935073">
        <ele>244.6</ele>
        <time>2018-03-24T10:51:23Z</time>
      </trkpt>
      <trkpt lat="62.631827791986" lon="17.992309266748">
        <ele>244.4</ele>
        <time>2018-03-24T10:51:24Z</time>
      </trkpt>
      <trkpt lat="62.63185008784" lon="17.992290910387">
        <ele>244.6</ele>
        <time>2018-03-24T10:51:25Z</time>
      </trkpt>
      <trkpt lat="62.631870958771" lon="17.99227892427">
        <ele>244.8</ele>
        <time>2018-03-24T10:51:26Z</time>
      </trkpt>
      <trkpt lat="62.631889901865" lon="17.992271632017">
        <ele>245</ele>
        <time>2018-03-24T10:51:27Z</time>
      </trkpt>
      <trkpt lat="62.631914041737" lon="17.99225713133">
        <ele>245.4</ele>
        <time>2018-03-24T10:51:28Z</time>
      </trkpt>
      <trkpt lat="62.631936672867" lon="17.992242798281">
        <ele>245.6</ele>
        <time>2018-03-24T10:51:29Z</time>
      </trkpt>
      <trkpt lat="62.631961650929" lon="17.99222863287">
        <ele>245.8</ele>
        <time>2018-03-24T10:51:30Z</time>
      </trkpt>
      <trkpt lat="62.631984114421" lon="17.992213629269">
        <ele>245.8</ele>
        <time>2018-03-24T10:51:31Z</time>
      </trkpt>
      <trkpt lat="62.632010685044" lon="17.992199128582">
        <ele>246</ele>
        <time>2018-03-24T10:51:32Z</time>
      </trkpt>
      <trkpt lat="62.632035495468" lon="17.99218253242">
        <ele>245.8</ele>
        <time>2018-03-24T10:51:33Z</time>
      </trkpt>
      <trkpt lat="62.63205879715" lon="17.992169037561">
        <ele>246</ele>
        <time>2018-03-24T10:51:34Z</time>
      </trkpt>
      <trkpt lat="62.632087714705" lon="17.99215403396">
        <ele>246</ele>
        <time>2018-03-24T10:51:35Z</time>
      </trkpt>
      <trkpt lat="62.632119482106" lon="17.992128972079">
        <ele>246.2</ele>
        <time>2018-03-24T10:51:36Z</time>
      </trkpt>
      <trkpt lat="62.632144460168" lon="17.992126206052">
        <ele>246.4</ele>
        <time>2018-03-24T10:51:37Z</time>
      </trkpt>
      <trkpt lat="62.63216943823" lon="17.992110112804">
        <ele>246.4</ele>
        <time>2018-03-24T10:51:38Z</time>
      </trkpt>
      <trkpt lat="62.632206989142" lon="17.992091756443">
        <ele>246.4</ele>
        <time>2018-03-24T10:51:39Z</time>
      </trkpt>
      <trkpt lat="62.632241438751" lon="17.992065856372">
        <ele>246.4</ele>
        <time>2018-03-24T10:51:40Z</time>
      </trkpt>
      <trkpt lat="62.632271278315" lon="17.992045991269">
        <ele>246.6</ele>
        <time>2018-03-24T10:51:41Z</time>
      </trkpt>
      <trkpt lat="62.632313271634" lon="17.992023443958">
        <ele>246.6</ele>
        <time>2018-03-24T10:51:42Z</time>
      </trkpt>
      <trkpt lat="62.632343697931" lon="17.992014475325">
        <ele>246.6</ele>
        <time>2018-03-24T10:51:43Z</time>
      </trkpt>
      <trkpt lat="62.632385188336" lon="17.992000812828">
        <ele>246.8</ele>
        <time>2018-03-24T10:51:44Z</time>
      </trkpt>
      <trkpt lat="62.632415195538" lon="17.991981702096">
        <ele>246.8</ele>
        <time>2018-03-24T10:51:45Z</time>
      </trkpt>
      <trkpt lat="62.632446460025" lon="17.99196460302">
        <ele>246.8</ele>
        <time>2018-03-24T10:51:46Z</time>
      </trkpt>
      <trkpt lat="62.632483172747" lon="17.991927387384">
        <ele>246.8</ele>
        <time>2018-03-24T10:51:47Z</time>
      </trkpt>
      <trkpt lat="62.632513515225" lon="17.991896374354">
        <ele>246.6</ele>
        <time>2018-03-24T10:51:48Z</time>
      </trkpt>
      <trkpt lat="62.632537822735" lon="17.991861086555">
        <ele>246.6</ele>
        <time>2018-03-24T10:51:49Z</time>
      </trkpt>
      <trkpt lat="62.632564896272" lon="17.99184222728">
        <ele>246.4</ele>
        <time>2018-03-24T10:51:50Z</time>
      </trkpt>
      <trkpt lat="62.632590377248" lon="17.991818087408">
        <ele>246.4</ele>
        <time>2018-03-24T10:51:51Z</time>
      </trkpt>
      <trkpt lat="62.632621390278" lon="17.99178439217">
        <ele>246.2</ele>
        <time>2018-03-24T10:51:52Z</time>
      </trkpt>
      <trkpt lat="62.632644021408" lon="17.991736447702">
        <ele>246.2</ele>
        <time>2018-03-24T10:51:53Z</time>
      </trkpt>
      <trkpt lat="62.63266313214" lon="17.991670482149">
        <ele>246</ele>
        <time>2018-03-24T10:51:54Z</time>
      </trkpt>
      <trkpt lat="62.632679476845" lon="17.99161256322">
        <ele>246</ele>
        <time>2018-03-24T10:51:55Z</time>
      </trkpt>
      <trkpt lat="62.632694899541" lon="17.991561265992">
        <ele>246.2</ele>
        <time>2018-03-24T10:51:56Z</time>
      </trkpt>
      <trkpt lat="62.632709986961" lon="17.991508711479">
        <ele>246.2</ele>
        <time>2018-03-24T10:51:57Z</time>
      </trkpt>
      <trkpt lat="62.632726666942" lon="17.991466634341">
        <ele>246.2</ele>
        <time>2018-03-24T10:51:58Z</time>
      </trkpt>
      <trkpt lat="62.632755081583" lon="17.991419695701">
        <ele>246.2</ele>
        <time>2018-03-24T10:51:59Z</time>
      </trkpt>
      <trkpt lat="62.632775114324" lon="17.991368230835">
        <ele>246.2</ele>
        <time>2018-03-24T10:52:00Z</time>
      </trkpt>
      <trkpt lat="62.63279137521" lon="17.991318526168">
        <ele>246.2</ele>
        <time>2018-03-24T10:52:01Z</time>
      </trkpt>
      <trkpt lat="62.63281568272" lon="17.991260188144">
        <ele>246.2</ele>
        <time>2018-03-24T10:52:02Z</time>
      </trkpt>
      <trkpt lat="62.632844767913" lon="17.991214087694">
        <ele>246.2</ele>
        <time>2018-03-24T10:52:03Z</time>
      </trkpt>
      <trkpt lat="62.632875697124" lon="17.991163461018">
        <ele>246.2</ele>
        <time>2018-03-24T10:52:04Z</time>
      </trkpt>
      <trkpt lat="62.632897154788" lon="17.991117528206">
        <ele>246.2</ele>
        <time>2018-03-24T10:52:05Z</time>
      </trkpt>
      <trkpt lat="62.632913415674" lon="17.991062207666">
        <ele>246.2</ele>
        <time>2018-03-24T10:52:06Z</time>
      </trkpt>
      <trkpt lat="62.632931436759" lon="17.991006384212">
        <ele>246</ele>
        <time>2018-03-24T10:52:07Z</time>
      </trkpt>
      <trkpt lat="62.63295230769" lon="17.990960116124">
        <ele>246.2</ele>
        <time>2018-03-24T10:52:08Z</time>
      </trkpt>
      <trkpt lat="62.632977621028" lon="17.990902867747">
        <ele>246.2</ele>
        <time>2018-03-24T10:52:09Z</time>
      </trkpt>
      <trkpt lat="62.633005448936" lon="17.990859617143">
        <ele>246.2</ele>
        <time>2018-03-24T10:52:10Z</time>
      </trkpt>
      <trkpt lat="62.633036461966" lon="17.990804967155">
        <ele>246.2</ele>
        <time>2018-03-24T10:52:11Z</time>
      </trkpt>
      <trkpt lat="62.63306294877" lon="17.990739755973">
        <ele>246.2</ele>
        <time>2018-03-24T10:52:12Z</time>
      </trkpt>
      <trkpt lat="62.633081808045" lon="17.990683429605">
        <ele>246</ele>
        <time>2018-03-24T10:52:13Z</time>
      </trkpt>
      <trkpt lat="62.633118017853" lon="17.990630455997">
        <ele>246</ele>
        <time>2018-03-24T10:52:14Z</time>
      </trkpt>
      <trkpt lat="62.633141654811" lon="17.990589384687">
        <ele>246</ele>
        <time>2018-03-24T10:52:15Z</time>
      </trkpt>
      <trkpt lat="62.633163112475" lon="17.990544792979">
        <ele>246</ele>
        <time>2018-03-24T10:52:16Z</time>
      </trkpt>
      <trkpt lat="62.633185156872" lon="17.990501542375">
        <ele>245.8</ele>
        <time>2018-03-24T10:52:17Z</time>
      </trkpt>
      <trkpt lat="62.633203513233" lon="17.990460806341">
        <ele>245.8</ele>
        <time>2018-03-24T10:52:18Z</time>
      </trkpt>
      <trkpt lat="62.633227736924" lon="17.990432810795">
        <ele>245.8</ele>
        <time>2018-03-24T10:52:19Z</time>
      </trkpt>
      <trkpt lat="62.633260845429" lon="17.990417052823">
        <ele>245.8</ele>
        <time>2018-03-24T10:52:20Z</time>
      </trkpt>
      <trkpt lat="62.633289008613" lon="17.990395343702">
        <ele>245.8</ele>
        <time>2018-03-24T10:52:21Z</time>
      </trkpt>
      <trkpt lat="62.633313399942" lon="17.990384363413">
        <ele>245.8</ele>
        <time>2018-03-24T10:52:22Z</time>
      </trkpt>
      <trkpt lat="62.633332426855" lon="17.990370198002">
        <ele>245.8</ele>
        <time>2018-03-24T10:52:23Z</time>
      </trkpt>
      <trkpt lat="62.633361847324" lon="17.990353518021">
        <ele>245.8</ele>
        <time>2018-03-24T10:52:24Z</time>
      </trkpt>
      <trkpt lat="62.633387747395" lon="17.990334574927">
        <ele>245.8</ele>
        <time>2018-03-24T10:52:25Z</time>
      </trkpt>
      <trkpt lat="62.63340660667" lon="17.990296353463">
        <ele>246</ele>
        <time>2018-03-24T10:52:26Z</time>
      </trkpt>
      <trkpt lat="62.633428483429" lon="17.990264837519">
        <ele>246.2</ele>
        <time>2018-03-24T10:52:27Z</time>
      </trkpt>
      <trkpt lat="62.633452539482" lon="17.990232986299">
        <ele>246.2</ele>
        <time>2018-03-24T10:52:28Z</time>
      </trkpt>
      <trkpt lat="62.633474835336" lon="17.990197027948">
        <ele>246.4</ele>
        <time>2018-03-24T10:52:29Z</time>
      </trkpt>
      <trkpt lat="62.633501070683" lon="17.990159057941">
        <ele>246.4</ele>
        <time>2018-03-24T10:52:30Z</time>
      </trkpt>
      <trkpt lat="62.63352227689" lon="17.990114214776">
        <ele>246.4</ele>
        <time>2018-03-24T10:52:31Z</time>
      </trkpt>
      <trkpt lat="62.633546249124" lon="17.990062330815">
        <ele>246.2</ele>
        <time>2018-03-24T10:52:32Z</time>
      </trkpt>
      <trkpt lat="62.633571143367" lon="17.990013715795">
        <ele>246.2</ele>
        <time>2018-03-24T10:52:33Z</time>
      </trkpt>
      <trkpt lat="62.633598216904" lon="17.989953701391">
        <ele>246.2</ele>
        <time>2018-03-24T10:52:34Z</time>
      </trkpt>
      <trkpt lat="62.63362285969" lon="17.989885137449">
        <ele>246</ele>
        <time>2018-03-24T10:52:35Z</time>
      </trkpt>
      <trkpt lat="62.633647502476" lon="17.989821518828">
        <ele>246</ele>
        <time>2018-03-24T10:52:36Z</time>
      </trkpt>
      <trkpt lat="62.633666110294" lon="17.989765611555">
        <ele>245.8</ele>
        <time>2018-03-24T10:52:37Z</time>
      </trkpt>
      <trkpt lat="62.633680946257" lon="17.989715320155">
        <ele>245.6</ele>
        <time>2018-03-24T10:52:38Z</time>
      </trkpt>
      <trkpt lat="62.633711037278" lon="17.989654802837">
        <ele>245.4</ele>
        <time>2018-03-24T10:52:39Z</time>
      </trkpt>
      <trkpt lat="62.633734674236" lon="17.989619682676">
        <ele>245.4</ele>
        <time>2018-03-24T10:52:40Z</time>
      </trkpt>
      <trkpt lat="62.63375864647" lon="17.989567882534">
        <ele>245.2</ele>
        <time>2018-03-24T10:52:41Z</time>
      </trkpt>
      <trkpt lat="62.633783373075" lon="17.989537288599">
        <ele>245</ele>
        <time>2018-03-24T10:52:42Z</time>
      </trkpt>
      <trkpt lat="62.633802064712" lon="17.989512478175">
        <ele>245</ele>
        <time>2018-03-24T10:52:43Z</time>
      </trkpt>
      <trkpt lat="62.633827545688" lon="17.989472747969">
        <ele>245</ele>
        <time>2018-03-24T10:52:44Z</time>
      </trkpt>
      <trkpt lat="62.633858642537" lon="17.989420612551">
        <ele>245</ele>
        <time>2018-03-24T10:52:45Z</time>
      </trkpt>
      <trkpt lat="62.633876579803" lon="17.989369399142">
        <ele>245</ele>
        <time>2018-03-24T10:52:46Z</time>
      </trkpt>
      <trkpt lat="62.633902647512" lon="17.989315587344">
        <ele>245</ele>
        <time>2018-03-24T10:52:47Z</time>
      </trkpt>
      <trkpt lat="62.633931732705" lon="17.98927485131">
        <ele>245</ele>
        <time>2018-03-24T10:52:48Z</time>
      </trkpt>
      <trkpt lat="62.633967774875" lon="17.989228583222">
        <ele>244.6</ele>
        <time>2018-03-24T10:52:49Z</time>
      </trkpt>
      <trkpt lat="62.634002224484" lon="17.989175274338">
        <ele>244</ele>
        <time>2018-03-24T10:52:50Z</time>
      </trkpt>
      <trkpt lat="62.634032566962" lon="17.989119367065">
        <ele>243.8</ele>
        <time>2018-03-24T10:52:51Z</time>
      </trkpt>
      <trkpt lat="62.634063160897" lon="17.989062034869">
        <ele>243.6</ele>
        <time>2018-03-24T10:52:52Z</time>
      </trkpt>
      <trkpt lat="62.634087049312" lon="17.98901417422">
        <ele>243.6</ele>
        <time>2018-03-24T10:52:53Z</time>
      </trkpt>
      <trkpt lat="62.634122672387" lon="17.988949214495">
        <ele>243.4</ele>
        <time>2018-03-24T10:52:54Z</time>
      </trkpt>
      <trkpt lat="62.634152847227" lon="17.988886685521">
        <ele>243.6</ele>
        <time>2018-03-24T10:52:55Z</time>
      </trkpt>
      <trkpt lat="62.634179166393" lon="17.9888314488">
        <ele>243.8</ele>
        <time>2018-03-24T10:52:56Z</time>
      </trkpt>
      <trkpt lat="62.634202803351" lon="17.988769003645">
        <ele>243.6</ele>
        <time>2018-03-24T10:52:57Z</time>
      </trkpt>
      <trkpt lat="62.634232642915" lon="17.988712677277">
        <ele>243.6</ele>
        <time>2018-03-24T10:52:58Z</time>
      </trkpt>
      <trkpt lat="62.63426407504" lon="17.988640676756">
        <ele>243.4</ele>
        <time>2018-03-24T10:52:59Z</time>
      </trkpt>
      <trkpt lat="62.63430430816" lon="17.988588038424">
        <ele>243.2</ele>
        <time>2018-03-24T10:53:00Z</time>
      </trkpt>
      <trkpt lat="62.634341020882" lon="17.988552415349">
        <ele>243.2</ele>
        <time>2018-03-24T10:53:01Z</time>
      </trkpt>
      <trkpt lat="62.634382762744" lon="17.988516540817">
        <ele>243.2</ele>
        <time>2018-03-24T10:53:02Z</time>
      </trkpt>
      <trkpt lat="62.634417044715" lon="17.988485108692">
        <ele>243</ele>
        <time>2018-03-24T10:53:03Z</time>
      </trkpt>
      <trkpt lat="62.63445853512" lon="17.988468680168">
        <ele>243</ele>
        <time>2018-03-24T10:53:04Z</time>
      </trkpt>
      <trkpt lat="62.634499354973" lon="17.988458705707">
        <ele>242.8</ele>
        <time>2018-03-24T10:53:05Z</time>
      </trkpt>
      <trkpt lat="62.634550316925" lon="17.988427776496">
        <ele>242.8</ele>
        <time>2018-03-24T10:53:06Z</time>
      </trkpt>
      <trkpt lat="62.634598848126" lon="17.988402630796">
        <ele>242.6</ele>
        <time>2018-03-24T10:53:07Z</time>
      </trkpt>
      <trkpt lat="62.634643523653" lon="17.988386118453">
        <ele>242.4</ele>
        <time>2018-03-24T10:53:08Z</time>
      </trkpt>
      <trkpt lat="62.634697922184" lon="17.988380083485">
        <ele>242</ele>
        <time>2018-03-24T10:53:09Z</time>
      </trkpt>
      <trkpt lat="62.634742010978" lon="17.988357787631">
        <ele>241.8</ele>
        <time>2018-03-24T10:53:10Z</time>
      </trkpt>
      <trkpt lat="62.634784926306" lon="17.988332474293">
        <ele>241.4</ele>
        <time>2018-03-24T10:53:11Z</time>
      </trkpt>
      <trkpt lat="62.634823483046" lon="17.988295929209">
        <ele>241.2</ele>
        <time>2018-03-24T10:53:12Z</time>
      </trkpt>
      <trkpt lat="62.634854244619" lon="17.988260809048">
        <ele>240.8</ele>
        <time>2018-03-24T10:53:13Z</time>
      </trkpt>
      <trkpt lat="62.634885844382" lon="17.988209260363">
        <ele>240.8</ele>
        <time>2018-03-24T10:53:14Z</time>
      </trkpt>
      <trkpt lat="62.634910068073" lon="17.98815754404">
        <ele>240.6</ele>
        <time>2018-03-24T10:53:15Z</time>
      </trkpt>
      <trkpt lat="62.634933202117" lon="17.988095266523">
        <ele>240.6</ele>
        <time>2018-03-24T10:53:16Z</time>
      </trkpt>
      <trkpt lat="62.634956922894" lon="17.988029887703">
        <ele>240.6</ele>
        <time>2018-03-24T10:53:17Z</time>
      </trkpt>
      <trkpt lat="62.634983074422" lon="17.987951684576">
        <ele>240.4</ele>
        <time>2018-03-24T10:53:18Z</time>
      </trkpt>
      <trkpt lat="62.635001430783" lon="17.987874319639">
        <ele>240.2</ele>
        <time>2018-03-24T10:53:19Z</time>
      </trkpt>
      <trkpt lat="62.635023558999" lon="17.987817574176">
        <ele>240.2</ele>
        <time>2018-03-24T10:53:20Z</time>
      </trkpt>
      <trkpt lat="62.63503269527" lon="17.98775102189">
        <ele>239.8</ele>
        <time>2018-03-24T10:53:21Z</time>
      </trkpt>
      <trkpt lat="62.63503772441" lon="17.987685307794">
        <ele>239.6</ele>
        <time>2018-03-24T10:53:22Z</time>
      </trkpt>
      <trkpt lat="62.635039065514" lon="17.987636022222">
        <ele>239.4</ele>
        <time>2018-03-24T10:53:23Z</time>
      </trkpt>
      <trkpt lat="62.635028001406" lon="17.987602829898">
        <ele>239.2</ele>
        <time>2018-03-24T10:53:24Z</time>
      </trkpt>
      <trkpt lat="62.635012746348" lon="17.987591849609">
        <ele>239.2</ele>
        <time>2018-03-24T10:53:25Z</time>
      </trkpt>
      <trkpt lat="62.635004783543" lon="17.987604087183">
        <ele>239.2</ele>
        <time>2018-03-24T10:53:26Z</time>
      </trkpt>
      <trkpt lat="62.634995647272" lon="17.987643314475">
        <ele>239.2</ele>
        <time>2018-03-24T10:53:27Z</time>
      </trkpt>
      <trkpt lat="62.634980476033" lon="17.987682374129">
        <ele>239.4</ele>
        <time>2018-03-24T10:53:28Z</time>
      </trkpt>
      <trkpt lat="62.634963796052" lon="17.987727468751">
        <ele>239.4</ele>
        <time>2018-03-24T10:53:29Z</time>
      </trkpt>
      <trkpt lat="62.634951223202" lon="17.987767198957">
        <ele>239.4</ele>
        <time>2018-03-24T10:53:30Z</time>
      </trkpt>
      <trkpt lat="62.63493965618" lon="17.987799469272">
        <ele>239.4</ele>
        <time>2018-03-24T10:53:31Z</time>
      </trkpt>
      <trkpt lat="62.634922808561" lon="17.987835511442">
        <ele>239.4</ele>
        <time>2018-03-24T10:53:32Z</time>
      </trkpt>
      <trkpt lat="62.634906631494" lon="17.987852861975">
        <ele>239.4</ele>
        <time>2018-03-24T10:53:33Z</time>
      </trkpt>
      <trkpt lat="62.634892046988" lon="17.987877672399">
        <ele>239.2</ele>
        <time>2018-03-24T10:53:34Z</time>
      </trkpt>
      <trkpt lat="62.634874780274" lon="17.987892927457">
        <ele>239.4</ele>
        <time>2018-03-24T10:53:35Z</time>
      </trkpt>
      <trkpt lat="62.634864638175" lon="17.987929137265">
        <ele>239.4</ele>
        <time>2018-03-24T10:53:36Z</time>
      </trkpt>
      <trkpt lat="62.634853490248" lon="17.987952606585">
        <ele>239.6</ele>
        <time>2018-03-24T10:53:37Z</time>
      </trkpt>
      <trkpt lat="62.634836139715" lon="17.987979596303">
        <ele>239.6</ele>
        <time>2018-03-24T10:53:38Z</time>
      </trkpt>
      <trkpt lat="62.634816693707" lon="17.988007675668">
        <ele>239.8</ele>
        <time>2018-03-24T10:53:39Z</time>
      </trkpt>
      <trkpt lat="62.634798169708" lon="17.988026702581">
        <ele>239.8</ele>
        <time>2018-03-24T10:53:40Z</time>
      </trkpt>
      <trkpt lat="62.634771012352" lon="17.988041957639">
        <ele>239.8</ele>
        <time>2018-03-24T10:53:41Z</time>
      </trkpt>
      <trkpt lat="62.634754080914" lon="17.988063247665">
        <ele>240</ele>
        <time>2018-03-24T10:53:42Z</time>
      </trkpt>
      <trkpt lat="62.634736478924" lon="17.98806199038">
        <ele>240.2</ele>
        <time>2018-03-24T10:53:43Z</time>
      </trkpt>
      <trkpt lat="62.634726253006" lon="17.988085292062">
        <ele>240.4</ele>
        <time>2018-03-24T10:53:44Z</time>
      </trkpt>
      <trkpt lat="62.634709489206" lon="17.988091410849">
        <ele>240.4</ele>
        <time>2018-03-24T10:53:45Z</time>
      </trkpt>
      <trkpt lat="62.634686858076" lon="17.988109348115">
        <ele>240.6</ele>
        <time>2018-03-24T10:53:46Z</time>
      </trkpt>
      <trkpt lat="62.634657437607" lon="17.988115215445">
        <ele>240.6</ele>
        <time>2018-03-24T10:53:47Z</time>
      </trkpt>
      <trkpt lat="62.63463790778" lon="17.988127872114">
        <ele>240.8</ele>
        <time>2018-03-24T10:53:48Z</time>
      </trkpt>
      <trkpt lat="62.634615528107" lon="17.988136254014">
        <ele>240.8</ele>
        <time>2018-03-24T10:53:49Z</time>
      </trkpt>
      <trkpt lat="62.634596165918" lon="17.988142037525">
        <ele>241.2</ele>
        <time>2018-03-24T10:53:50Z</time>
      </trkpt>
      <trkpt lat="62.634573702426" lon="17.988147653398">
        <ele>241.4</ele>
        <time>2018-03-24T10:53:51Z</time>
      </trkpt>
      <trkpt lat="62.634557190083" lon="17.988156202936">
        <ele>241.4</ele>
        <time>2018-03-24T10:53:52Z</time>
      </trkpt>
      <trkpt lat="62.634539671912" lon="17.988161651171">
        <ele>241.6</ele>
        <time>2018-03-24T10:53:53Z</time>
      </trkpt>
      <trkpt lat="62.634516956963" lon="17.988167350863">
        <ele>241.8</ele>
        <time>2018-03-24T10:53:54Z</time>
      </trkpt>
      <trkpt lat="62.634495499299" lon="17.988173637288">
        <ele>241.6</ele>
        <time>2018-03-24T10:53:55Z</time>
      </trkpt>
      <trkpt lat="62.634478232585" lon="17.988188892346">
        <ele>241.6</ele>
        <time>2018-03-24T10:53:56Z</time>
      </trkpt>
      <trkpt lat="62.63445434417" lon="17.988190987821">
        <ele>241.8</ele>
        <time>2018-03-24T10:53:57Z</time>
      </trkpt>
      <trkpt lat="62.634431545402" lon="17.988196771332">
        <ele>242</ele>
        <time>2018-03-24T10:53:58Z</time>
      </trkpt>
      <trkpt lat="62.634396425241" lon="17.988193921486">
        <ele>242</ele>
        <time>2018-03-24T10:53:59Z</time>
      </trkpt>
      <trkpt lat="62.634365579849" lon="17.98819945354">
        <ele>242</ele>
        <time>2018-03-24T10:54:00Z</time>
      </trkpt>
      <trkpt lat="62.634342361986" lon="17.988207751621">
        <ele>242.2</ele>
        <time>2018-03-24T10:54:01Z</time>
      </trkpt>
      <trkpt lat="62.634319479399" lon="17.988212194028">
        <ele>242.2</ele>
        <time>2018-03-24T10:54:02Z</time>
      </trkpt>
      <trkpt lat="62.6343009554" lon="17.98822040829">
        <ele>242.2</ele>
        <time>2018-03-24T10:54:03Z</time>
      </trkpt>
      <trkpt lat="62.634270612922" lon="17.988212445485">
        <ele>242.4</ele>
        <time>2018-03-24T10:54:04Z</time>
      </trkpt>
      <trkpt lat="62.634234235476" lon="17.988204985594">
        <ele>242.6</ele>
        <time>2018-03-24T10:54:05Z</time>
      </trkpt>
      <trkpt lat="62.634198780039" lon="17.988202303386">
        <ele>242.6</ele>
        <time>2018-03-24T10:54:06Z</time>
      </trkpt>
      <trkpt lat="62.634155277978" lon="17.988198112436">
        <ele>242.6</ele>
        <time>2018-03-24T10:54:07Z</time>
      </trkpt>
      <trkpt lat="62.634118397618" lon="17.988191239278">
        <ele>242.6</ele>
        <time>2018-03-24T10:54:08Z</time>
      </trkpt>
      <trkpt lat="62.634084618561" lon="17.98816760232">
        <ele>242.6</ele>
        <time>2018-03-24T10:54:09Z</time>
      </trkpt>
      <trkpt lat="62.634047235287" lon="17.988178917885">
        <ele>242.6</ele>
        <time>2018-03-24T10:54:10Z</time>
      </trkpt>
      <trkpt lat="62.634014545877" lon="17.988167183225">
        <ele>242.4</ele>
        <time>2018-03-24T10:54:11Z</time>
      </trkpt>
      <trkpt lat="62.633986466512" lon="17.988161567352">
        <ele>242.4</ele>
        <time>2018-03-24T10:54:12Z</time>
      </trkpt>
      <trkpt lat="62.633955453482" lon="17.988149329778">
        <ele>242.6</ele>
        <time>2018-03-24T10:54:13Z</time>
      </trkpt>
      <trkpt lat="62.633926955022" lon="17.988140696421">
        <ele>242.8</ele>
        <time>2018-03-24T10:54:14Z</time>
      </trkpt>
      <trkpt lat="62.633904240073" lon="17.988123010612">
        <ele>242.8</ele>
        <time>2018-03-24T10:54:15Z</time>
      </trkpt>
      <trkpt lat="62.633884542608" lon="17.988115466902">
        <ele>243</ele>
        <time>2018-03-24T10:54:16Z</time>
      </trkpt>
      <trkpt lat="62.633861324745" lon="17.988092249039">
        <ele>243.2</ele>
        <time>2018-03-24T10:54:17Z</time>
      </trkpt>
      <trkpt lat="62.633835173217" lon="17.988085208243">
        <ele>243.2</ele>
        <time>2018-03-24T10:54:18Z</time>
      </trkpt>
      <trkpt lat="62.633807345309" lon="17.988063834398">
        <ele>243.4</ele>
        <time>2018-03-24T10:54:19Z</time>
      </trkpt>
      <trkpt lat="62.633779685039" lon="17.988040616535">
        <ele>243.4</ele>
        <time>2018-03-24T10:54:20Z</time>
      </trkpt>
      <trkpt lat="62.633757221547" lon="17.988025361477">
        <ele>243.4</ele>
        <time>2018-03-24T10:54:21Z</time>
      </trkpt>
      <trkpt lat="62.633737775539" lon="17.987996276284">
        <ele>243.6</ele>
        <time>2018-03-24T10:54:22Z</time>
      </trkpt>
      <trkpt lat="62.633718245712" lon="17.987967694005">
        <ele>243.6</ele>
        <time>2018-03-24T10:54:23Z</time>
      </trkpt>
      <trkpt lat="62.633687903234" lon="17.987950594929">
        <ele>243.6</ele>
        <time>2018-03-24T10:54:24Z</time>
      </trkpt>
      <trkpt lat="62.633657141661" lon="17.987918995166">
        <ele>243.8</ele>
        <time>2018-03-24T10:54:25Z</time>
      </trkpt>
      <trkpt lat="62.633626883002" lon="17.987890748163">
        <ele>243.8</ele>
        <time>2018-03-24T10:54:26Z</time>
      </trkpt>
      <trkpt lat="62.633602575492" lon="17.987859232219">
        <ele>243.8</ele>
        <time>2018-03-24T10:54:27Z</time>
      </trkpt>
      <trkpt lat="62.633581369285" lon="17.987842887514">
        <ele>243.8</ele>
        <time>2018-03-24T10:54:28Z</time>
      </trkpt>
      <trkpt lat="62.633558989612" lon="17.987814891968">
        <ele>244</ele>
        <time>2018-03-24T10:54:29Z</time>
      </trkpt>
      <trkpt lat="62.63353568793" lon="17.987787734612">
        <ele>244.2</ele>
        <time>2018-03-24T10:54:30Z</time>
      </trkpt>
      <trkpt lat="62.633515739008" lon="17.987772479554">
        <ele>244.4</ele>
        <time>2018-03-24T10:54:31Z</time>
      </trkpt>
      <trkpt lat="62.633493107878" lon="17.987742807628">
        <ele>244.4</ele>
        <time>2018-03-24T10:54:32Z</time>
      </trkpt>
      <trkpt lat="62.633469387101" lon="17.987717410471">
        <ele>244.8</ele>
        <time>2018-03-24T10:54:33Z</time>
      </trkpt>
      <trkpt lat="62.633446923609" lon="17.987684972518">
        <ele>245</ele>
        <time>2018-03-24T10:54:34Z</time>
      </trkpt>
      <trkpt lat="62.633422699918" lon="17.987651780194">
        <ele>245.2</ele>
        <time>2018-03-24T10:54:35Z</time>
      </trkpt>
      <trkpt lat="62.63340157753" lon="17.987620683345">
        <ele>245.2</ele>
        <time>2018-03-24T10:54:36Z</time>
      </trkpt>
      <trkpt lat="62.633384897549" lon="17.987595789102">
        <ele>245.2</ele>
        <time>2018-03-24T10:54:37Z</time>
      </trkpt>
      <trkpt lat="62.633366457369" lon="17.987568128832">
        <ele>245.4</ele>
        <time>2018-03-24T10:54:38Z</time>
      </trkpt>
      <trkpt lat="62.63334793337" lon="17.987540300924">
        <ele>245.4</ele>
        <time>2018-03-24T10:54:39Z</time>
      </trkpt>
      <trkpt lat="62.633331672484" lon="17.987511383369">
        <ele>245.6</ele>
        <time>2018-03-24T10:54:40Z</time>
      </trkpt>
      <trkpt lat="62.633319602548" lon="17.987471988439">
        <ele>245.8</ele>
        <time>2018-03-24T10:54:41Z</time>
      </trkpt>
      <trkpt lat="62.633303174024" lon="17.987421780858">
        <ele>246</ele>
        <time>2018-03-24T10:54:42Z</time>
      </trkpt>
      <trkpt lat="62.633288338061" lon="17.987366795594">
        <ele>246</ele>
        <time>2018-03-24T10:54:43Z</time>
      </trkpt>
      <trkpt lat="62.633263527637" lon="17.987313738167">
        <ele>246</ele>
        <time>2018-03-24T10:54:44Z</time>
      </trkpt>
      <trkpt lat="62.633246596199" lon="17.987247940252">
        <ele>246.2</ele>
        <time>2018-03-24T10:54:45Z</time>
      </trkpt>
      <trkpt lat="62.633241818516" lon="17.987167390193">
        <ele>246.4</ele>
        <time>2018-03-24T10:54:46Z</time>
      </trkpt>
      <trkpt lat="62.633216840454" lon="17.987054150724">
        <ele>246</ele>
        <time>2018-03-24T10:54:47Z</time>
      </trkpt>
      <trkpt lat="62.6331945446" lon="17.986953567924">
        <ele>245.6</ele>
        <time>2018-03-24T10:54:48Z</time>
      </trkpt>
      <trkpt lat="62.633176272058" lon="17.986843848853">
        <ele>244.8</ele>
        <time>2018-03-24T10:54:49Z</time>
      </trkpt>
      <trkpt lat="62.63316856071" lon="17.986750390668">
        <ele>244</ele>
        <time>2018-03-24T10:54:50Z</time>
      </trkpt>
      <trkpt lat="62.633159256801" lon="17.986655842836">
        <ele>243.4</ele>
        <time>2018-03-24T10:54:51Z</time>
      </trkpt>
      <trkpt lat="62.63315012053" lon="17.986555176217">
        <ele>242.8</ele>
        <time>2018-03-24T10:54:52Z</time>
      </trkpt>
      <trkpt lat="62.633148611788" lon="17.986463813507">
        <ele>242.4</ele>
        <time>2018-03-24T10:54:53Z</time>
      </trkpt>
      <trkpt lat="62.633137128585" lon="17.986372702254">
        <ele>242.2</ele>
        <time>2018-03-24T10:54:54Z</time>
      </trkpt>
      <trkpt lat="62.633136038938" lon="17.986273879653">
        <ele>242.4</ele>
        <time>2018-03-24T10:54:55Z</time>
      </trkpt>
      <trkpt lat="62.633139391698" lon="17.986163657668">
        <ele>242.4</ele>
        <time>2018-03-24T10:54:56Z</time>
      </trkpt>
      <trkpt lat="62.633142995915" lon="17.986050837294">
        <ele>242</ele>
        <time>2018-03-24T10:54:57Z</time>
      </trkpt>
      <trkpt lat="62.633145761942" lon="17.985936591997">
        <ele>242</ele>
        <time>2018-03-24T10:54:58Z</time>
      </trkpt>
      <trkpt lat="62.633147438322" lon="17.985815976456">
        <ele>242</ele>
        <time>2018-03-24T10:54:59Z</time>
      </trkpt>
      <trkpt lat="62.633148947064" lon="17.985713717276">
        <ele>241.4</ele>
        <time>2018-03-24T10:55:00Z</time>
      </trkpt>
      <trkpt lat="62.633151293996" lon="17.985631407018">
        <ele>240.8</ele>
        <time>2018-03-24T10:55:01Z</time>
      </trkpt>
      <trkpt lat="62.633155904041" lon="17.985527220001">
        <ele>240.6</ele>
        <time>2018-03-24T10:55:02Z</time>
      </trkpt>
      <trkpt lat="62.633157915697" lon="17.985436527843">
        <ele>240.2</ele>
        <time>2018-03-24T10:55:03Z</time>
      </trkpt>
      <trkpt lat="62.633166632873" lon="17.985320857623">
        <ele>239.8</ele>
        <time>2018-03-24T10:55:04Z</time>
      </trkpt>
      <trkpt lat="62.633174511859" lon="17.985186495766">
        <ele>239.8</ele>
        <time>2018-03-24T10:55:05Z</time>
      </trkpt>
      <trkpt lat="62.633187084709" lon="17.985053055918">
        <ele>239.2</ele>
        <time>2018-03-24T10:55:06Z</time>
      </trkpt>
      <trkpt lat="62.633205357251" lon="17.984932691834">
        <ele>238.8</ele>
        <time>2018-03-24T10:55:07Z</time>
      </trkpt>
      <trkpt lat="62.633227820743" lon="17.984821128745">
        <ele>238.2</ele>
        <time>2018-03-24T10:55:08Z</time>
      </trkpt>
      <trkpt lat="62.633251709158" lon="17.984706464353">
        <ele>237.4</ele>
        <time>2018-03-24T10:55:09Z</time>
      </trkpt>
      <trkpt lat="62.633276016668" lon="17.984594482169">
        <ele>237</ele>
        <time>2018-03-24T10:55:10Z</time>
      </trkpt>
      <trkpt lat="62.633288757156" lon="17.984477303207">
        <ele>236.8</ele>
        <time>2018-03-24T10:55:11Z</time>
      </trkpt>
      <trkpt lat="62.633303760757" lon="17.984391975465">
        <ele>236.6</ele>
        <time>2018-03-24T10:55:12Z</time>
      </trkpt>
      <trkpt lat="62.633316752702" lon="17.984304971343">
        <ele>236.6</ele>
        <time>2018-03-24T10:55:13Z</time>
      </trkpt>
      <trkpt lat="62.633324547869" lon="17.984222577266">
        <ele>236.8</ele>
        <time>2018-03-24T10:55:14Z</time>
      </trkpt>
      <trkpt lat="62.63333368414" lon="17.984131214556">
        <ele>237</ele>
        <time>2018-03-24T10:55:15Z</time>
      </trkpt>
      <trkpt lat="62.633340557298" lon="17.984047730832">
        <ele>237.4</ele>
        <time>2018-03-24T10:55:16Z</time>
      </trkpt>
      <trkpt lat="62.6333538007" lon="17.983974389207">
        <ele>237.6</ele>
        <time>2018-03-24T10:55:17Z</time>
      </trkpt>
      <trkpt lat="62.6333621826" lon="17.983895515528">
        <ele>237.8</ele>
        <time>2018-03-24T10:55:18Z</time>
      </trkpt>
      <trkpt lat="62.633367379378" lon="17.983802644076">
        <ele>238</ele>
        <time>2018-03-24T10:55:19Z</time>
      </trkpt>
      <trkpt lat="62.633377856753" lon="17.983736007971">
        <ele>238</ele>
        <time>2018-03-24T10:55:20Z</time>
      </trkpt>
      <trkpt lat="62.633386071015" lon="17.983661828156">
        <ele>238.2</ele>
        <time>2018-03-24T10:55:21Z</time>
      </trkpt>
      <trkpt lat="62.633400823159" lon="17.983587983617">
        <ele>238.2</ele>
        <time>2018-03-24T10:55:22Z</time>
      </trkpt>
      <trkpt lat="62.633409707973" lon="17.983530316145">
        <ele>238.2</ele>
        <time>2018-03-24T10:55:23Z</time>
      </trkpt>
      <trkpt lat="62.633422867556" lon="17.983454040855">
        <ele>238.4</ele>
        <time>2018-03-24T10:55:24Z</time>
      </trkpt>
      <trkpt lat="62.633431836189" lon="17.983399390867">
        <ele>238.6</ele>
        <time>2018-03-24T10:55:25Z</time>
      </trkpt>
      <trkpt lat="62.633438374071" lon="17.983328228536">
        <ele>238.8</ele>
        <time>2018-03-24T10:55:26Z</time>
      </trkpt>
      <trkpt lat="62.633458071536" lon="17.983247007925">
        <ele>239</ele>
        <time>2018-03-24T10:55:27Z</time>
      </trkpt>
      <trkpt lat="62.633475086793" lon="17.983177270517">
        <ele>239</ele>
        <time>2018-03-24T10:55:28Z</time>
      </trkpt>
      <trkpt lat="62.633492688783" lon="17.983095044078">
        <ele>238.8</ele>
        <time>2018-03-24T10:55:29Z</time>
      </trkpt>
      <trkpt lat="62.63350802766" lon="17.983026563955">
        <ele>238.6</ele>
        <time>2018-03-24T10:55:30Z</time>
      </trkpt>
      <trkpt lat="62.633522695985" lon="17.982950456303">
        <ele>238.6</ele>
        <time>2018-03-24T10:55:31Z</time>
      </trkpt>
      <trkpt lat="62.633534346826" lon="17.982859512688">
        <ele>238.4</ele>
        <time>2018-03-24T10:55:32Z</time>
      </trkpt>
      <trkpt lat="62.633544405106" lon="17.982789859099">
        <ele>238.4</ele>
        <time>2018-03-24T10:55:33Z</time>
      </trkpt>
      <trkpt lat="62.633555636852" lon="17.982708051755">
        <ele>238.4</ele>
        <time>2018-03-24T10:55:34Z</time>
      </trkpt>
      <trkpt lat="62.63357508286" lon="17.982647534437">
        <ele>238.4</ele>
        <time>2018-03-24T10:55:35Z</time>
      </trkpt>
      <trkpt lat="62.633597630171" lon="17.982580479237">
        <ele>238.4</ele>
        <time>2018-03-24T10:55:36Z</time>
      </trkpt>
      <trkpt lat="62.63360944865" lon="17.982509484544">
        <ele>238.4</ele>
        <time>2018-03-24T10:55:37Z</time>
      </trkpt>
      <trkpt lat="62.633638366205" lon="17.982443770448">
        <ele>238.6</ele>
        <time>2018-03-24T10:55:38Z</time>
      </trkpt>
      <trkpt lat="62.633654627091" lon="17.982357520697">
        <ele>238.6</ele>
        <time>2018-03-24T10:55:39Z</time>
      </trkpt>
      <trkpt lat="62.633661584068" lon="17.982289292031">
        <ele>238.6</ele>
        <time>2018-03-24T10:55:40Z</time>
      </trkpt>
      <trkpt lat="62.633684801931" lon="17.982205137755">
        <ele>238.6</ele>
        <time>2018-03-24T10:55:41Z</time>
      </trkpt>
      <trkpt lat="62.63369242946" lon="17.982132215225">
        <ele>238.6</ele>
        <time>2018-03-24T10:55:42Z</time>
      </trkpt>
      <trkpt lat="62.633698045333" lon="17.982047893311">
        <ele>238.6</ele>
        <time>2018-03-24T10:55:43Z</time>
      </trkpt>
      <trkpt lat="62.633713048934" lon="17.981971282745">
        <ele>238.6</ele>
        <time>2018-03-24T10:55:44Z</time>
      </trkpt>
      <trkpt lat="62.633722520481" lon="17.981909340504">
        <ele>238.6</ele>
        <time>2018-03-24T10:55:45Z</time>
      </trkpt>
      <trkpt lat="62.633731489114" lon="17.981842117666">
        <ele>238.6</ele>
        <time>2018-03-24T10:55:46Z</time>
      </trkpt>
      <trkpt lat="62.633732159666" lon="17.981770117145">
        <ele>238.8</ele>
        <time>2018-03-24T10:55:47Z</time>
      </trkpt>
      <trkpt lat="62.633734087503" lon="17.981697529891">
        <ele>238.8</ele>
        <time>2018-03-24T10:55:48Z</time>
      </trkpt>
      <trkpt lat="62.633732746399" lon="17.981621086963">
        <ele>238.8</ele>
        <time>2018-03-24T10:55:49Z</time>
      </trkpt>
      <trkpt lat="62.633726962888" lon="17.981543722026">
        <ele>239</ele>
        <time>2018-03-24T10:55:50Z</time>
      </trkpt>
      <trkpt lat="62.633732830218" lon="17.981471721505">
        <ele>239</ele>
        <time>2018-03-24T10:55:51Z</time>
      </trkpt>
      <trkpt lat="62.633747079448" lon="17.981398212242">
        <ele>239</ele>
        <time>2018-03-24T10:55:52Z</time>
      </trkpt>
      <trkpt lat="62.633754120244" lon="17.981336186182">
        <ele>239.2</ele>
        <time>2018-03-24T10:55:53Z</time>
      </trkpt>
      <trkpt lat="62.633771806053" lon="17.981264772394">
        <ele>239.2</ele>
        <time>2018-03-24T10:55:54Z</time>
      </trkpt>
      <trkpt lat="62.633790581509" lon="17.98119637609">
        <ele>239.2</ele>
        <time>2018-03-24T10:55:55Z</time>
      </trkpt>
      <trkpt lat="62.633813464096" lon="17.981134769125">
        <ele>239.2</ele>
        <time>2018-03-24T10:55:56Z</time>
      </trkpt>
      <trkpt lat="62.633833999751" lon="17.98107735311">
        <ele>239.2</ele>
        <time>2018-03-24T10:55:57Z</time>
      </trkpt>
      <trkpt lat="62.633848500438" lon="17.981023289855">
        <ele>239</ele>
        <time>2018-03-24T10:55:58Z</time>
      </trkpt>
      <trkpt lat="62.633866270066" lon="17.980968220772">
        <ele>239</ele>
        <time>2018-03-24T10:55:59Z</time>
      </trkpt>
      <trkpt lat="62.633882279495" lon="17.980912145861">
        <ele>239</ele>
        <time>2018-03-24T10:56:00Z</time>
      </trkpt>
      <trkpt lat="62.63389946239" lon="17.980861519185">
        <ele>239.2</ele>
        <time>2018-03-24T10:56:01Z</time>
      </trkpt>
      <trkpt lat="62.633912957249" lon="17.980797313831">
        <ele>239.2</ele>
        <time>2018-03-24T10:56:02Z</time>
      </trkpt>
      <trkpt lat="62.633928631402" lon="17.980744926956">
        <ele>239.4</ele>
        <time>2018-03-24T10:56:03Z</time>
      </trkpt>
      <trkpt lat="62.633951681627" lon="17.980687091846">
        <ele>239.6</ele>
        <time>2018-03-24T10:56:04Z</time>
      </trkpt>
      <trkpt lat="62.63398328139" lon="17.98063981793">
        <ele>240</ele>
        <time>2018-03-24T10:56:05Z</time>
      </trkpt>
      <trkpt lat="62.634000548104" lon="17.980577456594">
        <ele>240</ele>
        <time>2018-03-24T10:56:06Z</time>
      </trkpt>
      <trkpt lat="62.634010774022" lon="17.98050319296">
        <ele>240.2</ele>
        <time>2018-03-24T10:56:07Z</time>
      </trkpt>
      <trkpt lat="62.63401848537" lon="17.980442508004">
        <ele>240.2</ele>
        <time>2018-03-24T10:56:08Z</time>
      </trkpt>
      <trkpt lat="62.634036590274" lon="17.980380398125">
        <ele>240.4</ele>
        <time>2018-03-24T10:56:09Z</time>
      </trkpt>
      <trkpt lat="62.634058550852" lon="17.9803154384">
        <ele>240.4</ele>
        <time>2018-03-24T10:56:10Z</time>
      </trkpt>
      <trkpt lat="62.634076907213" lon="17.980259866403">
        <ele>240.6</ele>
        <time>2018-03-24T10:56:11Z</time>
      </trkpt>
      <trkpt lat="62.634094676841" lon="17.980201863655">
        <ele>240.6</ele>
        <time>2018-03-24T10:56:12Z</time>
      </trkpt>
      <trkpt lat="62.634122588568" lon="17.980157523404">
        <ele>240.6</ele>
        <time>2018-03-24T10:56:13Z</time>
      </trkpt>
      <trkpt lat="62.634153266322" lon="17.980106812909">
        <ele>240.6</ele>
        <time>2018-03-24T10:56:14Z</time>
      </trkpt>
      <trkpt lat="62.634181597144" lon="17.980049480713">
        <ele>240.4</ele>
        <time>2018-03-24T10:56:15Z</time>
      </trkpt>
      <trkpt lat="62.634200037324" lon="17.979996674743">
        <ele>240.4</ele>
        <time>2018-03-24T10:56:16Z</time>
      </trkpt>
      <trkpt lat="62.634224344834" lon="17.979937498529">
        <ele>240.6</ele>
        <time>2018-03-24T10:56:17Z</time>
      </trkpt>
      <trkpt lat="62.634244545213" lon="17.979869856596">
        <ele>240.4</ele>
        <time>2018-03-24T10:56:18Z</time>
      </trkpt>
      <trkpt lat="62.634267176343" lon="17.979809004002">
        <ele>240.6</ele>
        <time>2018-03-24T10:56:19Z</time>
      </trkpt>
      <trkpt lat="62.63429424988" lon="17.979749073417">
        <ele>240.4</ele>
        <time>2018-03-24T10:56:20Z</time>
      </trkpt>
      <trkpt lat="62.634310846042" lon="17.979683778416">
        <ele>240.6</ele>
        <time>2018-03-24T10:56:21Z</time>
      </trkpt>
      <trkpt lat="62.634325933462" lon="17.979616639397">
        <ele>240.4</ele>
        <time>2018-03-24T10:56:22Z</time>
      </trkpt>
      <trkpt lat="62.634339176864" lon="17.9795443036">
        <ele>240.4</ele>
        <time>2018-03-24T10:56:23Z</time>
      </trkpt>
      <trkpt lat="62.634350240972" lon="17.979464340274">
        <ele>240.6</ele>
        <time>2018-03-24T10:56:24Z</time>
      </trkpt>
      <trkpt lat="62.634362227089" lon="17.979397117436">
        <ele>240.6</ele>
        <time>2018-03-24T10:56:25Z</time>
      </trkpt>
      <trkpt lat="62.634370692808" lon="17.979332828263">
        <ele>240.4</ele>
        <time>2018-03-24T10:56:26Z</time>
      </trkpt>
      <trkpt lat="62.634386618418" lon="17.979271640393">
        <ele>240.4</ele>
        <time>2018-03-24T10:56:27Z</time>
      </trkpt>
      <trkpt lat="62.634395838508" lon="17.979206261573">
        <ele>240.2</ele>
        <time>2018-03-24T10:56:28Z</time>
      </trkpt>
      <trkpt lat="62.634409417186" lon="17.979148091187">
        <ele>240</ele>
        <time>2018-03-24T10:56:29Z</time>
      </trkpt>
      <trkpt lat="62.634426851538" lon="17.979082628548">
        <ele>240</ele>
        <time>2018-03-24T10:56:30Z</time>
      </trkpt>
      <trkpt lat="62.634431377764" lon="17.979016998271">
        <ele>240.2</ele>
        <time>2018-03-24T10:56:31Z</time>
      </trkpt>
      <trkpt lat="62.634444453528" lon="17.978948182872">
        <ele>240.2</ele>
        <time>2018-03-24T10:56:32Z</time>
      </trkpt>
      <trkpt lat="62.63445769693" lon="17.978884731889">
        <ele>240.2</ele>
        <time>2018-03-24T10:56:33Z</time>
      </trkpt>
      <trkpt lat="62.634467168477" lon="17.978815413576">
        <ele>240.2</ele>
        <time>2018-03-24T10:56:34Z</time>
      </trkpt>
      <trkpt lat="62.634481920621" lon="17.978749112747">
        <ele>240.2</ele>
        <time>2018-03-24T10:56:35Z</time>
      </trkpt>
      <trkpt lat="62.634494661109" lon="17.978683566289">
        <ele>240</ele>
        <time>2018-03-24T10:56:36Z</time>
      </trkpt>
      <trkpt lat="62.634509916167" lon="17.978611817225">
        <ele>240</ele>
        <time>2018-03-24T10:56:37Z</time>
      </trkpt>
      <trkpt lat="62.634518130429" lon="17.978541912179">
        <ele>240</ele>
        <time>2018-03-24T10:56:38Z</time>
      </trkpt>
      <trkpt lat="62.634534223677" lon="17.978458428455">
        <ele>240</ele>
        <time>2018-03-24T10:56:39Z</time>
      </trkpt>
      <trkpt lat="62.634547215622" lon="17.978367987754">
        <ele>240</ele>
        <time>2018-03-24T10:56:40Z</time>
      </trkpt>
      <trkpt lat="62.634561716309" lon="17.978290706636">
        <ele>240.2</ele>
        <time>2018-03-24T10:56:41Z</time>
      </trkpt>
      <trkpt lat="62.634574372978" lon="17.978191884035">
        <ele>240</ele>
        <time>2018-03-24T10:56:42Z</time>
      </trkpt>
      <trkpt lat="62.634582671059" lon="17.978103622628">
        <ele>240</ele>
        <time>2018-03-24T10:56:43Z</time>
      </trkpt>
      <trkpt lat="62.634599770135" lon="17.978005805855">
        <ele>239.8</ele>
        <time>2018-03-24T10:56:44Z</time>
      </trkpt>
      <trkpt lat="62.634610582786" lon="17.977911593299">
        <ele>239.6</ele>
        <time>2018-03-24T10:56:45Z</time>
      </trkpt>
      <trkpt lat="62.634621646894" lon="17.977834312181">
        <ele>239.4</ele>
        <time>2018-03-24T10:56:46Z</time>
      </trkpt>
      <trkpt lat="62.63463706959" lon="17.977744542032">
        <ele>239.2</ele>
        <time>2018-03-24T10:56:47Z</time>
      </trkpt>
      <trkpt lat="62.634656767055" lon="17.977670529855">
        <ele>239</ele>
        <time>2018-03-24T10:56:48Z</time>
      </trkpt>
      <trkpt lat="62.634676715977" lon="17.977584699199">
        <ele>239</ele>
        <time>2018-03-24T10:56:49Z</time>
      </trkpt>
      <trkpt lat="62.634689372646" lon="17.977502975674">
        <ele>239</ele>
        <time>2018-03-24T10:56:50Z</time>
      </trkpt>
      <trkpt lat="62.634700101478" lon="17.977435166103">
        <ele>239</ele>
        <time>2018-03-24T10:56:51Z</time>
      </trkpt>
      <trkpt lat="62.634714099251" lon="17.977350425094">
        <ele>239</ele>
        <time>2018-03-24T10:56:52Z</time>
      </trkpt>
      <trkpt lat="62.634727761748" lon="17.977284459541">
        <ele>238.8</ele>
        <time>2018-03-24T10:56:53Z</time>
      </trkpt>
      <trkpt lat="62.634742262435" lon="17.977205418224">
        <ele>238.8</ele>
        <time>2018-03-24T10:56:54Z</time>
      </trkpt>
      <trkpt lat="62.634755505837" lon="17.977135513178">
        <ele>238.8</ele>
        <time>2018-03-24T10:56:55Z</time>
      </trkpt>
      <trkpt lat="62.634771012352" lon="17.977053957291">
        <ele>238.6</ele>
        <time>2018-03-24T10:56:56Z</time>
      </trkpt>
      <trkpt lat="62.634780567718" lon="17.976982208227">
        <ele>238.6</ele>
        <time>2018-03-24T10:56:57Z</time>
      </trkpt>
      <trkpt lat="62.634795319862" lon="17.976906938765">
        <ele>238.6</ele>
        <time>2018-03-24T10:56:58Z</time>
      </trkpt>
      <trkpt lat="62.634810994015" lon="17.976817084797">
        <ele>238.6</ele>
        <time>2018-03-24T10:56:59Z</time>
      </trkpt>
      <trkpt lat="62.634824488874" lon="17.976732343788">
        <ele>238.6</ele>
        <time>2018-03-24T10:57:00Z</time>
      </trkpt>
      <trkpt lat="62.634839827751" lon="17.976644501476">
        <ele>238.6</ele>
        <time>2018-03-24T10:57:01Z</time>
      </trkpt>
      <trkpt lat="62.634854663714" lon="17.976563532322">
        <ele>238.6</ele>
        <time>2018-03-24T10:57:02Z</time>
      </trkpt>
      <trkpt lat="62.634873271532" lon="17.976489352507">
        <ele>238.4</ele>
        <time>2018-03-24T10:57:03Z</time>
      </trkpt>
      <trkpt lat="62.63488852659" lon="17.97641701671">
        <ele>238.4</ele>
        <time>2018-03-24T10:57:04Z</time>
      </trkpt>
      <trkpt lat="62.634907553503" lon="17.976338562126">
        <ele>238.2</ele>
        <time>2018-03-24T10:57:05Z</time>
      </trkpt>
      <trkpt lat="62.634931944832" lon="17.976268321804">
        <ele>238.4</ele>
        <time>2018-03-24T10:57:06Z</time>
      </trkpt>
      <trkpt lat="62.634954659781" lon="17.976204535545">
        <ele>238.2</ele>
        <time>2018-03-24T10:57:07Z</time>
      </trkpt>
      <trkpt lat="62.634972010314" lon="17.976153405955">
        <ele>238.2</ele>
        <time>2018-03-24T10:57:08Z</time>
      </trkpt>
      <trkpt lat="62.634994557625" lon="17.976061959426">
        <ele>238.4</ele>
        <time>2018-03-24T10:57:09Z</time>
      </trkpt>
      <trkpt lat="62.635020290058" lon="17.975974117114">
        <ele>238.2</ele>
        <time>2018-03-24T10:57:10Z</time>
      </trkpt>
      <trkpt lat="62.635040322799" lon="17.975902870964">
        <ele>238.2</ele>
        <time>2018-03-24T10:57:11Z</time>
      </trkpt>
      <trkpt lat="62.635056918961" lon="17.975819135783">
        <ele>238</ele>
        <time>2018-03-24T10:57:12Z</time>
      </trkpt>
      <trkpt lat="62.635077873711" lon="17.975737915172">
        <ele>237.8</ele>
        <time>2018-03-24T10:57:13Z</time>
      </trkpt>
      <trkpt lat="62.635092542036" lon="17.97565091105">
        <ele>237.4</ele>
        <time>2018-03-24T10:57:14Z</time>
      </trkpt>
      <trkpt lat="62.63510226504" lon="17.975579916357">
        <ele>237.2</ele>
        <time>2018-03-24T10:57:15Z</time>
      </trkpt>
      <trkpt lat="62.635109138198" lon="17.975503557248">
        <ele>237</ele>
        <time>2018-03-24T10:57:16Z</time>
      </trkpt>
      <trkpt lat="62.635113580605" lon="17.975421330809">
        <ele>237</ele>
        <time>2018-03-24T10:57:17Z</time>
      </trkpt>
      <trkpt lat="62.635117520098" lon="17.975332650307">
        <ele>236.8</ele>
        <time>2018-03-24T10:57:18Z</time>
      </trkpt>
      <trkpt lat="62.635117436279" lon="17.975244221262">
        <ele>236.8</ele>
        <time>2018-03-24T10:57:19Z</time>
      </trkpt>
      <trkpt lat="62.635115592261" lon="17.975172136922">
        <ele>237</ele>
        <time>2018-03-24T10:57:20Z</time>
      </trkpt>
      <trkpt lat="62.635108551465" lon="17.975087144456">
        <ele>236.8</ele>
        <time>2018-03-24T10:57:21Z</time>
      </trkpt>
      <trkpt lat="62.635110227845" lon="17.97502143036">
        <ele>236.6</ele>
        <time>2018-03-24T10:57:22Z</time>
      </trkpt>
      <trkpt lat="62.635098241728" lon="17.974961583594">
        <ele>236.4</ele>
        <time>2018-03-24T10:57:23Z</time>
      </trkpt>
      <trkpt lat="62.635084243955" lon="17.974866951943">
        <ele>236</ele>
        <time>2018-03-24T10:57:24Z</time>
      </trkpt>
      <trkpt lat="62.635057421875" lon="17.974786653341">
        <ele>235.6</ele>
        <time>2018-03-24T10:57:25Z</time>
      </trkpt>
      <trkpt lat="62.635036467125" lon="17.974696380278">
        <ele>235.4</ele>
        <time>2018-03-24T10:57:26Z</time>
      </trkpt>
      <trkpt lat="62.635025319198" lon="17.974610465803">
        <ele>235.2</ele>
        <time>2018-03-24T10:57:27Z</time>
      </trkpt>
      <trkpt lat="62.635020290058" lon="17.974532933228">
        <ele>234.8</ele>
        <time>2018-03-24T10:57:28Z</time>
      </trkpt>
      <trkpt lat="62.635004280629" lon="17.974454143368">
        <ele>234.4</ele>
        <time>2018-03-24T10:57:29Z</time>
      </trkpt>
      <trkpt lat="62.634987181553" lon="17.97439362605">
        <ele>234</ele>
        <time>2018-03-24T10:57:30Z</time>
      </trkpt>
      <trkpt lat="62.634975111617" lon="17.974317686036">
        <ele>233.8</ele>
        <time>2018-03-24T10:57:31Z</time>
      </trkpt>
      <trkpt lat="62.634961365301" lon="17.974232525932">
        <ele>233.4</ele>
        <time>2018-03-24T10:57:32Z</time>
      </trkpt>
      <trkpt lat="62.634939739999" lon="17.974160106316">
        <ele>233.4</ele>
        <time>2018-03-24T10:57:33Z</time>
      </trkpt>
      <trkpt lat="62.634921383638" lon="17.974085675044">
        <ele>233.4</ele>
        <time>2018-03-24T10:57:34Z</time>
      </trkpt>
      <trkpt lat="62.634893388092" lon="17.9740122496">
        <ele>233.4</ele>
        <time>2018-03-24T10:57:35Z</time>
      </trkpt>
      <trkpt lat="62.634857010646" lon="17.973945781133">
        <ele>233.6</ele>
        <time>2018-03-24T10:57:36Z</time>
      </trkpt>
      <trkpt lat="62.634835301525" lon="17.973870846947">
        <ele>233.4</ele>
        <time>2018-03-24T10:57:37Z</time>
      </trkpt>
      <trkpt lat="62.63481811863" lon="17.973800858082">
        <ele>233.4</ele>
        <time>2018-03-24T10:57:38Z</time>
      </trkpt>
      <trkpt lat="62.634796241871" lon="17.973733383787">
        <ele>233.2</ele>
        <time>2018-03-24T10:57:39Z</time>
      </trkpt>
      <trkpt lat="62.6347871056" lon="17.973639171231">
        <ele>233.2</ele>
        <time>2018-03-24T10:57:40Z</time>
      </trkpt>
      <trkpt lat="62.634775035664" lon="17.9735512451">
        <ele>233.2</ele>
        <time>2018-03-24T10:57:41Z</time>
      </trkpt>
      <trkpt lat="62.634769000696" lon="17.973470443584">
        <ele>233</ele>
        <time>2018-03-24T10:57:42Z</time>
      </trkpt>
      <trkpt lat="62.634762127538" lon="17.973395844674">
        <ele>233</ele>
        <time>2018-03-24T10:57:43Z</time>
      </trkpt>
      <trkpt lat="62.634762714271" lon="17.973303895231">
        <ele>232.8</ele>
        <time>2018-03-24T10:57:44Z</time>
      </trkpt>
      <trkpt lat="62.634758523321" lon="17.973201133137">
        <ele>232.8</ele>
        <time>2018-03-24T10:57:45Z</time>
      </trkpt>
      <trkpt lat="62.63476950361" lon="17.973114380472">
        <ele>232.6</ele>
        <time>2018-03-24T10:57:46Z</time>
      </trkpt>
      <trkpt lat="62.634783166107" lon="17.973005331953">
        <ele>232.4</ele>
        <time>2018-03-24T10:57:47Z</time>
      </trkpt>
      <trkpt lat="62.634798924079" lon="17.972919082202">
        <ele>232.4</ele>
        <time>2018-03-24T10:57:48Z</time>
      </trkpt>
      <trkpt lat="62.634817028983" lon="17.972829395872">
        <ele>232.4</ele>
        <time>2018-03-24T10:57:49Z</time>
      </trkpt>
      <trkpt lat="62.634842929054" lon="17.972727555787">
        <ele>232.2</ele>
        <time>2018-03-24T10:57:50Z</time>
      </trkpt>
      <trkpt lat="62.634874193541" lon="17.972651783411">
        <ele>232.2</ele>
        <time>2018-03-24T10:57:51Z</time>
      </trkpt>
      <trkpt lat="62.634892046988" lon="17.97255715176">
        <ele>232.2</ele>
        <time>2018-03-24T10:57:52Z</time>
      </trkpt>
      <trkpt lat="62.634910151892" lon="17.972472746027">
        <ele>232.2</ele>
        <time>2018-03-24T10:57:53Z</time>
      </trkpt>
      <trkpt lat="62.634939823818" lon="17.972402338067">
        <ele>232</ele>
        <time>2018-03-24T10:57:54Z</time>
      </trkpt>
      <trkpt lat="62.634966645898" lon="17.972327739157">
        <ele>232</ele>
        <time>2018-03-24T10:57:55Z</time>
      </trkpt>
      <trkpt lat="62.634974441065" lon="17.972251128591">
        <ele>231.8</ele>
        <time>2018-03-24T10:57:56Z</time>
      </trkpt>
      <trkpt lat="62.634994892901" lon="17.972179044251">
        <ele>231.6</ele>
        <time>2018-03-24T10:57:57Z</time>
      </trkpt>
      <trkpt lat="62.635019703325" lon="17.972093045957">
        <ele>231.4</ele>
        <time>2018-03-24T10:57:58Z</time>
      </trkpt>
      <trkpt lat="62.63504526812" lon="17.971985170904">
        <ele>231.2</ele>
        <time>2018-03-24T10:57:59Z</time>
      </trkpt>
      <trkpt lat="62.63506622287" lon="17.971874194548">
        <ele>231</ele>
        <time>2018-03-24T10:58:00Z</time>
      </trkpt>
      <trkpt lat="62.635082651394" lon="17.971758608147">
        <ele>231</ele>
        <time>2018-03-24T10:58:01Z</time>
      </trkpt>
      <trkpt lat="62.635100672479" lon="17.97164101009">
        <ele>230.8</ele>
        <time>2018-03-24T10:58:02Z</time>
      </trkpt>
      <trkpt lat="62.635108216189" lon="17.971534057046">
        <ele>230.6</ele>
        <time>2018-03-24T10:58:03Z</time>
      </trkpt>
      <trkpt lat="62.635114586433" lon="17.971416207532">
        <ele>230.6</ele>
        <time>2018-03-24T10:58:04Z</time>
      </trkpt>
      <trkpt lat="62.635121962505" lon="17.971308583936">
        <ele>230.2</ele>
        <time>2018-03-24T10:58:05Z</time>
      </trkpt>
      <trkpt lat="62.635129254758" lon="17.971203055815">
        <ele>229.6</ele>
        <time>2018-03-24T10:58:06Z</time>
      </trkpt>
      <trkpt lat="62.63513663083" lon="17.971095180762">
        <ele>229</ele>
        <time>2018-03-24T10:58:07Z</time>
      </trkpt>
      <trkpt lat="62.635142162884" lon="17.971011110305">
        <ele>228.4</ele>
        <time>2018-03-24T10:58:08Z</time>
      </trkpt>
      <trkpt lat="62.635153897544" lon="17.970900217768">
        <ele>227.8</ele>
        <time>2018-03-24T10:58:09Z</time>
      </trkpt>
      <trkpt lat="62.635164961652" lon="17.970804915565">
        <ele>227.2</ele>
        <time>2018-03-24T10:58:10Z</time>
      </trkpt>
      <trkpt lat="62.635176109579" lon="17.970714139588">
        <ele>227</ele>
        <time>2018-03-24T10:58:11Z</time>
      </trkpt>
      <trkpt lat="62.635185413488" lon="17.970626129638">
        <ele>226.8</ele>
        <time>2018-03-24T10:58:12Z</time>
      </trkpt>
      <trkpt lat="62.635191029361" lon="17.970545831036">
        <ele>226.4</ele>
        <time>2018-03-24T10:58:13Z</time>
      </trkpt>
      <trkpt lat="62.635200920003" lon="17.970458156362">
        <ele>226</ele>
        <time>2018-03-24T10:58:14Z</time>
      </trkpt>
      <trkpt lat="62.635209050446" lon="17.970379115045">
        <ele>225.8</ele>
        <time>2018-03-24T10:58:15Z</time>
      </trkpt>
      <trkpt lat="62.63521709707" lon="17.970300241366">
        <ele>225.6</ele>
        <time>2018-03-24T10:58:16Z</time>
      </trkpt>
      <trkpt lat="62.635226903893" lon="17.970220697135">
        <ele>225</ele>
        <time>2018-03-24T10:58:17Z</time>
      </trkpt>
      <trkpt lat="62.635237129811" lon="17.970146098225">
        <ele>224.8</ele>
        <time>2018-03-24T10:58:18Z</time>
      </trkpt>
      <trkpt lat="62.635251965774" lon="17.970056160438">
        <ele>224.6</ele>
        <time>2018-03-24T10:58:19Z</time>
      </trkpt>
      <trkpt lat="62.635269567764" lon="17.969972257619">
        <ele>224.4</ele>
        <time>2018-03-24T10:58:20Z</time>
      </trkpt>
      <trkpt lat="62.635287085935" lon="17.969888103343">
        <ele>224.2</ele>
        <time>2018-03-24T10:58:21Z</time>
      </trkpt>
      <trkpt lat="62.635308543599" lon="17.969804954895">
        <ele>224</ele>
        <time>2018-03-24T10:58:22Z</time>
      </trkpt>
      <trkpt lat="62.63532270901" lon="17.969738989342">
        <ele>224</ele>
        <time>2018-03-24T10:58:23Z</time>
      </trkpt>
      <trkpt lat="62.635345004864" lon="17.96964108875">
        <ele>224</ele>
        <time>2018-03-24T10:58:24Z</time>
      </trkpt>
      <trkpt lat="62.635363864139" lon="17.969561544519">
        <ele>223.6</ele>
        <time>2018-03-24T10:58:25Z</time>
      </trkpt>
      <trkpt lat="62.635384567432" lon="17.969486694152">
        <ele>223.4</ele>
        <time>2018-03-24T10:58:26Z</time>
      </trkpt>
      <trkpt lat="62.635402504698" lon="17.969419136038">
        <ele>223</ele>
        <time>2018-03-24T10:58:27Z</time>
      </trkpt>
      <trkpt lat="62.635422202163" lon="17.969346800241">
        <ele>222.6</ele>
        <time>2018-03-24T10:58:28Z</time>
      </trkpt>
      <trkpt lat="62.63544424656" lon="17.969264657621">
        <ele>222</ele>
        <time>2018-03-24T10:58:29Z</time>
      </trkpt>
      <trkpt lat="62.635466626233" lon="17.969191064539">
        <ele>221.6</ele>
        <time>2018-03-24T10:58:30Z</time>
      </trkpt>
      <trkpt lat="62.635485653146" lon="17.969109089557">
        <ele>221.2</ele>
        <time>2018-03-24T10:58:31Z</time>
      </trkpt>
      <trkpt lat="62.635509038647" lon="17.969024516186">
        <ele>220.8</ele>
        <time>2018-03-24T10:58:32Z</time>
      </trkpt>
      <trkpt lat="62.635529406664" lon="17.968956036063">
        <ele>220.6</ele>
        <time>2018-03-24T10:58:33Z</time>
      </trkpt>
      <trkpt lat="62.635554468545" lon="17.9688741449">
        <ele>220.2</ele>
        <time>2018-03-24T10:58:34Z</time>
      </trkpt>
      <trkpt lat="62.635578524598" lon="17.968798875438">
        <ele>219.6</ele>
        <time>2018-03-24T10:58:35Z</time>
      </trkpt>
      <trkpt lat="62.635603921755" lon="17.968724527985">
        <ele>219</ele>
        <time>2018-03-24T10:58:36Z</time>
      </trkpt>
      <trkpt lat="62.635632923129" lon="17.968658310975">
        <ele>218.6</ele>
        <time>2018-03-24T10:58:37Z</time>
      </trkpt>
      <trkpt lat="62.635659745209" lon="17.968603996263">
        <ele>218.4</ele>
        <time>2018-03-24T10:58:38Z</time>
      </trkpt>
      <trkpt lat="62.635698469587" lon="17.968531073733">
        <ele>217.8</ele>
        <time>2018-03-24T10:58:39Z</time>
      </trkpt>
      <trkpt lat="62.635725124029" lon="17.968492349355">
        <ele>217.6</ele>
        <time>2018-03-24T10:58:40Z</time>
      </trkpt>
      <trkpt lat="62.635768793728" lon="17.968431915856">
        <ele>217.2</ele>
        <time>2018-03-24T10:58:41Z</time>
      </trkpt>
      <trkpt lat="62.63580466826" lon="17.968396963333">
        <ele>216.6</ele>
        <time>2018-03-24T10:58:42Z</time>
      </trkpt>
      <trkpt lat="62.63583819586" lon="17.968375589488">
        <ele>216.2</ele>
        <time>2018-03-24T10:58:43Z</time>
      </trkpt>
      <trkpt lat="62.635876417324" lon="17.968366285579">
        <ele>215.8</ele>
        <time>2018-03-24T10:58:44Z</time>
      </trkpt>
      <trkpt lat="62.635907011259" lon="17.968369386882">
        <ele>215.6</ele>
        <time>2018-03-24T10:58:45Z</time>
      </trkpt>
    </trkseg>
  </trk>
</gpx>